﻿<?xml version="1.0" encoding="utf-8"?><gpx creator="Garmin Desktop App" version="1.1" xsi:schemaLocation="http://www.topografix.com/GPX/1/1 http://www.topografix.com/GPX/1/1/gpx.xsd http://www.garmin.com/xmlschemas/WaypointExtension/v1 http://www8.garmin.com/xmlschemas/WaypointExtensionv1.xsd http://www.garmin.com/xmlschemas/TrackPointExtension/v1 http://www.garmin.com/xmlschemas/TrackPointExtensionv1.xsd http://www.garmin.com/xmlschemas/GpxExtensions/v3 http://www8.garmin.com/xmlschemas/GpxExtensionsv3.xsd http://www.garmin.com/xmlschemas/ActivityExtension/v1 http://www8.garmin.com/xmlschemas/ActivityExtensionv1.xsd http://www.garmin.com/xmlschemas/AdventuresExtensions/v1 http://www8.garmin.com/xmlschemas/AdventuresExtensionv1.xsd http://www.garmin.com/xmlschemas/PressureExtension/v1 http://www.garmin.com/xmlschemas/PressureExtensionv1.xsd http://www.garmin.com/xmlschemas/TripExtensions/v1 http://www.garmin.com/xmlschemas/TripExtensionsv1.xsd http://www.garmin.com/xmlschemas/TripMetaDataExtensions/v1 http://www.garmin.com/xmlschemas/TripMetaDataExtensionsv1.xsd http://www.garmin.com/xmlschemas/ViaPointTransportationModeExtensions/v1 http://www.garmin.com/xmlschemas/ViaPointTransportationModeExtensionsv1.xsd http://www.garmin.com/xmlschemas/CreationTimeExtension/v1 http://www.garmin.com/xmlschemas/CreationTimeExtensionsv1.xsd http://www.garmin.com/xmlschemas/AccelerationExtension/v1 http://www.garmin.com/xmlschemas/AccelerationExtensionv1.xsd http://www.garmin.com/xmlschemas/PowerExtension/v1 http://www.garmin.com/xmlschemas/PowerExtensionv1.xsd http://www.garmin.com/xmlschemas/VideoExtension/v1 http://www.garmin.com/xmlschemas/VideoExtensionv1.xsd" xmlns="http://www.topografix.com/GPX/1/1" xmlns:xsi="http://www.w3.org/2001/XMLSchema-instance" xmlns:wptx1="http://www.garmin.com/xmlschemas/WaypointExtension/v1" xmlns:gpxtrx="http://www.garmin.com/xmlschemas/GpxExtensions/v3" xmlns:gpxtpx="http://www.garmin.com/xmlschemas/TrackPointExtension/v1" xmlns:gpxx="http://www.garmin.com/xmlschemas/GpxExtensions/v3" xmlns:trp="http://www.garmin.com/xmlschemas/TripExtensions/v1" xmlns:adv="http://www.garmin.com/xmlschemas/AdventuresExtensions/v1" xmlns:prs="http://www.garmin.com/xmlschemas/PressureExtension/v1" xmlns:tmd="http://www.garmin.com/xmlschemas/TripMetaDataExtensions/v1" xmlns:vptm="http://www.garmin.com/xmlschemas/ViaPointTransportationModeExtensions/v1" xmlns:ctx="http://www.garmin.com/xmlschemas/CreationTimeExtension/v1" xmlns:gpxacc="http://www.garmin.com/xmlschemas/AccelerationExtension/v1" xmlns:gpxpx="http://www.garmin.com/xmlschemas/PowerExtension/v1" xmlns:vidx1="http://www.garmin.com/xmlschemas/VideoExtension/v1">

  <metadata>
    <link href="http://www.garmin.com">
      <text>Garmin International</text>
    </link>
    <time>2017-01-31T07:51:25Z</time>
    <bounds maxlat="45.889484966173768" maxlon="7.938143340870738" minlat="45.865618083626032" minlon="7.899647355079651" />
  </metadata>

  <trk>
    <name>rifugio-calderini2017-01-29</name>
    <extensions>
      <gpxx:TrackExtension>
        <gpxx:DisplayColor>Yellow</gpxx:DisplayColor>
      </gpxx:TrackExtension>
      <gpxtrkx:TrackStatsExtension xmlns:gpxtrkx="http://www.garmin.com/xmlschemas/TrackStatsExtension/v1">
        <gpxtrkx:Distance>16529</gpxtrkx:Distance>
        <gpxtrkx:TotalElapsedTime>27378</gpxtrkx:TotalElapsedTime>
        <gpxtrkx:MovingTime>15668</gpxtrkx:MovingTime>
        <gpxtrkx:StoppedTime>11658</gpxtrkx:StoppedTime>
        <gpxtrkx:MovingSpeed>1</gpxtrkx:MovingSpeed>
        <gpxtrkx:MaxSpeed>11</gpxtrkx:MaxSpeed>
        <gpxtrkx:MaxElevation>1996</gpxtrkx:MaxElevation>
        <gpxtrkx:MinElevation>1266</gpxtrkx:MinElevation>
        <gpxtrkx:Ascent>780</gpxtrkx:Ascent>
        <gpxtrkx:Descent>783</gpxtrkx:Descent>
        <gpxtrkx:AvgAscentRate>0</gpxtrkx:AvgAscentRate>
        <gpxtrkx:MaxAscentRate>0</gpxtrkx:MaxAscentRate>
        <gpxtrkx:AvgDescentRate>0</gpxtrkx:AvgDescentRate>
        <gpxtrkx:MaxDescentRate>-0</gpxtrkx:MaxDescentRate>
      </gpxtrkx:TrackStatsExtension>
    </extensions>
    <trkseg>
      <trkpt lat="45.865657143294811" lon="7.936763595789671">
        <ele>1269.5599999999999</ele>
        <time>2017-01-29T08:30:11Z</time>
      </trkpt>
      <trkpt lat="45.865659825503826" lon="7.936763428151608">
        <ele>1269.5599999999999</ele>
        <time>2017-01-29T08:30:12Z</time>
      </trkpt>
      <trkpt lat="45.86570743471384" lon="7.93675571680069">
        <ele>1269.5599999999999</ele>
        <time>2017-01-29T08:30:18Z</time>
      </trkpt>
      <trkpt lat="45.865796953439713" lon="7.93680164963007">
        <ele>1270.52</ele>
        <time>2017-01-29T08:30:26Z</time>
      </trkpt>
      <trkpt lat="45.865889405831695" lon="7.93674691580236">
        <ele>1270.52</ele>
        <time>2017-01-29T08:30:36Z</time>
      </trkpt>
      <trkpt lat="45.865908935666084" lon="7.936730906367302">
        <ele>1270.52</ele>
        <time>2017-01-29T08:30:38Z</time>
      </trkpt>
      <trkpt lat="45.86598839610815" lon="7.936687404289842">
        <ele>1271</ele>
        <time>2017-01-29T08:30:46Z</time>
      </trkpt>
      <trkpt lat="45.866117058321834" lon="7.936592772603035">
        <ele>1271</ele>
        <time>2017-01-29T08:30:57Z</time>
      </trkpt>
      <trkpt lat="45.866267262026668" lon="7.936615236103535">
        <ele>1271.48</ele>
        <time>2017-01-29T08:31:09Z</time>
      </trkpt>
      <trkpt lat="45.86638025008142" lon="7.936647506430745">
        <ele>1272.9200000000001</ele>
        <time>2017-01-29T08:31:19Z</time>
      </trkpt>
      <trkpt lat="45.866512265056372" lon="7.936680195853114">
        <ele>1273.4000000000001</ele>
        <time>2017-01-29T08:31:29Z</time>
      </trkpt>
      <trkpt lat="45.866553252562881" lon="7.936683213338256">
        <ele>1273.8800000000001</ele>
        <time>2017-01-29T08:31:33Z</time>
      </trkpt>
      <trkpt lat="45.866585271432996" lon="7.936690589413047">
        <ele>1274.3599999999999</ele>
        <time>2017-01-29T08:31:37Z</time>
      </trkpt>
      <trkpt lat="45.866745617240667" lon="7.936743227764964">
        <ele>1274.8499999999999</ele>
        <time>2017-01-29T08:31:49Z</time>
      </trkpt>
      <trkpt lat="45.866856090724468" lon="7.936812378466129">
        <ele>1275.8099999999999</ele>
        <time>2017-01-29T08:31:58Z</time>
      </trkpt>
      <trkpt lat="45.866987518966198" lon="7.936929557472467">
        <ele>1276.77</ele>
        <time>2017-01-29T08:32:10Z</time>
      </trkpt>
      <trkpt lat="45.867125820368528" lon="7.937077917158604">
        <ele>1278.21</ele>
        <time>2017-01-29T08:32:23Z</time>
      </trkpt>
      <trkpt lat="45.867213327437639" lon="7.937173554673791">
        <ele>1279.6500000000001</ele>
        <time>2017-01-29T08:32:32Z</time>
      </trkpt>
      <trkpt lat="45.867317682132125" lon="7.937326608225703">
        <ele>1281.5699999999999</ele>
        <time>2017-01-29T08:32:44Z</time>
      </trkpt>
      <trkpt lat="45.867324639111757" lon="7.937342450022697">
        <ele>1281.5699999999999</ele>
        <time>2017-01-29T08:32:45Z</time>
      </trkpt>
      <trkpt lat="45.867394460365176" lon="7.937470776960254">
        <ele>1283.5</ele>
        <time>2017-01-29T08:32:55Z</time>
      </trkpt>
      <trkpt lat="45.867411475628614" lon="7.93749013915658">
        <ele>1283.98</ele>
        <time>2017-01-29T08:32:57Z</time>
      </trkpt>
      <trkpt lat="45.867472914978862" lon="7.937539257109165">
        <ele>1284.9400000000001</ele>
        <time>2017-01-29T08:33:03Z</time>
      </trkpt>
      <trkpt lat="45.867510214447975" lon="7.937581250444055">
        <ele>1285.4200000000001</ele>
        <time>2017-01-29T08:33:07Z</time>
      </trkpt>
      <trkpt lat="45.867597134783864" lon="7.937662387266755">
        <ele>1286.8599999999999</ele>
        <time>2017-01-29T08:33:16Z</time>
      </trkpt>
      <trkpt lat="45.867710961028934" lon="7.937793396413326">
        <ele>1287.8199999999999</ele>
        <time>2017-01-29T08:33:28Z</time>
      </trkpt>
      <trkpt lat="45.86782269179821" lon="7.937872856855393">
        <ele>1288.3</ele>
        <time>2017-01-29T08:33:38Z</time>
      </trkpt>
      <trkpt lat="45.867949342355132" lon="7.937901020050049">
        <ele>1289.27</ele>
        <time>2017-01-29T08:33:49Z</time>
      </trkpt>
      <trkpt lat="45.868000639602542" lon="7.937891716137528">
        <ele>1289.27</ele>
        <time>2017-01-29T08:33:53Z</time>
      </trkpt>
      <trkpt lat="45.868154196068645" lon="7.937823738902807">
        <ele>1290.71</ele>
        <time>2017-01-29T08:34:05Z</time>
      </trkpt>
      <trkpt lat="45.868179677054286" lon="7.937808316200972">
        <ele>1291.1900000000001</ele>
        <time>2017-01-29T08:34:07Z</time>
      </trkpt>
      <trkpt lat="45.868330718949437" lon="7.937748469412327">
        <ele>1292.1500000000001</ele>
        <time>2017-01-29T08:34:20Z</time>
      </trkpt>
      <trkpt lat="45.868354020640254" lon="7.937742685899139">
        <ele>1292.6300000000001</ele>
        <time>2017-01-29T08:34:22Z</time>
      </trkpt>
      <trkpt lat="45.868462733924389" lon="7.937873611226678">
        <ele>1293.1099999999999</ele>
        <time>2017-01-29T08:34:34Z</time>
      </trkpt>
      <trkpt lat="45.868476061150432" lon="7.937895068898797">
        <ele>1293.1099999999999</ele>
        <time>2017-01-29T08:34:36Z</time>
      </trkpt>
      <trkpt lat="45.86860598064959" lon="7.938059940934181">
        <ele>1293.1099999999999</ele>
        <time>2017-01-29T08:34:50Z</time>
      </trkpt>
      <trkpt lat="45.868686446920037" lon="7.93803739361465">
        <ele>1293.1099999999999</ele>
        <time>2017-01-29T08:34:56Z</time>
      </trkpt>
      <trkpt lat="45.86876917630434" lon="7.937961453571916">
        <ele>1293.5899999999999</ele>
        <time>2017-01-29T08:35:04Z</time>
      </trkpt>
      <trkpt lat="45.868854252621531" lon="7.937858188524842">
        <ele>1295.03</ele>
        <time>2017-01-29T08:35:14Z</time>
      </trkpt>
      <trkpt lat="45.868886355310678" lon="7.937805969268084">
        <ele>1295.99</ele>
        <time>2017-01-29T08:35:19Z</time>
      </trkpt>
      <trkpt lat="45.868906723335385" lon="7.937784176319838">
        <ele>1296.48</ele>
        <time>2017-01-29T08:35:21Z</time>
      </trkpt>
      <trkpt lat="45.86895483545959" lon="7.937686024233699">
        <ele>1297.9200000000001</ele>
        <time>2017-01-29T08:35:29Z</time>
      </trkpt>
      <trkpt lat="45.869035301730037" lon="7.93760446831584">
        <ele>1298.8800000000001</ele>
        <time>2017-01-29T08:35:38Z</time>
      </trkpt>
      <trkpt lat="45.86913756094873" lon="7.937611509114504">
        <ele>1300.8</ele>
        <time>2017-01-29T08:35:48Z</time>
      </trkpt>
      <trkpt lat="45.869217524304986" lon="7.937660710886121">
        <ele>1301.76</ele>
        <time>2017-01-29T08:35:57Z</time>
      </trkpt>
      <trkpt lat="45.869272258132696" lon="7.937723156064749">
        <ele>1302.24</ele>
        <time>2017-01-29T08:36:04Z</time>
      </trkpt>
      <trkpt lat="45.869358340278268" lon="7.937814267352223">
        <ele>1302.72</ele>
        <time>2017-01-29T08:36:14Z</time>
      </trkpt>
      <trkpt lat="45.86937552317977" lon="7.937828851863742">
        <ele>1303.2</ele>
        <time>2017-01-29T08:36:16Z</time>
      </trkpt>
      <trkpt lat="45.869462611153722" lon="7.937874281778932">
        <ele>1303.6900000000001</ele>
        <time>2017-01-29T08:36:24Z</time>
      </trkpt>
      <trkpt lat="45.869488595053554" lon="7.937879730015993">
        <ele>1303.6900000000001</ele>
        <time>2017-01-29T08:36:27Z</time>
      </trkpt>
      <trkpt lat="45.869537126272917" lon="7.93788299895823">
        <ele>1304.1700000000001</ele>
        <time>2017-01-29T08:36:31Z</time>
      </trkpt>
      <trkpt lat="45.869634775444865" lon="7.937890542671084">
        <ele>1305.6099999999999</ele>
        <time>2017-01-29T08:36:40Z</time>
      </trkpt>
      <trkpt lat="45.869728568941355" lon="7.93790495954454">
        <ele>1306.0899999999999</ele>
        <time>2017-01-29T08:36:49Z</time>
      </trkpt>
      <trkpt lat="45.869829151779413" lon="7.937910156324506">
        <ele>1308.01</ele>
        <time>2017-01-29T08:36:59Z</time>
      </trkpt>
      <trkpt lat="45.869886064901948" lon="7.937910743057728">
        <ele>1308.97</ele>
        <time>2017-01-29T08:37:06Z</time>
      </trkpt>
      <trkpt lat="45.869961669668555" lon="7.93789959512651">
        <ele>1310.4100000000001</ele>
        <time>2017-01-29T08:37:16Z</time>
      </trkpt>
      <trkpt lat="45.870040040463209" lon="7.9379000980407">
        <ele>1311.8599999999999</ele>
        <time>2017-01-29T08:37:27Z</time>
      </trkpt>
      <trkpt lat="45.870169959962368" lon="7.937887357547879">
        <ele>1312.8199999999999</ele>
        <time>2017-01-29T08:37:40Z</time>
      </trkpt>
      <trkpt lat="45.870247408747673" lon="7.937853913754225">
        <ele>1313.78</ele>
        <time>2017-01-29T08:37:49Z</time>
      </trkpt>
      <trkpt lat="45.870354194194078" lon="7.93781116604805">
        <ele>1315.22</ele>
        <time>2017-01-29T08:38:01Z</time>
      </trkpt>
      <trkpt lat="45.870413621887565" lon="7.937804125249386">
        <ele>1316.1800000000001</ele>
        <time>2017-01-29T08:38:07Z</time>
      </trkpt>
      <trkpt lat="45.870490651577711" lon="7.937806556001306">
        <ele>1317.1400000000001</ele>
        <time>2017-01-29T08:38:15Z</time>
      </trkpt>
      <trkpt lat="45.870561227202415" lon="7.93778182938695">
        <ele>1318.0999999999999</ele>
        <time>2017-01-29T08:38:23Z</time>
      </trkpt>
      <trkpt lat="45.87064404040575" lon="7.937755594030023">
        <ele>1319.55</ele>
        <time>2017-01-29T08:38:32Z</time>
      </trkpt>
      <trkpt lat="45.870720818638802" lon="7.937742518261075">
        <ele>1320.51</ele>
        <time>2017-01-29T08:38:39Z</time>
      </trkpt>
      <trkpt lat="45.870830873027444" lon="7.937692645937204">
        <ele>1321.95</ele>
        <time>2017-01-29T08:38:49Z</time>
      </trkpt>
      <trkpt lat="45.870937658473849" lon="7.937648976221681">
        <ele>1322.9100000000001</ele>
        <time>2017-01-29T08:38:59Z</time>
      </trkpt>
      <trkpt lat="45.871062967926264" lon="7.937652077525854">
        <ele>1322.9100000000001</ele>
        <time>2017-01-29T08:39:09Z</time>
      </trkpt>
      <trkpt lat="45.871120383962989" lon="7.937664147466421">
        <ele>1322.9100000000001</ele>
        <time>2017-01-29T08:39:14Z</time>
      </trkpt>
      <trkpt lat="45.871177213266492" lon="7.937674708664417">
        <ele>1323.3900000000001</ele>
        <time>2017-01-29T08:39:18Z</time>
      </trkpt>
      <trkpt lat="45.871209735050797" lon="7.937687449157238">
        <ele>1323.3900000000001</ele>
        <time>2017-01-29T08:39:21Z</time>
      </trkpt>
      <trkpt lat="45.871283495798707" lon="7.937706224620342">
        <ele>1324.3499999999999</ele>
        <time>2017-01-29T08:39:27Z</time>
      </trkpt>
      <trkpt lat="45.871369577944279" lon="7.937750816345215">
        <ele>1325.3099999999999</ele>
        <time>2017-01-29T08:39:35Z</time>
      </trkpt>
      <trkpt lat="45.871495809406042" lon="7.937815776094794">
        <ele>1325.3099999999999</ele>
        <time>2017-01-29T08:39:46Z</time>
      </trkpt>
      <trkpt lat="45.871588848531246" lon="7.937842598184943">
        <ele>1325.3099999999999</ele>
        <time>2017-01-29T08:39:53Z</time>
      </trkpt>
      <trkpt lat="45.871765958145261" lon="7.937898337841034">
        <ele>1325.8</ele>
        <time>2017-01-29T08:40:07Z</time>
      </trkpt>
      <trkpt lat="45.871836952865124" lon="7.937921471893787">
        <ele>1326.28</ele>
        <time>2017-01-29T08:40:13Z</time>
      </trkpt>
      <trkpt lat="45.871975589543581" lon="7.937901103869081">
        <ele>1326.76</ele>
        <time>2017-01-29T08:40:24Z</time>
      </trkpt>
      <trkpt lat="45.872098300606012" lon="7.937796330079436">
        <ele>1327.24</ele>
        <time>2017-01-29T08:40:36Z</time>
      </trkpt>
      <trkpt lat="45.87216904386878" lon="7.937694992870092">
        <ele>1327.72</ele>
        <time>2017-01-29T08:40:44Z</time>
      </trkpt>
      <trkpt lat="45.872184298932552" lon="7.93766456656158">
        <ele>1327.72</ele>
        <time>2017-01-29T08:40:46Z</time>
      </trkpt>
      <trkpt lat="45.872216569259763" lon="7.937606479972601">
        <ele>1327.72</ele>
        <time>2017-01-29T08:40:50Z</time>
      </trkpt>
      <trkpt lat="45.872246157377958" lon="7.937558032572269">
        <ele>1328.2</ele>
        <time>2017-01-29T08:40:54Z</time>
      </trkpt>
      <trkpt lat="45.87228387594223" lon="7.937506483867765">
        <ele>1328.6800000000001</ele>
        <time>2017-01-29T08:40:58Z</time>
      </trkpt>
      <trkpt lat="45.872359229251742" lon="7.937408080324531">
        <ele>1329.6400000000001</ele>
        <time>2017-01-29T08:41:07Z</time>
      </trkpt>
      <trkpt lat="45.872412538155913" lon="7.93733281083405">
        <ele>1330.1199999999999</ele>
        <time>2017-01-29T08:41:12Z</time>
      </trkpt>
      <trkpt lat="45.872515635564923" lon="7.937213201075792">
        <ele>1331.5599999999999</ele>
        <time>2017-01-29T08:41:23Z</time>
      </trkpt>
      <trkpt lat="45.872554443776608" lon="7.937157712876797">
        <ele>1332.52</ele>
        <time>2017-01-29T08:41:28Z</time>
      </trkpt>
      <trkpt lat="45.872568693011999" lon="7.937132148072124">
        <ele>1332.52</ele>
        <time>2017-01-29T08:41:30Z</time>
      </trkpt>
      <trkpt lat="45.872638849541545" lon="7.937087556347251">
        <ele>1333.49</ele>
        <time>2017-01-29T08:41:36Z</time>
      </trkpt>
      <trkpt lat="45.872699953615665" lon="7.937038606032729">
        <ele>1334.45</ele>
        <time>2017-01-29T08:41:42Z</time>
      </trkpt>
      <trkpt lat="45.872760806232691" lon="7.937008515000343">
        <ele>1335.4100000000001</ele>
        <time>2017-01-29T08:41:47Z</time>
      </trkpt>
      <trkpt lat="45.872785029932857" lon="7.936988230794668">
        <ele>1335.4100000000001</ele>
        <time>2017-01-29T08:41:49Z</time>
      </trkpt>
      <trkpt lat="45.872898604720831" lon="7.93690231628716">
        <ele>1336.3699999999999</ele>
        <time>2017-01-29T08:41:59Z</time>
      </trkpt>
      <trkpt lat="45.873032128438354" lon="7.936810031533241">
        <ele>1336.3699999999999</ele>
        <time>2017-01-29T08:42:12Z</time>
      </trkpt>
      <trkpt lat="45.873066242784262" lon="7.936774827539921">
        <ele>1335.8900000000001</ele>
        <time>2017-01-29T08:42:23Z</time>
      </trkpt>
      <trkpt lat="45.873082252219319" lon="7.936733923852444">
        <ele>1335.8900000000001</ele>
        <time>2017-01-29T08:42:35Z</time>
      </trkpt>
      <trkpt lat="45.873135225847363" lon="7.936496129259467">
        <ele>1334.9300000000001</ele>
        <time>2017-01-29T08:42:46Z</time>
      </trkpt>
      <trkpt lat="45.873139081522822" lon="7.936480036005378">
        <ele>1335.4100000000001</ele>
        <time>2017-01-29T08:42:47Z</time>
      </trkpt>
      <trkpt lat="45.873191049322486" lon="7.936368053779006">
        <ele>1337.3299999999999</ele>
        <time>2017-01-29T08:42:57Z</time>
      </trkpt>
      <trkpt lat="45.873220134526491" lon="7.93629102408886">
        <ele>1339.25</ele>
        <time>2017-01-29T08:43:06Z</time>
      </trkpt>
      <trkpt lat="45.873255087062716" lon="7.936257245019078">
        <ele>1339.25</ele>
        <time>2017-01-29T08:43:10Z</time>
      </trkpt>
      <trkpt lat="45.873300097882748" lon="7.936240313574672">
        <ele>1339.73</ele>
        <time>2017-01-29T08:43:14Z</time>
      </trkpt>
      <trkpt lat="45.873363800346851" lon="7.936238385736942">
        <ele>1340.22</ele>
        <time>2017-01-29T08:43:19Z</time>
      </trkpt>
      <trkpt lat="45.873430771753192" lon="7.936226483434439">
        <ele>1340.7</ele>
        <time>2017-01-29T08:43:24Z</time>
      </trkpt>
      <trkpt lat="45.873515596613288" lon="7.936225226148963">
        <ele>1341.6600000000001</ele>
        <time>2017-01-29T08:43:33Z</time>
      </trkpt>
      <trkpt lat="45.873623136430979" lon="7.936213240027428">
        <ele>1342.6199999999999</ele>
        <time>2017-01-29T08:43:43Z</time>
      </trkpt>
      <trkpt lat="45.873680887743831" lon="7.936207121238112">
        <ele>1343.5799999999999</ele>
        <time>2017-01-29T08:43:48Z</time>
      </trkpt>
      <trkpt lat="45.87380301207304" lon="7.936164457350969">
        <ele>1345.02</ele>
        <time>2017-01-29T08:43:59Z</time>
      </trkpt>
      <trkpt lat="45.873881718143821" lon="7.936096983030438">
        <ele>1345.98</ele>
        <time>2017-01-29T08:44:08Z</time>
      </trkpt>
      <trkpt lat="45.873931841924787" lon="7.936048451811075">
        <ele>1346.46</ele>
        <time>2017-01-29T08:44:14Z</time>
      </trkpt>
      <trkpt lat="45.874017002061009" lon="7.935977289453149">
        <ele>1348.3900000000001</ele>
        <time>2017-01-29T08:44:24Z</time>
      </trkpt>
      <trkpt lat="45.874109789729118" lon="7.935897829011083">
        <ele>1349.8299999999999</ele>
        <time>2017-01-29T08:44:35Z</time>
      </trkpt>
      <trkpt lat="45.874207690358162" lon="7.935867989435792">
        <ele>1351.27</ele>
        <time>2017-01-29T08:44:45Z</time>
      </trkpt>
      <trkpt lat="45.874269884079695" lon="7.935844603925943">
        <ele>1352.71</ele>
        <time>2017-01-29T08:44:52Z</time>
      </trkpt>
      <trkpt lat="45.874381866306067" lon="7.935812752693892">
        <ele>1354.1500000000001</ele>
        <time>2017-01-29T08:45:03Z</time>
      </trkpt>
      <trkpt lat="45.874451184645295" lon="7.935783667489886">
        <ele>1355.5999999999999</ele>
        <time>2017-01-29T08:45:12Z</time>
      </trkpt>
      <trkpt lat="45.874547492712736" lon="7.9357691667974">
        <ele>1357.04</ele>
        <time>2017-01-29T08:45:22Z</time>
      </trkpt>
      <trkpt lat="45.874626282602549" lon="7.935762125998735">
        <ele>1358.48</ele>
        <time>2017-01-29T08:45:31Z</time>
      </trkpt>
      <trkpt lat="45.874713622033596" lon="7.935756258666515">
        <ele>1359.9200000000001</ele>
        <time>2017-01-29T08:45:40Z</time>
      </trkpt>
      <trkpt lat="45.874814707785845" lon="7.935727341100574">
        <ele>1361.3599999999999</ele>
        <time>2017-01-29T08:45:51Z</time>
      </trkpt>
      <trkpt lat="45.87490732781589" lon="7.935696914792061">
        <ele>1362.8099999999999</ele>
        <time>2017-01-29T08:46:01Z</time>
      </trkpt>
      <trkpt lat="45.874989638105035" lon="7.935671601444483">
        <ele>1364.25</ele>
        <time>2017-01-29T08:46:10Z</time>
      </trkpt>
      <trkpt lat="45.875007072463632" lon="7.9356724396348">
        <ele>1364.73</ele>
        <time>2017-01-29T08:46:12Z</time>
      </trkpt>
      <trkpt lat="45.875100698322058" lon="7.935638325288892">
        <ele>1366.1700000000001</ele>
        <time>2017-01-29T08:46:22Z</time>
      </trkpt>
      <trkpt lat="45.87511888705194" lon="7.935637151822448">
        <ele>1366.1700000000001</ele>
        <time>2017-01-29T08:46:24Z</time>
      </trkpt>
      <trkpt lat="45.875212596729398" lon="7.93561426922679">
        <ele>1368.0899999999999</ele>
        <time>2017-01-29T08:46:34Z</time>
      </trkpt>
      <trkpt lat="45.875323489308357" lon="7.935584848746657">
        <ele>1369.54</ele>
        <time>2017-01-29T08:46:44Z</time>
      </trkpt>
      <trkpt lat="45.87533195503056" lon="7.935584513470531">
        <ele>1369.54</ele>
        <time>2017-01-29T08:46:45Z</time>
      </trkpt>
      <trkpt lat="45.875395992770791" lon="7.935559619218111">
        <ele>1370.5</ele>
        <time>2017-01-29T08:46:51Z</time>
      </trkpt>
      <trkpt lat="45.87550244294107" lon="7.935509663075209">
        <ele>1371.9400000000001</ele>
        <time>2017-01-29T08:47:02Z</time>
      </trkpt>
      <trkpt lat="45.875588357448578" lon="7.935481080785394">
        <ele>1373.3800000000001</ele>
        <time>2017-01-29T08:47:12Z</time>
      </trkpt>
      <trkpt lat="45.8756700810045" lon="7.935456102713943">
        <ele>1374.8199999999999</ele>
        <time>2017-01-29T08:47:20Z</time>
      </trkpt>
      <trkpt lat="45.875723557546735" lon="7.935430537909269">
        <ele>1375.78</ele>
        <time>2017-01-29T08:47:26Z</time>
      </trkpt>
      <trkpt lat="45.875827828422189" lon="7.935397680848837">
        <ele>1377.23</ele>
        <time>2017-01-29T08:47:36Z</time>
      </trkpt>
      <trkpt lat="45.875862697139382" lon="7.935382509604096">
        <ele>1377.71</ele>
        <time>2017-01-29T08:47:39Z</time>
      </trkpt>
      <trkpt lat="45.875961100682616" lon="7.935345713049173">
        <ele>1378.6700000000001</ele>
        <time>2017-01-29T08:47:48Z</time>
      </trkpt>
      <trkpt lat="45.876043159514666" lon="7.935298103839159">
        <ele>1380.1099999999999</ele>
        <time>2017-01-29T08:47:57Z</time>
      </trkpt>
      <trkpt lat="45.876145167276263" lon="7.935236999765039">
        <ele>1381.55</ele>
        <time>2017-01-29T08:48:08Z</time>
      </trkpt>
      <trkpt lat="45.876164445653558" lon="7.935227528214455">
        <ele>1382.03</ele>
        <time>2017-01-29T08:48:10Z</time>
      </trkpt>
      <trkpt lat="45.876220017671585" lon="7.935191905125976">
        <ele>1382.51</ele>
        <time>2017-01-29T08:48:15Z</time>
      </trkpt>
      <trkpt lat="45.876332586631179" lon="7.935123341158032">
        <ele>1383.96</ele>
        <time>2017-01-29T08:48:26Z</time>
      </trkpt>
      <trkpt lat="45.876341806724668" lon="7.93511688709259">
        <ele>1384.4400000000001</ele>
        <time>2017-01-29T08:48:27Z</time>
      </trkpt>
      <trkpt lat="45.87640936486423" lon="7.935089226812124">
        <ele>1385.4000000000001</ele>
        <time>2017-01-29T08:48:34Z</time>
      </trkpt>
      <trkpt lat="45.876429313793778" lon="7.935082269832492">
        <ele>1385.4000000000001</ele>
        <time>2017-01-29T08:48:36Z</time>
      </trkpt>
      <trkpt lat="45.876493351534009" lon="7.935062823817134">
        <ele>1386.3599999999999</ele>
        <time>2017-01-29T08:48:42Z</time>
      </trkpt>
      <trkpt lat="45.87659502401948" lon="7.935056621208787">
        <ele>1387.3199999999999</ele>
        <time>2017-01-29T08:48:51Z</time>
      </trkpt>
      <trkpt lat="45.876691415905952" lon="7.935045473277569">
        <ele>1388.76</ele>
        <time>2017-01-29T08:49:00Z</time>
      </trkpt>
      <trkpt lat="45.876810690388083" lon="7.935020411387086">
        <ele>1389.72</ele>
        <time>2017-01-29T08:49:11Z</time>
      </trkpt>
      <trkpt lat="45.87690775282681" lon="7.935009095817804">
        <ele>1391.1700000000001</ele>
        <time>2017-01-29T08:49:20Z</time>
      </trkpt>
      <trkpt lat="45.8770118560642" lon="7.93499224819243">
        <ele>1392.1300000000001</ele>
        <time>2017-01-29T08:49:29Z</time>
      </trkpt>
      <trkpt lat="45.877115204930305" lon="7.934982776641846">
        <ele>1393.0899999999999</ele>
        <time>2017-01-29T08:49:39Z</time>
      </trkpt>
      <trkpt lat="45.877190977334976" lon="7.934983363375068">
        <ele>1394.05</ele>
        <time>2017-01-29T08:49:46Z</time>
      </trkpt>
      <trkpt lat="45.877246214076877" lon="7.934963582083583">
        <ele>1394.53</ele>
        <time>2017-01-29T08:49:51Z</time>
      </trkpt>
      <trkpt lat="45.877356352284551" lon="7.93496198952198">
        <ele>1395.49</ele>
        <time>2017-01-29T08:50:01Z</time>
      </trkpt>
      <trkpt lat="45.877448217943311" lon="7.934956206008792">
        <ele>1396.45</ele>
        <time>2017-01-29T08:50:09Z</time>
      </trkpt>
      <trkpt lat="45.877542346715927" lon="7.934941034764051">
        <ele>1397.4100000000001</ele>
        <time>2017-01-29T08:50:18Z</time>
      </trkpt>
      <trkpt lat="45.877563888207078" lon="7.934937011450529">
        <ele>1397.8900000000001</ele>
        <time>2017-01-29T08:50:20Z</time>
      </trkpt>
      <trkpt lat="45.877620633691549" lon="7.934935167431831">
        <ele>1398.8599999999999</ele>
        <time>2017-01-29T08:50:25Z</time>
      </trkpt>
      <trkpt lat="45.877750553190708" lon="7.934934245422483">
        <ele>1399.8199999999999</ele>
        <time>2017-01-29T08:50:37Z</time>
      </trkpt>
      <trkpt lat="45.877791456878185" lon="7.934937179088593">
        <ele>1400.3</ele>
        <time>2017-01-29T08:50:42Z</time>
      </trkpt>
      <trkpt lat="45.877825068309903" lon="7.934944303706288">
        <ele>1400.78</ele>
        <time>2017-01-29T08:50:45Z</time>
      </trkpt>
      <trkpt lat="45.877918610349298" lon="7.934963498264551">
        <ele>1401.74</ele>
        <time>2017-01-29T08:50:54Z</time>
      </trkpt>
      <trkpt lat="45.878006620332599" lon="7.93497514910996">
        <ele>1402.22</ele>
        <time>2017-01-29T08:51:03Z</time>
      </trkpt>
      <trkpt lat="45.878118854016066" lon="7.934928881004453">
        <ele>1403.1800000000001</ele>
        <time>2017-01-29T08:51:13Z</time>
      </trkpt>
      <trkpt lat="45.878237374126911" lon="7.934796866029501">
        <ele>1404.1400000000001</ele>
        <time>2017-01-29T08:51:27Z</time>
      </trkpt>
      <trkpt lat="45.878316247835755" lon="7.93470005504787">
        <ele>1405.0999999999999</ele>
        <time>2017-01-29T08:51:38Z</time>
      </trkpt>
      <trkpt lat="45.878394702449441" lon="7.934631491079927">
        <ele>1406.55</ele>
        <time>2017-01-29T08:51:49Z</time>
      </trkpt>
      <trkpt lat="45.87850408628583" lon="7.934626964852214">
        <ele>1407.51</ele>
        <time>2017-01-29T08:51:59Z</time>
      </trkpt>
      <trkpt lat="45.878569968044758" lon="7.934611542150378">
        <ele>1407.99</ele>
        <time>2017-01-29T08:52:10Z</time>
      </trkpt>
      <trkpt lat="45.878555467352271" lon="7.934566028416157">
        <ele>1408.47</ele>
        <time>2017-01-29T08:52:21Z</time>
      </trkpt>
      <trkpt lat="45.87861162610352" lon="7.934596203267574">
        <ele>1408.47</ele>
        <time>2017-01-29T08:52:30Z</time>
      </trkpt>
      <trkpt lat="45.878666024655104" lon="7.934582205489278">
        <ele>1408.47</ele>
        <time>2017-01-29T08:52:39Z</time>
      </trkpt>
      <trkpt lat="45.878783287480474" lon="7.934498051181436">
        <ele>1407.99</ele>
        <time>2017-01-29T08:52:51Z</time>
      </trkpt>
      <trkpt lat="45.8789287135005" lon="7.934502745047212">
        <ele>1408.47</ele>
        <time>2017-01-29T08:53:02Z</time>
      </trkpt>
      <trkpt lat="45.878987722098827" lon="7.934469636529684">
        <ele>1409.4300000000001</ele>
        <time>2017-01-29T08:53:13Z</time>
      </trkpt>
      <trkpt lat="45.879051256924868" lon="7.934407778084278">
        <ele>1410.8699999999999</ele>
        <time>2017-01-29T08:53:25Z</time>
      </trkpt>
      <trkpt lat="45.87909341789782" lon="7.93436586856842">
        <ele>1411.3499999999999</ele>
        <time>2017-01-29T08:53:33Z</time>
      </trkpt>
      <trkpt lat="45.879152091220021" lon="7.934289425611496">
        <ele>1411.8299999999999</ele>
        <time>2017-01-29T08:53:43Z</time>
      </trkpt>
      <trkpt lat="45.879200706258416" lon="7.934251623228192">
        <ele>1412.3099999999999</ele>
        <time>2017-01-29T08:53:50Z</time>
      </trkpt>
      <trkpt lat="45.879300786182284" lon="7.934218598529697">
        <ele>1412.79</ele>
        <time>2017-01-29T08:54:02Z</time>
      </trkpt>
      <trkpt lat="45.879301624372602" lon="7.934205522760749">
        <ele>1412.3099999999999</ele>
        <time>2017-01-29T08:54:15Z</time>
      </trkpt>
      <trkpt lat="45.879385778680444" lon="7.934132600203157">
        <ele>1412.79</ele>
        <time>2017-01-29T08:54:25Z</time>
      </trkpt>
      <trkpt lat="45.879444787278771" lon="7.934072250500321">
        <ele>1414.24</ele>
        <time>2017-01-29T08:54:34Z</time>
      </trkpt>
      <trkpt lat="45.879454594105482" lon="7.934062024578452">
        <ele>1415.2</ele>
        <time>2017-01-29T08:54:36Z</time>
      </trkpt>
      <trkpt lat="45.879487954080105" lon="7.934010559692979">
        <ele>1416.6400000000001</ele>
        <time>2017-01-29T08:54:46Z</time>
      </trkpt>
      <trkpt lat="45.879491223022342" lon="7.933993292972446">
        <ele>1416.6400000000001</ele>
        <time>2017-01-29T08:54:49Z</time>
      </trkpt>
      <trkpt lat="45.879574790596962" lon="7.933970326557756">
        <ele>1415.6800000000001</ele>
        <time>2017-01-29T08:55:00Z</time>
      </trkpt>
      <trkpt lat="45.879587531089783" lon="7.933970242738724">
        <ele>1415.6800000000001</ele>
        <time>2017-01-29T08:55:01Z</time>
      </trkpt>
      <trkpt lat="45.879607815295458" lon="7.93396127410233">
        <ele>1415.2</ele>
        <time>2017-01-29T08:55:03Z</time>
      </trkpt>
      <trkpt lat="45.879707559943199" lon="7.933943504467607">
        <ele>1415.2</ele>
        <time>2017-01-29T08:55:14Z</time>
      </trkpt>
      <trkpt lat="45.879761623218656" lon="7.933921460062265">
        <ele>1416.1600000000001</ele>
        <time>2017-01-29T08:55:20Z</time>
      </trkpt>
      <trkpt lat="45.879829348996282" lon="7.933878041803837">
        <ele>1416.1600000000001</ele>
        <time>2017-01-29T08:55:27Z</time>
      </trkpt>
      <trkpt lat="45.879928674548864" lon="7.933819619938731">
        <ele>1416.1600000000001</ele>
        <time>2017-01-29T08:55:38Z</time>
      </trkpt>
      <trkpt lat="45.879965638741851" lon="7.933787349611521">
        <ele>1416.6400000000001</ele>
        <time>2017-01-29T08:55:48Z</time>
      </trkpt>
      <trkpt lat="45.880012912675738" lon="7.933774273842573">
        <ele>1418.0799999999999</ele>
        <time>2017-01-29T08:55:57Z</time>
      </trkpt>
      <trkpt lat="45.880070244893432" lon="7.933749798685312">
        <ele>1419.04</ele>
        <time>2017-01-29T08:56:06Z</time>
      </trkpt>
      <trkpt lat="45.880111902952194" lon="7.933746194466949">
        <ele>1420</ele>
        <time>2017-01-29T08:56:15Z</time>
      </trkpt>
      <trkpt lat="45.88014836423099" lon="7.933763796463609">
        <ele>1420.49</ele>
        <time>2017-01-29T08:56:23Z</time>
      </trkpt>
      <trkpt lat="45.880221873521805" lon="7.93378533795476">
        <ele>1421.45</ele>
        <time>2017-01-29T08:56:32Z</time>
      </trkpt>
      <trkpt lat="45.880239978432655" lon="7.933807969093323">
        <ele>1421.45</ele>
        <time>2017-01-29T08:56:43Z</time>
      </trkpt>
      <trkpt lat="45.880240900442004" lon="7.933839485049248">
        <ele>1421.45</ele>
        <time>2017-01-29T08:56:54Z</time>
      </trkpt>
      <trkpt lat="45.880240732803941" lon="7.933859517797828">
        <ele>1420.49</ele>
        <time>2017-01-29T08:57:05Z</time>
      </trkpt>
      <trkpt lat="45.880275098606944" lon="7.933873180299997">
        <ele>1419.52</ele>
        <time>2017-01-29T08:57:16Z</time>
      </trkpt>
      <trkpt lat="45.880318433046341" lon="7.93383764103055">
        <ele>1418.5599999999999</ele>
        <time>2017-01-29T08:57:22Z</time>
      </trkpt>
      <trkpt lat="45.880382722243667" lon="7.933836132287979">
        <ele>1418.5599999999999</ele>
        <time>2017-01-29T08:57:33Z</time>
      </trkpt>
      <trkpt lat="45.880459249019623" lon="7.933802520856261">
        <ele>1419.52</ele>
        <time>2017-01-29T08:57:43Z</time>
      </trkpt>
      <trkpt lat="45.880484059453011" lon="7.933787181973457">
        <ele>1419.52</ele>
        <time>2017-01-29T08:57:54Z</time>
      </trkpt>
      <trkpt lat="45.880523370578885" lon="7.933739069849253">
        <ele>1420.49</ele>
        <time>2017-01-29T08:58:04Z</time>
      </trkpt>
      <trkpt lat="45.880524292588234" lon="7.933707805350423">
        <ele>1420.97</ele>
        <time>2017-01-29T08:58:16Z</time>
      </trkpt>
      <trkpt lat="45.880543068051338" lon="7.933690370991826">
        <ele>1420.97</ele>
        <time>2017-01-29T08:58:37Z</time>
      </trkpt>
      <trkpt lat="45.880538960918784" lon="7.93368810787797">
        <ele>1420.97</ele>
        <time>2017-01-29T08:58:51Z</time>
      </trkpt>
      <trkpt lat="45.880542565137148" lon="7.933669416233897">
        <ele>1421.45</ele>
        <time>2017-01-29T08:59:10Z</time>
      </trkpt>
      <trkpt lat="45.880594281479716" lon="7.933654161170125">
        <ele>1421.45</ele>
        <time>2017-01-29T08:59:21Z</time>
      </trkpt>
      <trkpt lat="45.880632670596242" lon="7.933635385707021">
        <ele>1422.4100000000001</ele>
        <time>2017-01-29T08:59:33Z</time>
      </trkpt>
      <trkpt lat="45.880690505728126" lon="7.933578388765454">
        <ele>1423.8499999999999</ele>
        <time>2017-01-29T08:59:43Z</time>
      </trkpt>
      <trkpt lat="45.88073174469173" lon="7.933511920273304">
        <ele>1422.8900000000001</ele>
        <time>2017-01-29T08:59:52Z</time>
      </trkpt>
      <trkpt lat="45.880773402750492" lon="7.933424161747098">
        <ele>1423.8499999999999</ele>
        <time>2017-01-29T09:00:02Z</time>
      </trkpt>
      <trkpt lat="45.880838194862008" lon="7.933349395170808">
        <ele>1423.8499999999999</ele>
        <time>2017-01-29T09:00:12Z</time>
      </trkpt>
      <trkpt lat="45.880895527079701" lon="7.933278903365135">
        <ele>1423.8499999999999</ele>
        <time>2017-01-29T09:00:22Z</time>
      </trkpt>
      <trkpt lat="45.880941459909081" lon="7.933197095990181">
        <ele>1423.8499999999999</ele>
        <time>2017-01-29T09:00:31Z</time>
      </trkpt>
      <trkpt lat="45.880950763821602" lon="7.933181002736092">
        <ele>1424.3299999999999</ele>
        <time>2017-01-29T09:00:33Z</time>
      </trkpt>
      <trkpt lat="45.880994433537126" lon="7.933167926967144">
        <ele>1424.3299999999999</ele>
        <time>2017-01-29T09:00:38Z</time>
      </trkpt>
      <trkpt lat="45.881044222041965" lon="7.933117132633925">
        <ele>1425.29</ele>
        <time>2017-01-29T09:00:47Z</time>
      </trkpt>
      <trkpt lat="45.88108504191041" lon="7.933044545352459">
        <ele>1425.77</ele>
        <time>2017-01-29T09:00:55Z</time>
      </trkpt>
      <trkpt lat="45.881119826808572" lon="7.932923175394535">
        <ele>1426.73</ele>
        <time>2017-01-29T09:01:06Z</time>
      </trkpt>
      <trkpt lat="45.881175231188536" lon="7.93280272744596">
        <ele>1427.7</ele>
        <time>2017-01-29T09:01:18Z</time>
      </trkpt>
      <trkpt lat="45.881192665547132" lon="7.932758387178183">
        <ele>1427.7</ele>
        <time>2017-01-29T09:01:22Z</time>
      </trkpt>
      <trkpt lat="45.881197275593877" lon="7.932719998061657">
        <ele>1428.1800000000001</ele>
        <time>2017-01-29T09:01:25Z</time>
      </trkpt>
      <trkpt lat="45.881205322220922" lon="7.932616900652647">
        <ele>1428.6600000000001</ele>
        <time>2017-01-29T09:01:34Z</time>
      </trkpt>
      <trkpt lat="45.88126583956182" lon="7.932506762444973">
        <ele>1428.1800000000001</ele>
        <time>2017-01-29T09:01:45Z</time>
      </trkpt>
      <trkpt lat="45.881306240335107" lon="7.932390086352825">
        <ele>1428.6600000000001</ele>
        <time>2017-01-29T09:01:55Z</time>
      </trkpt>
      <trkpt lat="45.881399363279343" lon="7.932297801598907">
        <ele>1428.6600000000001</ele>
        <time>2017-01-29T09:02:08Z</time>
      </trkpt>
      <trkpt lat="45.881453091278672" lon="7.932187998667359">
        <ele>1429.1400000000001</ele>
        <time>2017-01-29T09:02:20Z</time>
      </trkpt>
      <trkpt lat="45.881508747115731" lon="7.932102251797915">
        <ele>1430.0999999999999</ele>
        <time>2017-01-29T09:02:30Z</time>
      </trkpt>
      <trkpt lat="45.881507657468319" lon="7.931995550170541">
        <ele>1431.0599999999999</ele>
        <time>2017-01-29T09:02:39Z</time>
      </trkpt>
      <trkpt lat="45.881549818441272" lon="7.931895302608609">
        <ele>1432.02</ele>
        <time>2017-01-29T09:02:49Z</time>
      </trkpt>
      <trkpt lat="45.88165576569736" lon="7.9318025149405">
        <ele>1432.5</ele>
        <time>2017-01-29T09:03:01Z</time>
      </trkpt>
      <trkpt lat="45.881754504516721" lon="7.931733280420303">
        <ele>1432.5</ele>
        <time>2017-01-29T09:03:15Z</time>
      </trkpt>
      <trkpt lat="45.881760455667973" lon="7.931724730879068">
        <ele>1432.5</ele>
        <time>2017-01-29T09:03:26Z</time>
      </trkpt>
      <trkpt lat="45.881786774843931" lon="7.93170528486371">
        <ele>1432.98</ele>
        <time>2017-01-29T09:03:37Z</time>
      </trkpt>
      <trkpt lat="45.881831869482994" lon="7.931677540764213">
        <ele>1433.9400000000001</ele>
        <time>2017-01-29T09:03:48Z</time>
      </trkpt>
      <trkpt lat="45.881836982443929" lon="7.931682066991925">
        <ele>1434.4200000000001</ele>
        <time>2017-01-29T09:03:57Z</time>
      </trkpt>
      <trkpt lat="45.881851566955447" lon="7.931732526049018">
        <ele>1432.98</ele>
        <time>2017-01-29T09:04:07Z</time>
      </trkpt>
      <trkpt lat="45.881852153688669" lon="7.931718360632658">
        <ele>1432.98</ele>
        <time>2017-01-29T09:04:30Z</time>
      </trkpt>
      <trkpt lat="45.881851650774479" lon="7.931726323440671">
        <ele>1433.9400000000001</ele>
        <time>2017-01-29T09:04:40Z</time>
      </trkpt>
      <trkpt lat="45.881870593875647" lon="7.931731771677733">
        <ele>1433.9400000000001</ele>
        <time>2017-01-29T09:04:50Z</time>
      </trkpt>
      <trkpt lat="45.881874449551105" lon="7.931730765849352">
        <ele>1434.4200000000001</ele>
        <time>2017-01-29T09:05:02Z</time>
      </trkpt>
      <trkpt lat="45.881868246942759" lon="7.931670835241675">
        <ele>1434.4200000000001</ele>
        <time>2017-01-29T09:05:14Z</time>
      </trkpt>
      <trkpt lat="45.881867492571473" lon="7.931743422523141">
        <ele>1433.9400000000001</ele>
        <time>2017-01-29T09:05:26Z</time>
      </trkpt>
      <trkpt lat="45.881855925545096" lon="7.931739902123809">
        <ele>1434.4200000000001</ele>
        <time>2017-01-29T09:05:39Z</time>
      </trkpt>
      <trkpt lat="45.881872270256281" lon="7.931731687858701">
        <ele>1434.9100000000001</ele>
        <time>2017-01-29T09:05:49Z</time>
      </trkpt>
      <trkpt lat="45.881887776777148" lon="7.931739147752523">
        <ele>1434.9100000000001</ele>
        <time>2017-01-29T09:06:01Z</time>
      </trkpt>
      <trkpt lat="45.881918454542756" lon="7.931712158024311">
        <ele>1435.3900000000001</ele>
        <time>2017-01-29T09:06:15Z</time>
      </trkpt>
      <trkpt lat="45.881931530311704" lon="7.931697992607951">
        <ele>1435.3900000000001</ele>
        <time>2017-01-29T09:06:17Z</time>
      </trkpt>
      <trkpt lat="45.882014343515038" lon="7.931659435853362">
        <ele>1436.8299999999999</ele>
        <time>2017-01-29T09:06:26Z</time>
      </trkpt>
      <trkpt lat="45.882071256637573" lon="7.931620962917805">
        <ele>1438.75</ele>
        <time>2017-01-29T09:06:36Z</time>
      </trkpt>
      <trkpt lat="45.882105957716703" lon="7.931619202718139">
        <ele>1439.71</ele>
        <time>2017-01-29T09:06:47Z</time>
      </trkpt>
      <trkpt lat="45.882120206952095" lon="7.93162657879293">
        <ele>1439.71</ele>
        <time>2017-01-29T09:07:01Z</time>
      </trkpt>
      <trkpt lat="45.882178628817201" lon="7.931630350649357">
        <ele>1440.1900000000001</ele>
        <time>2017-01-29T09:07:15Z</time>
      </trkpt>
      <trkpt lat="45.882230848073959" lon="7.93167938478291">
        <ele>1441.1500000000001</ele>
        <time>2017-01-29T09:07:25Z</time>
      </trkpt>
      <trkpt lat="45.882265632972121" lon="7.931702267378569">
        <ele>1441.6300000000001</ele>
        <time>2017-01-29T09:07:30Z</time>
      </trkpt>
      <trkpt lat="45.882316008210182" lon="7.931747697293758">
        <ele>1442.5999999999999</ele>
        <time>2017-01-29T09:07:39Z</time>
      </trkpt>
      <trkpt lat="45.882368059828877" lon="7.931806119158864">
        <ele>1444.52</ele>
        <time>2017-01-29T09:07:50Z</time>
      </trkpt>
      <trkpt lat="45.882386332377791" lon="7.931821625679731">
        <ele>1445.48</ele>
        <time>2017-01-29T09:07:53Z</time>
      </trkpt>
      <trkpt lat="45.882457075640559" lon="7.931862780824304">
        <ele>1446.9200000000001</ele>
        <time>2017-01-29T09:08:03Z</time>
      </trkpt>
      <trkpt lat="45.882486663758755" lon="7.931871162727475">
        <ele>1447.8800000000001</ele>
        <time>2017-01-29T09:08:12Z</time>
      </trkpt>
      <trkpt lat="45.88246101513505" lon="7.931870659813285">
        <ele>1447.8800000000001</ele>
        <time>2017-01-29T09:08:23Z</time>
      </trkpt>
      <trkpt lat="45.882455985993147" lon="7.931865714490414">
        <ele>1447.4000000000001</ele>
        <time>2017-01-29T09:08:37Z</time>
      </trkpt>
      <trkpt lat="45.882466128095984" lon="7.931868061423302">
        <ele>1447.4000000000001</ele>
        <time>2017-01-29T09:08:53Z</time>
      </trkpt>
      <trkpt lat="45.882432432845235" lon="7.931814920157194">
        <ele>1448.8399999999999</ele>
        <time>2017-01-29T09:09:03Z</time>
      </trkpt>
      <trkpt lat="45.882431091740727" lon="7.931778375059366">
        <ele>1449.3199999999999</ele>
        <time>2017-01-29T09:09:13Z</time>
      </trkpt>
      <trkpt lat="45.882482137531042" lon="7.931819949299097">
        <ele>1450.77</ele>
        <time>2017-01-29T09:09:24Z</time>
      </trkpt>
      <trkpt lat="45.882523208856583" lon="7.931816931813955">
        <ele>1451.73</ele>
        <time>2017-01-29T09:09:34Z</time>
      </trkpt>
      <trkpt lat="45.882558831945062" lon="7.931815758347511">
        <ele>1452.6900000000001</ele>
        <time>2017-01-29T09:09:43Z</time>
      </trkpt>
      <trkpt lat="45.882581127807498" lon="7.931812321767211">
        <ele>1453.1700000000001</ele>
        <time>2017-01-29T09:09:51Z</time>
      </trkpt>
      <trkpt lat="45.882595963776112" lon="7.93179664760828">
        <ele>1453.6500000000001</ele>
        <time>2017-01-29T09:10:10Z</time>
      </trkpt>
      <trkpt lat="45.88263837620616" lon="7.931774016469717">
        <ele>1455.0899999999999</ele>
        <time>2017-01-29T09:10:22Z</time>
      </trkpt>
      <trkpt lat="45.882656816393137" lon="7.931743590161204">
        <ele>1456.05</ele>
        <time>2017-01-29T09:10:30Z</time>
      </trkpt>
      <trkpt lat="45.882704928517342" lon="7.931793378666043">
        <ele>1457.5</ele>
        <time>2017-01-29T09:10:40Z</time>
      </trkpt>
      <trkpt lat="45.882743317633867" lon="7.931792289018631">
        <ele>1458.46</ele>
        <time>2017-01-29T09:10:50Z</time>
      </trkpt>
      <trkpt lat="45.882751615718007" lon="7.931729843840003">
        <ele>1460.3800000000001</ele>
        <time>2017-01-29T09:10:58Z</time>
      </trkpt>
      <trkpt lat="45.882753543555737" lon="7.931706290692091">
        <ele>1461.3399999999999</ele>
        <time>2017-01-29T09:11:08Z</time>
      </trkpt>
      <trkpt lat="45.882744155824184" lon="7.931665638461709">
        <ele>1462.78</ele>
        <time>2017-01-29T09:11:18Z</time>
      </trkpt>
      <trkpt lat="45.882733929902315" lon="7.931654239073396">
        <ele>1463.74</ele>
        <time>2017-01-29T09:11:29Z</time>
      </trkpt>
      <trkpt lat="45.882711131125689" lon="7.931636217981577">
        <ele>1465.1900000000001</ele>
        <time>2017-01-29T09:11:38Z</time>
      </trkpt>
      <trkpt lat="45.882683806121349" lon="7.931587351486087">
        <ele>1466.6300000000001</ele>
        <time>2017-01-29T09:11:49Z</time>
      </trkpt>
      <trkpt lat="45.882661929354072" lon="7.931501101702452">
        <ele>1467.5899999999999</ele>
        <time>2017-01-29T09:12:01Z</time>
      </trkpt>
      <trkpt lat="45.882648685947061" lon="7.931454665958881">
        <ele>1469.03</ele>
        <time>2017-01-29T09:12:10Z</time>
      </trkpt>
      <trkpt lat="45.882689673453569" lon="7.931443015113473">
        <ele>1469.99</ele>
        <time>2017-01-29T09:12:20Z</time>
      </trkpt>
      <trkpt lat="45.882739378139377" lon="7.931449552997947">
        <ele>1471.4400000000001</ele>
        <time>2017-01-29T09:12:30Z</time>
      </trkpt>
      <trkpt lat="45.882788999006152" lon="7.931466987356544">
        <ele>1472.8800000000001</ele>
        <time>2017-01-29T09:12:40Z</time>
      </trkpt>
      <trkpt lat="45.882821856066585" lon="7.931468831375241">
        <ele>1472.8800000000001</ele>
        <time>2017-01-29T09:12:50Z</time>
      </trkpt>
      <trkpt lat="45.88285194709897" lon="7.931500598788261">
        <ele>1474.8</ele>
        <time>2017-01-29T09:13:01Z</time>
      </trkpt>
      <trkpt lat="45.882863514125347" lon="7.931516608223319">
        <ele>1475.28</ele>
        <time>2017-01-29T09:13:11Z</time>
      </trkpt>
      <trkpt lat="45.882889414206147" lon="7.931498335674405">
        <ele>1476.24</ele>
        <time>2017-01-29T09:13:19Z</time>
      </trkpt>
      <trkpt lat="45.882868710905313" lon="7.931496826931834">
        <ele>1476.24</ele>
        <time>2017-01-29T09:13:35Z</time>
      </trkpt>
      <trkpt lat="45.882879020646214" lon="7.931513926014304">
        <ele>1476.72</ele>
        <time>2017-01-29T09:13:45Z</time>
      </trkpt>
      <trkpt lat="45.882869632914662" lon="7.931530606001616">
        <ele>1476.24</ele>
        <time>2017-01-29T09:13:57Z</time>
      </trkpt>
      <trkpt lat="45.882876673713326" lon="7.931548543274403">
        <ele>1476.24</ele>
        <time>2017-01-29T09:14:10Z</time>
      </trkpt>
      <trkpt lat="45.882860915735364" lon="7.931565390899777">
        <ele>1476.24</ele>
        <time>2017-01-29T09:14:19Z</time>
      </trkpt>
      <trkpt lat="45.88286611251533" lon="7.931551141664386">
        <ele>1476.24</ele>
        <time>2017-01-29T09:14:23Z</time>
      </trkpt>
      <trkpt lat="45.882898466661572" lon="7.931492049247026">
        <ele>1477.6800000000001</ele>
        <time>2017-01-29T09:14:33Z</time>
      </trkpt>
      <trkpt lat="45.882939537987113" lon="7.931460365653038">
        <ele>1478.1600000000001</ele>
        <time>2017-01-29T09:14:44Z</time>
      </trkpt>
      <trkpt lat="45.882977591827512" lon="7.931434633210301">
        <ele>1479.6099999999999</ele>
        <time>2017-01-29T09:14:55Z</time>
      </trkpt>
      <trkpt lat="45.882993182167411" lon="7.931434968486428">
        <ele>1479.6099999999999</ele>
        <time>2017-01-29T09:15:09Z</time>
      </trkpt>
      <trkpt lat="45.882948003709316" lon="7.931476794183254">
        <ele>1479.6099999999999</ele>
        <time>2017-01-29T09:15:24Z</time>
      </trkpt>
      <trkpt lat="45.882936185225844" lon="7.931485930457711">
        <ele>1480.0899999999999</ele>
        <time>2017-01-29T09:15:32Z</time>
      </trkpt>
      <trkpt lat="45.882926294580102" lon="7.931463047862053">
        <ele>1481.05</ele>
        <time>2017-01-29T09:15:44Z</time>
      </trkpt>
      <trkpt lat="45.882948925718665" lon="7.931463299319148">
        <ele>1481.05</ele>
        <time>2017-01-29T09:16:01Z</time>
      </trkpt>
      <trkpt lat="45.882967114448547" lon="7.931461622938514">
        <ele>1481.05</ele>
        <time>2017-01-29T09:16:17Z</time>
      </trkpt>
      <trkpt lat="45.882950266823173" lon="7.931467406451702">
        <ele>1481.05</ele>
        <time>2017-01-29T09:16:31Z</time>
      </trkpt>
      <trkpt lat="45.882921600714326" lon="7.931494228541851">
        <ele>1481.05</ele>
        <time>2017-01-29T09:16:47Z</time>
      </trkpt>
      <trkpt lat="45.882881702855229" lon="7.93153177946806">
        <ele>1481.05</ele>
        <time>2017-01-29T09:17:03Z</time>
      </trkpt>
      <trkpt lat="45.882922019809484" lon="7.9315469507128">
        <ele>1481.05</ele>
        <time>2017-01-29T09:17:17Z</time>
      </trkpt>
      <trkpt lat="45.882907519116998" lon="7.931540496647358">
        <ele>1481.05</ele>
        <time>2017-01-29T09:17:36Z</time>
      </trkpt>
      <trkpt lat="45.882892347872257" lon="7.931554662063718">
        <ele>1481.05</ele>
        <time>2017-01-29T09:17:57Z</time>
      </trkpt>
      <trkpt lat="45.88286611251533" lon="7.931592548266053">
        <ele>1481.05</ele>
        <time>2017-01-29T09:18:18Z</time>
      </trkpt>
      <trkpt lat="45.882885809987783" lon="7.931603277102113">
        <ele>1483.45</ele>
        <time>2017-01-29T09:18:34Z</time>
      </trkpt>
      <trkpt lat="45.882885977625847" lon="7.931602522730827">
        <ele>1479.6099999999999</ele>
        <time>2017-01-29T09:18:35Z</time>
      </trkpt>
      <trkpt lat="45.882886312901974" lon="7.931601768359542">
        <ele>1482.01</ele>
        <time>2017-01-29T09:18:36Z</time>
      </trkpt>
      <trkpt lat="45.882873656228185" lon="7.93159045279026">
        <ele>1480.5699999999999</ele>
        <time>2017-01-29T09:18:48Z</time>
      </trkpt>
      <trkpt lat="45.882887234911323" lon="7.931610653176904">
        <ele>1481.53</ele>
        <time>2017-01-29T09:19:12Z</time>
      </trkpt>
      <trkpt lat="45.882870052009821" lon="7.931583328172565">
        <ele>1481.53</ele>
        <time>2017-01-29T09:19:33Z</time>
      </trkpt>
      <trkpt lat="45.882890000939369" lon="7.931611239910126">
        <ele>1481.53</ele>
        <time>2017-01-29T09:19:58Z</time>
      </trkpt>
      <trkpt lat="45.882855551317334" lon="7.931633032858372">
        <ele>1482.97</ele>
        <time>2017-01-29T09:20:15Z</time>
      </trkpt>
      <trkpt lat="45.882845325395465" lon="7.931622387841344">
        <ele>1481.05</ele>
        <time>2017-01-29T09:20:17Z</time>
      </trkpt>
      <trkpt lat="45.882822778075933" lon="7.93160118162632">
        <ele>1482.01</ele>
        <time>2017-01-29T09:20:36Z</time>
      </trkpt>
      <trkpt lat="45.882824202999473" lon="7.931646862998605">
        <ele>1483.45</ele>
        <time>2017-01-29T09:20:48Z</time>
      </trkpt>
      <trkpt lat="45.882806684821844" lon="7.931622890755534">
        <ele>1482.49</ele>
        <time>2017-01-29T09:21:17Z</time>
      </trkpt>
      <trkpt lat="45.882831579074264" lon="7.931666979566217">
        <ele>1482.49</ele>
        <time>2017-01-29T09:21:39Z</time>
      </trkpt>
      <trkpt lat="45.882797380909324" lon="7.931660274043679">
        <ele>1482.49</ele>
        <time>2017-01-29T09:21:59Z</time>
      </trkpt>
      <trkpt lat="45.88282261043787" lon="7.931657424196601">
        <ele>1482.97</ele>
        <time>2017-01-29T09:22:20Z</time>
      </trkpt>
      <trkpt lat="45.882811797782779" lon="7.931651473045349">
        <ele>1482.97</ele>
        <time>2017-01-29T09:22:33Z</time>
      </trkpt>
      <trkpt lat="45.882882121950388" lon="7.931596823036671">
        <ele>1483.45</ele>
        <time>2017-01-29T09:22:51Z</time>
      </trkpt>
      <trkpt lat="45.882847253233194" lon="7.931596739217639">
        <ele>1483.45</ele>
        <time>2017-01-29T09:23:07Z</time>
      </trkpt>
      <trkpt lat="45.882832584902644" lon="7.931630434468389">
        <ele>1483.45</ele>
        <time>2017-01-29T09:23:23Z</time>
      </trkpt>
      <trkpt lat="45.882819257676601" lon="7.931617358699441">
        <ele>1483.45</ele>
        <time>2017-01-29T09:23:34Z</time>
      </trkpt>
      <trkpt lat="45.882821604609489" lon="7.93159481137991">
        <ele>1483.9300000000001</ele>
        <time>2017-01-29T09:23:49Z</time>
      </trkpt>
      <trkpt lat="45.882808193564415" lon="7.931596403941512">
        <ele>1484.4100000000001</ele>
        <time>2017-01-29T09:24:01Z</time>
      </trkpt>
      <trkpt lat="45.882831998169422" lon="7.931547118350864">
        <ele>1486.3399999999999</ele>
        <time>2017-01-29T09:24:12Z</time>
      </trkpt>
      <trkpt lat="45.88286510668695" lon="7.931510824710131">
        <ele>1488.26</ele>
        <time>2017-01-29T09:24:21Z</time>
      </trkpt>
      <trkpt lat="45.882876254618168" lon="7.931468831375241">
        <ele>1490.1800000000001</ele>
        <time>2017-01-29T09:24:32Z</time>
      </trkpt>
      <trkpt lat="45.882919169962406" lon="7.931431028991938">
        <ele>1491.6199999999999</ele>
        <time>2017-01-29T09:24:42Z</time>
      </trkpt>
      <trkpt lat="45.882981866598129" lon="7.931411415338516">
        <ele>1494.51</ele>
        <time>2017-01-29T09:24:50Z</time>
      </trkpt>
      <trkpt lat="45.883034756407142" lon="7.931366739794612">
        <ele>1494.03</ele>
        <time>2017-01-29T09:24:55Z</time>
      </trkpt>
      <trkpt lat="45.883042719215155" lon="7.931332541629672">
        <ele>1494.99</ele>
        <time>2017-01-29T09:25:05Z</time>
      </trkpt>
      <trkpt lat="45.883011538535357" lon="7.931324411183596">
        <ele>1496.4300000000001</ele>
        <time>2017-01-29T09:25:14Z</time>
      </trkpt>
      <trkpt lat="45.88301463983953" lon="7.931287614628673">
        <ele>1497.3900000000001</ele>
        <time>2017-01-29T09:25:22Z</time>
      </trkpt>
      <trkpt lat="45.883056130260229" lon="7.931263977661729">
        <ele>1499.79</ele>
        <time>2017-01-29T09:25:32Z</time>
      </trkpt>
      <trkpt lat="45.883114216849208" lon="7.931239083409309">
        <ele>1500.27</ele>
        <time>2017-01-29T09:25:43Z</time>
      </trkpt>
      <trkpt lat="45.883101308718324" lon="7.931224247440696">
        <ele>1501.24</ele>
        <time>2017-01-29T09:25:53Z</time>
      </trkpt>
      <trkpt lat="45.883091920986772" lon="7.931247549131513">
        <ele>1501.24</ele>
        <time>2017-01-29T09:26:10Z</time>
      </trkpt>
      <trkpt lat="45.883085047826171" lon="7.931226175278425">
        <ele>1502.2</ele>
        <time>2017-01-29T09:26:23Z</time>
      </trkpt>
      <trkpt lat="45.883076246827841" lon="7.931193904951215">
        <ele>1503.6400000000001</ele>
        <time>2017-01-29T09:26:31Z</time>
      </trkpt>
      <trkpt lat="45.883092759177089" lon="7.931149229407311">
        <ele>1505.5599999999999</ele>
        <time>2017-01-29T09:26:42Z</time>
      </trkpt>
      <trkpt lat="45.883141038939357" lon="7.931104218587279">
        <ele>1507.97</ele>
        <time>2017-01-29T09:26:54Z</time>
      </trkpt>
      <trkpt lat="45.883153192698956" lon="7.931055938825011">
        <ele>1508.9300000000001</ele>
        <time>2017-01-29T09:27:01Z</time>
      </trkpt>
      <trkpt lat="45.883189402520657" lon="7.930998355150223">
        <ele>1510.3699999999999</ele>
        <time>2017-01-29T09:27:11Z</time>
      </trkpt>
      <trkpt lat="45.883237766101956" lon="7.930932305753231">
        <ele>1513.25</ele>
        <time>2017-01-29T09:27:24Z</time>
      </trkpt>
      <trkpt lat="45.883241286501288" lon="7.930879248306155">
        <ele>1515.6600000000001</ele>
        <time>2017-01-29T09:27:37Z</time>
      </trkpt>
      <trkpt lat="45.883312448859215" lon="7.930859550833702">
        <ele>1517.0999999999999</ele>
        <time>2017-01-29T09:27:48Z</time>
      </trkpt>
      <trkpt lat="45.883362572640181" lon="7.930865753442049">
        <ele>1519.02</ele>
        <time>2017-01-29T09:27:58Z</time>
      </trkpt>
      <trkpt lat="45.883347317576408" lon="7.930843709036708">
        <ele>1519.5</ele>
        <time>2017-01-29T09:28:07Z</time>
      </trkpt>
      <trkpt lat="45.883341953158379" lon="7.930838847532868">
        <ele>1520.46</ele>
        <time>2017-01-29T09:28:22Z</time>
      </trkpt>
      <trkpt lat="45.883345641195774" lon="7.930793585255742">
        <ele>1521.9000000000001</ele>
        <time>2017-01-29T09:28:31Z</time>
      </trkpt>
      <trkpt lat="45.883398614823818" lon="7.930788891389966">
        <ele>1522.8699999999999</ele>
        <time>2017-01-29T09:28:38Z</time>
      </trkpt>
      <trkpt lat="45.883463574573398" lon="7.930740946903825">
        <ele>1524.79</ele>
        <time>2017-01-29T09:28:49Z</time>
      </trkpt>
      <trkpt lat="45.883501376956701" lon="7.930662240833044">
        <ele>1527.1900000000001</ele>
        <time>2017-01-29T09:29:01Z</time>
      </trkpt>
      <trkpt lat="45.88355703279376" lon="7.930640112608671">
        <ele>1529.1099999999999</ele>
        <time>2017-01-29T09:29:12Z</time>
      </trkpt>
      <trkpt lat="45.883566420525312" lon="7.930693840608001">
        <ele>1530.0799999999999</ele>
        <time>2017-01-29T09:29:22Z</time>
      </trkpt>
      <trkpt lat="45.883633643388748" lon="7.930617900565267">
        <ele>1532.48</ele>
        <time>2017-01-29T09:29:33Z</time>
      </trkpt>
      <trkpt lat="45.883585195988417" lon="7.930585965514183">
        <ele>1533.4400000000001</ele>
        <time>2017-01-29T09:29:42Z</time>
      </trkpt>
      <trkpt lat="45.883552422747016" lon="7.930539445951581">
        <ele>1534.8800000000001</ele>
        <time>2017-01-29T09:29:54Z</time>
      </trkpt>
      <trkpt lat="45.883550411090255" lon="7.93048613704741">
        <ele>1536.8</ele>
        <time>2017-01-29T09:30:07Z</time>
      </trkpt>
      <trkpt lat="45.883596763014793" lon="7.930456548929215">
        <ele>1538.73</ele>
        <time>2017-01-29T09:30:18Z</time>
      </trkpt>
      <trkpt lat="45.883679408580065" lon="7.930463505908847">
        <ele>1541.1300000000001</ele>
        <time>2017-01-29T09:30:31Z</time>
      </trkpt>
      <trkpt lat="45.883664321154356" lon="7.930412124842405">
        <ele>1542.5699999999999</ele>
        <time>2017-01-29T09:30:41Z</time>
      </trkpt>
      <trkpt lat="45.883685695007443" lon="7.930432157590985">
        <ele>1544.01</ele>
        <time>2017-01-29T09:30:50Z</time>
      </trkpt>
      <trkpt lat="45.883725341409445" lon="7.930431319400668">
        <ele>1545.46</ele>
        <time>2017-01-29T09:30:59Z</time>
      </trkpt>
      <trkpt lat="45.883740680292249" lon="7.930398546159267">
        <ele>1546.9000000000001</ele>
        <time>2017-01-29T09:31:09Z</time>
      </trkpt>
      <trkpt lat="45.883741602301598" lon="7.930357055738568">
        <ele>1548.8199999999999</ele>
        <time>2017-01-29T09:31:20Z</time>
      </trkpt>
      <trkpt lat="45.883737914264202" lon="7.93032193556428">
        <ele>1550.26</ele>
        <time>2017-01-29T09:31:31Z</time>
      </trkpt>
      <trkpt lat="45.883726766332984" lon="7.930304920300841">
        <ele>1552.1900000000001</ele>
        <time>2017-01-29T09:31:41Z</time>
      </trkpt>
      <trkpt lat="45.883703213185072" lon="7.930308943614364">
        <ele>1553.6300000000001</ele>
        <time>2017-01-29T09:31:50Z</time>
      </trkpt>
      <trkpt lat="45.883689466863871" lon="7.930283294990659">
        <ele>1554.5899999999999</ele>
        <time>2017-01-29T09:32:02Z</time>
      </trkpt>
      <trkpt lat="45.883732298389077" lon="7.930284217000008">
        <ele>1556.03</ele>
        <time>2017-01-29T09:32:11Z</time>
      </trkpt>
      <trkpt lat="45.883754175156355" lon="7.930193273350596">
        <ele>1557.47</ele>
        <time>2017-01-29T09:32:25Z</time>
      </trkpt>
      <trkpt lat="45.883748475462198" lon="7.930178940296173">
        <ele>1558.9200000000001</ele>
        <time>2017-01-29T09:32:34Z</time>
      </trkpt>
      <trkpt lat="45.8837881218642" lon="7.930154968053103">
        <ele>1560.8399999999999</ele>
        <time>2017-01-29T09:32:47Z</time>
      </trkpt>
      <trkpt lat="45.883813435211778" lon="7.930168798193336">
        <ele>1562.28</ele>
        <time>2017-01-29T09:32:57Z</time>
      </trkpt>
      <trkpt lat="45.883838413283229" lon="7.930206097662449">
        <ele>1563.72</ele>
        <time>2017-01-29T09:33:04Z</time>
      </trkpt>
      <trkpt lat="45.883828522637486" lon="7.930192770436406">
        <ele>1564.6800000000001</ele>
        <time>2017-01-29T09:33:19Z</time>
      </trkpt>
      <trkpt lat="45.883861966431141" lon="7.930127056315541">
        <ele>1567.0899999999999</ele>
        <time>2017-01-29T09:33:30Z</time>
      </trkpt>
      <trkpt lat="45.883869510143995" lon="7.930080704391003">
        <ele>1568.53</ele>
        <time>2017-01-29T09:33:39Z</time>
      </trkpt>
      <trkpt lat="45.883887447416782" lon="7.930056899785996">
        <ele>1569.97</ele>
        <time>2017-01-29T09:33:49Z</time>
      </trkpt>
      <trkpt lat="45.883889459073544" lon="7.930058911442757">
        <ele>1570.45</ele>
        <time>2017-01-29T09:33:50Z</time>
      </trkpt>
      <trkpt lat="45.883937487378716" lon="7.930059246718884">
        <ele>1571.8900000000001</ele>
        <time>2017-01-29T09:34:00Z</time>
      </trkpt>
      <trkpt lat="45.883953245356679" lon="7.930047176778317">
        <ele>1572.8499999999999</ele>
        <time>2017-01-29T09:34:09Z</time>
      </trkpt>
      <trkpt lat="45.883954837918282" lon="7.929968303069472">
        <ele>1574.78</ele>
        <time>2017-01-29T09:34:21Z</time>
      </trkpt>
      <trkpt lat="45.883929608389735" lon="7.929941061884165">
        <ele>1575.74</ele>
        <time>2017-01-29T09:34:30Z</time>
      </trkpt>
      <trkpt lat="45.883923741057515" lon="7.929926058277488">
        <ele>1576.22</ele>
        <time>2017-01-29T09:34:37Z</time>
      </trkpt>
      <trkpt lat="45.883910749107599" lon="7.92986755259335">
        <ele>1577.1800000000001</ele>
        <time>2017-01-29T09:34:46Z</time>
      </trkpt>
      <trkpt lat="45.883907983079553" lon="7.929850285872817">
        <ele>1577.1800000000001</ele>
        <time>2017-01-29T09:34:48Z</time>
      </trkpt>
      <trkpt lat="45.883893147110939" lon="7.929762192070484">
        <ele>1579.0999999999999</ele>
        <time>2017-01-29T09:34:58Z</time>
      </trkpt>
      <trkpt lat="45.883883088827133" lon="7.929685330018401">
        <ele>1580.54</ele>
        <time>2017-01-29T09:35:08Z</time>
      </trkpt>
      <trkpt lat="45.883879903703928" lon="7.929615257307887">
        <ele>1581.51</ele>
        <time>2017-01-29T09:35:17Z</time>
      </trkpt>
      <trkpt lat="45.883867666125298" lon="7.929543675854802">
        <ele>1582.95</ele>
        <time>2017-01-29T09:35:27Z</time>
      </trkpt>
      <trkpt lat="45.883837155997753" lon="7.929504113271833">
        <ele>1584.3900000000001</ele>
        <time>2017-01-29T09:35:35Z</time>
      </trkpt>
      <trkpt lat="45.883796336129308" lon="7.929509393870831">
        <ele>1584.8699999999999</ele>
        <time>2017-01-29T09:35:43Z</time>
      </trkpt>
      <trkpt lat="45.883741015568376" lon="7.929438315331936">
        <ele>1586.3099999999999</ele>
        <time>2017-01-29T09:35:54Z</time>
      </trkpt>
      <trkpt lat="45.883726514875889" lon="7.929415013641119">
        <ele>1586.79</ele>
        <time>2017-01-29T09:36:03Z</time>
      </trkpt>
      <trkpt lat="45.883714696392417" lon="7.929406128823757">
        <ele>1586.79</ele>
        <time>2017-01-29T09:36:05Z</time>
      </trkpt>
      <trkpt lat="45.883696507662535" lon="7.929306551814079">
        <ele>1587.27</ele>
        <time>2017-01-29T09:36:14Z</time>
      </trkpt>
      <trkpt lat="45.883690975606441" lon="7.92923379689455">
        <ele>1587.75</ele>
        <time>2017-01-29T09:36:24Z</time>
      </trkpt>
      <trkpt lat="45.883694412186742" lon="7.929144613444805">
        <ele>1589.2</ele>
        <time>2017-01-29T09:36:33Z</time>
      </trkpt>
      <trkpt lat="45.883715031668544" lon="7.929030284285545">
        <ele>1590.6400000000001</ele>
        <time>2017-01-29T09:36:44Z</time>
      </trkpt>
      <trkpt lat="45.883735567331314" lon="7.928950404748321">
        <ele>1592.5599999999999</ele>
        <time>2017-01-29T09:36:55Z</time>
      </trkpt>
      <trkpt lat="45.883747385814786" lon="7.928864909335971">
        <ele>1593.52</ele>
        <time>2017-01-29T09:37:05Z</time>
      </trkpt>
      <trkpt lat="45.883720899000764" lon="7.928825682029128">
        <ele>1594</ele>
        <time>2017-01-29T09:37:17Z</time>
      </trkpt>
      <trkpt lat="45.883725676685572" lon="7.928853007033467">
        <ele>1594</ele>
        <time>2017-01-29T09:37:26Z</time>
      </trkpt>
      <trkpt lat="45.883735148236156" lon="7.92884579859674">
        <ele>1594</ele>
        <time>2017-01-29T09:37:38Z</time>
      </trkpt>
      <trkpt lat="45.883730789646506" lon="7.928839763626456">
        <ele>1593.52</ele>
        <time>2017-01-29T09:37:52Z</time>
      </trkpt>
      <trkpt lat="45.883724922314286" lon="7.928790813311935">
        <ele>1594.48</ele>
        <time>2017-01-29T09:38:02Z</time>
      </trkpt>
      <trkpt lat="45.883713942021132" lon="7.928669527173042">
        <ele>1594.96</ele>
        <time>2017-01-29T09:38:12Z</time>
      </trkpt>
      <trkpt lat="45.883723329752684" lon="7.92855896987021">
        <ele>1594.96</ele>
        <time>2017-01-29T09:38:21Z</time>
      </trkpt>
      <trkpt lat="45.883755851536989" lon="7.928453609347343">
        <ele>1596.4100000000001</ele>
        <time>2017-01-29T09:38:30Z</time>
      </trkpt>
      <trkpt lat="45.883765909820795" lon="7.928437180817127">
        <ele>1596.4100000000001</ele>
        <time>2017-01-29T09:38:32Z</time>
      </trkpt>
      <trkpt lat="45.883805891498923" lon="7.92837331071496">
        <ele>1596.8900000000001</ele>
        <time>2017-01-29T09:38:42Z</time>
      </trkpt>
      <trkpt lat="45.883821314200759" lon="7.928337855264545">
        <ele>1597.3699999999999</ele>
        <time>2017-01-29T09:38:46Z</time>
      </trkpt>
      <trkpt lat="45.883837155997753" lon="7.928325701504946">
        <ele>1597.3699999999999</ele>
        <time>2017-01-29T09:38:55Z</time>
      </trkpt>
      <trkpt lat="45.883840760216117" lon="7.928326539695263">
        <ele>1596.8900000000001</ele>
        <time>2017-01-29T09:39:06Z</time>
      </trkpt>
      <trkpt lat="45.883878897875547" lon="7.928221179172397">
        <ele>1596.8900000000001</ele>
        <time>2017-01-29T09:39:15Z</time>
      </trkpt>
      <trkpt lat="45.883916029706597" lon="7.928093271329999">
        <ele>1596.8900000000001</ele>
        <time>2017-01-29T09:39:26Z</time>
      </trkpt>
      <trkpt lat="45.88395232334733" lon="7.927968548610807">
        <ele>1596.8900000000001</ele>
        <time>2017-01-29T09:39:36Z</time>
      </trkpt>
      <trkpt lat="45.88395525701344" lon="7.927929488942027">
        <ele>1596.8900000000001</ele>
        <time>2017-01-29T09:39:46Z</time>
      </trkpt>
      <trkpt lat="45.883946288377047" lon="7.927964525297284">
        <ele>1597.3699999999999</ele>
        <time>2017-01-29T09:40:04Z</time>
      </trkpt>
      <trkpt lat="45.883947545662522" lon="7.927949018776417">
        <ele>1597.3699999999999</ele>
        <time>2017-01-29T09:40:18Z</time>
      </trkpt>
      <trkpt lat="45.88395232334733" lon="7.927970560267568">
        <ele>1597.3699999999999</ele>
        <time>2017-01-29T09:40:31Z</time>
      </trkpt>
      <trkpt lat="45.883951988071203" lon="7.927948851138353">
        <ele>1597.3699999999999</ele>
        <time>2017-01-29T09:40:46Z</time>
      </trkpt>
      <trkpt lat="45.883961375802755" lon="7.927948096767068">
        <ele>1596.8900000000001</ele>
        <time>2017-01-29T09:41:01Z</time>
      </trkpt>
      <trkpt lat="45.883948551490903" lon="7.927957568317652">
        <ele>1597.3699999999999</ele>
        <time>2017-01-29T09:41:22Z</time>
      </trkpt>
      <trkpt lat="45.883951568976045" lon="7.9279481805861">
        <ele>1597.3699999999999</ele>
        <time>2017-01-29T09:41:36Z</time>
      </trkpt>
      <trkpt lat="45.883960034698248" lon="7.927946671843529">
        <ele>1597.3699999999999</ele>
        <time>2017-01-29T09:41:50Z</time>
      </trkpt>
      <trkpt lat="45.883966321125627" lon="7.927957065403462">
        <ele>1597.3699999999999</ele>
        <time>2017-01-29T09:42:03Z</time>
      </trkpt>
      <trkpt lat="45.883955676108599" lon="7.927949102595449">
        <ele>1596.8900000000001</ele>
        <time>2017-01-29T09:42:18Z</time>
      </trkpt>
      <trkpt lat="45.883962046355009" lon="7.927938038483262">
        <ele>1596.8900000000001</ele>
        <time>2017-01-29T09:42:31Z</time>
      </trkpt>
      <trkpt lat="45.883965902030468" lon="7.927973745390773">
        <ele>1596.8900000000001</ele>
        <time>2017-01-29T09:42:40Z</time>
      </trkpt>
      <trkpt lat="45.883942432701588" lon="7.928053960204125">
        <ele>1596.8900000000001</ele>
        <time>2017-01-29T09:42:50Z</time>
      </trkpt>
      <trkpt lat="45.883918628096581" lon="7.928059240803123">
        <ele>1597.3699999999999</ele>
        <time>2017-01-29T09:43:01Z</time>
      </trkpt>
      <trkpt lat="45.883910916745663" lon="7.928047841414809">
        <ele>1596.8900000000001</ele>
        <time>2017-01-29T09:43:15Z</time>
      </trkpt>
      <trkpt lat="45.8839141856879" lon="7.928024791181088">
        <ele>1597.3699999999999</ele>
        <time>2017-01-29T09:43:27Z</time>
      </trkpt>
      <trkpt lat="45.88392298668623" lon="7.928029904142022">
        <ele>1596.8900000000001</ele>
        <time>2017-01-29T09:43:50Z</time>
      </trkpt>
      <trkpt lat="45.883921980857849" lon="7.928045494481921">
        <ele>1596.4100000000001</ele>
        <time>2017-01-29T09:44:06Z</time>
      </trkpt>
      <trkpt lat="45.883939415216446" lon="7.928027389571071">
        <ele>1596.4100000000001</ele>
        <time>2017-01-29T09:44:21Z</time>
      </trkpt>
      <trkpt lat="45.883970679715276" lon="7.928013475611806">
        <ele>1596.4100000000001</ele>
        <time>2017-01-29T09:44:39Z</time>
      </trkpt>
      <trkpt lat="45.883979564532638" lon="7.928000651299954">
        <ele>1596.4100000000001</ele>
        <time>2017-01-29T09:44:41Z</time>
      </trkpt>
      <trkpt lat="45.883998172357678" lon="7.927953628823161">
        <ele>1596.4100000000001</ele>
        <time>2017-01-29T09:44:47Z</time>
      </trkpt>
      <trkpt lat="45.883971266448498" lon="7.927978355437517">
        <ele>1596.8900000000001</ele>
        <time>2017-01-29T09:44:56Z</time>
      </trkpt>
      <trkpt lat="45.883944109082222" lon="7.927960669621825">
        <ele>1596.4100000000001</ele>
        <time>2017-01-29T09:45:07Z</time>
      </trkpt>
      <trkpt lat="45.883947545662522" lon="7.927971733734012">
        <ele>1596.4100000000001</ele>
        <time>2017-01-29T09:45:31Z</time>
      </trkpt>
      <trkpt lat="45.883932542055845" lon="7.928015319630504">
        <ele>1596.4100000000001</ele>
        <time>2017-01-29T09:45:43Z</time>
      </trkpt>
      <trkpt lat="45.883975205942988" lon="7.92798288166523">
        <ele>1596.4100000000001</ele>
        <time>2017-01-29T09:46:03Z</time>
      </trkpt>
      <trkpt lat="45.883962884545326" lon="7.927945582196116">
        <ele>1596.4100000000001</ele>
        <time>2017-01-29T09:46:13Z</time>
      </trkpt>
      <trkpt lat="45.883969841524959" lon="7.927962932735682">
        <ele>1596.4100000000001</ele>
        <time>2017-01-29T09:46:17Z</time>
      </trkpt>
      <trkpt lat="45.883985012769699" lon="7.927917083725333">
        <ele>1596.4100000000001</ele>
        <time>2017-01-29T09:46:20Z</time>
      </trkpt>
      <trkpt lat="45.884001944214106" lon="7.927895123139024">
        <ele>1597.3699999999999</ele>
        <time>2017-01-29T09:46:28Z</time>
      </trkpt>
      <trkpt lat="45.884028766304255" lon="7.92784214951098">
        <ele>1596.8900000000001</ele>
        <time>2017-01-29T09:46:45Z</time>
      </trkpt>
      <trkpt lat="45.884045781567693" lon="7.927817087620497">
        <ele>1596.8900000000001</ele>
        <time>2017-01-29T09:46:47Z</time>
      </trkpt>
      <trkpt lat="45.884057767689228" lon="7.927798312157393">
        <ele>1596.8900000000001</ele>
        <time>2017-01-29T09:46:49Z</time>
      </trkpt>
      <trkpt lat="45.884091462939978" lon="7.927726060152054">
        <ele>1597.8499999999999</ele>
        <time>2017-01-29T09:46:59Z</time>
      </trkpt>
      <trkpt lat="45.884136641398072" lon="7.92763696052134">
        <ele>1597.8499999999999</ele>
        <time>2017-01-29T09:47:08Z</time>
      </trkpt>
      <trkpt lat="45.884205540642142" lon="7.927501928061247">
        <ele>1598.8099999999999</ele>
        <time>2017-01-29T09:47:19Z</time>
      </trkpt>
      <trkpt lat="45.884211994707584" lon="7.927492959424853">
        <ele>1598.8099999999999</ele>
        <time>2017-01-29T09:47:20Z</time>
      </trkpt>
      <trkpt lat="45.884224064648151" lon="7.9274732619524">
        <ele>1598.8099999999999</ele>
        <time>2017-01-29T09:47:22Z</time>
      </trkpt>
      <trkpt lat="45.8842958137393" lon="7.927359435707331">
        <ele>1599.29</ele>
        <time>2017-01-29T09:47:33Z</time>
      </trkpt>
      <trkpt lat="45.88430997915566" lon="7.927331021055579">
        <ele>1599.29</ele>
        <time>2017-01-29T09:47:36Z</time>
      </trkpt>
      <trkpt lat="45.884348452091217" lon="7.927276873961091">
        <ele>1599.77</ele>
        <time>2017-01-29T09:47:42Z</time>
      </trkpt>
      <trkpt lat="45.884375190362334" lon="7.92726312763989">
        <ele>1599.77</ele>
        <time>2017-01-29T09:47:44Z</time>
      </trkpt>
      <trkpt lat="45.884408382698894" lon="7.927190205082297">
        <ele>1599.77</ele>
        <time>2017-01-29T09:47:51Z</time>
      </trkpt>
      <trkpt lat="45.884398408234119" lon="7.927151396870613">
        <ele>1600.25</ele>
        <time>2017-01-29T09:48:02Z</time>
      </trkpt>
      <trkpt lat="45.884396564215422" lon="7.927168663591147">
        <ele>1599.77</ele>
        <time>2017-01-29T09:48:11Z</time>
      </trkpt>
      <trkpt lat="45.884398994967341" lon="7.927180901169777">
        <ele>1599.77</ele>
        <time>2017-01-29T09:48:25Z</time>
      </trkpt>
      <trkpt lat="45.884394804015756" lon="7.927176291123033">
        <ele>1599.77</ele>
        <time>2017-01-29T09:48:36Z</time>
      </trkpt>
      <trkpt lat="45.884396396577358" lon="7.92718056589365">
        <ele>1599.77</ele>
        <time>2017-01-29T09:48:47Z</time>
      </trkpt>
      <trkpt lat="45.884413495659828" lon="7.927175117656589">
        <ele>1600.25</ele>
        <time>2017-01-29T09:49:05Z</time>
      </trkpt>
      <trkpt lat="45.88439061306417" lon="7.927192887291312">
        <ele>1599.77</ele>
        <time>2017-01-29T09:49:25Z</time>
      </trkpt>
      <trkpt lat="45.88439891114831" lon="7.927209064364433">
        <ele>1599.77</ele>
        <time>2017-01-29T09:49:36Z</time>
      </trkpt>
      <trkpt lat="45.884378543123603" lon="7.927179727703333">
        <ele>1599.77</ele>
        <time>2017-01-29T09:49:45Z</time>
      </trkpt>
      <trkpt lat="45.884369071573019" lon="7.927170926705003">
        <ele>1599.77</ele>
        <time>2017-01-29T09:49:55Z</time>
      </trkpt>
      <trkpt lat="45.884393882006407" lon="7.927104542031884">
        <ele>1599.77</ele>
        <time>2017-01-29T09:50:05Z</time>
      </trkpt>
      <trkpt lat="45.88437988422811" lon="7.927074786275625">
        <ele>1600.25</ele>
        <time>2017-01-29T09:50:19Z</time>
      </trkpt>
      <trkpt lat="45.884358007460833" lon="7.92711166664958">
        <ele>1600.25</ele>
        <time>2017-01-29T09:50:34Z</time>
      </trkpt>
      <trkpt lat="45.884362198412418" lon="7.927144188433886">
        <ele>1599.77</ele>
        <time>2017-01-29T09:50:52Z</time>
      </trkpt>
      <trkpt lat="45.884352726861835" lon="7.927140668034554">
        <ele>1599.77</ele>
        <time>2017-01-29T09:51:04Z</time>
      </trkpt>
      <trkpt lat="45.88436177931726" lon="7.927144942805171">
        <ele>1599.77</ele>
        <time>2017-01-29T09:51:20Z</time>
      </trkpt>
      <trkpt lat="45.884345937520266" lon="7.927140751853585">
        <ele>1600.25</ele>
        <time>2017-01-29T09:51:32Z</time>
      </trkpt>
      <trkpt lat="45.884343842044473" lon="7.927107643336058">
        <ele>1599.77</ele>
        <time>2017-01-29T09:51:47Z</time>
      </trkpt>
      <trkpt lat="45.884348200634122" lon="7.92712876573205">
        <ele>1599.29</ele>
        <time>2017-01-29T09:51:51Z</time>
      </trkpt>
      <trkpt lat="45.884379968047142" lon="7.927148630842567">
        <ele>1599.77</ele>
        <time>2017-01-29T09:52:02Z</time>
      </trkpt>
      <trkpt lat="45.88434174656868" lon="7.927097417414188">
        <ele>1599.77</ele>
        <time>2017-01-29T09:52:13Z</time>
      </trkpt>
      <trkpt lat="45.884353900328279" lon="7.927067661657929">
        <ele>1599.77</ele>
        <time>2017-01-29T09:52:21Z</time>
      </trkpt>
      <trkpt lat="45.884369658306241" lon="7.92705399915576">
        <ele>1599.77</ele>
        <time>2017-01-29T09:52:33Z</time>
      </trkpt>
      <trkpt lat="45.884398492053151" lon="7.927110828459263">
        <ele>1599.29</ele>
        <time>2017-01-29T09:52:42Z</time>
      </trkpt>
      <trkpt lat="45.884364377707243" lon="7.927161287516356">
        <ele>1599.29</ele>
        <time>2017-01-29T09:52:50Z</time>
      </trkpt>
      <trkpt lat="45.884366137906909" lon="7.927140584215522">
        <ele>1599.29</ele>
        <time>2017-01-29T09:53:01Z</time>
      </trkpt>
      <trkpt lat="45.884356833994389" lon="7.92710823006928">
        <ele>1599.29</ele>
        <time>2017-01-29T09:53:17Z</time>
      </trkpt>
      <trkpt lat="45.884357085451484" lon="7.92707989923656">
        <ele>1599.29</ele>
        <time>2017-01-29T09:53:31Z</time>
      </trkpt>
      <trkpt lat="45.884372927248478" lon="7.927060117945075">
        <ele>1599.29</ele>
        <time>2017-01-29T09:53:42Z</time>
      </trkpt>
      <trkpt lat="45.884355660527945" lon="7.927060034126043">
        <ele>1599.29</ele>
        <time>2017-01-29T09:53:47Z</time>
      </trkpt>
      <trkpt lat="45.884340824559331" lon="7.927013263106346">
        <ele>1599.77</ele>
        <time>2017-01-29T09:53:57Z</time>
      </trkpt>
      <trkpt lat="45.884312158450484" lon="7.927022567018867">
        <ele>1599.77</ele>
        <time>2017-01-29T09:54:07Z</time>
      </trkpt>
      <trkpt lat="45.884325234219432" lon="7.927007311955094">
        <ele>1599.77</ele>
        <time>2017-01-29T09:54:13Z</time>
      </trkpt>
      <trkpt lat="45.884293299168348" lon="7.927102530375123">
        <ele>1599.29</ele>
        <time>2017-01-29T09:54:23Z</time>
      </trkpt>
      <trkpt lat="45.884297154843807" lon="7.927111499011517">
        <ele>1599.77</ele>
        <time>2017-01-29T09:54:27Z</time>
      </trkpt>
      <trkpt lat="45.88435398414731" lon="7.927049305289984">
        <ele>1599.77</ele>
        <time>2017-01-29T09:54:36Z</time>
      </trkpt>
      <trkpt lat="45.884344931691885" lon="7.92702617123723">
        <ele>1599.77</ele>
        <time>2017-01-29T09:54:38Z</time>
      </trkpt>
      <trkpt lat="45.884296149015427" lon="7.926979064941406">
        <ele>1600.25</ele>
        <time>2017-01-29T09:54:47Z</time>
      </trkpt>
      <trkpt lat="45.884296232834458" lon="7.926948890089989">
        <ele>1600.25</ele>
        <time>2017-01-29T09:55:03Z</time>
      </trkpt>
      <trkpt lat="45.884258514270186" lon="7.926925085484982">
        <ele>1601.21</ele>
        <time>2017-01-29T09:55:12Z</time>
      </trkpt>
      <trkpt lat="45.884220879524946" lon="7.926908740773797">
        <ele>1601.6900000000001</ele>
        <time>2017-01-29T09:55:21Z</time>
      </trkpt>
      <trkpt lat="45.884215766564012" lon="7.926878146827221">
        <ele>1602.1700000000001</ele>
        <time>2017-01-29T09:55:30Z</time>
      </trkpt>
      <trkpt lat="45.884238816797733" lon="7.926890635862947">
        <ele>1602.1700000000001</ele>
        <time>2017-01-29T09:55:40Z</time>
      </trkpt>
      <trkpt lat="45.884250216186047" lon="7.926932629197836">
        <ele>1602.1700000000001</ele>
        <time>2017-01-29T09:55:52Z</time>
      </trkpt>
      <trkpt lat="45.884255999699235" lon="7.926923660561442">
        <ele>1602.1700000000001</ele>
        <time>2017-01-29T09:56:05Z</time>
      </trkpt>
      <trkpt lat="45.884261783212423" lon="7.926883175969124">
        <ele>1602.1700000000001</ele>
        <time>2017-01-29T09:56:20Z</time>
      </trkpt>
      <trkpt lat="45.88423328474164" lon="7.926878817379475">
        <ele>1602.1700000000001</ele>
        <time>2017-01-29T09:56:35Z</time>
      </trkpt>
      <trkpt lat="45.884242923930287" lon="7.926873788237572">
        <ele>1602.1700000000001</ele>
        <time>2017-01-29T09:56:49Z</time>
      </trkpt>
      <trkpt lat="45.884215934202075" lon="7.926810923963785">
        <ele>1602.1700000000001</ele>
        <time>2017-01-29T09:56:57Z</time>
      </trkpt>
      <trkpt lat="45.884229345247149" lon="7.926823245361447">
        <ele>1602.1700000000001</ele>
        <time>2017-01-29T09:57:06Z</time>
      </trkpt>
      <trkpt lat="45.884259101003408" lon="7.926807152107358">
        <ele>1602.1700000000001</ele>
        <time>2017-01-29T09:57:16Z</time>
      </trkpt>
      <trkpt lat="45.884267818182707" lon="7.926841517910361">
        <ele>1602.1700000000001</ele>
        <time>2017-01-29T09:57:28Z</time>
      </trkpt>
      <trkpt lat="45.884286342188716" lon="7.92685610242188">
        <ele>1601.6900000000001</ele>
        <time>2017-01-29T09:57:35Z</time>
      </trkpt>
      <trkpt lat="45.884285923093557" lon="7.926916368305683">
        <ele>1601.21</ele>
        <time>2017-01-29T09:57:46Z</time>
      </trkpt>
      <trkpt lat="45.884305369108915" lon="7.926864316686988">
        <ele>1601.21</ele>
        <time>2017-01-29T09:57:57Z</time>
      </trkpt>
      <trkpt lat="45.884287264198065" lon="7.926903208717704">
        <ele>1601.21</ele>
        <time>2017-01-29T09:58:24Z</time>
      </trkpt>
      <trkpt lat="45.884243426844478" lon="7.926839673891664">
        <ele>1601.6900000000001</ele>
        <time>2017-01-29T09:58:34Z</time>
      </trkpt>
      <trkpt lat="45.884234039112926" lon="7.926834477111697">
        <ele>1602.1700000000001</ele>
        <time>2017-01-29T09:58:45Z</time>
      </trkpt>
      <trkpt lat="45.884222891181707" lon="7.926749316975474">
        <ele>1602.6600000000001</ele>
        <time>2017-01-29T09:58:53Z</time>
      </trkpt>
      <trkpt lat="45.884211910888553" lon="7.926689302548766">
        <ele>1602.6600000000001</ele>
        <time>2017-01-29T09:58:58Z</time>
      </trkpt>
      <trkpt lat="45.884170671924949" lon="7.9265839420259">
        <ele>1603.1400000000001</ele>
        <time>2017-01-29T09:59:08Z</time>
      </trkpt>
      <trkpt lat="45.884136641398072" lon="7.926493920385838">
        <ele>1604.0999999999999</ele>
        <time>2017-01-29T09:59:18Z</time>
      </trkpt>
      <trkpt lat="45.884120296686888" lon="7.926345225423574">
        <ele>1606.02</ele>
        <time>2017-01-29T09:59:31Z</time>
      </trkpt>
      <trkpt lat="45.884133372455835" lon="7.926249420270324">
        <ele>1606.98</ele>
        <time>2017-01-29T09:59:40Z</time>
      </trkpt>
      <trkpt lat="45.884125158190727" lon="7.926104916259646">
        <ele>1606.98</ele>
        <time>2017-01-29T09:59:51Z</time>
      </trkpt>
      <trkpt lat="45.884139491245151" lon="7.926008440554142">
        <ele>1607.9400000000001</ele>
        <time>2017-01-29T09:59:59Z</time>
      </trkpt>
      <trkpt lat="45.884125158190727" lon="7.925869133323431">
        <ele>1606.98</ele>
        <time>2017-01-29T10:00:10Z</time>
      </trkpt>
      <trkpt lat="45.88415851816535" lon="7.925765365362167">
        <ele>1609.3800000000001</ele>
        <time>2017-01-29T10:00:21Z</time>
      </trkpt>
      <trkpt lat="45.884140580892563" lon="7.925650449469686">
        <ele>1610.3499999999999</ele>
        <time>2017-01-29T10:00:32Z</time>
      </trkpt>
      <trkpt lat="45.884113842621446" lon="7.925530923530459">
        <ele>1611.3099999999999</ele>
        <time>2017-01-29T10:00:43Z</time>
      </trkpt>
      <trkpt lat="45.884112250059843" lon="7.925514243543148">
        <ele>1611.79</ele>
        <time>2017-01-29T10:00:44Z</time>
      </trkpt>
      <trkpt lat="45.884137731045485" lon="7.925405194982886">
        <ele>1612.75</ele>
        <time>2017-01-29T10:00:54Z</time>
      </trkpt>
      <trkpt lat="45.88419078849256" lon="7.925270330160856">
        <ele>1613.71</ele>
        <time>2017-01-29T10:01:06Z</time>
      </trkpt>
      <trkpt lat="45.884199673309922" lon="7.92521140538156">
        <ele>1614.1900000000001</ele>
        <time>2017-01-29T10:01:09Z</time>
      </trkpt>
      <trkpt lat="45.884237559512258" lon="7.925148038193584">
        <ele>1614.1900000000001</ele>
        <time>2017-01-29T10:01:15Z</time>
      </trkpt>
      <trkpt lat="45.884272092953324" lon="7.925011496990919">
        <ele>1614.6700000000001</ele>
        <time>2017-01-29T10:01:25Z</time>
      </trkpt>
      <trkpt lat="45.884308386594057" lon="7.924896664917469">
        <ele>1615.1500000000001</ele>
        <time>2017-01-29T10:01:34Z</time>
      </trkpt>
      <trkpt lat="45.884338980540633" lon="7.924800273030996">
        <ele>1615.1500000000001</ele>
        <time>2017-01-29T10:01:42Z</time>
      </trkpt>
      <trkpt lat="45.884377369657159" lon="7.924774205312133">
        <ele>1615.1500000000001</ele>
        <time>2017-01-29T10:01:45Z</time>
      </trkpt>
      <trkpt lat="45.884432857856154" lon="7.924680411815643">
        <ele>1614.6700000000001</ele>
        <time>2017-01-29T10:01:54Z</time>
      </trkpt>
      <trkpt lat="45.884468983858824" lon="7.924597347155213">
        <ele>1615.1500000000001</ele>
        <time>2017-01-29T10:02:02Z</time>
      </trkpt>
      <trkpt lat="45.884479796513915" lon="7.92457471601665">
        <ele>1615.1500000000001</ele>
        <time>2017-01-29T10:02:12Z</time>
      </trkpt>
      <trkpt lat="45.884486669674516" lon="7.924525095149875">
        <ele>1615.1500000000001</ele>
        <time>2017-01-29T10:02:17Z</time>
      </trkpt>
      <trkpt lat="45.884512066841125" lon="7.924418142065406">
        <ele>1615.6300000000001</ele>
        <time>2017-01-29T10:02:27Z</time>
      </trkpt>
      <trkpt lat="45.884539475664496" lon="7.924311608076096">
        <ele>1616.5899999999999</ele>
        <time>2017-01-29T10:02:36Z</time>
      </trkpt>
      <trkpt lat="45.884572248905897" lon="7.924308003857732">
        <ele>1617.0699999999999</ele>
        <time>2017-01-29T10:02:39Z</time>
      </trkpt>
      <trkpt lat="45.88463150896132" lon="7.924253353849053">
        <ele>1618.52</ele>
        <time>2017-01-29T10:02:48Z</time>
      </trkpt>
      <trkpt lat="45.884715663269162" lon="7.924162745475769">
        <ele>1618.04</ele>
        <time>2017-01-29T10:02:58Z</time>
      </trkpt>
      <trkpt lat="45.884760674089193" lon="7.924081524834037">
        <ele>1618.52</ele>
        <time>2017-01-29T10:03:07Z</time>
      </trkpt>
      <trkpt lat="45.884822281077504" lon="7.923996280878782">
        <ele>1619.48</ele>
        <time>2017-01-29T10:03:17Z</time>
      </trkpt>
      <trkpt lat="45.884832423180342" lon="7.92395856231451">
        <ele>1619.48</ele>
        <time>2017-01-29T10:03:20Z</time>
      </trkpt>
      <trkpt lat="45.884897969663143" lon="7.923861751332879">
        <ele>1619.48</ele>
        <time>2017-01-29T10:03:30Z</time>
      </trkpt>
      <trkpt lat="45.884961085394025" lon="7.923777177929878">
        <ele>1619.48</ele>
        <time>2017-01-29T10:03:40Z</time>
      </trkpt>
      <trkpt lat="45.88499360717833" lon="7.923672990873456">
        <ele>1619.96</ele>
        <time>2017-01-29T10:03:50Z</time>
      </trkpt>
      <trkpt lat="45.885039707645774" lon="7.923622280359268">
        <ele>1620.9200000000001</ele>
        <time>2017-01-29T10:03:58Z</time>
      </trkpt>
      <trkpt lat="45.885048843920231" lon="7.92360526509583">
        <ele>1620.9200000000001</ele>
        <time>2017-01-29T10:04:00Z</time>
      </trkpt>
      <trkpt lat="45.885056471452117" lon="7.923582382500172">
        <ele>1621.4000000000001</ele>
        <time>2017-01-29T10:04:02Z</time>
      </trkpt>
      <trkpt lat="45.885099889710546" lon="7.923520524054766">
        <ele>1621.8800000000001</ele>
        <time>2017-01-29T10:04:11Z</time>
      </trkpt>
      <trkpt lat="45.885128891095519" lon="7.923443662002683">
        <ele>1623.3199999999999</ele>
        <time>2017-01-29T10:04:22Z</time>
      </trkpt>
      <trkpt lat="45.885145990177989" lon="7.923404518514872">
        <ele>1623.8</ele>
        <time>2017-01-29T10:04:27Z</time>
      </trkpt>
      <trkpt lat="45.885168369859457" lon="7.923353724181652">
        <ele>1624.28</ele>
        <time>2017-01-29T10:04:32Z</time>
      </trkpt>
      <trkpt lat="45.885232910513878" lon="7.923229839652777">
        <ele>1625.25</ele>
        <time>2017-01-29T10:04:43Z</time>
      </trkpt>
      <trkpt lat="45.885290913283825" lon="7.923185247927904">
        <ele>1625.73</ele>
        <time>2017-01-29T10:04:52Z</time>
      </trkpt>
      <trkpt lat="45.88532586582005" lon="7.923129089176655">
        <ele>1626.6900000000001</ele>
        <time>2017-01-29T10:05:02Z</time>
      </trkpt>
      <trkpt lat="45.885329386219382" lon="7.923062033951283">
        <ele>1627.6500000000001</ele>
        <time>2017-01-29T10:05:10Z</time>
      </trkpt>
      <trkpt lat="45.885321758687496" lon="7.922962540760636">
        <ele>1628.1300000000001</ele>
        <time>2017-01-29T10:05:17Z</time>
      </trkpt>
      <trkpt lat="45.885331062600017" lon="7.922923984006047">
        <ele>1628.1300000000001</ele>
        <time>2017-01-29T10:05:19Z</time>
      </trkpt>
      <trkpt lat="45.885371631011367" lon="7.92282004840672">
        <ele>1629.5699999999999</ele>
        <time>2017-01-29T10:05:29Z</time>
      </trkpt>
      <trkpt lat="45.885376827791333" lon="7.922706557437778">
        <ele>1629.5699999999999</ele>
        <time>2017-01-29T10:05:38Z</time>
      </trkpt>
      <trkpt lat="45.885379761457443" lon="7.922654338181019">
        <ele>1630.05</ele>
        <time>2017-01-29T10:05:42Z</time>
      </trkpt>
      <trkpt lat="45.885416893288493" lon="7.922482676804066">
        <ele>1630.53</ele>
        <time>2017-01-29T10:05:54Z</time>
      </trkpt>
      <trkpt lat="45.885438015684485" lon="7.922405814751983">
        <ele>1630.53</ele>
        <time>2017-01-29T10:06:04Z</time>
      </trkpt>
      <trkpt lat="45.885447738692164" lon="7.922382680699229">
        <ele>1630.05</ele>
        <time>2017-01-29T10:06:06Z</time>
      </trkpt>
      <trkpt lat="45.885492833331227" lon="7.922269441187382">
        <ele>1630.05</ele>
        <time>2017-01-29T10:06:15Z</time>
      </trkpt>
      <trkpt lat="45.885526863858104" lon="7.922121081501246">
        <ele>1630.53</ele>
        <time>2017-01-29T10:06:26Z</time>
      </trkpt>
      <trkpt lat="45.885566510260105" lon="7.922005243599415">
        <ele>1631.49</ele>
        <time>2017-01-29T10:06:36Z</time>
      </trkpt>
      <trkpt lat="45.88556868955493" lon="7.921945229172707">
        <ele>1632.46</ele>
        <time>2017-01-29T10:06:43Z</time>
      </trkpt>
      <trkpt lat="45.885600624606013" lon="7.921826792880893">
        <ele>1633.9000000000001</ele>
        <time>2017-01-29T10:06:54Z</time>
      </trkpt>
      <trkpt lat="45.885638175532222" lon="7.921794187277556">
        <ele>1635.3399999999999</ele>
        <time>2017-01-29T10:07:04Z</time>
      </trkpt>
      <trkpt lat="45.885643288493156" lon="7.921802401542664">
        <ele>1635.3399999999999</ele>
        <time>2017-01-29T10:07:19Z</time>
      </trkpt>
      <trkpt lat="45.885677402839065" lon="7.92174506932497">
        <ele>1635.8199999999999</ele>
        <time>2017-01-29T10:07:35Z</time>
      </trkpt>
      <trkpt lat="45.885735489428043" lon="7.921647587791085">
        <ele>1637.74</ele>
        <time>2017-01-29T10:07:45Z</time>
      </trkpt>
      <trkpt lat="45.885755773633718" lon="7.921621771529317">
        <ele>1637.74</ele>
        <time>2017-01-29T10:07:47Z</time>
      </trkpt>
      <trkpt lat="45.885785110294819" lon="7.921519177034497">
        <ele>1639.6700000000001</ele>
        <time>2017-01-29T10:07:59Z</time>
      </trkpt>
      <trkpt lat="45.885785026475787" lon="7.921508448198438">
        <ele>1639.6700000000001</ele>
        <time>2017-01-29T10:08:00Z</time>
      </trkpt>
      <trkpt lat="45.885781589895487" lon="7.921471484005451">
        <ele>1640.1500000000001</ele>
        <time>2017-01-29T10:08:03Z</time>
      </trkpt>
      <trkpt lat="45.885819643735886" lon="7.92139520868659">
        <ele>1641.1099999999999</ele>
        <time>2017-01-29T10:08:12Z</time>
      </trkpt>
      <trkpt lat="45.885873874649405" lon="7.921333769336343">
        <ele>1642.55</ele>
        <time>2017-01-29T10:08:21Z</time>
      </trkpt>
      <trkpt lat="45.885922154411674" lon="7.921332344412804">
        <ele>1642.55</ele>
        <time>2017-01-29T10:08:25Z</time>
      </trkpt>
      <trkpt lat="45.885968087241054" lon="7.921264031901956">
        <ele>1643.51</ele>
        <time>2017-01-29T10:08:34Z</time>
      </trkpt>
      <trkpt lat="45.885971942916512" lon="7.921185493469238">
        <ele>1644.47</ele>
        <time>2017-01-29T10:08:44Z</time>
      </trkpt>
      <trkpt lat="45.885972278192639" lon="7.921176524832845">
        <ele>1644.47</ele>
        <time>2017-01-29T10:08:45Z</time>
      </trkpt>
      <trkpt lat="45.885974289849401" lon="7.921054735779762">
        <ele>1644.95</ele>
        <time>2017-01-29T10:08:55Z</time>
      </trkpt>
      <trkpt lat="45.885964818298817" lon="7.920963289216161">
        <ele>1645.9100000000001</ele>
        <time>2017-01-29T10:09:05Z</time>
      </trkpt>
      <trkpt lat="45.885990802198648" lon="7.920855162665248">
        <ele>1646.8800000000001</ele>
        <time>2017-01-29T10:09:15Z</time>
      </trkpt>
      <trkpt lat="45.88600262068212" lon="7.920723734423518">
        <ele>1647.3599999999999</ele>
        <time>2017-01-29T10:09:25Z</time>
      </trkpt>
      <trkpt lat="45.886000609025359" lon="7.920693224295974">
        <ele>1647.8399999999999</ele>
        <time>2017-01-29T10:09:29Z</time>
      </trkpt>
      <trkpt lat="45.886072441935539" lon="7.920558694750071">
        <ele>1647.3599999999999</ele>
        <time>2017-01-29T10:09:41Z</time>
      </trkpt>
      <trkpt lat="45.886074285954237" lon="7.920534554868937">
        <ele>1647.8399999999999</ele>
        <time>2017-01-29T10:09:43Z</time>
      </trkpt>
      <trkpt lat="45.886069927364588" lon="7.920371694490314">
        <ele>1647.8399999999999</ele>
        <time>2017-01-29T10:09:54Z</time>
      </trkpt>
      <trkpt lat="45.886078979820013" lon="7.920324085280299">
        <ele>1647.8399999999999</ele>
        <time>2017-01-29T10:09:57Z</time>
      </trkpt>
      <trkpt lat="45.886119296774268" lon="7.920217299833894">
        <ele>1648.3199999999999</ele>
        <time>2017-01-29T10:10:06Z</time>
      </trkpt>
      <trkpt lat="45.886121895164251" lon="7.920141778886318">
        <ele>1648.3199999999999</ele>
        <time>2017-01-29T10:10:17Z</time>
      </trkpt>
      <trkpt lat="45.886119045317173" lon="7.920127529650927">
        <ele>1648.3199999999999</ele>
        <time>2017-01-29T10:10:18Z</time>
      </trkpt>
      <trkpt lat="45.88614477775991" lon="7.920050751417875">
        <ele>1648.3199999999999</ele>
        <time>2017-01-29T10:10:23Z</time>
      </trkpt>
      <trkpt lat="45.886201439425349" lon="7.919987803325057">
        <ele>1647.8399999999999</ele>
        <time>2017-01-29T10:10:29Z</time>
      </trkpt>
      <trkpt lat="45.88631241582334" lon="7.919938182458282">
        <ele>1648.3199999999999</ele>
        <time>2017-01-29T10:10:40Z</time>
      </trkpt>
      <trkpt lat="45.886338064447045" lon="7.919965256005526">
        <ele>1648.3199999999999</ele>
        <time>2017-01-29T10:10:58Z</time>
      </trkpt>
      <trkpt lat="45.886323228478432" lon="7.91994153521955">
        <ele>1648.8</ele>
        <time>2017-01-29T10:11:10Z</time>
      </trkpt>
      <trkpt lat="45.886350637301803" lon="7.919953353703022">
        <ele>1648.8</ele>
        <time>2017-01-29T10:11:27Z</time>
      </trkpt>
      <trkpt lat="45.886357426643372" lon="7.919931979849935">
        <ele>1648.3199999999999</ele>
        <time>2017-01-29T10:11:32Z</time>
      </trkpt>
      <trkpt lat="45.886376034468412" lon="7.91987556964159">
        <ele>1647.8399999999999</ele>
        <time>2017-01-29T10:11:36Z</time>
      </trkpt>
      <trkpt lat="45.886469660326838" lon="7.919804491102696">
        <ele>1647.8399999999999</ele>
        <time>2017-01-29T10:11:47Z</time>
      </trkpt>
      <trkpt lat="45.886505618691444" lon="7.919773478060961">
        <ele>1649.28</ele>
        <time>2017-01-29T10:11:55Z</time>
      </trkpt>
      <trkpt lat="45.886563872918487" lon="7.919763587415218">
        <ele>1650.24</ele>
        <time>2017-01-29T10:12:03Z</time>
      </trkpt>
      <trkpt lat="45.886600082740188" lon="7.919690413400531">
        <ele>1651.2</ele>
        <time>2017-01-29T10:12:12Z</time>
      </trkpt>
      <trkpt lat="45.886658588424325" lon="7.919624028727412">
        <ele>1651.6800000000001</ele>
        <time>2017-01-29T10:12:22Z</time>
      </trkpt>
      <trkpt lat="45.886662444099784" lon="7.919614389538765">
        <ele>1652.1600000000001</ele>
        <time>2017-01-29T10:12:23Z</time>
      </trkpt>
      <trkpt lat="45.886681890115142" lon="7.919558817520738">
        <ele>1652.6400000000001</ele>
        <time>2017-01-29T10:12:28Z</time>
      </trkpt>
      <trkpt lat="45.886719776317477" lon="7.919473657384515">
        <ele>1654.0899999999999</ele>
        <time>2017-01-29T10:12:37Z</time>
      </trkpt>
      <trkpt lat="45.886770486831665" lon="7.919416492804885">
        <ele>1655.53</ele>
        <time>2017-01-29T10:12:46Z</time>
      </trkpt>
      <trkpt lat="45.88678733445704" lon="7.919406099244952">
        <ele>1655.53</ele>
        <time>2017-01-29T10:12:48Z</time>
      </trkpt>
      <trkpt lat="45.886813150718808" lon="7.919362597167492">
        <ele>1656.01</ele>
        <time>2017-01-29T10:12:54Z</time>
      </trkpt>
      <trkpt lat="45.886894203722477" lon="7.919297553598881">
        <ele>1656.49</ele>
        <time>2017-01-29T10:13:04Z</time>
      </trkpt>
      <trkpt lat="45.886951619759202" lon="7.919256314635277">
        <ele>1656.97</ele>
        <time>2017-01-29T10:13:12Z</time>
      </trkpt>
      <trkpt lat="45.886973915621638" lon="7.919256817549467">
        <ele>1656.97</ele>
        <time>2017-01-29T10:13:14Z</time>
      </trkpt>
      <trkpt lat="45.887038204818964" lon="7.9192481841892">
        <ele>1657.45</ele>
        <time>2017-01-29T10:13:23Z</time>
      </trkpt>
      <trkpt lat="45.887070810422301" lon="7.919132681563497">
        <ele>1658.8900000000001</ele>
        <time>2017-01-29T10:13:34Z</time>
      </trkpt>
      <trkpt lat="45.887107104063034" lon="7.919074259698391">
        <ele>1659.8499999999999</ele>
        <time>2017-01-29T10:13:42Z</time>
      </trkpt>
      <trkpt lat="45.887140464037657" lon="7.91898725554347">
        <ele>1661.3</ele>
        <time>2017-01-29T10:13:52Z</time>
      </trkpt>
      <trkpt lat="45.887155802920461" lon="7.91894861496985">
        <ele>1661.78</ele>
        <time>2017-01-29T10:13:56Z</time>
      </trkpt>
      <trkpt lat="45.887204585596919" lon="7.918905783444643">
        <ele>1662.74</ele>
        <time>2017-01-29T10:14:05Z</time>
      </trkpt>
      <trkpt lat="45.887250350788236" lon="7.918851971626282">
        <ele>1664.1800000000001</ele>
        <time>2017-01-29T10:14:14Z</time>
      </trkpt>
      <trkpt lat="45.887281196191907" lon="7.918778462335467">
        <ele>1665.6199999999999</ele>
        <time>2017-01-29T10:14:24Z</time>
      </trkpt>
      <trkpt lat="45.887318579480052" lon="7.918697157874703">
        <ele>1666.0999999999999</ele>
        <time>2017-01-29T10:14:34Z</time>
      </trkpt>
      <trkpt lat="45.88734439574182" lon="7.9187336191535">
        <ele>1666.5799999999999</ele>
        <time>2017-01-29T10:14:43Z</time>
      </trkpt>
      <trkpt lat="45.887326709926128" lon="7.91874635964632">
        <ele>1665.6199999999999</ele>
        <time>2017-01-29T10:14:49Z</time>
      </trkpt>
      <trkpt lat="45.887328470125794" lon="7.918752478435636">
        <ele>1665.6199999999999</ele>
        <time>2017-01-29T10:15:07Z</time>
      </trkpt>
      <trkpt lat="45.887323524802923" lon="7.918771505355835">
        <ele>1665.6199999999999</ele>
        <time>2017-01-29T10:15:33Z</time>
      </trkpt>
      <trkpt lat="45.887323189526796" lon="7.918770248070359">
        <ele>1665.6199999999999</ele>
        <time>2017-01-29T10:15:59Z</time>
      </trkpt>
      <trkpt lat="45.887335510924459" lon="7.918757339939475">
        <ele>1665.6199999999999</ele>
        <time>2017-01-29T10:16:20Z</time>
      </trkpt>
      <trkpt lat="45.88733023032546" lon="7.918753065168858">
        <ele>1665.6199999999999</ele>
        <time>2017-01-29T10:16:44Z</time>
      </trkpt>
      <trkpt lat="45.887335259467363" lon="7.918773014098406">
        <ele>1665.6199999999999</ele>
        <time>2017-01-29T10:17:04Z</time>
      </trkpt>
      <trkpt lat="45.887320842593908" lon="7.918736469000578">
        <ele>1666.5799999999999</ele>
        <time>2017-01-29T10:17:12Z</time>
      </trkpt>
      <trkpt lat="45.887349424883723" lon="7.918719286099076">
        <ele>1666.5799999999999</ele>
        <time>2017-01-29T10:17:22Z</time>
      </trkpt>
      <trkpt lat="45.887412205338478" lon="7.918614679947496">
        <ele>1668.02</ele>
        <time>2017-01-29T10:17:32Z</time>
      </trkpt>
      <trkpt lat="45.887425616383553" lon="7.918641837313771">
        <ele>1668.02</ele>
        <time>2017-01-29T10:17:43Z</time>
      </trkpt>
      <trkpt lat="45.887427963316441" lon="7.918616188690066">
        <ele>1668.02</ele>
        <time>2017-01-29T10:17:57Z</time>
      </trkpt>
      <trkpt lat="45.887406170368195" lon="7.918615434318781">
        <ele>1668.02</ele>
        <time>2017-01-29T10:18:14Z</time>
      </trkpt>
      <trkpt lat="45.887406589463353" lon="7.91864569298923">
        <ele>1668.02</ele>
        <time>2017-01-29T10:18:26Z</time>
      </trkpt>
      <trkpt lat="45.887441374361515" lon="7.918633036315441">
        <ele>1668.51</ele>
        <time>2017-01-29T10:18:37Z</time>
      </trkpt>
      <trkpt lat="45.887438775971532" lon="7.918663127347827">
        <ele>1668.02</ele>
        <time>2017-01-29T10:18:51Z</time>
      </trkpt>
      <trkpt lat="45.887440955266356" lon="7.918650722131133">
        <ele>1668.51</ele>
        <time>2017-01-29T10:19:00Z</time>
      </trkpt>
      <trkpt lat="45.887428550049663" lon="7.918638987466693">
        <ele>1668.51</ele>
        <time>2017-01-29T10:19:14Z</time>
      </trkpt>
      <trkpt lat="45.887471213936806" lon="7.918643848970532">
        <ele>1668.51</ele>
        <time>2017-01-29T10:19:26Z</time>
      </trkpt>
      <trkpt lat="45.887449756264687" lon="7.918632533401251">
        <ele>1668.51</ele>
        <time>2017-01-29T10:19:41Z</time>
      </trkpt>
      <trkpt lat="45.887420922517776" lon="7.918636640533805">
        <ele>1668.51</ele>
        <time>2017-01-29T10:19:54Z</time>
      </trkpt>
      <trkpt lat="45.887429723516107" lon="7.91866178624332">
        <ele>1668.51</ele>
        <time>2017-01-29T10:20:15Z</time>
      </trkpt>
      <trkpt lat="45.887415306642652" lon="7.918686009943485">
        <ele>1668.51</ele>
        <time>2017-01-29T10:20:32Z</time>
      </trkpt>
      <trkpt lat="45.8874386921525" lon="7.918649548664689">
        <ele>1668.99</ele>
        <time>2017-01-29T10:20:44Z</time>
      </trkpt>
      <trkpt lat="45.8874421287328" lon="7.918620128184557">
        <ele>1669.47</ele>
        <time>2017-01-29T10:20:56Z</time>
      </trkpt>
      <trkpt lat="45.887418072670698" lon="7.918636137619615">
        <ele>1668.99</ele>
        <time>2017-01-29T10:21:17Z</time>
      </trkpt>
      <trkpt lat="45.887432992458344" lon="7.918563466519117">
        <ele>1668.99</ele>
        <time>2017-01-29T10:21:33Z</time>
      </trkpt>
      <trkpt lat="45.887483200058341" lon="7.918488113209605">
        <ele>1669.95</ele>
        <time>2017-01-29T10:21:41Z</time>
      </trkpt>
      <trkpt lat="45.887500802055001" lon="7.918402785435319">
        <ele>1670.9100000000001</ele>
        <time>2017-01-29T10:21:48Z</time>
      </trkpt>
      <trkpt lat="45.887521421536803" lon="7.91833246126771">
        <ele>1671.8699999999999</ele>
        <time>2017-01-29T10:21:53Z</time>
      </trkpt>
      <trkpt lat="45.887553356587887" lon="7.918211007490754">
        <ele>1672.8299999999999</ele>
        <time>2017-01-29T10:22:03Z</time>
      </trkpt>
      <trkpt lat="45.887620495632291" lon="7.918159542605281">
        <ele>1674.27</ele>
        <time>2017-01-29T10:22:13Z</time>
      </trkpt>
      <trkpt lat="45.887627620249987" lon="7.918130205944181">
        <ele>1674.75</ele>
        <time>2017-01-29T10:22:15Z</time>
      </trkpt>
      <trkpt lat="45.887644132599235" lon="7.918099528178573">
        <ele>1674.75</ele>
        <time>2017-01-29T10:22:17Z</time>
      </trkpt>
      <trkpt lat="45.887668440118432" lon="7.918088966980577">
        <ele>1675.23</ele>
        <time>2017-01-29T10:22:20Z</time>
      </trkpt>
      <trkpt lat="45.887693334370852" lon="7.918054601177573">
        <ele>1675.23</ele>
        <time>2017-01-29T10:22:24Z</time>
      </trkpt>
      <trkpt lat="45.887740859761834" lon="7.918016295880079">
        <ele>1675.72</ele>
        <time>2017-01-29T10:22:30Z</time>
      </trkpt>
      <trkpt lat="45.88779634796083" lon="7.9178995359689">
        <ele>1676.2</ele>
        <time>2017-01-29T10:22:41Z</time>
      </trkpt>
      <trkpt lat="45.88787698186934" lon="7.917791241779923">
        <ele>1676.2</ele>
        <time>2017-01-29T10:22:53Z</time>
      </trkpt>
      <trkpt lat="45.887955436483026" lon="7.917708847671747">
        <ele>1677.1600000000001</ele>
        <time>2017-01-29T10:23:04Z</time>
      </trkpt>
      <trkpt lat="45.888018636032939" lon="7.917654532939196">
        <ele>1679.0799999999999</ele>
        <time>2017-01-29T10:23:14Z</time>
      </trkpt>
      <trkpt lat="45.888020480051637" lon="7.917601559311152">
        <ele>1679.0799999999999</ele>
        <time>2017-01-29T10:23:19Z</time>
      </trkpt>
      <trkpt lat="45.888059120625257" lon="7.917456552386284">
        <ele>1680.04</ele>
        <time>2017-01-29T10:23:31Z</time>
      </trkpt>
      <trkpt lat="45.888056438416243" lon="7.917414978146553">
        <ele>1680.52</ele>
        <time>2017-01-29T10:23:35Z</time>
      </trkpt>
      <trkpt lat="45.888114692643285" lon="7.917320849373937">
        <ele>1681</ele>
        <time>2017-01-29T10:23:45Z</time>
      </trkpt>
      <trkpt lat="45.88807437568903" lon="7.917255219072104">
        <ele>1681.96</ele>
        <time>2017-01-29T10:23:56Z</time>
      </trkpt>
      <trkpt lat="45.888102203607559" lon="7.91713091544807">
        <ele>1682.9300000000001</ele>
        <time>2017-01-29T10:24:04Z</time>
      </trkpt>
      <trkpt lat="45.888107316568494" lon="7.917006276547909">
        <ele>1683.8900000000001</ele>
        <time>2017-01-29T10:24:16Z</time>
      </trkpt>
      <trkpt lat="45.888077057898045" lon="7.916908040642738">
        <ele>1685.8099999999999</ele>
        <time>2017-01-29T10:24:28Z</time>
      </trkpt>
      <trkpt lat="45.888081416487694" lon="7.916897563263774">
        <ele>1686.77</ele>
        <time>2017-01-29T10:24:37Z</time>
      </trkpt>
      <trkpt lat="45.888107987120748" lon="7.916839476674795">
        <ele>1686.77</ele>
        <time>2017-01-29T10:24:45Z</time>
      </trkpt>
      <trkpt lat="45.888177724555135" lon="7.916748281568289">
        <ele>1688.21</ele>
        <time>2017-01-29T10:24:58Z</time>
      </trkpt>
      <trkpt lat="45.88818627409637" lon="7.916737552732229">
        <ele>1688.6900000000001</ele>
        <time>2017-01-29T10:25:06Z</time>
      </trkpt>
      <trkpt lat="45.88822927325964" lon="7.916646525263786">
        <ele>1689.1700000000001</ele>
        <time>2017-01-29T10:25:16Z</time>
      </trkpt>
      <trkpt lat="45.88823514059186" lon="7.916633868589997">
        <ele>1689.6500000000001</ele>
        <time>2017-01-29T10:25:17Z</time>
      </trkpt>
      <trkpt lat="45.888288114219904" lon="7.916557928547263">
        <ele>1690.6199999999999</ele>
        <time>2017-01-29T10:25:28Z</time>
      </trkpt>
      <trkpt lat="45.888323318213224" lon="7.916480898857117">
        <ele>1691.0999999999999</ele>
        <time>2017-01-29T10:25:37Z</time>
      </trkpt>
      <trkpt lat="45.888358186930418" lon="7.916447455063462">
        <ele>1692.54</ele>
        <time>2017-01-29T10:25:45Z</time>
      </trkpt>
      <trkpt lat="45.888355923816562" lon="7.916447035968304">
        <ele>1692.54</ele>
        <time>2017-01-29T10:25:53Z</time>
      </trkpt>
      <trkpt lat="45.888358354568481" lon="7.91639800183475">
        <ele>1693.5</ele>
        <time>2017-01-29T10:26:04Z</time>
      </trkpt>
      <trkpt lat="45.888374866917729" lon="7.916336478665471">
        <ele>1693.98</ele>
        <time>2017-01-29T10:26:10Z</time>
      </trkpt>
      <trkpt lat="45.888415519148111" lon="7.916257940232754">
        <ele>1694.46</ele>
        <time>2017-01-29T10:26:17Z</time>
      </trkpt>
      <trkpt lat="45.888450471684337" lon="7.916211001574993">
        <ele>1694.9400000000001</ele>
        <time>2017-01-29T10:26:23Z</time>
      </trkpt>
      <trkpt lat="45.888491962105036" lon="7.916072951629758">
        <ele>1695.9000000000001</ele>
        <time>2017-01-29T10:26:34Z</time>
      </trkpt>
      <trkpt lat="45.888547115027905" lon="7.915993239730597">
        <ele>1696.8599999999999</ele>
        <time>2017-01-29T10:26:44Z</time>
      </trkpt>
      <trkpt lat="45.88856840506196" lon="7.915915036574006">
        <ele>1698.3099999999999</ele>
        <time>2017-01-29T10:26:53Z</time>
      </trkpt>
      <trkpt lat="45.88857720606029" lon="7.915901625528932">
        <ele>1699.27</ele>
        <time>2017-01-29T10:27:00Z</time>
      </trkpt>
      <trkpt lat="45.888579301536083" lon="7.915840437635779">
        <ele>1700.71</ele>
        <time>2017-01-29T10:27:08Z</time>
      </trkpt>
      <trkpt lat="45.888581732288003" lon="7.915784446522594">
        <ele>1702.6300000000001</ele>
        <time>2017-01-29T10:27:16Z</time>
      </trkpt>
      <trkpt lat="45.888615176081657" lon="7.915717475116253">
        <ele>1704.0699999999999</ele>
        <time>2017-01-29T10:27:25Z</time>
      </trkpt>
      <trkpt lat="45.888667060062289" lon="7.915663328021765">
        <ele>1705.04</ele>
        <time>2017-01-29T10:27:33Z</time>
      </trkpt>
      <trkpt lat="45.88870813138783" lon="7.915573641657829">
        <ele>1706</ele>
        <time>2017-01-29T10:27:43Z</time>
      </trkpt>
      <trkpt lat="45.888742161914706" lon="7.915450343862176">
        <ele>1707.4400000000001</ele>
        <time>2017-01-29T10:27:55Z</time>
      </trkpt>
      <trkpt lat="45.888757416978478" lon="7.91538261808455">
        <ele>1708.8800000000001</ele>
        <time>2017-01-29T10:28:04Z</time>
      </trkpt>
      <trkpt lat="45.888775521889329" lon="7.915421342477202">
        <ele>1710.3199999999999</ele>
        <time>2017-01-29T10:28:15Z</time>
      </trkpt>
      <trkpt lat="45.888800164684653" lon="7.915364010259509">
        <ele>1710.3199999999999</ele>
        <time>2017-01-29T10:28:23Z</time>
      </trkpt>
      <trkpt lat="45.888816593214869" lon="7.915350683033466">
        <ele>1710.8</ele>
        <time>2017-01-29T10:28:33Z</time>
      </trkpt>
      <trkpt lat="45.888841487467289" lon="7.915334003046155">
        <ele>1710.8</ele>
        <time>2017-01-29T10:28:54Z</time>
      </trkpt>
      <trkpt lat="45.888844253495336" lon="7.915357472375035">
        <ele>1710.8</ele>
        <time>2017-01-29T10:29:17Z</time>
      </trkpt>
      <trkpt lat="45.888837799429893" lon="7.91540801525116">
        <ele>1710.8</ele>
        <time>2017-01-29T10:29:38Z</time>
      </trkpt>
      <trkpt lat="45.888822209089994" lon="7.915414050221443">
        <ele>1710.8</ele>
        <time>2017-01-29T10:29:54Z</time>
      </trkpt>
      <trkpt lat="45.88882002979517" lon="7.915423773229122">
        <ele>1711.28</ele>
        <time>2017-01-29T10:30:07Z</time>
      </trkpt>
      <trkpt lat="45.888827657327056" lon="7.915438190102577">
        <ele>1711.28</ele>
        <time>2017-01-29T10:30:28Z</time>
      </trkpt>
      <trkpt lat="45.888839391991496" lon="7.915393430739641">
        <ele>1711.28</ele>
        <time>2017-01-29T10:30:39Z</time>
      </trkpt>
      <trkpt lat="45.88886596262455" lon="7.915290165692568">
        <ele>1711.76</ele>
        <time>2017-01-29T10:30:47Z</time>
      </trkpt>
      <trkpt lat="45.888883229345083" lon="7.915257727727294">
        <ele>1713.21</ele>
        <time>2017-01-29T10:30:55Z</time>
      </trkpt>
      <trkpt lat="45.888902507722378" lon="7.91520475409925">
        <ele>1713.6900000000001</ele>
        <time>2017-01-29T10:31:04Z</time>
      </trkpt>
      <trkpt lat="45.888902088627219" lon="7.915166364982724">
        <ele>1714.1700000000001</ele>
        <time>2017-01-29T10:31:06Z</time>
      </trkpt>
      <trkpt lat="45.88895590044558" lon="7.915020603686571">
        <ele>1714.6500000000001</ele>
        <time>2017-01-29T10:31:18Z</time>
      </trkpt>
      <trkpt lat="45.888968976214528" lon="7.914897724986076">
        <ele>1715.6099999999999</ele>
        <time>2017-01-29T10:31:27Z</time>
      </trkpt>
      <trkpt lat="45.889003593474627" lon="7.914818683639169">
        <ele>1716.5699999999999</ele>
        <time>2017-01-29T10:31:34Z</time>
      </trkpt>
      <trkpt lat="45.889004850760102" lon="7.914804602041841">
        <ele>1716.5699999999999</ele>
        <time>2017-01-29T10:31:35Z</time>
      </trkpt>
      <trkpt lat="45.889055812731385" lon="7.914685159921646">
        <ele>1718.01</ele>
        <time>2017-01-29T10:31:46Z</time>
      </trkpt>
      <trkpt lat="45.889085652306676" lon="7.914604777470231">
        <ele>1718.49</ele>
        <time>2017-01-29T10:31:53Z</time>
      </trkpt>
      <trkpt lat="45.889087077230215" lon="7.914506625384092">
        <ele>1719.9400000000001</ele>
        <time>2017-01-29T10:32:01Z</time>
      </trkpt>
      <trkpt lat="45.889099314808846" lon="7.91447963565588">
        <ele>1720.4200000000001</ele>
        <time>2017-01-29T10:32:04Z</time>
      </trkpt>
      <trkpt lat="45.889107780531049" lon="7.914342004805803">
        <ele>1721.3800000000001</ele>
        <time>2017-01-29T10:32:14Z</time>
      </trkpt>
      <trkpt lat="45.889131333678961" lon="7.914311913773418">
        <ele>1721.8599999999999</ele>
        <time>2017-01-29T10:32:20Z</time>
      </trkpt>
      <trkpt lat="45.889178272336721" lon="7.91428224183619">
        <ele>1722.3399999999999</ele>
        <time>2017-01-29T10:32:25Z</time>
      </trkpt>
      <trkpt lat="45.889246836304665" lon="7.914191382005811">
        <ele>1722.8199999999999</ele>
        <time>2017-01-29T10:32:35Z</time>
      </trkpt>
      <trkpt lat="45.88931548409164" lon="7.914188532158732">
        <ele>1723.78</ele>
        <time>2017-01-29T10:32:44Z</time>
      </trkpt>
      <trkpt lat="45.889320680871606" lon="7.914157351478934">
        <ele>1724.74</ele>
        <time>2017-01-29T10:32:50Z</time>
      </trkpt>
      <trkpt lat="45.88927248492837" lon="7.914087949320674">
        <ele>1726.6700000000001</ele>
        <time>2017-01-29T10:33:00Z</time>
      </trkpt>
      <trkpt lat="45.889237364754081" lon="7.914073029533029">
        <ele>1728.1099999999999</ele>
        <time>2017-01-29T10:33:09Z</time>
      </trkpt>
      <trkpt lat="45.889259409159422" lon="7.9140071477741">
        <ele>1730.03</ele>
        <time>2017-01-29T10:33:20Z</time>
      </trkpt>
      <trkpt lat="45.889312382787466" lon="7.914058864116669">
        <ele>1730.99</ele>
        <time>2017-01-29T10:33:29Z</time>
      </trkpt>
      <trkpt lat="45.889356303960085" lon="7.914029024541378">
        <ele>1732.4300000000001</ele>
        <time>2017-01-29T10:33:35Z</time>
      </trkpt>
      <trkpt lat="45.889379605650902" lon="7.913925088942051">
        <ele>1733.8800000000001</ele>
        <time>2017-01-29T10:33:47Z</time>
      </trkpt>
      <trkpt lat="45.889395950362086" lon="7.913858033716679">
        <ele>1735.8</ele>
        <time>2017-01-29T10:33:57Z</time>
      </trkpt>
      <trkpt lat="45.889423610642552" lon="7.913823751732707">
        <ele>1736.76</ele>
        <time>2017-01-29T10:34:03Z</time>
      </trkpt>
      <trkpt lat="45.889470968395472" lon="7.913732137531042">
        <ele>1738.6800000000001</ele>
        <time>2017-01-29T10:34:16Z</time>
      </trkpt>
      <trkpt lat="45.889412211254239" lon="7.913721827790141">
        <ele>1740.1199999999999</ele>
        <time>2017-01-29T10:34:25Z</time>
      </trkpt>
      <trkpt lat="45.88936535641551" lon="7.913712859153748">
        <ele>1742.05</ele>
        <time>2017-01-29T10:34:35Z</time>
      </trkpt>
      <trkpt lat="45.889312047511339" lon="7.913724929094315">
        <ele>1743.49</ele>
        <time>2017-01-29T10:34:45Z</time>
      </trkpt>
      <trkpt lat="45.889270976185799" lon="7.913683019578457">
        <ele>1744.9300000000001</ele>
        <time>2017-01-29T10:34:54Z</time>
      </trkpt>
      <trkpt lat="45.889238370582461" lon="7.913654688745737">
        <ele>1746.3699999999999</ele>
        <time>2017-01-29T10:35:03Z</time>
      </trkpt>
      <trkpt lat="45.88918212801218" lon="7.913608923554421">
        <ele>1748.29</ele>
        <time>2017-01-29T10:35:14Z</time>
      </trkpt>
      <trkpt lat="45.889136111363769" lon="7.913562068715692">
        <ele>1749.26</ele>
        <time>2017-01-29T10:35:23Z</time>
      </trkpt>
      <trkpt lat="45.889102583751082" lon="7.913510939106345">
        <ele>1750.7</ele>
        <time>2017-01-29T10:35:32Z</time>
      </trkpt>
      <trkpt lat="45.889050364494324" lon="7.913440279662609">
        <ele>1753.0999999999999</ele>
        <time>2017-01-29T10:35:44Z</time>
      </trkpt>
      <trkpt lat="45.889028739184141" lon="7.913399375975132">
        <ele>1754.54</ele>
        <time>2017-01-29T10:35:53Z</time>
      </trkpt>
      <trkpt lat="45.888996468856931" lon="7.913382276892662">
        <ele>1756.95</ele>
        <time>2017-01-29T10:36:02Z</time>
      </trkpt>
      <trkpt lat="45.889013316482306" lon="7.913341037929058">
        <ele>1757.4300000000001</ele>
        <time>2017-01-29T10:36:10Z</time>
      </trkpt>
      <trkpt lat="45.889008035883307" lon="7.913317903876305">
        <ele>1757.4300000000001</ele>
        <time>2017-01-29T10:36:21Z</time>
      </trkpt>
      <trkpt lat="45.888967718929052" lon="7.913285382091999">
        <ele>1760.3099999999999</ele>
        <time>2017-01-29T10:36:33Z</time>
      </trkpt>
      <trkpt lat="45.888948105275631" lon="7.913210783153772">
        <ele>1761.75</ele>
        <time>2017-01-29T10:36:43Z</time>
      </trkpt>
      <trkpt lat="45.888983812183142" lon="7.913162503391504">
        <ele>1763.6800000000001</ele>
        <time>2017-01-29T10:36:53Z</time>
      </trkpt>
      <trkpt lat="45.888951290398836" lon="7.913155546411872">
        <ele>1765.1199999999999</ele>
        <time>2017-01-29T10:37:03Z</time>
      </trkpt>
      <trkpt lat="45.888909045606852" lon="7.913111038506031">
        <ele>1766.5599999999999</ele>
        <time>2017-01-29T10:37:12Z</time>
      </trkpt>
      <trkpt lat="45.888888845220208" lon="7.913047755137086">
        <ele>1768</ele>
        <time>2017-01-29T10:37:22Z</time>
      </trkpt>
      <trkpt lat="45.888884402811527" lon="7.913032751530409">
        <ele>1769.4400000000001</ele>
        <time>2017-01-29T10:37:31Z</time>
      </trkpt>
      <trkpt lat="45.888866884633899" lon="7.912996038794518">
        <ele>1770.4100000000001</ele>
        <time>2017-01-29T10:37:38Z</time>
      </trkpt>
      <trkpt lat="45.888823717832565" lon="7.912961840629578">
        <ele>1772.8099999999999</ele>
        <time>2017-01-29T10:37:47Z</time>
      </trkpt>
      <trkpt lat="45.888818521052599" lon="7.912932755425572">
        <ele>1773.77</ele>
        <time>2017-01-29T10:37:51Z</time>
      </trkpt>
      <trkpt lat="45.888814246281981" lon="7.912872321903706">
        <ele>1775.6900000000001</ele>
        <time>2017-01-29T10:37:59Z</time>
      </trkpt>
      <trkpt lat="45.888817934319377" lon="7.912874417379499">
        <ele>1775.21</ele>
        <time>2017-01-29T10:38:09Z</time>
      </trkpt>
      <trkpt lat="45.888804355636239" lon="7.912820354104042">
        <ele>1777.1300000000001</ele>
        <time>2017-01-29T10:38:16Z</time>
      </trkpt>
      <trkpt lat="45.888787675648928" lon="7.912760004401207">
        <ele>1778.0999999999999</ele>
        <time>2017-01-29T10:38:24Z</time>
      </trkpt>
      <trkpt lat="45.888773510232568" lon="7.912712311372161">
        <ele>1780.02</ele>
        <time>2017-01-29T10:38:35Z</time>
      </trkpt>
      <trkpt lat="45.88876579888165" lon="7.912710886448622">
        <ele>1783.3800000000001</ele>
        <time>2017-01-29T10:38:42Z</time>
      </trkpt>
      <trkpt lat="45.888727493584156" lon="7.912740306928754">
        <ele>1782.9000000000001</ele>
        <time>2017-01-29T10:38:51Z</time>
      </trkpt>
      <trkpt lat="45.888702180236578" lon="7.912688003852963">
        <ele>1782.9000000000001</ele>
        <time>2017-01-29T10:39:04Z</time>
      </trkpt>
      <trkpt lat="45.888745849952102" lon="7.912652716040611">
        <ele>1784.3399999999999</ele>
        <time>2017-01-29T10:39:13Z</time>
      </trkpt>
      <trkpt lat="45.888795051723719" lon="7.912606280297041">
        <ele>1785.79</ele>
        <time>2017-01-29T10:39:22Z</time>
      </trkpt>
      <trkpt lat="45.888750292360783" lon="7.91254760697484">
        <ele>1788.1900000000001</ele>
        <time>2017-01-29T10:39:33Z</time>
      </trkpt>
      <trkpt lat="45.888713579624891" lon="7.912492621690035">
        <ele>1790.5899999999999</ele>
        <time>2017-01-29T10:39:44Z</time>
      </trkpt>
      <trkpt lat="45.88868566788733" lon="7.912428081035614">
        <ele>1792.52</ele>
        <time>2017-01-29T10:39:55Z</time>
      </trkpt>
      <trkpt lat="45.888707963749766" lon="7.912385500967503">
        <ele>1793.96</ele>
        <time>2017-01-29T10:40:03Z</time>
      </trkpt>
      <trkpt lat="45.888681728392839" lon="7.912345267832279">
        <ele>1795.4000000000001</ele>
        <time>2017-01-29T10:40:12Z</time>
      </trkpt>
      <trkpt lat="45.888663539662957" lon="7.912261364981532">
        <ele>1796.8399999999999</ele>
        <time>2017-01-29T10:40:23Z</time>
      </trkpt>
      <trkpt lat="45.88870519772172" lon="7.912241751328111">
        <ele>1798.28</ele>
        <time>2017-01-29T10:40:31Z</time>
      </trkpt>
      <trkpt lat="45.888713411986828" lon="7.91219724342227">
        <ele>1800.21</ele>
        <time>2017-01-29T10:40:39Z</time>
      </trkpt>
      <trkpt lat="45.888706790283322" lon="7.912151897326112">
        <ele>1801.1700000000001</ele>
        <time>2017-01-29T10:40:50Z</time>
      </trkpt>
      <trkpt lat="45.888651721179485" lon="7.912116944789887">
        <ele>1802.6099999999999</ele>
        <time>2017-01-29T10:40:59Z</time>
      </trkpt>
      <trkpt lat="45.888625485822558" lon="7.912064054980874">
        <ele>1804.53</ele>
        <time>2017-01-29T10:41:11Z</time>
      </trkpt>
      <trkpt lat="45.888607213273644" lon="7.912002950906754">
        <ele>1805.49</ele>
        <time>2017-01-29T10:41:20Z</time>
      </trkpt>
      <trkpt lat="45.888629425317049" lon="7.912034969776869">
        <ele>1807.4200000000001</ele>
        <time>2017-01-29T10:41:28Z</time>
      </trkpt>
      <trkpt lat="45.888649541884661" lon="7.912047291174531">
        <ele>1808.3800000000001</ele>
        <time>2017-01-29T10:41:34Z</time>
      </trkpt>
      <trkpt lat="45.888664377853274" lon="7.912040501832962">
        <ele>1808.8599999999999</ele>
        <time>2017-01-29T10:41:44Z</time>
      </trkpt>
      <trkpt lat="45.888660438358784" lon="7.912032455205917">
        <ele>1808.8599999999999</ele>
        <time>2017-01-29T10:41:47Z</time>
      </trkpt>
      <trkpt lat="45.888606291264296" lon="7.911915527656674">
        <ele>1810.3</ele>
        <time>2017-01-29T10:41:59Z</time>
      </trkpt>
      <trkpt lat="45.888609308749437" lon="7.911839671432972">
        <ele>1812.7</ele>
        <time>2017-01-29T10:42:10Z</time>
      </trkpt>
      <trkpt lat="45.888617690652609" lon="7.911834642291069">
        <ele>1812.7</ele>
        <time>2017-01-29T10:42:11Z</time>
      </trkpt>
      <trkpt lat="45.888604782521725" lon="7.911790469661355">
        <ele>1814.6300000000001</ele>
        <time>2017-01-29T10:42:20Z</time>
      </trkpt>
      <trkpt lat="45.888583408668637" lon="7.911758031696081">
        <ele>1816.55</ele>
        <time>2017-01-29T10:42:29Z</time>
      </trkpt>
      <trkpt lat="45.888556921854615" lon="7.911726096644998">
        <ele>1818.47</ele>
        <time>2017-01-29T10:42:38Z</time>
      </trkpt>
      <trkpt lat="45.888577122241259" lon="7.911708410829306">
        <ele>1819.4300000000001</ele>
        <time>2017-01-29T10:42:46Z</time>
      </trkpt>
      <trkpt lat="45.888597741723061" lon="7.911715619266033">
        <ele>1819.9100000000001</ele>
        <time>2017-01-29T10:42:55Z</time>
      </trkpt>
      <trkpt lat="45.888623725622892" lon="7.911708913743496">
        <ele>1821.3499999999999</ele>
        <time>2017-01-29T10:43:03Z</time>
      </trkpt>
      <trkpt lat="45.888644764199853" lon="7.911755098029971">
        <ele>1823.28</ele>
        <time>2017-01-29T10:43:12Z</time>
      </trkpt>
      <trkpt lat="45.888660186901689" lon="7.911765072494745">
        <ele>1824.24</ele>
        <time>2017-01-29T10:43:20Z</time>
      </trkpt>
      <trkpt lat="45.888644931837916" lon="7.911701956763864">
        <ele>1825.6800000000001</ele>
        <time>2017-01-29T10:43:29Z</time>
      </trkpt>
      <trkpt lat="45.888627162203193" lon="7.911657281219959">
        <ele>1827.5999999999999</ele>
        <time>2017-01-29T10:43:39Z</time>
      </trkpt>
      <trkpt lat="45.888615343719721" lon="7.911597182974219">
        <ele>1828.0799999999999</ele>
        <time>2017-01-29T10:43:45Z</time>
      </trkpt>
      <trkpt lat="45.888667814433575" lon="7.911602044478059">
        <ele>1829.53</ele>
        <time>2017-01-29T10:43:55Z</time>
      </trkpt>
      <trkpt lat="45.888692373409867" lon="7.91158938780427">
        <ele>1830.01</ele>
        <time>2017-01-29T10:44:16Z</time>
      </trkpt>
      <trkpt lat="45.88867049664259" lon="7.911532055586577">
        <ele>1831.9300000000001</ele>
        <time>2017-01-29T10:44:25Z</time>
      </trkpt>
      <trkpt lat="45.88863923214376" lon="7.911497186869383">
        <ele>1833.8499999999999</ele>
        <time>2017-01-29T10:44:35Z</time>
      </trkpt>
      <trkpt lat="45.8886285033077" lon="7.911440106108785">
        <ele>1835.77</ele>
        <time>2017-01-29T10:44:44Z</time>
      </trkpt>
      <trkpt lat="45.888633616268635" lon="7.911423174664378">
        <ele>1837.22</ele>
        <time>2017-01-29T10:44:54Z</time>
      </trkpt>
      <trkpt lat="45.888636214658618" lon="7.911407835781574">
        <ele>1838.6600000000001</ele>
        <time>2017-01-29T10:45:05Z</time>
      </trkpt>
      <trkpt lat="45.888623306527734" lon="7.911415966227651">
        <ele>1838.6600000000001</ele>
        <time>2017-01-29T10:45:12Z</time>
      </trkpt>
      <trkpt lat="45.888590952381492" lon="7.911381097510457">
        <ele>1839.6199999999999</ele>
        <time>2017-01-29T10:45:19Z</time>
      </trkpt>
      <trkpt lat="45.888611907139421" lon="7.911402555182576">
        <ele>1840.5799999999999</ele>
        <time>2017-01-29T10:45:30Z</time>
      </trkpt>
      <trkpt lat="45.888592209666967" lon="7.91135972365737">
        <ele>1841.0599999999999</ele>
        <time>2017-01-29T10:45:41Z</time>
      </trkpt>
      <trkpt lat="45.888602938503027" lon="7.911337930709124">
        <ele>1841.0599999999999</ele>
        <time>2017-01-29T10:45:52Z</time>
      </trkpt>
      <trkpt lat="45.888586509972811" lon="7.911286884918809">
        <ele>1842.5</ele>
        <time>2017-01-29T10:46:01Z</time>
      </trkpt>
      <trkpt lat="45.888555413112044" lon="7.911233743652701">
        <ele>1844.4300000000001</ele>
        <time>2017-01-29T10:46:11Z</time>
      </trkpt>
      <trkpt lat="45.888516688719392" lon="7.911224942654371">
        <ele>1846.8299999999999</ele>
        <time>2017-01-29T10:46:22Z</time>
      </trkpt>
      <trkpt lat="45.888490872457623" lon="7.911155540496111">
        <ele>1848.75</ele>
        <time>2017-01-29T10:46:31Z</time>
      </trkpt>
      <trkpt lat="45.888478886336088" lon="7.911112457513809">
        <ele>1849.71</ele>
        <time>2017-01-29T10:46:41Z</time>
      </trkpt>
      <trkpt lat="45.888466145843267" lon="7.911080187186599">
        <ele>1849.71</ele>
        <time>2017-01-29T10:46:53Z</time>
      </trkpt>
      <trkpt lat="45.888413423672318" lon="7.911010449752212">
        <ele>1849.71</ele>
        <time>2017-01-29T10:47:02Z</time>
      </trkpt>
      <trkpt lat="45.888409400358796" lon="7.910975245758891">
        <ele>1850.1900000000001</ele>
        <time>2017-01-29T10:47:05Z</time>
      </trkpt>
      <trkpt lat="45.888404790312052" lon="7.910934425890446">
        <ele>1850.6800000000001</ele>
        <time>2017-01-29T10:47:15Z</time>
      </trkpt>
      <trkpt lat="45.888398252427578" lon="7.910939957946539">
        <ele>1850.6800000000001</ele>
        <time>2017-01-29T10:47:26Z</time>
      </trkpt>
      <trkpt lat="45.888395234942436" lon="7.910925289615989">
        <ele>1850.6800000000001</ele>
        <time>2017-01-29T10:47:39Z</time>
      </trkpt>
      <trkpt lat="45.88840470649302" lon="7.910898132249713">
        <ele>1850.6800000000001</ele>
        <time>2017-01-29T10:47:52Z</time>
      </trkpt>
      <trkpt lat="45.888395989313722" lon="7.910887403413653">
        <ele>1850.6800000000001</ele>
        <time>2017-01-29T10:48:08Z</time>
      </trkpt>
      <trkpt lat="45.888400264084339" lon="7.910906933248043">
        <ele>1850.6800000000001</ele>
        <time>2017-01-29T10:48:22Z</time>
      </trkpt>
      <trkpt lat="45.888396576046944" lon="7.910908441990614">
        <ele>1850.6800000000001</ele>
        <time>2017-01-29T10:48:36Z</time>
      </trkpt>
      <trkpt lat="45.88838760741055" lon="7.910918416455388">
        <ele>1850.6800000000001</ele>
        <time>2017-01-29T10:48:49Z</time>
      </trkpt>
      <trkpt lat="45.888378890231252" lon="7.910935850813985">
        <ele>1850.6800000000001</ele>
        <time>2017-01-29T10:49:00Z</time>
      </trkpt>
      <trkpt lat="45.888393893837929" lon="7.910905759781599">
        <ele>1850.6800000000001</ele>
        <time>2017-01-29T10:49:08Z</time>
      </trkpt>
      <trkpt lat="45.888406550511718" lon="7.910902155563235">
        <ele>1850.6800000000001</ele>
        <time>2017-01-29T10:49:25Z</time>
      </trkpt>
      <trkpt lat="45.888399928808212" lon="7.910863347351551">
        <ele>1850.6800000000001</ele>
        <time>2017-01-29T10:49:37Z</time>
      </trkpt>
      <trkpt lat="45.88839934207499" lon="7.910712137818337">
        <ele>1850.1900000000001</ele>
        <time>2017-01-29T10:49:48Z</time>
      </trkpt>
      <trkpt lat="45.888389367610216" lon="7.910701241344214">
        <ele>1850.1900000000001</ele>
        <time>2017-01-29T10:49:54Z</time>
      </trkpt>
      <trkpt lat="45.888389954343438" lon="7.910673748701811">
        <ele>1850.1900000000001</ele>
        <time>2017-01-29T10:49:56Z</time>
      </trkpt>
      <trkpt lat="45.888398000970483" lon="7.910588504746556">
        <ele>1848.75</ele>
        <time>2017-01-29T10:50:06Z</time>
      </trkpt>
      <trkpt lat="45.888407221063972" lon="7.910568471997976">
        <ele>1848.75</ele>
        <time>2017-01-29T10:50:15Z</time>
      </trkpt>
      <trkpt lat="45.888405041769147" lon="7.910546259954572">
        <ele>1848.27</ele>
        <time>2017-01-29T10:50:19Z</time>
      </trkpt>
      <trkpt lat="45.888397917151451" lon="7.910496890544891">
        <ele>1847.3099999999999</ele>
        <time>2017-01-29T10:50:23Z</time>
      </trkpt>
      <trkpt lat="45.888362796977162" lon="7.910410724580288">
        <ele>1845.8699999999999</ele>
        <time>2017-01-29T10:50:33Z</time>
      </trkpt>
      <trkpt lat="45.888362294062972" lon="7.910349452868104">
        <ele>1845.3900000000001</ele>
        <time>2017-01-29T10:50:46Z</time>
      </trkpt>
      <trkpt lat="45.888366485014558" lon="7.91035171598196">
        <ele>1845.3900000000001</ele>
        <time>2017-01-29T10:50:59Z</time>
      </trkpt>
      <trkpt lat="45.888364557176828" lon="7.910331599414349">
        <ele>1845.3900000000001</ele>
        <time>2017-01-29T10:51:04Z</time>
      </trkpt>
      <trkpt lat="45.888356091454625" lon="7.91024568490684">
        <ele>1844.9100000000001</ele>
        <time>2017-01-29T10:51:12Z</time>
      </trkpt>
      <trkpt lat="45.888357516378164" lon="7.910208469256759">
        <ele>1844.9100000000001</ele>
        <time>2017-01-29T10:51:15Z</time>
      </trkpt>
      <trkpt lat="45.888341423124075" lon="7.910124734044075">
        <ele>1844.9100000000001</ele>
        <time>2017-01-29T10:51:24Z</time>
      </trkpt>
      <trkpt lat="45.888318121433258" lon="7.910024151206017">
        <ele>1844.9100000000001</ele>
        <time>2017-01-29T10:51:34Z</time>
      </trkpt>
      <trkpt lat="45.888316864147782" lon="7.909953407943249">
        <ele>1844.9100000000001</ele>
        <time>2017-01-29T10:51:42Z</time>
      </trkpt>
      <trkpt lat="45.888325413689017" lon="7.909961119294167">
        <ele>1844.9100000000001</ele>
        <time>2017-01-29T10:51:59Z</time>
      </trkpt>
      <trkpt lat="45.888339076191187" lon="7.909929770976305">
        <ele>1845.3900000000001</ele>
        <time>2017-01-29T10:52:07Z</time>
      </trkpt>
      <trkpt lat="45.888334633782506" lon="7.909909570589662">
        <ele>1845.3900000000001</ele>
        <time>2017-01-29T10:52:09Z</time>
      </trkpt>
      <trkpt lat="45.888326922431588" lon="7.909865817055106">
        <ele>1845.8699999999999</ele>
        <time>2017-01-29T10:52:13Z</time>
      </trkpt>
      <trkpt lat="45.888285934925079" lon="7.909771436825395">
        <ele>1846.3499999999999</ele>
        <time>2017-01-29T10:52:21Z</time>
      </trkpt>
      <trkpt lat="45.888271098956466" lon="7.909754170104861">
        <ele>1846.8299999999999</ele>
        <time>2017-01-29T10:52:23Z</time>
      </trkpt>
      <trkpt lat="45.888255257159472" lon="7.909716870635748">
        <ele>1847.3099999999999</ele>
        <time>2017-01-29T10:52:26Z</time>
      </trkpt>
      <trkpt lat="45.888219634070992" lon="7.909626346081495">
        <ele>1847.79</ele>
        <time>2017-01-29T10:52:34Z</time>
      </trkpt>
      <trkpt lat="45.888184094801545" lon="7.909528277814388">
        <ele>1847.79</ele>
        <time>2017-01-29T10:52:41Z</time>
      </trkpt>
      <trkpt lat="45.888185687363148" lon="7.90948536247015">
        <ele>1848.27</ele>
        <time>2017-01-29T10:52:44Z</time>
      </trkpt>
      <trkpt lat="45.888188201934099" lon="7.909420737996697">
        <ele>1848.75</ele>
        <time>2017-01-29T10:52:54Z</time>
      </trkpt>
      <trkpt lat="45.888191135600209" lon="7.909303307533264">
        <ele>1848.75</ele>
        <time>2017-01-29T10:53:03Z</time>
      </trkpt>
      <trkpt lat="45.888187950477004" lon="7.909250417724252">
        <ele>1849.23</ele>
        <time>2017-01-29T10:53:07Z</time>
      </trkpt>
      <trkpt lat="45.888171102851629" lon="7.909178668633103">
        <ele>1849.71</ele>
        <time>2017-01-29T10:53:12Z</time>
      </trkpt>
      <trkpt lat="45.888144783675671" lon="7.90908663533628">
        <ele>1850.6800000000001</ele>
        <time>2017-01-29T10:53:19Z</time>
      </trkpt>
      <trkpt lat="45.88810614310205" lon="7.908986387774348">
        <ele>1851.1600000000001</ele>
        <time>2017-01-29T10:53:28Z</time>
      </trkpt>
      <trkpt lat="45.888061551377177" lon="7.9089146386832">
        <ele>1852.1199999999999</ele>
        <time>2017-01-29T10:53:36Z</time>
      </trkpt>
      <trkpt lat="45.888019558042288" lon="7.908810954540968">
        <ele>1852.1199999999999</ele>
        <time>2017-01-29T10:53:44Z</time>
      </trkpt>
      <trkpt lat="45.887988964095712" lon="7.908711042255163">
        <ele>1852.5999999999999</ele>
        <time>2017-01-29T10:53:53Z</time>
      </trkpt>
      <trkpt lat="45.887980666011572" lon="7.908604172989726">
        <ele>1853.5599999999999</ele>
        <time>2017-01-29T10:54:01Z</time>
      </trkpt>
      <trkpt lat="45.88798544369638" lon="7.908486155793071">
        <ele>1854.04</ele>
        <time>2017-01-29T10:54:10Z</time>
      </trkpt>
      <trkpt lat="45.887971445918083" lon="7.908374425023794">
        <ele>1854.52</ele>
        <time>2017-01-29T10:54:18Z</time>
      </trkpt>
      <trkpt lat="45.887968512251973" lon="7.908343579620123">
        <ele>1855</ele>
        <time>2017-01-29T10:54:20Z</time>
      </trkpt>
      <trkpt lat="45.887965662404895" lon="7.908302089199424">
        <ele>1855.96</ele>
        <time>2017-01-29T10:54:25Z</time>
      </trkpt>
      <trkpt lat="45.887936493381858" lon="7.908173091709614">
        <ele>1856.4400000000001</ele>
        <time>2017-01-29T10:54:36Z</time>
      </trkpt>
      <trkpt lat="45.887897852808237" lon="7.908088434487581">
        <ele>1857.8900000000001</ele>
        <time>2017-01-29T10:54:44Z</time>
      </trkpt>
      <trkpt lat="45.887890057638288" lon="7.908066976815462">
        <ele>1857.8900000000001</ele>
        <time>2017-01-29T10:54:46Z</time>
      </trkpt>
      <trkpt lat="45.887857116758823" lon="7.907964298501611">
        <ele>1858.3699999999999</ele>
        <time>2017-01-29T10:54:55Z</time>
      </trkpt>
      <trkpt lat="45.887827109545469" lon="7.90786555968225">
        <ele>1858.8499999999999</ele>
        <time>2017-01-29T10:55:06Z</time>
      </trkpt>
      <trkpt lat="45.887824427336454" lon="7.907858435064554">
        <ele>1858.8499999999999</ele>
        <time>2017-01-29T10:55:11Z</time>
      </trkpt>
      <trkpt lat="45.887815039604902" lon="7.907798001542687">
        <ele>1859.3299999999999</ele>
        <time>2017-01-29T10:55:17Z</time>
      </trkpt>
      <trkpt lat="45.887804059311748" lon="7.907731113955379">
        <ele>1859.8099999999999</ele>
        <time>2017-01-29T10:55:23Z</time>
      </trkpt>
      <trkpt lat="45.887788301333785" lon="7.907661460340023">
        <ele>1860.29</ele>
        <time>2017-01-29T10:55:28Z</time>
      </trkpt>
      <trkpt lat="45.887785200029612" lon="7.907611671835184">
        <ele>1860.29</ele>
        <time>2017-01-29T10:55:32Z</time>
      </trkpt>
      <trkpt lat="45.887739770114422" lon="7.907508239150047">
        <ele>1861.25</ele>
        <time>2017-01-29T10:55:41Z</time>
      </trkpt>
      <trkpt lat="45.887729963287711" lon="7.90749809704721">
        <ele>1861.73</ele>
        <time>2017-01-29T10:55:42Z</time>
      </trkpt>
      <trkpt lat="45.8876873832196" lon="7.907413942739368">
        <ele>1862.21</ele>
        <time>2017-01-29T10:55:52Z</time>
      </trkpt>
      <trkpt lat="45.887658130377531" lon="7.907322412356734">
        <ele>1863.1700000000001</ele>
        <time>2017-01-29T10:56:01Z</time>
      </trkpt>
      <trkpt lat="45.887638684362173" lon="7.907298021018505">
        <ele>1863.1700000000001</ele>
        <time>2017-01-29T10:56:04Z</time>
      </trkpt>
      <trkpt lat="45.887616723775864" lon="7.907218812033534">
        <ele>1863.1700000000001</ele>
        <time>2017-01-29T10:56:10Z</time>
      </trkpt>
      <trkpt lat="45.887587973847985" lon="7.907161060720682">
        <ele>1863.6500000000001</ele>
        <time>2017-01-29T10:56:16Z</time>
      </trkpt>
      <trkpt lat="45.887551764026284" lon="7.907085791230202">
        <ele>1864.6099999999999</ele>
        <time>2017-01-29T10:56:24Z</time>
      </trkpt>
      <trkpt lat="45.887527707964182" lon="7.907039690762758">
        <ele>1864.6099999999999</ele>
        <time>2017-01-29T10:56:29Z</time>
      </trkpt>
      <trkpt lat="45.887484457343817" lon="7.90694547817111">
        <ele>1865.5799999999999</ele>
        <time>2017-01-29T10:56:38Z</time>
      </trkpt>
      <trkpt lat="45.887470040470362" lon="7.906939694657922">
        <ele>1865.5799999999999</ele>
        <time>2017-01-29T10:56:40Z</time>
      </trkpt>
      <trkpt lat="45.887458808720112" lon="7.906926367431879">
        <ele>1866.0599999999999</ele>
        <time>2017-01-29T10:56:41Z</time>
      </trkpt>
      <trkpt lat="45.887438273057342" lon="7.906892923638225">
        <ele>1866.54</ele>
        <time>2017-01-29T10:56:46Z</time>
      </trkpt>
      <trkpt lat="45.887393597513437" lon="7.906847912818193">
        <ele>1866.54</ele>
        <time>2017-01-29T10:56:53Z</time>
      </trkpt>
      <trkpt lat="45.887364093214273" lon="7.906798794865608">
        <ele>1867.02</ele>
        <time>2017-01-29T10:56:59Z</time>
      </trkpt>
      <trkpt lat="45.887336852028966" lon="7.906764596700668">
        <ele>1867.5</ele>
        <time>2017-01-29T10:57:03Z</time>
      </trkpt>
      <trkpt lat="45.887278178706765" lon="7.906687986105681">
        <ele>1867.5</ele>
        <time>2017-01-29T10:57:12Z</time>
      </trkpt>
      <trkpt lat="45.887237442657351" lon="7.906639957800508">
        <ele>1867.98</ele>
        <time>2017-01-29T10:57:20Z</time>
      </trkpt>
      <trkpt lat="45.887193437665701" lon="7.906569465994835">
        <ele>1868.46</ele>
        <time>2017-01-29T10:57:27Z</time>
      </trkpt>
      <trkpt lat="45.887145157903433" lon="7.906476091593504">
        <ele>1868.9400000000001</ele>
        <time>2017-01-29T10:57:36Z</time>
      </trkpt>
      <trkpt lat="45.887132501229644" lon="7.906459160149097">
        <ele>1869.4200000000001</ele>
        <time>2017-01-29T10:57:39Z</time>
      </trkpt>
      <trkpt lat="45.887073995545506" lon="7.906391769647598">
        <ele>1869.9000000000001</ele>
        <time>2017-01-29T10:57:49Z</time>
      </trkpt>
      <trkpt lat="45.887054465711117" lon="7.906365534290671">
        <ele>1869.9000000000001</ele>
        <time>2017-01-29T10:57:52Z</time>
      </trkpt>
      <trkpt lat="45.886997720226645" lon="7.906294036656618">
        <ele>1870.8599999999999</ele>
        <time>2017-01-29T10:58:01Z</time>
      </trkpt>
      <trkpt lat="45.886974083259702" lon="7.906258916482329">
        <ele>1871.8199999999999</ele>
        <time>2017-01-29T10:58:06Z</time>
      </trkpt>
      <trkpt lat="45.886926725506783" lon="7.90616269223392">
        <ele>1872.3</ele>
        <time>2017-01-29T10:58:16Z</time>
      </trkpt>
      <trkpt lat="45.886905770748854" lon="7.906131763011217">
        <ele>1872.79</ele>
        <time>2017-01-29T10:58:19Z</time>
      </trkpt>
      <trkpt lat="45.886870231479406" lon="7.906068814918399">
        <ele>1873.27</ele>
        <time>2017-01-29T10:58:26Z</time>
      </trkpt>
      <trkpt lat="45.886818682774901" lon="7.905945684760809">
        <ele>1874.23</ele>
        <time>2017-01-29T10:58:38Z</time>
      </trkpt>
      <trkpt lat="45.886782724410295" lon="7.905892040580511">
        <ele>1875.1900000000001</ele>
        <time>2017-01-29T10:58:45Z</time>
      </trkpt>
      <trkpt lat="45.886765457689762" lon="7.905855746939778">
        <ele>1875.1900000000001</ele>
        <time>2017-01-29T10:58:48Z</time>
      </trkpt>
      <trkpt lat="45.886746849864721" lon="7.905855746939778">
        <ele>1875.1900000000001</ele>
        <time>2017-01-29T10:58:50Z</time>
      </trkpt>
      <trkpt lat="45.886718854308128" lon="7.90582163259387">
        <ele>1875.6700000000001</ele>
        <time>2017-01-29T10:59:01Z</time>
      </trkpt>
      <trkpt lat="45.886681219562888" lon="7.905784584581852">
        <ele>1875.6700000000001</ele>
        <time>2017-01-29T10:59:12Z</time>
      </trkpt>
      <trkpt lat="45.886614415794611" lon="7.905711242929101">
        <ele>1876.6300000000001</ele>
        <time>2017-01-29T10:59:24Z</time>
      </trkpt>
      <trkpt lat="45.886568482965231" lon="7.905658101662993">
        <ele>1876.6300000000001</ele>
        <time>2017-01-29T10:59:32Z</time>
      </trkpt>
      <trkpt lat="45.886545851826668" lon="7.905615773051977">
        <ele>1877.1099999999999</ele>
        <time>2017-01-29T10:59:37Z</time>
      </trkpt>
      <trkpt lat="45.886509139090776" lon="7.905530612915754">
        <ele>1877.5899999999999</ele>
        <time>2017-01-29T10:59:45Z</time>
      </trkpt>
      <trkpt lat="45.886457087472081" lon="7.905465150251985">
        <ele>1879.03</ele>
        <time>2017-01-29T10:59:55Z</time>
      </trkpt>
      <trkpt lat="45.886424817144871" lon="7.905420055612922">
        <ele>1880</ele>
        <time>2017-01-29T11:00:03Z</time>
      </trkpt>
      <trkpt lat="45.886376202106476" lon="7.905349899083376">
        <ele>1880.96</ele>
        <time>2017-01-29T11:00:12Z</time>
      </trkpt>
      <trkpt lat="45.886359689757228" lon="7.905341600999236">
        <ele>1881.4400000000001</ele>
        <time>2017-01-29T11:00:14Z</time>
      </trkpt>
      <trkpt lat="45.886314092203975" lon="7.905242945998907">
        <ele>1882.8800000000001</ele>
        <time>2017-01-29T11:00:25Z</time>
      </trkpt>
      <trkpt lat="45.886281989514828" lon="7.905105985701084">
        <ele>1883.3599999999999</ele>
        <time>2017-01-29T11:00:36Z</time>
      </trkpt>
      <trkpt lat="45.886280732229352" lon="7.905031722038984">
        <ele>1883.8399999999999</ele>
        <time>2017-01-29T11:00:42Z</time>
      </trkpt>
      <trkpt lat="45.886249886825681" lon="7.90494890883565">
        <ele>1884.3199999999999</ele>
        <time>2017-01-29T11:00:50Z</time>
      </trkpt>
      <trkpt lat="45.88620931841433" lon="7.904877075925469">
        <ele>1885.76</ele>
        <time>2017-01-29T11:00:59Z</time>
      </trkpt>
      <trkpt lat="45.886169504374266" lon="7.904804907739162">
        <ele>1886.72</ele>
        <time>2017-01-29T11:01:09Z</time>
      </trkpt>
      <trkpt lat="45.88611401617527" lon="7.904720418155193">
        <ele>1887.6900000000001</ele>
        <time>2017-01-29T11:01:19Z</time>
      </trkpt>
      <trkpt lat="45.886090211570263" lon="7.904600305482745">
        <ele>1888.1700000000001</ele>
        <time>2017-01-29T11:01:26Z</time>
      </trkpt>
      <trkpt lat="45.886098928749561" lon="7.904587062075734">
        <ele>1888.1700000000001</ele>
        <time>2017-01-29T11:01:28Z</time>
      </trkpt>
      <trkpt lat="45.886115776374936" lon="7.904546409845352">
        <ele>1888.6500000000001</ele>
        <time>2017-01-29T11:01:33Z</time>
      </trkpt>
      <trkpt lat="45.886105047538877" lon="7.90443585254252">
        <ele>1890.0899999999999</ele>
        <time>2017-01-29T11:01:44Z</time>
      </trkpt>
      <trkpt lat="45.886132037267089" lon="7.904412969946861">
        <ele>1890.5699999999999</ele>
        <time>2017-01-29T11:01:55Z</time>
      </trkpt>
      <trkpt lat="45.886121056973934" lon="7.904357062652707">
        <ele>1891.05</ele>
        <time>2017-01-29T11:02:10Z</time>
      </trkpt>
      <trkpt lat="45.886101359501481" lon="7.904334180057049">
        <ele>1892.49</ele>
        <time>2017-01-29T11:02:20Z</time>
      </trkpt>
      <trkpt lat="45.886084930971265" lon="7.904357649385929">
        <ele>1892.49</ele>
        <time>2017-01-29T11:02:29Z</time>
      </trkpt>
      <trkpt lat="45.886081242933869" lon="7.904396122321487">
        <ele>1892.49</ele>
        <time>2017-01-29T11:02:46Z</time>
      </trkpt>
      <trkpt lat="45.886094737797976" lon="7.904341304674745">
        <ele>1893.45</ele>
        <time>2017-01-29T11:02:59Z</time>
      </trkpt>
      <trkpt lat="45.886098090559244" lon="7.904334766790271">
        <ele>1892.97</ele>
        <time>2017-01-29T11:03:15Z</time>
      </trkpt>
      <trkpt lat="45.886071268469095" lon="7.90423845872283">
        <ele>1892.97</ele>
        <time>2017-01-29T11:03:25Z</time>
      </trkpt>
      <trkpt lat="45.886057941243052" lon="7.904159082099795">
        <ele>1894.4200000000001</ele>
        <time>2017-01-29T11:03:34Z</time>
      </trkpt>
      <trkpt lat="45.886044446378946" lon="7.904086662456393">
        <ele>1895.8599999999999</ele>
        <time>2017-01-29T11:03:43Z</time>
      </trkpt>
      <trkpt lat="45.886036399751902" lon="7.904007956385613">
        <ele>1896.8199999999999</ele>
        <time>2017-01-29T11:03:53Z</time>
      </trkpt>
      <trkpt lat="45.886035729199648" lon="7.903941990807653">
        <ele>1898.26</ele>
        <time>2017-01-29T11:04:01Z</time>
      </trkpt>
      <trkpt lat="45.886043021455407" lon="7.903910977765918">
        <ele>1898.74</ele>
        <time>2017-01-29T11:04:04Z</time>
      </trkpt>
      <trkpt lat="45.886037908494473" lon="7.903809053823352">
        <ele>1899.7</ele>
        <time>2017-01-29T11:04:14Z</time>
      </trkpt>
      <trkpt lat="45.886046960949898" lon="7.903721379116178">
        <ele>1900.6600000000001</ele>
        <time>2017-01-29T11:04:24Z</time>
      </trkpt>
      <trkpt lat="45.886022401973605" lon="7.903675697743893">
        <ele>1901.6300000000001</ele>
        <time>2017-01-29T11:04:32Z</time>
      </trkpt>
      <trkpt lat="45.886007398366928" lon="7.903662621974945">
        <ele>1902.5899999999999</ele>
        <time>2017-01-29T11:04:42Z</time>
      </trkpt>
      <trkpt lat="45.885991472750902" lon="7.903618616983295">
        <ele>1903.0699999999999</ele>
        <time>2017-01-29T11:04:53Z</time>
      </trkpt>
      <trkpt lat="45.885986695066094" lon="7.903520213440061">
        <ele>1904.51</ele>
        <time>2017-01-29T11:05:02Z</time>
      </trkpt>
      <trkpt lat="45.885971104726195" lon="7.903460199013352">
        <ele>1905.95</ele>
        <time>2017-01-29T11:05:12Z</time>
      </trkpt>
      <trkpt lat="45.8859639801085" lon="7.903376882895827">
        <ele>1906.9100000000001</ele>
        <time>2017-01-29T11:05:21Z</time>
      </trkpt>
      <trkpt lat="45.885952664539218" lon="7.9033437743783">
        <ele>1907.8699999999999</ele>
        <time>2017-01-29T11:05:27Z</time>
      </trkpt>
      <trkpt lat="45.885957023128867" lon="7.903253752738237">
        <ele>1908.8299999999999</ele>
        <time>2017-01-29T11:05:38Z</time>
      </trkpt>
      <trkpt lat="45.885954676195979" lon="7.903228439390659">
        <ele>1909.8</ele>
        <time>2017-01-29T11:05:43Z</time>
      </trkpt>
      <trkpt lat="45.885965237393975" lon="7.903236150741577">
        <ele>1909.8</ele>
        <time>2017-01-29T11:05:52Z</time>
      </trkpt>
      <trkpt lat="45.885925088077784" lon="7.903179908171296">
        <ele>1910.28</ele>
        <time>2017-01-29T11:06:02Z</time>
      </trkpt>
      <trkpt lat="45.885920394212008" lon="7.903106063604355">
        <ele>1911.72</ele>
        <time>2017-01-29T11:06:12Z</time>
      </trkpt>
      <trkpt lat="45.885917292907834" lon="7.903074966743588">
        <ele>1912.6800000000001</ele>
        <time>2017-01-29T11:06:21Z</time>
      </trkpt>
      <trkpt lat="45.885917125269771" lon="7.903088964521885">
        <ele>1912.6800000000001</ele>
        <time>2017-01-29T11:06:37Z</time>
      </trkpt>
      <trkpt lat="45.88593078777194" lon="7.9030916467309">
        <ele>1912.6800000000001</ele>
        <time>2017-01-29T11:06:48Z</time>
      </trkpt>
      <trkpt lat="45.885913018137217" lon="7.903035990893841">
        <ele>1913.1600000000001</ele>
        <time>2017-01-29T11:06:59Z</time>
      </trkpt>
      <trkpt lat="45.885914359241724" lon="7.90304378606379">
        <ele>1913.1600000000001</ele>
        <time>2017-01-29T11:07:12Z</time>
      </trkpt>
      <trkpt lat="45.885931458324194" lon="7.903027441352606">
        <ele>1912.6800000000001</ele>
        <time>2017-01-29T11:07:32Z</time>
      </trkpt>
      <trkpt lat="45.885907150804996" lon="7.903014617040753">
        <ele>1912.6800000000001</ele>
        <time>2017-01-29T11:07:43Z</time>
      </trkpt>
      <trkpt lat="45.885896924883127" lon="7.902984358370304">
        <ele>1914.1199999999999</ele>
        <time>2017-01-29T11:07:50Z</time>
      </trkpt>
      <trkpt lat="45.88587949052453" lon="7.902962733060122">
        <ele>1915.0799999999999</ele>
        <time>2017-01-29T11:07:58Z</time>
      </trkpt>
      <trkpt lat="45.885889884084463" lon="7.902991818264127">
        <ele>1914.5999999999999</ele>
        <time>2017-01-29T11:08:06Z</time>
      </trkpt>
      <trkpt lat="45.885870857164264" lon="7.903014030307531">
        <ele>1915.0799999999999</ele>
        <time>2017-01-29T11:08:10Z</time>
      </trkpt>
      <trkpt lat="45.885862139984965" lon="7.90298217907548">
        <ele>1915.5599999999999</ele>
        <time>2017-01-29T11:08:21Z</time>
      </trkpt>
      <trkpt lat="45.885851243510842" lon="7.902989136055112">
        <ele>1915.5599999999999</ele>
        <time>2017-01-29T11:08:31Z</time>
      </trkpt>
      <trkpt lat="45.885855685919523" lon="7.902977233752608">
        <ele>1915.5599999999999</ele>
        <time>2017-01-29T11:08:40Z</time>
      </trkpt>
      <trkpt lat="45.885845711454749" lon="7.902953764423728">
        <ele>1915.0799999999999</ele>
        <time>2017-01-29T11:08:52Z</time>
      </trkpt>
      <trkpt lat="45.885833473876119" lon="7.902921326458454">
        <ele>1914.5999999999999</ele>
        <time>2017-01-29T11:09:09Z</time>
      </trkpt>
      <trkpt lat="45.885821152478456" lon="7.902925349771977">
        <ele>1914.5999999999999</ele>
        <time>2017-01-29T11:09:21Z</time>
      </trkpt>
      <trkpt lat="45.885846633464098" lon="7.902947058901191">
        <ele>1914.5999999999999</ele>
        <time>2017-01-29T11:09:39Z</time>
      </trkpt>
      <trkpt lat="45.885849734768271" lon="7.90295192040503">
        <ele>1914.1199999999999</ele>
        <time>2017-01-29T11:09:50Z</time>
      </trkpt>
      <trkpt lat="45.885842442512512" lon="7.902926271781325">
        <ele>1914.5999999999999</ele>
        <time>2017-01-29T11:10:03Z</time>
      </trkpt>
      <trkpt lat="45.885848561301827" lon="7.90294211357832">
        <ele>1913.6400000000001</ele>
        <time>2017-01-29T11:10:21Z</time>
      </trkpt>
      <trkpt lat="45.88585945777595" lon="7.902947142720223">
        <ele>1914.1199999999999</ele>
        <time>2017-01-29T11:10:33Z</time>
      </trkpt>
      <trkpt lat="45.88585602119565" lon="7.90295921266079">
        <ele>1914.1199999999999</ele>
        <time>2017-01-29T11:10:49Z</time>
      </trkpt>
      <trkpt lat="45.885858871042728" lon="7.902964577078819">
        <ele>1912.6800000000001</ele>
        <time>2017-01-29T11:10:59Z</time>
      </trkpt>
      <trkpt lat="45.885856272652745" lon="7.902964996173978">
        <ele>1914.1199999999999</ele>
        <time>2017-01-29T11:11:15Z</time>
      </trkpt>
      <trkpt lat="45.885854177176952" lon="7.902947477996349">
        <ele>1913.6400000000001</ele>
        <time>2017-01-29T11:11:30Z</time>
      </trkpt>
      <trkpt lat="45.885841269046068" lon="7.902934150770307">
        <ele>1913.6400000000001</ele>
        <time>2017-01-29T11:11:42Z</time>
      </trkpt>
      <trkpt lat="45.885839927941561" lon="7.902934905141592">
        <ele>1913.1600000000001</ele>
        <time>2017-01-29T11:11:59Z</time>
      </trkpt>
      <trkpt lat="45.885851997882128" lon="7.902964409440756">
        <ele>1911.72</ele>
        <time>2017-01-29T11:12:05Z</time>
      </trkpt>
      <trkpt lat="45.885861217975616" lon="7.902971114963293">
        <ele>1912.6800000000001</ele>
        <time>2017-01-29T11:12:17Z</time>
      </trkpt>
      <trkpt lat="45.885864906013012" lon="7.902972372248769">
        <ele>1913.1600000000001</ele>
        <time>2017-01-29T11:12:27Z</time>
      </trkpt>
      <trkpt lat="45.885847304016352" lon="7.902945131063461">
        <ele>1912.6800000000001</ele>
        <time>2017-01-29T11:12:38Z</time>
      </trkpt>
      <trkpt lat="45.885848142206669" lon="7.902965918183327">
        <ele>1912.6800000000001</ele>
        <time>2017-01-29T11:12:49Z</time>
      </trkpt>
      <trkpt lat="45.885870940983295" lon="7.902979161590338">
        <ele>1912.6800000000001</ele>
        <time>2017-01-29T11:13:01Z</time>
      </trkpt>
      <trkpt lat="45.88584671728313" lon="7.902967175468803">
        <ele>1912.6800000000001</ele>
        <time>2017-01-29T11:13:40Z</time>
      </trkpt>
      <trkpt lat="45.885815620422363" lon="7.902954770252109">
        <ele>1913.1600000000001</ele>
        <time>2017-01-29T11:13:41Z</time>
      </trkpt>
      <trkpt lat="45.885828528553247" lon="7.902925768867135">
        <ele>1912.6800000000001</ele>
        <time>2017-01-29T11:13:54Z</time>
      </trkpt>
      <trkpt lat="45.885850321501493" lon="7.902942365035415">
        <ele>1912.6800000000001</ele>
        <time>2017-01-29T11:14:10Z</time>
      </trkpt>
      <trkpt lat="45.885820314288139" lon="7.902906322851777">
        <ele>1912.6800000000001</ele>
        <time>2017-01-29T11:14:30Z</time>
      </trkpt>
      <trkpt lat="45.885835736989975" lon="7.902953429147601">
        <ele>1912.6800000000001</ele>
        <time>2017-01-29T11:14:46Z</time>
      </trkpt>
      <trkpt lat="45.88585065677762" lon="7.902974970638752">
        <ele>1912.2</ele>
        <time>2017-01-29T11:15:02Z</time>
      </trkpt>
      <trkpt lat="45.88586138561368" lon="7.902975557371974">
        <ele>1912.2</ele>
        <time>2017-01-29T11:15:25Z</time>
      </trkpt>
      <trkpt lat="45.885864403098822" lon="7.902943035587668">
        <ele>1912.2</ele>
        <time>2017-01-29T11:15:39Z</time>
      </trkpt>
      <trkpt lat="45.885834731161594" lon="7.902936832979322">
        <ele>1911.72</ele>
        <time>2017-01-29T11:15:54Z</time>
      </trkpt>
      <trkpt lat="45.88583841919899" lon="7.90291965007782">
        <ele>1911.72</ele>
        <time>2017-01-29T11:16:12Z</time>
      </trkpt>
      <trkpt lat="45.885845292359591" lon="7.902909256517887">
        <ele>1911.72</ele>
        <time>2017-01-29T11:16:26Z</time>
      </trkpt>
      <trkpt lat="45.885850992053747" lon="7.90292501449585">
        <ele>1911.72</ele>
        <time>2017-01-29T11:16:42Z</time>
      </trkpt>
      <trkpt lat="45.885836239904165" lon="7.902855696156621">
        <ele>1912.2</ele>
        <time>2017-01-29T11:16:52Z</time>
      </trkpt>
      <trkpt lat="45.885816626250744" lon="7.902825269848108">
        <ele>1913.6400000000001</ele>
        <time>2017-01-29T11:17:00Z</time>
      </trkpt>
      <trkpt lat="45.885900193825364" lon="7.902798447757959">
        <ele>1915.0799999999999</ele>
        <time>2017-01-29T11:17:11Z</time>
      </trkpt>
      <trkpt lat="45.885896421968937" lon="7.902737176045775">
        <ele>1916.53</ele>
        <time>2017-01-29T11:17:19Z</time>
      </trkpt>
      <trkpt lat="45.885938834398985" lon="7.902754526585341">
        <ele>1917.97</ele>
        <time>2017-01-29T11:17:29Z</time>
      </trkpt>
      <trkpt lat="45.885966494679451" lon="7.902769362553954">
        <ele>1918.45</ele>
        <time>2017-01-29T11:17:37Z</time>
      </trkpt>
      <trkpt lat="45.885954089462757" lon="7.902738265693188">
        <ele>1919.4100000000001</ele>
        <time>2017-01-29T11:17:44Z</time>
      </trkpt>
      <trkpt lat="45.885928692296147" lon="7.902731560170651">
        <ele>1919.4100000000001</ele>
        <time>2017-01-29T11:17:52Z</time>
      </trkpt>
      <trkpt lat="45.885931709781289" lon="7.902685711160302">
        <ele>1919.8900000000001</ele>
        <time>2017-01-29T11:18:02Z</time>
      </trkpt>
      <trkpt lat="45.885903127491474" lon="7.90263969451189">
        <ele>1920.8499999999999</ele>
        <time>2017-01-29T11:18:11Z</time>
      </trkpt>
      <trkpt lat="45.8858706895262" lon="7.9025649279356">
        <ele>1921.3299999999999</ele>
        <time>2017-01-29T11:18:23Z</time>
      </trkpt>
      <trkpt lat="45.885870773345232" lon="7.902505751699209">
        <ele>1922.77</ele>
        <time>2017-01-29T11:18:32Z</time>
      </trkpt>
      <trkpt lat="45.885880496352911" lon="7.90248085744679">
        <ele>1922.77</ele>
        <time>2017-01-29T11:18:34Z</time>
      </trkpt>
      <trkpt lat="45.885864067822695" lon="7.902422267943621">
        <ele>1923.74</ele>
        <time>2017-01-29T11:18:41Z</time>
      </trkpt>
      <trkpt lat="45.885835317894816" lon="7.902370803058147">
        <ele>1924.7</ele>
        <time>2017-01-29T11:18:50Z</time>
      </trkpt>
      <trkpt lat="45.885816207155585" lon="7.902306346222758">
        <ele>1925.1800000000001</ele>
        <time>2017-01-29T11:19:01Z</time>
      </trkpt>
      <trkpt lat="45.885848812758923" lon="7.902305088937283">
        <ele>1926.6199999999999</ele>
        <time>2017-01-29T11:19:10Z</time>
      </trkpt>
      <trkpt lat="45.885845795273781" lon="7.902233339846134">
        <ele>1927.5799999999999</ele>
        <time>2017-01-29T11:19:19Z</time>
      </trkpt>
      <trkpt lat="45.885839341208339" lon="7.902187574654818">
        <ele>1928.0599999999999</ele>
        <time>2017-01-29T11:19:27Z</time>
      </trkpt>
      <trkpt lat="45.885830456390977" lon="7.902160501107574">
        <ele>1929.02</ele>
        <time>2017-01-29T11:19:35Z</time>
      </trkpt>
      <trkpt lat="45.885833809152246" lon="7.902109790593386">
        <ele>1929.5</ele>
        <time>2017-01-29T11:19:46Z</time>
      </trkpt>
      <trkpt lat="45.885829953476787" lon="7.9020503628999">
        <ele>1930.95</ele>
        <time>2017-01-29T11:19:56Z</time>
      </trkpt>
      <trkpt lat="45.885828444734216" lon="7.901987079530954">
        <ele>1931.4300000000001</ele>
        <time>2017-01-29T11:20:06Z</time>
      </trkpt>
      <trkpt lat="45.885836575180292" lon="7.901955982670188">
        <ele>1932.3900000000001</ele>
        <time>2017-01-29T11:20:16Z</time>
      </trkpt>
      <trkpt lat="45.885831965133548" lon="7.901920443400741">
        <ele>1932.3900000000001</ele>
        <time>2017-01-29T11:20:32Z</time>
      </trkpt>
      <trkpt lat="45.885818721726537" lon="7.901883814483881">
        <ele>1933.3499999999999</ele>
        <time>2017-01-29T11:20:44Z</time>
      </trkpt>
      <trkpt lat="45.885834647342563" lon="7.901839558035135">
        <ele>1933.8299999999999</ele>
        <time>2017-01-29T11:20:51Z</time>
      </trkpt>
      <trkpt lat="45.885836239904165" lon="7.901811981573701">
        <ele>1934.3099999999999</ele>
        <time>2017-01-29T11:21:00Z</time>
      </trkpt>
      <trkpt lat="45.885875131934881" lon="7.901837462559342">
        <ele>1935.27</ele>
        <time>2017-01-29T11:21:08Z</time>
      </trkpt>
      <trkpt lat="45.885873287916183" lon="7.901841402053833">
        <ele>1935.27</ele>
        <time>2017-01-29T11:21:24Z</time>
      </trkpt>
      <trkpt lat="45.885872533544898" lon="7.901851292699575">
        <ele>1935.27</ele>
        <time>2017-01-29T11:21:45Z</time>
      </trkpt>
      <trkpt lat="45.885902037844062" lon="7.901871996000409">
        <ele>1936.23</ele>
        <time>2017-01-29T11:21:54Z</time>
      </trkpt>
      <trkpt lat="45.885919891297817" lon="7.901881970465183">
        <ele>1937.1900000000001</ele>
        <time>2017-01-29T11:22:02Z</time>
      </trkpt>
      <trkpt lat="45.885944534093142" lon="7.901843581348658">
        <ele>1938.1600000000001</ele>
        <time>2017-01-29T11:22:10Z</time>
      </trkpt>
      <trkpt lat="45.88599918410182" lon="7.901883814483881">
        <ele>1939.5999999999999</ele>
        <time>2017-01-29T11:22:20Z</time>
      </trkpt>
      <trkpt lat="45.886007733643055" lon="7.901910888031125">
        <ele>1940.5599999999999</ele>
        <time>2017-01-29T11:22:29Z</time>
      </trkpt>
      <trkpt lat="45.886006811633706" lon="7.90185833349824">
        <ele>1941.04</ele>
        <time>2017-01-29T11:22:48Z</time>
      </trkpt>
      <trkpt lat="45.886002201586962" lon="7.90183243341744">
        <ele>1941.04</ele>
        <time>2017-01-29T11:23:02Z</time>
      </trkpt>
      <trkpt lat="45.886020809412003" lon="7.901810137555003">
        <ele>1941.52</ele>
        <time>2017-01-29T11:23:13Z</time>
      </trkpt>
      <trkpt lat="45.886014522984624" lon="7.901802007108927">
        <ele>1942.96</ele>
        <time>2017-01-29T11:23:24Z</time>
      </trkpt>
      <trkpt lat="45.885988790541887" lon="7.901792703196406">
        <ele>1942.48</ele>
        <time>2017-01-29T11:23:35Z</time>
      </trkpt>
      <trkpt lat="45.886009996756911" lon="7.901849616318941">
        <ele>1943.4400000000001</ele>
        <time>2017-01-29T11:23:44Z</time>
      </trkpt>
      <trkpt lat="45.886027766391635" lon="7.901859506964684">
        <ele>1943.9200000000001</ele>
        <time>2017-01-29T11:23:53Z</time>
      </trkpt>
      <trkpt lat="45.886026341468096" lon="7.901870403438807">
        <ele>1943.9200000000001</ele>
        <time>2017-01-29T11:24:12Z</time>
      </trkpt>
      <trkpt lat="45.886054588481784" lon="7.901863949373364">
        <ele>1944.4000000000001</ele>
        <time>2017-01-29T11:24:25Z</time>
      </trkpt>
      <trkpt lat="45.886047296226025" lon="7.901856824755669">
        <ele>1944.4000000000001</ele>
        <time>2017-01-29T11:24:40Z</time>
      </trkpt>
      <trkpt lat="45.886047966778278" lon="7.901894375681877">
        <ele>1944.4000000000001</ele>
        <time>2017-01-29T11:24:56Z</time>
      </trkpt>
      <trkpt lat="45.886057270690799" lon="7.901873253285885">
        <ele>1944.4000000000001</ele>
        <time>2017-01-29T11:25:14Z</time>
      </trkpt>
      <trkpt lat="45.88608811609447" lon="7.901912732049823">
        <ele>1945.3599999999999</ele>
        <time>2017-01-29T11:25:23Z</time>
      </trkpt>
      <trkpt lat="45.886085601523519" lon="7.901889011263847">
        <ele>1945.8499999999999</ele>
        <time>2017-01-29T11:25:35Z</time>
      </trkpt>
      <trkpt lat="45.886086523532867" lon="7.901851544156671">
        <ele>1946.8099999999999</ele>
        <time>2017-01-29T11:25:45Z</time>
      </trkpt>
      <trkpt lat="45.886098677292466" lon="7.901824722066522">
        <ele>1947.77</ele>
        <time>2017-01-29T11:25:56Z</time>
      </trkpt>
      <trkpt lat="45.886108316481113" lon="7.901825308799744">
        <ele>1948.25</ele>
        <time>2017-01-29T11:26:07Z</time>
      </trkpt>
      <trkpt lat="45.886098342016339" lon="7.901813155040145">
        <ele>1948.73</ele>
        <time>2017-01-29T11:26:15Z</time>
      </trkpt>
      <trkpt lat="45.886114770546556" lon="7.901776526123285">
        <ele>1950.1700000000001</ele>
        <time>2017-01-29T11:26:24Z</time>
      </trkpt>
      <trkpt lat="45.886141341179609" lon="7.90174157358706">
        <ele>1950.1700000000001</ele>
        <time>2017-01-29T11:26:33Z</time>
      </trkpt>
      <trkpt lat="45.886142179369926" lon="7.901717517524958">
        <ele>1951.1300000000001</ele>
        <time>2017-01-29T11:26:45Z</time>
      </trkpt>
      <trkpt lat="45.886128349229693" lon="7.901697903871536">
        <ele>1951.6099999999999</ele>
        <time>2017-01-29T11:26:54Z</time>
      </trkpt>
      <trkpt lat="45.88612231425941" lon="7.901664627715945">
        <ele>1951.6099999999999</ele>
        <time>2017-01-29T11:27:06Z</time>
      </trkpt>
      <trkpt lat="45.886137736961246" lon="7.901653563603759">
        <ele>1951.6099999999999</ele>
        <time>2017-01-29T11:27:20Z</time>
      </trkpt>
      <trkpt lat="45.886148549616337" lon="7.901603858917952">
        <ele>1952.5699999999999</ele>
        <time>2017-01-29T11:27:28Z</time>
      </trkpt>
      <trkpt lat="45.88614771142602" lon="7.901593968272209">
        <ele>1953.0599999999999</ele>
        <time>2017-01-29T11:27:38Z</time>
      </trkpt>
      <trkpt lat="45.886149052530527" lon="7.901569493114948">
        <ele>1954.02</ele>
        <time>2017-01-29T11:27:46Z</time>
      </trkpt>
      <trkpt lat="45.886150728911161" lon="7.901525991037488">
        <ele>1954.5</ele>
        <time>2017-01-29T11:27:58Z</time>
      </trkpt>
      <trkpt lat="45.886154500767589" lon="7.901497324928641">
        <ele>1954.98</ele>
        <time>2017-01-29T11:28:07Z</time>
      </trkpt>
      <trkpt lat="45.886175706982613" lon="7.901484752073884">
        <ele>1955.9400000000001</ele>
        <time>2017-01-29T11:28:21Z</time>
      </trkpt>
      <trkpt lat="45.88616045191884" lon="7.90148064494133">
        <ele>1955.9400000000001</ele>
        <time>2017-01-29T11:28:31Z</time>
      </trkpt>
      <trkpt lat="45.886172605678439" lon="7.901496654376388">
        <ele>1955.9400000000001</ele>
        <time>2017-01-29T11:28:40Z</time>
      </trkpt>
      <trkpt lat="45.886155925691128" lon="7.901535462588072">
        <ele>1955.9400000000001</ele>
        <time>2017-01-29T11:28:57Z</time>
      </trkpt>
      <trkpt lat="45.886154165491462" lon="7.901557590812445">
        <ele>1955.46</ele>
        <time>2017-01-29T11:29:04Z</time>
      </trkpt>
      <trkpt lat="45.88611401617527" lon="7.901617353782058">
        <ele>1954.5</ele>
        <time>2017-01-29T11:29:13Z</time>
      </trkpt>
      <trkpt lat="45.886112842708826" lon="7.901547448709607">
        <ele>1952.5699999999999</ele>
        <time>2017-01-29T11:29:24Z</time>
      </trkpt>
      <trkpt lat="45.886085769161582" lon="7.901522470638156">
        <ele>1951.6099999999999</ele>
        <time>2017-01-29T11:29:33Z</time>
      </trkpt>
      <trkpt lat="45.886069172993302" lon="7.901453906670213">
        <ele>1952.0899999999999</ele>
        <time>2017-01-29T11:29:42Z</time>
      </trkpt>
      <trkpt lat="45.886054001748562" lon="7.901427168399096">
        <ele>1951.1300000000001</ele>
        <time>2017-01-29T11:29:54Z</time>
      </trkpt>
      <trkpt lat="45.886013433337212" lon="7.901420630514622">
        <ele>1950.1700000000001</ele>
        <time>2017-01-29T11:30:03Z</time>
      </trkpt>
      <trkpt lat="45.885978983715177" lon="7.901365393772721">
        <ele>1950.1700000000001</ele>
        <time>2017-01-29T11:30:13Z</time>
      </trkpt>
      <trkpt lat="45.885961968451738" lon="7.901307307183743">
        <ele>1950.6500000000001</ele>
        <time>2017-01-29T11:30:24Z</time>
      </trkpt>
      <trkpt lat="45.885951407253742" lon="7.901270091533661">
        <ele>1951.6099999999999</ele>
        <time>2017-01-29T11:30:34Z</time>
      </trkpt>
      <trkpt lat="45.885974289849401" lon="7.90125634521246">
        <ele>1952.5699999999999</ele>
        <time>2017-01-29T11:30:43Z</time>
      </trkpt>
      <trkpt lat="45.88599381968379" lon="7.901239329949021">
        <ele>1954.02</ele>
        <time>2017-01-29T11:30:51Z</time>
      </trkpt>
      <trkpt lat="45.886006560176611" lon="7.901207646355033">
        <ele>1954.5</ele>
        <time>2017-01-29T11:30:59Z</time>
      </trkpt>
      <trkpt lat="45.885998848825693" lon="7.901188535615802">
        <ele>1954.98</ele>
        <time>2017-01-29T11:31:07Z</time>
      </trkpt>
      <trkpt lat="45.885998345911503" lon="7.901171520352364">
        <ele>1956.4200000000001</ele>
        <time>2017-01-29T11:31:16Z</time>
      </trkpt>
      <trkpt lat="45.88600505143404" lon="7.901132712140679">
        <ele>1957.3800000000001</ele>
        <time>2017-01-29T11:31:27Z</time>
      </trkpt>
      <trkpt lat="45.88600748218596" lon="7.901126341894269">
        <ele>1957.3800000000001</ele>
        <time>2017-01-29T11:31:28Z</time>
      </trkpt>
      <trkpt lat="45.88603924959898" lon="7.901131873950362">
        <ele>1958.8199999999999</ele>
        <time>2017-01-29T11:31:37Z</time>
      </trkpt>
      <trkpt lat="45.886032963171601" lon="7.901116199791431">
        <ele>1959.3</ele>
        <time>2017-01-29T11:31:46Z</time>
      </trkpt>
      <trkpt lat="45.88600555434823" lon="7.901093401014805">
        <ele>1960.75</ele>
        <time>2017-01-29T11:31:55Z</time>
      </trkpt>
      <trkpt lat="45.885994825512171" lon="7.901066578924656">
        <ele>1961.71</ele>
        <time>2017-01-29T11:32:01Z</time>
      </trkpt>
      <trkpt lat="45.886011589318514" lon="7.901043612509966">
        <ele>1963.1500000000001</ele>
        <time>2017-01-29T11:32:11Z</time>
      </trkpt>
      <trkpt lat="45.886035310104489" lon="7.901089964434505">
        <ele>1964.1099999999999</ele>
        <time>2017-01-29T11:32:20Z</time>
      </trkpt>
      <trkpt lat="45.886009074747562" lon="7.901014778763056">
        <ele>1964.5899999999999</ele>
        <time>2017-01-29T11:32:29Z</time>
      </trkpt>
      <trkpt lat="45.886022904887795" lon="7.900989800691605">
        <ele>1966.03</ele>
        <time>2017-01-29T11:32:37Z</time>
      </trkpt>
      <trkpt lat="45.886022569611669" lon="7.900967504829168">
        <ele>1966.03</ele>
        <time>2017-01-29T11:32:52Z</time>
      </trkpt>
      <trkpt lat="45.88602751493454" lon="7.900916626676917">
        <ele>1966.99</ele>
        <time>2017-01-29T11:33:04Z</time>
      </trkpt>
      <trkpt lat="45.8860226534307" lon="7.900877064093947">
        <ele>1967.48</ele>
        <time>2017-01-29T11:33:12Z</time>
      </trkpt>
      <trkpt lat="45.88601142168045" lon="7.900847224518657">
        <ele>1968.9200000000001</ele>
        <time>2017-01-29T11:33:22Z</time>
      </trkpt>
      <trkpt lat="45.886001447215676" lon="7.900791233405471">
        <ele>1969.8800000000001</ele>
        <time>2017-01-29T11:33:32Z</time>
      </trkpt>
      <trkpt lat="45.885996585711837" lon="7.900767428800464">
        <ele>1970.8399999999999</ele>
        <time>2017-01-29T11:33:42Z</time>
      </trkpt>
      <trkpt lat="45.885988622903824" lon="7.900793496519327">
        <ele>1970.8399999999999</ele>
        <time>2017-01-29T11:33:51Z</time>
      </trkpt>
      <trkpt lat="45.88597915135324" lon="7.90082685649395">
        <ele>1970.8399999999999</ele>
        <time>2017-01-29T11:33:59Z</time>
      </trkpt>
      <trkpt lat="45.886016199365258" lon="7.900754604488611">
        <ele>1970.3599999999999</ele>
        <time>2017-01-29T11:34:10Z</time>
      </trkpt>
      <trkpt lat="45.886005889624357" lon="7.900742953643203">
        <ele>1969.4000000000001</ele>
        <time>2017-01-29T11:34:16Z</time>
      </trkpt>
      <trkpt lat="45.88598694652319" lon="7.900774888694286">
        <ele>1969.8800000000001</ele>
        <time>2017-01-29T11:34:26Z</time>
      </trkpt>
      <trkpt lat="45.885975211858749" lon="7.900803806260228">
        <ele>1970.8399999999999</ele>
        <time>2017-01-29T11:34:38Z</time>
      </trkpt>
      <trkpt lat="45.886018881574273" lon="7.900728369131684">
        <ele>1970.3599999999999</ele>
        <time>2017-01-29T11:34:46Z</time>
      </trkpt>
      <trkpt lat="45.886022066697478" lon="7.900709426030517">
        <ele>1970.3599999999999</ele>
        <time>2017-01-29T11:34:59Z</time>
      </trkpt>
      <trkpt lat="45.886028436943889" lon="7.90070716291666">
        <ele>1970.3599999999999</ele>
        <time>2017-01-29T11:35:13Z</time>
      </trkpt>
      <trkpt lat="45.886046709492803" lon="7.900704061612487">
        <ele>1970.3599999999999</ele>
        <time>2017-01-29T11:35:30Z</time>
      </trkpt>
      <trkpt lat="45.886024078354239" lon="7.900691572576761">
        <ele>1970.3599999999999</ele>
        <time>2017-01-29T11:35:46Z</time>
      </trkpt>
      <trkpt lat="45.885983426123857" lon="7.900696266442537">
        <ele>1970.3599999999999</ele>
        <time>2017-01-29T11:35:59Z</time>
      </trkpt>
      <trkpt lat="45.885974541306496" lon="7.900674054399133">
        <ele>1970.3599999999999</ele>
        <time>2017-01-29T11:36:10Z</time>
      </trkpt>
      <trkpt lat="45.885985856875777" lon="7.900760555639863">
        <ele>1970.3599999999999</ele>
        <time>2017-01-29T11:36:21Z</time>
      </trkpt>
      <trkpt lat="45.885996418073773" lon="7.900716466829181">
        <ele>1970.3599999999999</ele>
        <time>2017-01-29T11:36:32Z</time>
      </trkpt>
      <trkpt lat="45.886002872139215" lon="7.900708923116326">
        <ele>1970.3599999999999</ele>
        <time>2017-01-29T11:36:46Z</time>
      </trkpt>
      <trkpt lat="45.886010332033038" lon="7.900690818205476">
        <ele>1970.8399999999999</ele>
        <time>2017-01-29T11:36:56Z</time>
      </trkpt>
      <trkpt lat="45.886027850210667" lon="7.900703055784106">
        <ele>1970.3599999999999</ele>
        <time>2017-01-29T11:37:14Z</time>
      </trkpt>
      <trkpt lat="45.886003458872437" lon="7.900673719123006">
        <ele>1970.8399999999999</ele>
        <time>2017-01-29T11:37:25Z</time>
      </trkpt>
      <trkpt lat="45.885998345911503" lon="7.900651339441538">
        <ele>1971.8</ele>
        <time>2017-01-29T11:37:35Z</time>
      </trkpt>
      <trkpt lat="45.885991221293807" lon="7.900578500702977">
        <ele>1972.76</ele>
        <time>2017-01-29T11:37:44Z</time>
      </trkpt>
      <trkpt lat="45.885977139696479" lon="7.900564251467586">
        <ele>1973.24</ele>
        <time>2017-01-29T11:37:50Z</time>
      </trkpt>
      <trkpt lat="45.885965572670102" lon="7.900483952835202">
        <ele>1974.2</ele>
        <time>2017-01-29T11:38:01Z</time>
      </trkpt>
      <trkpt lat="45.885964566841722" lon="7.90045109577477">
        <ele>1975.6500000000001</ele>
        <time>2017-01-29T11:38:10Z</time>
      </trkpt>
      <trkpt lat="45.885981330648065" lon="7.900462243705988">
        <ele>1976.1300000000001</ele>
        <time>2017-01-29T11:38:14Z</time>
      </trkpt>
      <trkpt lat="45.886010080575943" lon="7.900496693328023">
        <ele>1977.0899999999999</ele>
        <time>2017-01-29T11:38:25Z</time>
      </trkpt>
      <trkpt lat="45.886012427508831" lon="7.900490490719676">
        <ele>1977.5699999999999</ele>
        <time>2017-01-29T11:38:34Z</time>
      </trkpt>
      <trkpt lat="45.885983007028699" lon="7.900498704984784">
        <ele>1977.5699999999999</ele>
        <time>2017-01-29T11:38:46Z</time>
      </trkpt>
      <trkpt lat="45.886034220457077" lon="7.900480180978775">
        <ele>1977.0899999999999</ele>
        <time>2017-01-29T11:39:09Z</time>
      </trkpt>
      <trkpt lat="45.886017708107829" lon="7.900471296161413">
        <ele>1977.5699999999999</ele>
        <time>2017-01-29T11:39:25Z</time>
      </trkpt>
      <trkpt lat="45.886043021455407" lon="7.900473643094301">
        <ele>1977.5699999999999</ele>
        <time>2017-01-29T11:39:41Z</time>
      </trkpt>
      <trkpt lat="45.886014858260751" lon="7.900466769933701">
        <ele>1977.5699999999999</ele>
        <time>2017-01-29T11:39:56Z</time>
      </trkpt>
      <trkpt lat="45.885979905724525" lon="7.900438187643886">
        <ele>1979.01</ele>
        <time>2017-01-29T11:40:05Z</time>
      </trkpt>
      <trkpt lat="45.885978145524859" lon="7.90047506801784">
        <ele>1979.01</ele>
        <time>2017-01-29T11:40:17Z</time>
      </trkpt>
      <trkpt lat="45.885951407253742" lon="7.900405079126358">
        <ele>1979.97</ele>
        <time>2017-01-29T11:40:27Z</time>
      </trkpt>
      <trkpt lat="45.885939672589302" lon="7.900379514321685">
        <ele>1980.45</ele>
        <time>2017-01-29T11:40:39Z</time>
      </trkpt>
      <trkpt lat="45.885929111391306" lon="7.900341125205159">
        <ele>1981.4100000000001</ele>
        <time>2017-01-29T11:40:44Z</time>
      </trkpt>
      <trkpt lat="45.885931877419353" lon="7.900347914546728">
        <ele>1981.9000000000001</ele>
        <time>2017-01-29T11:40:52Z</time>
      </trkpt>
      <trkpt lat="45.88594394735992" lon="7.900362079963088">
        <ele>1981.9000000000001</ele>
        <time>2017-01-29T11:41:02Z</time>
      </trkpt>
      <trkpt lat="45.885935313999653" lon="7.900368701666594">
        <ele>1981.4100000000001</ele>
        <time>2017-01-29T11:41:12Z</time>
      </trkpt>
      <trkpt lat="45.885946378111839" lon="7.900301227346063">
        <ele>1981.9000000000001</ele>
        <time>2017-01-29T11:41:19Z</time>
      </trkpt>
      <trkpt lat="45.885938666760921" lon="7.900270214304328">
        <ele>1982.3800000000001</ele>
        <time>2017-01-29T11:41:29Z</time>
      </trkpt>
      <trkpt lat="45.885926177725196" lon="7.900262335315347">
        <ele>1982.3800000000001</ele>
        <time>2017-01-29T11:41:37Z</time>
      </trkpt>
      <trkpt lat="45.885926932096481" lon="7.900246912613511">
        <ele>1982.8599999999999</ele>
        <time>2017-01-29T11:41:53Z</time>
      </trkpt>
      <trkpt lat="45.885908324271441" lon="7.900201063603163">
        <ele>1983.8199999999999</ele>
        <time>2017-01-29T11:42:01Z</time>
      </trkpt>
      <trkpt lat="45.885923998430371" lon="7.900147838518024">
        <ele>1984.78</ele>
        <time>2017-01-29T11:42:09Z</time>
      </trkpt>
      <trkpt lat="45.885915113613009" lon="7.900136606767774">
        <ele>1986.7</ele>
        <time>2017-01-29T11:42:20Z</time>
      </trkpt>
      <trkpt lat="45.885917712002993" lon="7.900099726393819">
        <ele>1986.7</ele>
        <time>2017-01-29T11:42:31Z</time>
      </trkpt>
      <trkpt lat="45.885908911004663" lon="7.900094110518694">
        <ele>1986.7</ele>
        <time>2017-01-29T11:42:40Z</time>
      </trkpt>
      <trkpt lat="45.885890470817685" lon="7.900081370025873">
        <ele>1986.22</ele>
        <time>2017-01-29T11:42:48Z</time>
      </trkpt>
      <trkpt lat="45.885886447504163" lon="7.900051446631551">
        <ele>1986.7</ele>
        <time>2017-01-29T11:42:56Z</time>
      </trkpt>
      <trkpt lat="45.885870018973947" lon="7.900021439418197">
        <ele>1986.7</ele>
        <time>2017-01-29T11:43:05Z</time>
      </trkpt>
      <trkpt lat="45.88586088269949" lon="7.900023870170116">
        <ele>1987.1800000000001</ele>
        <time>2017-01-29T11:43:15Z</time>
      </trkpt>
      <trkpt lat="45.885854344815016" lon="7.899974081665278">
        <ele>1988.1400000000001</ele>
        <time>2017-01-29T11:43:24Z</time>
      </trkpt>
      <trkpt lat="45.885836323723197" lon="7.899951785802841">
        <ele>1988.6199999999999</ele>
        <time>2017-01-29T11:43:31Z</time>
      </trkpt>
      <trkpt lat="45.885834395885468" lon="7.89994633756578">
        <ele>1989.0999999999999</ele>
        <time>2017-01-29T11:43:42Z</time>
      </trkpt>
      <trkpt lat="45.885815033689141" lon="7.899948181584477">
        <ele>1988.6199999999999</ele>
        <time>2017-01-29T11:43:54Z</time>
      </trkpt>
      <trkpt lat="45.885806400328875" lon="7.89993460290134">
        <ele>1989.0999999999999</ele>
        <time>2017-01-29T11:44:07Z</time>
      </trkpt>
      <trkpt lat="45.885805310681462" lon="7.899906104430556">
        <ele>1989.5899999999999</ele>
        <time>2017-01-29T11:44:16Z</time>
      </trkpt>
      <trkpt lat="45.885778991505504" lon="7.899856651201844">
        <ele>1990.55</ele>
        <time>2017-01-29T11:44:27Z</time>
      </trkpt>
      <trkpt lat="45.885759461671114" lon="7.899857992306352">
        <ele>1990.55</ele>
        <time>2017-01-29T11:44:36Z</time>
      </trkpt>
      <trkpt lat="45.885746721178293" lon="7.89983494207263">
        <ele>1991.51</ele>
        <time>2017-01-29T11:44:46Z</time>
      </trkpt>
      <trkpt lat="45.885735740885139" lon="7.899803761392832">
        <ele>1991.99</ele>
        <time>2017-01-29T11:44:56Z</time>
      </trkpt>
      <trkpt lat="45.885737333446741" lon="7.899797391146421">
        <ele>1991.99</ele>
        <time>2017-01-29T11:45:06Z</time>
      </trkpt>
      <trkpt lat="45.885724676772952" lon="7.899766461923719">
        <ele>1992.47</ele>
        <time>2017-01-29T11:45:18Z</time>
      </trkpt>
      <trkpt lat="45.885733813047409" lon="7.89972111582756">
        <ele>1993.9100000000001</ele>
        <time>2017-01-29T11:45:27Z</time>
      </trkpt>
      <trkpt lat="45.885734986513853" lon="7.899700496345758">
        <ele>1993.9100000000001</ele>
        <time>2017-01-29T11:45:30Z</time>
      </trkpt>
      <trkpt lat="45.885743033140898" lon="7.899659760296345">
        <ele>1993.4300000000001</ele>
        <time>2017-01-29T11:45:37Z</time>
      </trkpt>
      <trkpt lat="45.885760132223368" lon="7.899719020351768">
        <ele>1993.4300000000001</ele>
        <time>2017-01-29T11:45:45Z</time>
      </trkpt>
      <trkpt lat="45.885746637359262" lon="7.899769647046924">
        <ele>1993.4300000000001</ele>
        <time>2017-01-29T11:45:57Z</time>
      </trkpt>
      <trkpt lat="45.885720066726208" lon="7.89978607557714">
        <ele>1993.4300000000001</ele>
        <time>2017-01-29T11:46:12Z</time>
      </trkpt>
      <trkpt lat="45.885754683986306" lon="7.899797977879643">
        <ele>1993.4300000000001</ele>
        <time>2017-01-29T11:46:26Z</time>
      </trkpt>
      <trkpt lat="45.885826097801328" lon="7.899764031171799">
        <ele>1993.9100000000001</ele>
        <time>2017-01-29T11:46:40Z</time>
      </trkpt>
      <trkpt lat="45.88587949052453" lon="7.899758918210864">
        <ele>1994.8699999999999</ele>
        <time>2017-01-29T11:46:50Z</time>
      </trkpt>
      <trkpt lat="45.8858897164464" lon="7.899729833006859">
        <ele>1994.8699999999999</ele>
        <time>2017-01-29T11:46:59Z</time>
      </trkpt>
      <trkpt lat="45.885862559080124" lon="7.899699909612536">
        <ele>1995.3499999999999</ele>
        <time>2017-01-29T11:47:10Z</time>
      </trkpt>
      <trkpt lat="45.885846130549908" lon="7.899660849943757">
        <ele>1994.8699999999999</ele>
        <time>2017-01-29T11:47:23Z</time>
      </trkpt>
      <trkpt lat="45.885803634300828" lon="7.899681972339749">
        <ele>1995.3499999999999</ele>
        <time>2017-01-29T11:47:40Z</time>
      </trkpt>
      <trkpt lat="45.885810004547238" lon="7.899670070037246">
        <ele>1995.3499999999999</ele>
        <time>2017-01-29T11:47:52Z</time>
      </trkpt>
      <trkpt lat="45.885804137215018" lon="7.899647355079651">
        <ele>1995.3499999999999</ele>
        <time>2017-01-29T11:48:04Z</time>
      </trkpt>
      <trkpt lat="45.885753510519862" lon="7.899678535759449">
        <ele>1995.3499999999999</ele>
        <time>2017-01-29T11:48:17Z</time>
      </trkpt>
      <trkpt lat="45.885737584903836" lon="7.899695551022887">
        <ele>1995.3499999999999</ele>
        <time>2017-01-29T11:48:30Z</time>
      </trkpt>
      <trkpt lat="45.885753342881799" lon="7.899678703397512">
        <ele>1995.3499999999999</ele>
        <time>2017-01-29T11:48:44Z</time>
      </trkpt>
      <trkpt lat="45.885767340660095" lon="7.899675685912371">
        <ele>1994.8699999999999</ele>
        <time>2017-01-29T11:49:00Z</time>
      </trkpt>
      <trkpt lat="45.885758036747575" lon="7.899712063372135">
        <ele>1994.3900000000001</ele>
        <time>2017-01-29T11:49:13Z</time>
      </trkpt>
      <trkpt lat="45.885787289589643" lon="7.899804348126054">
        <ele>1994.3900000000001</ele>
        <time>2017-01-29T11:49:24Z</time>
      </trkpt>
      <trkpt lat="45.885781338438392" lon="7.8998261410743">
        <ele>1994.3900000000001</ele>
        <time>2017-01-29T11:49:37Z</time>
      </trkpt>
      <trkpt lat="45.885783769190311" lon="7.89987207390368">
        <ele>1993.9100000000001</ele>
        <time>2017-01-29T11:49:49Z</time>
      </trkpt>
      <trkpt lat="45.885773878544569" lon="7.899896549060941">
        <ele>1992.95</ele>
        <time>2017-01-29T11:50:01Z</time>
      </trkpt>
      <trkpt lat="45.885754516348243" lon="7.899888753890991">
        <ele>1992.47</ele>
        <time>2017-01-29T11:50:11Z</time>
      </trkpt>
      <trkpt lat="45.885783182457089" lon="7.899881461635232">
        <ele>1992.47</ele>
        <time>2017-01-29T11:50:23Z</time>
      </trkpt>
      <trkpt lat="45.88580078445375" lon="7.89987844415009">
        <ele>1992.47</ele>
        <time>2017-01-29T11:50:32Z</time>
      </trkpt>
      <trkpt lat="45.88579005561769" lon="7.899916414171457">
        <ele>1991.99</ele>
        <time>2017-01-29T11:50:48Z</time>
      </trkpt>
      <trkpt lat="45.885798940435052" lon="7.899951450526714">
        <ele>1991.51</ele>
        <time>2017-01-29T11:51:02Z</time>
      </trkpt>
      <trkpt lat="45.885817632079124" lon="7.899944912642241">
        <ele>1991.03</ele>
        <time>2017-01-29T11:51:15Z</time>
      </trkpt>
      <trkpt lat="45.885827355086803" lon="7.899951199069619">
        <ele>1991.03</ele>
        <time>2017-01-29T11:51:31Z</time>
      </trkpt>
      <trkpt lat="45.88583305478096" lon="7.899962347000837">
        <ele>1990.55</ele>
        <time>2017-01-29T11:51:42Z</time>
      </trkpt>
      <trkpt lat="45.885824169963598" lon="7.899978691712022">
        <ele>1990.0699999999999</ele>
        <time>2017-01-29T11:51:52Z</time>
      </trkpt>
      <trkpt lat="45.885852081701159" lon="7.90002697147429">
        <ele>1990.0699999999999</ele>
        <time>2017-01-29T11:52:04Z</time>
      </trkpt>
      <trkpt lat="45.885857529938221" lon="7.900024205446243">
        <ele>1989.5899999999999</ele>
        <time>2017-01-29T11:52:14Z</time>
      </trkpt>
      <trkpt lat="45.885859709233046" lon="7.900029988959432">
        <ele>1989.5899999999999</ele>
        <time>2017-01-29T11:52:27Z</time>
      </trkpt>
      <trkpt lat="45.885865241289139" lon="7.900053542107344">
        <ele>1989.0999999999999</ele>
        <time>2017-01-29T11:52:40Z</time>
      </trkpt>
      <trkpt lat="45.885885022580624" lon="7.900072652846575">
        <ele>1988.6199999999999</ele>
        <time>2017-01-29T11:52:50Z</time>
      </trkpt>
      <trkpt lat="45.885864989832044" lon="7.90007047355175">
        <ele>1988.1400000000001</ele>
        <time>2017-01-29T11:53:02Z</time>
      </trkpt>
      <trkpt lat="45.885834395885468" lon="7.900061504915357">
        <ele>1987.6600000000001</ele>
        <time>2017-01-29T11:53:11Z</time>
      </trkpt>
      <trkpt lat="45.885853003710508" lon="7.900079945102334">
        <ele>1987.1800000000001</ele>
        <time>2017-01-29T11:53:21Z</time>
      </trkpt>
      <trkpt lat="45.885881586000323" lon="7.900122189894319">
        <ele>1986.22</ele>
        <time>2017-01-29T11:53:31Z</time>
      </trkpt>
      <trkpt lat="45.885836407542229" lon="7.900088829919696">
        <ele>1985.74</ele>
        <time>2017-01-29T11:53:43Z</time>
      </trkpt>
      <trkpt lat="45.885851075872779" lon="7.900118082761765">
        <ele>1985.26</ele>
        <time>2017-01-29T11:53:53Z</time>
      </trkpt>
      <trkpt lat="45.885855434462428" lon="7.900121519342065">
        <ele>1983.8199999999999</ele>
        <time>2017-01-29T11:54:02Z</time>
      </trkpt>
      <trkpt lat="45.885833641514182" lon="7.900128476321697">
        <ele>1983.3399999999999</ele>
        <time>2017-01-29T11:54:13Z</time>
      </trkpt>
      <trkpt lat="45.885813357308507" lon="7.900109365582466">
        <ele>1982.3800000000001</ele>
        <time>2017-01-29T11:54:22Z</time>
      </trkpt>
      <trkpt lat="45.88581645861268" lon="7.900133086368442">
        <ele>1982.3800000000001</ele>
        <time>2017-01-29T11:54:35Z</time>
      </trkpt>
      <trkpt lat="45.885805813595653" lon="7.900114646181464">
        <ele>1982.3800000000001</ele>
        <time>2017-01-29T11:54:50Z</time>
      </trkpt>
      <trkpt lat="45.885783266276121" lon="7.90010467171669">
        <ele>1982.8599999999999</ele>
        <time>2017-01-29T11:54:59Z</time>
      </trkpt>
      <trkpt lat="45.885750912129879" lon="7.90008950047195">
        <ele>1981.9000000000001</ele>
        <time>2017-01-29T11:55:09Z</time>
      </trkpt>
      <trkpt lat="45.885752504691482" lon="7.90012763813138">
        <ele>1980.9300000000001</ele>
        <time>2017-01-29T11:55:20Z</time>
      </trkpt>
      <trkpt lat="45.885735657066107" lon="7.900128643959761">
        <ele>1980.45</ele>
        <time>2017-01-29T11:55:29Z</time>
      </trkpt>
      <trkpt lat="45.885728197172284" lon="7.900107689201832">
        <ele>1979.49</ele>
        <time>2017-01-29T11:55:38Z</time>
      </trkpt>
      <trkpt lat="45.885719731450081" lon="7.900123111903667">
        <ele>1980.9300000000001</ele>
        <time>2017-01-29T11:55:52Z</time>
      </trkpt>
      <trkpt lat="45.885744206607342" lon="7.90014959871769">
        <ele>1979.49</ele>
        <time>2017-01-29T11:56:05Z</time>
      </trkpt>
      <trkpt lat="45.885778907686472" lon="7.90016426704824">
        <ele>1980.45</ele>
        <time>2017-01-29T11:56:17Z</time>
      </trkpt>
      <trkpt lat="45.885798605158925" lon="7.900133756920695">
        <ele>1981.4100000000001</ele>
        <time>2017-01-29T11:56:26Z</time>
      </trkpt>
      <trkpt lat="45.885785780847073" lon="7.900123028084636">
        <ele>1981.4100000000001</ele>
        <time>2017-01-29T11:56:40Z</time>
      </trkpt>
      <trkpt lat="45.885790390893817" lon="7.9000851418823">
        <ele>1981.4100000000001</ele>
        <time>2017-01-29T11:57:01Z</time>
      </trkpt>
      <trkpt lat="45.88579055853188" lon="7.900098552927375">
        <ele>1981.4100000000001</ele>
        <time>2017-01-29T11:57:16Z</time>
      </trkpt>
      <trkpt lat="45.885783182457089" lon="7.900097714737058">
        <ele>1981.4100000000001</ele>
        <time>2017-01-29T11:57:34Z</time>
      </trkpt>
      <trkpt lat="45.885746385902166" lon="7.900112634524703">
        <ele>1981.4100000000001</ele>
        <time>2017-01-29T11:57:48Z</time>
      </trkpt>
      <trkpt lat="45.88574068620801" lon="7.900144485756755">
        <ele>1980.9300000000001</ele>
        <time>2017-01-29T11:57:56Z</time>
      </trkpt>
      <trkpt lat="45.885732220485806" lon="7.900140127167106">
        <ele>1979.97</ele>
        <time>2017-01-29T11:58:07Z</time>
      </trkpt>
      <trkpt lat="45.885733645409346" lon="7.900165021419525">
        <ele>1979.49</ele>
        <time>2017-01-29T11:58:20Z</time>
      </trkpt>
      <trkpt lat="45.885757282376289" lon="7.900196872651577">
        <ele>1979.01</ele>
        <time>2017-01-29T11:58:29Z</time>
      </trkpt>
      <trkpt lat="45.885780332610011" lon="7.900211121886969">
        <ele>1979.49</ele>
        <time>2017-01-29T11:58:36Z</time>
      </trkpt>
      <trkpt lat="45.885765245184302" lon="7.900237860158086">
        <ele>1979.49</ele>
        <time>2017-01-29T11:58:45Z</time>
      </trkpt>
      <trkpt lat="45.885787960141897" lon="7.900237943977118">
        <ele>1979.49</ele>
        <time>2017-01-29T11:58:53Z</time>
      </trkpt>
      <trkpt lat="45.88575292378664" lon="7.900222521275282">
        <ele>1979.01</ele>
        <time>2017-01-29T11:59:03Z</time>
      </trkpt>
      <trkpt lat="45.885741356760263" lon="7.900218749418855">
        <ele>1979.01</ele>
        <time>2017-01-29T11:59:14Z</time>
      </trkpt>
      <trkpt lat="45.885739931836724" lon="7.900193687528372">
        <ele>1979.01</ele>
        <time>2017-01-29T11:59:26Z</time>
      </trkpt>
      <trkpt lat="45.885752756148577" lon="7.900177258998156">
        <ele>1979.01</ele>
        <time>2017-01-29T11:59:36Z</time>
      </trkpt>
      <trkpt lat="45.885749068111181" lon="7.900213217362762">
        <ele>1978.53</ele>
        <time>2017-01-29T11:59:49Z</time>
      </trkpt>
      <trkpt lat="45.885750828310847" lon="7.900225706398487">
        <ele>1978.05</ele>
        <time>2017-01-29T12:00:05Z</time>
      </trkpt>
      <trkpt lat="45.885768011212349" lon="7.900214893743396">
        <ele>1978.53</ele>
        <time>2017-01-29T12:00:24Z</time>
      </trkpt>
      <trkpt lat="45.885790307074785" lon="7.900221766903997">
        <ele>1978.53</ele>
        <time>2017-01-29T12:00:50Z</time>
      </trkpt>
      <trkpt lat="45.885810339823365" lon="7.900241548195481">
        <ele>1978.53</ele>
        <time>2017-01-29T12:01:16Z</time>
      </trkpt>
      <trkpt lat="45.885816793888807" lon="7.900276416912675">
        <ele>1978.53</ele>
        <time>2017-01-29T12:01:36Z</time>
      </trkpt>
      <trkpt lat="45.88579935953021" lon="7.900286223739386">
        <ele>1978.53</ele>
        <time>2017-01-29T12:01:54Z</time>
      </trkpt>
      <trkpt lat="45.885808831080794" lon="7.900267196819186">
        <ele>1979.01</ele>
        <time>2017-01-29T12:02:18Z</time>
      </trkpt>
      <trkpt lat="45.885844957083464" lon="7.900269376114011">
        <ele>1979.01</ele>
        <time>2017-01-29T12:02:48Z</time>
      </trkpt>
      <trkpt lat="45.885806819424033" lon="7.900250935927033">
        <ele>1979.01</ele>
        <time>2017-01-29T12:03:18Z</time>
      </trkpt>
      <trkpt lat="45.885807909071445" lon="7.900246158242226">
        <ele>1979.49</ele>
        <time>2017-01-29T12:03:43Z</time>
      </trkpt>
      <trkpt lat="45.88579198345542" lon="7.900270549580455">
        <ele>1979.49</ele>
        <time>2017-01-29T12:04:08Z</time>
      </trkpt>
      <trkpt lat="45.885781003162265" lon="7.900285134091973">
        <ele>1979.49</ele>
        <time>2017-01-29T12:04:34Z</time>
      </trkpt>
      <trkpt lat="45.885757617652416" lon="7.900267448276281">
        <ele>1979.49</ele>
        <time>2017-01-29T12:04:58Z</time>
      </trkpt>
      <trkpt lat="45.885761054232717" lon="7.900257976725698">
        <ele>1979.97</ele>
        <time>2017-01-29T12:05:21Z</time>
      </trkpt>
      <trkpt lat="45.885783853009343" lon="7.900258060544729">
        <ele>1979.97</ele>
        <time>2017-01-29T12:05:44Z</time>
      </trkpt>
      <trkpt lat="45.885797264054418" lon="7.900274489074945">
        <ele>1979.97</ele>
        <time>2017-01-29T12:06:08Z</time>
      </trkpt>
      <trkpt lat="45.885810423642397" lon="7.900281026959419">
        <ele>1980.45</ele>
        <time>2017-01-29T12:06:34Z</time>
      </trkpt>
      <trkpt lat="45.885795587673783" lon="7.900274069979787">
        <ele>1980.45</ele>
        <time>2017-01-29T12:06:54Z</time>
      </trkpt>
      <trkpt lat="45.88582718744874" lon="7.900294354185462">
        <ele>1980.45</ele>
        <time>2017-01-29T12:07:14Z</time>
      </trkpt>
      <trkpt lat="45.885813608765602" lon="7.900268621742725">
        <ele>1980.45</ele>
        <time>2017-01-29T12:07:38Z</time>
      </trkpt>
      <trkpt lat="45.885831629857421" lon="7.900282954797149">
        <ele>1980.9300000000001</ele>
        <time>2017-01-29T12:08:10Z</time>
      </trkpt>
      <trkpt lat="45.885848561301827" lon="7.900284128263593">
        <ele>1980.9300000000001</ele>
        <time>2017-01-29T12:08:32Z</time>
      </trkpt>
      <trkpt lat="45.885835736989975" lon="7.900294438004494">
        <ele>1981.4100000000001</ele>
        <time>2017-01-29T12:08:58Z</time>
      </trkpt>
      <trkpt lat="45.885837497189641" lon="7.90027717128396">
        <ele>1981.4100000000001</ele>
        <time>2017-01-29T12:09:23Z</time>
      </trkpt>
      <trkpt lat="45.885832803323865" lon="7.900288151577115">
        <ele>1981.4100000000001</ele>
        <time>2017-01-29T12:09:50Z</time>
      </trkpt>
      <trkpt lat="45.8858379162848" lon="7.900268537923694">
        <ele>1981.9000000000001</ele>
        <time>2017-01-29T12:10:10Z</time>
      </trkpt>
      <trkpt lat="45.885860044509172" lon="7.900286391377449">
        <ele>1981.9000000000001</ele>
        <time>2017-01-29T12:10:31Z</time>
      </trkpt>
      <trkpt lat="45.885852500796318" lon="7.900286642834544">
        <ele>1981.9000000000001</ele>
        <time>2017-01-29T12:10:56Z</time>
      </trkpt>
      <trkpt lat="45.885825511068106" lon="7.900269208475947">
        <ele>1982.3800000000001</ele>
        <time>2017-01-29T12:11:27Z</time>
      </trkpt>
      <trkpt lat="45.885801119729877" lon="7.900252863764763">
        <ele>1981.9000000000001</ele>
        <time>2017-01-29T12:11:54Z</time>
      </trkpt>
      <trkpt lat="45.885800952091813" lon="7.900258898735046">
        <ele>1982.3800000000001</ele>
        <time>2017-01-29T12:12:19Z</time>
      </trkpt>
      <trkpt lat="45.885803466662765" lon="7.900260826572776">
        <ele>1982.3800000000001</ele>
        <time>2017-01-29T12:12:40Z</time>
      </trkpt>
      <trkpt lat="45.885808076709509" lon="7.900276500731707">
        <ele>1982.3800000000001</ele>
        <time>2017-01-29T12:13:02Z</time>
      </trkpt>
      <trkpt lat="45.885816290974617" lon="7.900270968675613">
        <ele>1982.3800000000001</ele>
        <time>2017-01-29T12:13:22Z</time>
      </trkpt>
      <trkpt lat="45.885825091972947" lon="7.900285553187132">
        <ele>1982.3800000000001</ele>
        <time>2017-01-29T12:13:43Z</time>
      </trkpt>
      <trkpt lat="45.885820146650076" lon="7.900264849886298">
        <ele>1982.3800000000001</ele>
        <time>2017-01-29T12:14:02Z</time>
      </trkpt>
      <trkpt lat="45.885786954313517" lon="7.900249427184463">
        <ele>1982.3800000000001</ele>
        <time>2017-01-29T12:14:22Z</time>
      </trkpt>
      <trkpt lat="45.885759461671114" lon="7.900233333930373">
        <ele>1982.3800000000001</ele>
        <time>2017-01-29T12:14:45Z</time>
      </trkpt>
      <trkpt lat="45.885745966807008" lon="7.900259150192142">
        <ele>1981.9000000000001</ele>
        <time>2017-01-29T12:15:09Z</time>
      </trkpt>
      <trkpt lat="45.88575828820467" lon="7.900254372507334">
        <ele>1982.3800000000001</ele>
        <time>2017-01-29T12:15:30Z</time>
      </trkpt>
      <trkpt lat="45.885779662057757" lon="7.900242218747735">
        <ele>1981.9000000000001</ele>
        <time>2017-01-29T12:15:55Z</time>
      </trkpt>
      <trkpt lat="45.885790474712849" lon="7.900257222354412">
        <ele>1981.9000000000001</ele>
        <time>2017-01-29T12:16:17Z</time>
      </trkpt>
      <trkpt lat="45.885804137215018" lon="7.900271052494645">
        <ele>1981.9000000000001</ele>
        <time>2017-01-29T12:16:37Z</time>
      </trkpt>
      <trkpt lat="45.885837581008673" lon="7.900283876806498">
        <ele>1981.9000000000001</ele>
        <time>2017-01-29T12:16:55Z</time>
      </trkpt>
      <trkpt lat="45.885827019810677" lon="7.900261078029871">
        <ele>1981.9000000000001</ele>
        <time>2017-01-29T12:16:59Z</time>
      </trkpt>
      <trkpt lat="45.885797515511513" lon="7.900258731096983">
        <ele>1982.8599999999999</ele>
        <time>2017-01-29T12:17:07Z</time>
      </trkpt>
      <trkpt lat="45.885759461671114" lon="7.900157477706671">
        <ele>1982.8599999999999</ele>
        <time>2017-01-29T12:17:22Z</time>
      </trkpt>
      <trkpt lat="45.885787960141897" lon="7.900176253169775">
        <ele>1982.8599999999999</ele>
        <time>2017-01-29T12:17:35Z</time>
      </trkpt>
      <trkpt lat="45.88579005561769" lon="7.900186814367771">
        <ele>1982.8599999999999</ele>
        <time>2017-01-29T12:17:45Z</time>
      </trkpt>
      <trkpt lat="45.885733477771282" lon="7.900165943428874">
        <ele>1983.3399999999999</ele>
        <time>2017-01-29T12:17:58Z</time>
      </trkpt>
      <trkpt lat="45.885705566033721" lon="7.900144485756755">
        <ele>1983.3399999999999</ele>
        <time>2017-01-29T12:18:08Z</time>
      </trkpt>
      <trkpt lat="45.885690059512854" lon="7.900151945650578">
        <ele>1983.3399999999999</ele>
        <time>2017-01-29T12:18:24Z</time>
      </trkpt>
      <trkpt lat="45.885734483599663" lon="7.900175247341394">
        <ele>1983.3399999999999</ele>
        <time>2017-01-29T12:18:39Z</time>
      </trkpt>
      <trkpt lat="45.885782847180963" lon="7.900223778560758">
        <ele>1983.3399999999999</ele>
        <time>2017-01-29T12:18:53Z</time>
      </trkpt>
      <trkpt lat="45.88578125461936" lon="7.900261916220188">
        <ele>1983.3399999999999</ele>
        <time>2017-01-29T12:19:09Z</time>
      </trkpt>
      <trkpt lat="45.885763401165605" lon="7.900259820744395">
        <ele>1983.3399999999999</ele>
        <time>2017-01-29T12:19:19Z</time>
      </trkpt>
      <trkpt lat="45.885772202163935" lon="7.900259904563427">
        <ele>1983.3399999999999</ele>
        <time>2017-01-29T12:19:31Z</time>
      </trkpt>
      <trkpt lat="45.885773794725537" lon="7.900271639227867">
        <ele>1983.3399999999999</ele>
        <time>2017-01-29T12:19:49Z</time>
      </trkpt>
      <trkpt lat="45.885774465277791" lon="7.900288738310337">
        <ele>1983.3399999999999</ele>
        <time>2017-01-29T12:20:00Z</time>
      </trkpt>
      <trkpt lat="45.885748649016023" lon="7.900297455489636">
        <ele>1983.3399999999999</ele>
        <time>2017-01-29T12:20:17Z</time>
      </trkpt>
      <trkpt lat="45.885761473327875" lon="7.900304663926363">
        <ele>1983.3399999999999</ele>
        <time>2017-01-29T12:20:37Z</time>
      </trkpt>
      <trkpt lat="45.885746804997325" lon="7.900312878191471">
        <ele>1983.3399999999999</ele>
        <time>2017-01-29T12:20:55Z</time>
      </trkpt>
      <trkpt lat="45.885792151093483" lon="7.900264682248235">
        <ele>1982.8599999999999</ele>
        <time>2017-01-29T12:21:05Z</time>
      </trkpt>
      <trkpt lat="45.885799694806337" lon="7.900275578722358">
        <ele>1982.3800000000001</ele>
        <time>2017-01-29T12:21:15Z</time>
      </trkpt>
      <trkpt lat="45.885787541046739" lon="7.900325953960419">
        <ele>1979.97</ele>
        <time>2017-01-29T12:21:25Z</time>
      </trkpt>
      <trkpt lat="45.885767005383968" lon="7.900349088013172">
        <ele>1979.01</ele>
        <time>2017-01-29T12:21:35Z</time>
      </trkpt>
      <trkpt lat="45.885765748098493" lon="7.900382112711668">
        <ele>1977.0899999999999</ele>
        <time>2017-01-29T12:21:43Z</time>
      </trkpt>
      <trkpt lat="45.885772537440062" lon="7.90040323510766">
        <ele>1976.1300000000001</ele>
        <time>2017-01-29T12:21:52Z</time>
      </trkpt>
      <trkpt lat="45.885758036747575" lon="7.900447323918343">
        <ele>1974.2</ele>
        <time>2017-01-29T12:22:00Z</time>
      </trkpt>
      <trkpt lat="45.885779494419694" lon="7.900475151836872">
        <ele>1972.76</ele>
        <time>2017-01-29T12:22:08Z</time>
      </trkpt>
      <trkpt lat="45.885804053395987" lon="7.900522006675601">
        <ele>1971.3199999999999</ele>
        <time>2017-01-29T12:22:17Z</time>
      </trkpt>
      <trkpt lat="45.885817632079124" lon="7.900578500702977">
        <ele>1969.8800000000001</ele>
        <time>2017-01-29T12:22:27Z</time>
      </trkpt>
      <trkpt lat="45.885814782232046" lon="7.900639856234193">
        <ele>1967.96</ele>
        <time>2017-01-29T12:22:37Z</time>
      </trkpt>
      <trkpt lat="45.885801874101162" lon="7.900633402168751">
        <ele>1967.48</ele>
        <time>2017-01-29T12:22:47Z</time>
      </trkpt>
      <trkpt lat="45.885823415592313" lon="7.9006929975003">
        <ele>1966.51</ele>
        <time>2017-01-29T12:22:54Z</time>
      </trkpt>
      <trkpt lat="45.885829534381628" lon="7.900694757699966">
        <ele>1965.55</ele>
        <time>2017-01-29T12:23:03Z</time>
      </trkpt>
      <trkpt lat="45.885851494967937" lon="7.900750581175089">
        <ele>1965.0699999999999</ele>
        <time>2017-01-29T12:23:12Z</time>
      </trkpt>
      <trkpt lat="45.885817715898156" lon="7.900799531489611">
        <ele>1963.6300000000001</ele>
        <time>2017-01-29T12:23:20Z</time>
      </trkpt>
      <trkpt lat="45.885816039517522" lon="7.900874381884933">
        <ele>1961.71</ele>
        <time>2017-01-29T12:23:28Z</time>
      </trkpt>
      <trkpt lat="45.88578469119966" lon="7.900960212573409">
        <ele>1959.78</ele>
        <time>2017-01-29T12:23:37Z</time>
      </trkpt>
      <trkpt lat="45.885784272104502" lon="7.901018969714642">
        <ele>1958.3399999999999</ele>
        <time>2017-01-29T12:23:45Z</time>
      </trkpt>
      <trkpt lat="45.885748900473118" lon="7.901050904765725">
        <ele>1956.9000000000001</ele>
        <time>2017-01-29T12:23:51Z</time>
      </trkpt>
      <trkpt lat="45.885762646794319" lon="7.901095161214471">
        <ele>1955.46</ele>
        <time>2017-01-29T12:24:01Z</time>
      </trkpt>
      <trkpt lat="45.885746469721198" lon="7.901140004396439">
        <ele>1954.02</ele>
        <time>2017-01-29T12:24:09Z</time>
      </trkpt>
      <trkpt lat="45.885729370638728" lon="7.901162803173065">
        <ele>1953.0599999999999</ele>
        <time>2017-01-29T12:24:14Z</time>
      </trkpt>
      <trkpt lat="45.885745044797659" lon="7.901181075721979">
        <ele>1951.6099999999999</ele>
        <time>2017-01-29T12:24:23Z</time>
      </trkpt>
      <trkpt lat="45.885750409215689" lon="7.901178812608123">
        <ele>1951.6099999999999</ele>
        <time>2017-01-29T12:24:25Z</time>
      </trkpt>
      <trkpt lat="45.885774381458759" lon="7.901258440688252">
        <ele>1951.1300000000001</ele>
        <time>2017-01-29T12:24:34Z</time>
      </trkpt>
      <trkpt lat="45.885779075324535" lon="7.901257770135999">
        <ele>1950.6500000000001</ele>
        <time>2017-01-29T12:24:43Z</time>
      </trkpt>
      <trkpt lat="45.885779662057757" lon="7.90123438462615">
        <ele>1950.6500000000001</ele>
        <time>2017-01-29T12:24:52Z</time>
      </trkpt>
      <trkpt lat="45.885777985677123" lon="7.901250729337335">
        <ele>1950.6500000000001</ele>
        <time>2017-01-29T12:25:05Z</time>
      </trkpt>
      <trkpt lat="45.88577195070684" lon="7.901288950815797">
        <ele>1949.6900000000001</ele>
        <time>2017-01-29T12:25:13Z</time>
      </trkpt>
      <trkpt lat="45.885777398943901" lon="7.901293560862541">
        <ele>1949.6900000000001</ele>
        <time>2017-01-29T12:25:27Z</time>
      </trkpt>
      <trkpt lat="45.885780584067106" lon="7.901308313012123">
        <ele>1949.6900000000001</ele>
        <time>2017-01-29T12:25:35Z</time>
      </trkpt>
      <trkpt lat="45.885780416429043" lon="7.901414008811116">
        <ele>1946.8099999999999</ele>
        <time>2017-01-29T12:25:46Z</time>
      </trkpt>
      <trkpt lat="45.885784355923533" lon="7.901461701840162">
        <ele>1945.8499999999999</ele>
        <time>2017-01-29T12:25:51Z</time>
      </trkpt>
      <trkpt lat="45.885780081152916" lon="7.901538144797087">
        <ele>1944.4000000000001</ele>
        <time>2017-01-29T12:25:58Z</time>
      </trkpt>
      <trkpt lat="45.885786954313517" lon="7.901595393195748">
        <ele>1942.96</ele>
        <time>2017-01-29T12:26:02Z</time>
      </trkpt>
      <trkpt lat="45.885783433914185" lon="7.901625400409102">
        <ele>1942.48</ele>
        <time>2017-01-29T12:26:04Z</time>
      </trkpt>
      <trkpt lat="45.885780584067106" lon="7.901678122580051">
        <ele>1942</ele>
        <time>2017-01-29T12:26:09Z</time>
      </trkpt>
      <trkpt lat="45.885768765583634" lon="7.901723468676209">
        <ele>1940.5599999999999</ele>
        <time>2017-01-29T12:26:12Z</time>
      </trkpt>
      <trkpt lat="45.885756863281131" lon="7.901756744831801">
        <ele>1939.1199999999999</ele>
        <time>2017-01-29T12:26:21Z</time>
      </trkpt>
      <trkpt lat="45.885765664279461" lon="7.901851544156671">
        <ele>1938.1600000000001</ele>
        <time>2017-01-29T12:26:29Z</time>
      </trkpt>
      <trkpt lat="45.885783266276121" lon="7.901988755911589">
        <ele>1934.79</ele>
        <time>2017-01-29T12:26:41Z</time>
      </trkpt>
      <trkpt lat="45.885777063667774" lon="7.902078609913588">
        <ele>1932.3900000000001</ele>
        <time>2017-01-29T12:26:50Z</time>
      </trkpt>
      <trkpt lat="45.885765496641397" lon="7.902124878019095">
        <ele>1931.9100000000001</ele>
        <time>2017-01-29T12:26:57Z</time>
      </trkpt>
      <trkpt lat="45.885785361751914" lon="7.902169218286872">
        <ele>1930.95</ele>
        <time>2017-01-29T12:27:02Z</time>
      </trkpt>
      <trkpt lat="45.885760299861431" lon="7.902243649587035">
        <ele>1929.98</ele>
        <time>2017-01-29T12:27:08Z</time>
      </trkpt>
      <trkpt lat="45.88575778529048" lon="7.902268543839455">
        <ele>1929.5</ele>
        <time>2017-01-29T12:27:10Z</time>
      </trkpt>
      <trkpt lat="45.885715540498495" lon="7.902337610721588">
        <ele>1928.54</ele>
        <time>2017-01-29T12:27:16Z</time>
      </trkpt>
      <trkpt lat="45.885657370090485" lon="7.902418076992035">
        <ele>1926.6199999999999</ele>
        <time>2017-01-29T12:27:25Z</time>
      </trkpt>
      <trkpt lat="45.885638343170285" lon="7.902514385059476">
        <ele>1924.22</ele>
        <time>2017-01-29T12:27:34Z</time>
      </trkpt>
      <trkpt lat="45.885652843862772" lon="7.902543721720576">
        <ele>1923.74</ele>
        <time>2017-01-29T12:27:37Z</time>
      </trkpt>
      <trkpt lat="45.885669020935893" lon="7.902553109452128">
        <ele>1923.25</ele>
        <time>2017-01-29T12:27:39Z</time>
      </trkpt>
      <trkpt lat="45.885688802227378" lon="7.902575908228755">
        <ele>1922.29</ele>
        <time>2017-01-29T12:27:42Z</time>
      </trkpt>
      <trkpt lat="45.885662902146578" lon="7.902691243216395">
        <ele>1920.8499999999999</ele>
        <time>2017-01-29T12:27:51Z</time>
      </trkpt>
      <trkpt lat="45.885633481666446" lon="7.902802722528577">
        <ele>1918.9300000000001</ele>
        <time>2017-01-29T12:28:00Z</time>
      </trkpt>
      <trkpt lat="45.885630883276463" lon="7.902814289554954">
        <ele>1918.9300000000001</ele>
        <time>2017-01-29T12:28:01Z</time>
      </trkpt>
      <trkpt lat="45.885584866628051" lon="7.902917470782995">
        <ele>1917.01</ele>
        <time>2017-01-29T12:28:10Z</time>
      </trkpt>
      <trkpt lat="45.885566007345915" lon="7.902957201004028">
        <ele>1916.53</ele>
        <time>2017-01-29T12:28:14Z</time>
      </trkpt>
      <trkpt lat="45.885555278509855" lon="7.903006989508867">
        <ele>1916.04</ele>
        <time>2017-01-29T12:28:25Z</time>
      </trkpt>
      <trkpt lat="45.885542118921876" lon="7.90307748131454">
        <ele>1915.5599999999999</ele>
        <time>2017-01-29T12:28:32Z</time>
      </trkpt>
      <trkpt lat="45.885530132800341" lon="7.9031175468117">
        <ele>1914.1199999999999</ele>
        <time>2017-01-29T12:28:40Z</time>
      </trkpt>
      <trkpt lat="45.885515967383981" lon="7.903198851272464">
        <ele>1912.6800000000001</ele>
        <time>2017-01-29T12:28:46Z</time>
      </trkpt>
      <trkpt lat="45.885520577430725" lon="7.903227685019374">
        <ele>1912.2</ele>
        <time>2017-01-29T12:28:49Z</time>
      </trkpt>
      <trkpt lat="45.885540107265115" lon="7.903266912326217">
        <ele>1911.24</ele>
        <time>2017-01-29T12:28:53Z</time>
      </trkpt>
      <trkpt lat="45.885557793080807" lon="7.903291806578636">
        <ele>1910.28</ele>
        <time>2017-01-29T12:28:56Z</time>
      </trkpt>
      <trkpt lat="45.885558966547251" lon="7.903315862640739">
        <ele>1910.28</ele>
        <time>2017-01-29T12:28:58Z</time>
      </trkpt>
      <trkpt lat="45.885525774210691" lon="7.903467155992985">
        <ele>1908.3499999999999</ele>
        <time>2017-01-29T12:29:09Z</time>
      </trkpt>
      <trkpt lat="45.885487720370293" lon="7.903591878712177">
        <ele>1906.4300000000001</ele>
        <time>2017-01-29T12:29:20Z</time>
      </trkpt>
      <trkpt lat="45.885470872744918" lon="7.903654407709837">
        <ele>1904.99</ele>
        <time>2017-01-29T12:29:25Z</time>
      </trkpt>
      <trkpt lat="45.885477075353265" lon="7.90382363833487">
        <ele>1902.1099999999999</ele>
        <time>2017-01-29T12:29:37Z</time>
      </trkpt>
      <trkpt lat="45.885476153343916" lon="7.90392623282969">
        <ele>1900.6600000000001</ele>
        <time>2017-01-29T12:29:44Z</time>
      </trkpt>
      <trkpt lat="45.885473219677806" lon="7.903977278620005">
        <ele>1899.7</ele>
        <time>2017-01-29T12:29:48Z</time>
      </trkpt>
      <trkpt lat="45.8854890614748" lon="7.904082136228681">
        <ele>1898.26</ele>
        <time>2017-01-29T12:30:00Z</time>
      </trkpt>
      <trkpt lat="45.885484032332897" lon="7.904079789295793">
        <ele>1897.3</ele>
        <time>2017-01-29T12:30:08Z</time>
      </trkpt>
      <trkpt lat="45.885481936857104" lon="7.904084399342537">
        <ele>1896.8199999999999</ele>
        <time>2017-01-29T12:30:20Z</time>
      </trkpt>
      <trkpt lat="45.885481098666787" lon="7.904086410999298">
        <ele>1897.3</ele>
        <time>2017-01-29T12:30:39Z</time>
      </trkpt>
      <trkpt lat="45.88547095656395" lon="7.904104348272085">
        <ele>1897.3</ele>
        <time>2017-01-29T12:30:47Z</time>
      </trkpt>
      <trkpt lat="45.885476320981979" lon="7.904102001339197">
        <ele>1897.78</ele>
        <time>2017-01-29T12:31:00Z</time>
      </trkpt>
      <trkpt lat="45.885492581874132" lon="7.904091607779265">
        <ele>1898.26</ele>
        <time>2017-01-29T12:31:13Z</time>
      </trkpt>
      <trkpt lat="45.885498281568289" lon="7.904085069894791">
        <ele>1898.26</ele>
        <time>2017-01-29T12:31:25Z</time>
      </trkpt>
      <trkpt lat="45.885502388700843" lon="7.904072413221002">
        <ele>1898.26</ele>
        <time>2017-01-29T12:31:37Z</time>
      </trkpt>
      <trkpt lat="45.885511189699173" lon="7.904055397957563">
        <ele>1898.26</ele>
        <time>2017-01-29T12:31:49Z</time>
      </trkpt>
      <trkpt lat="45.88550616055727" lon="7.904064869508147">
        <ele>1898.26</ele>
        <time>2017-01-29T12:32:00Z</time>
      </trkpt>
      <trkpt lat="45.885497778654099" lon="7.904074089601636">
        <ele>1897.78</ele>
        <time>2017-01-29T12:32:13Z</time>
      </trkpt>
      <trkpt lat="45.885513788089156" lon="7.904057241976261">
        <ele>1898.26</ele>
        <time>2017-01-29T12:32:28Z</time>
      </trkpt>
      <trkpt lat="45.885495012626052" lon="7.90404693223536">
        <ele>1898.26</ele>
        <time>2017-01-29T12:32:45Z</time>
      </trkpt>
      <trkpt lat="45.88551253080368" lon="7.904035281389952">
        <ele>1898.26</ele>
        <time>2017-01-29T12:32:59Z</time>
      </trkpt>
      <trkpt lat="45.885569276288152" lon="7.904052212834358">
        <ele>1897.3</ele>
        <time>2017-01-29T12:33:13Z</time>
      </trkpt>
      <trkpt lat="45.885539436712861" lon="7.904090015217662">
        <ele>1897.78</ele>
        <time>2017-01-29T12:33:21Z</time>
      </trkpt>
      <trkpt lat="45.885574389249086" lon="7.904224628582597">
        <ele>1894.9000000000001</ele>
        <time>2017-01-29T12:33:33Z</time>
      </trkpt>
      <trkpt lat="45.885621663182974" lon="7.904262766242027">
        <ele>1894.9000000000001</ele>
        <time>2017-01-29T12:33:42Z</time>
      </trkpt>
      <trkpt lat="45.885672625154257" lon="7.90427609346807">
        <ele>1894.4200000000001</ele>
        <time>2017-01-29T12:33:47Z</time>
      </trkpt>
      <trkpt lat="45.885704811662436" lon="7.904282966628671">
        <ele>1893.9300000000001</ele>
        <time>2017-01-29T12:33:51Z</time>
      </trkpt>
      <trkpt lat="45.88578125461936" lon="7.904360080137849">
        <ele>1892.49</ele>
        <time>2017-01-29T12:34:01Z</time>
      </trkpt>
      <trkpt lat="45.885856105014682" lon="7.904454963281751">
        <ele>1891.05</ele>
        <time>2017-01-29T12:34:12Z</time>
      </trkpt>
      <trkpt lat="45.885945791378617" lon="7.904412802308798">
        <ele>1890.0899999999999</ele>
        <time>2017-01-29T12:34:21Z</time>
      </trkpt>
      <trkpt lat="45.885984934866428" lon="7.904394194483757">
        <ele>1890.5699999999999</ele>
        <time>2017-01-29T12:34:26Z</time>
      </trkpt>
      <trkpt lat="45.886005721986294" lon="7.904384722933173">
        <ele>1890.5699999999999</ele>
        <time>2017-01-29T12:34:28Z</time>
      </trkpt>
      <trkpt lat="45.886102030053735" lon="7.904330408200622">
        <ele>1890.0899999999999</ele>
        <time>2017-01-29T12:34:38Z</time>
      </trkpt>
      <trkpt lat="45.886112842708826" lon="7.904375838115811">
        <ele>1889.1300000000001</ele>
        <time>2017-01-29T12:34:45Z</time>
      </trkpt>
      <trkpt lat="45.88611745275557" lon="7.904402241110802">
        <ele>1888.6500000000001</ele>
        <time>2017-01-29T12:34:47Z</time>
      </trkpt>
      <trkpt lat="45.886123068630695" lon="7.904488323256373">
        <ele>1887.6900000000001</ele>
        <time>2017-01-29T12:34:52Z</time>
      </trkpt>
      <trkpt lat="45.886132791638374" lon="7.904551774263382">
        <ele>1886.72</ele>
        <time>2017-01-29T12:34:56Z</time>
      </trkpt>
      <trkpt lat="45.886117117479444" lon="7.904634168371558">
        <ele>1885.76</ele>
        <time>2017-01-29T12:35:01Z</time>
      </trkpt>
      <trkpt lat="45.886120134964585" lon="7.904703486710787">
        <ele>1884.8</ele>
        <time>2017-01-29T12:35:06Z</time>
      </trkpt>
      <trkpt lat="45.886117536574602" lon="7.904721172526479">
        <ele>1885.28</ele>
        <time>2017-01-29T12:35:18Z</time>
      </trkpt>
      <trkpt lat="45.886132959276438" lon="7.904764590784907">
        <ele>1884.8</ele>
        <time>2017-01-29T12:35:26Z</time>
      </trkpt>
      <trkpt lat="45.886220969259739" lon="7.904876489192247">
        <ele>1883.3599999999999</ele>
        <time>2017-01-29T12:35:37Z</time>
      </trkpt>
      <trkpt lat="45.886272182688117" lon="7.904989309608936">
        <ele>1881.4400000000001</ele>
        <time>2017-01-29T12:35:48Z</time>
      </trkpt>
      <trkpt lat="45.886312499642372" lon="7.9051673412323">
        <ele>1880</ele>
        <time>2017-01-29T12:35:59Z</time>
      </trkpt>
      <trkpt lat="45.886349799111485" lon="7.905304133892059">
        <ele>1879.03</ele>
        <time>2017-01-29T12:36:09Z</time>
      </trkpt>
      <trkpt lat="45.886417357251048" lon="7.905414020642638">
        <ele>1877.5899999999999</ele>
        <time>2017-01-29T12:36:18Z</time>
      </trkpt>
      <trkpt lat="45.886475946754217" lon="7.905520470812917">
        <ele>1875.1900000000001</ele>
        <time>2017-01-29T12:36:28Z</time>
      </trkpt>
      <trkpt lat="45.886538559570909" lon="7.905620634555817">
        <ele>1873.75</ele>
        <time>2017-01-29T12:36:37Z</time>
      </trkpt>
      <trkpt lat="45.886569237336516" lon="7.90566279552877">
        <ele>1873.75</ele>
        <time>2017-01-29T12:36:41Z</time>
      </trkpt>
      <trkpt lat="45.886647775769234" lon="7.905764132738113">
        <ele>1872.79</ele>
        <time>2017-01-29T12:36:52Z</time>
      </trkpt>
      <trkpt lat="45.886663785204291" lon="7.905785758048296">
        <ele>1872.3</ele>
        <time>2017-01-29T12:36:54Z</time>
      </trkpt>
      <trkpt lat="45.886742323637009" lon="7.905882149934769">
        <ele>1871.3399999999999</ele>
        <time>2017-01-29T12:37:04Z</time>
      </trkpt>
      <trkpt lat="45.88680686429143" lon="7.90599605999887">
        <ele>1870.3800000000001</ele>
        <time>2017-01-29T12:37:14Z</time>
      </trkpt>
      <trkpt lat="45.886848522350192" lon="7.906055571511388">
        <ele>1869.9000000000001</ele>
        <time>2017-01-29T12:37:19Z</time>
      </trkpt>
      <trkpt lat="45.886946003884077" lon="7.906196052208543">
        <ele>1868.46</ele>
        <time>2017-01-29T12:37:31Z</time>
      </trkpt>
      <trkpt lat="45.887008532881737" lon="7.906318260356784">
        <ele>1867.5</ele>
        <time>2017-01-29T12:37:41Z</time>
      </trkpt>
      <trkpt lat="45.887083886191249" lon="7.9064348526299">
        <ele>1866.0599999999999</ele>
        <time>2017-01-29T12:37:51Z</time>
      </trkpt>
      <trkpt lat="45.887170303612947" lon="7.906575668603182">
        <ele>1865.0899999999999</ele>
        <time>2017-01-29T12:38:03Z</time>
      </trkpt>
      <trkpt lat="45.887198215350509" lon="7.906627217307687">
        <ele>1864.6099999999999</ele>
        <time>2017-01-29T12:38:07Z</time>
      </trkpt>
      <trkpt lat="45.887219086289406" lon="7.90666057728231">
        <ele>1864.1300000000001</ele>
        <time>2017-01-29T12:38:10Z</time>
      </trkpt>
      <trkpt lat="45.887301815673709" lon="7.906778007745743">
        <ele>1863.6500000000001</ele>
        <time>2017-01-29T12:38:22Z</time>
      </trkpt>
      <trkpt lat="45.887382784858346" lon="7.90688437409699">
        <ele>1863.1700000000001</ele>
        <time>2017-01-29T12:38:33Z</time>
      </trkpt>
      <trkpt lat="45.88744061999023" lon="7.906967857852578">
        <ele>1862.6900000000001</ele>
        <time>2017-01-29T12:38:40Z</time>
      </trkpt>
      <trkpt lat="45.887526953592896" lon="7.90707103908062">
        <ele>1862.21</ele>
        <time>2017-01-29T12:38:51Z</time>
      </trkpt>
      <trkpt lat="45.887591326609254" lon="7.907162653282285">
        <ele>1861.25</ele>
        <time>2017-01-29T12:38:59Z</time>
      </trkpt>
      <trkpt lat="45.887642707675695" lon="7.907298356294632">
        <ele>1860.29</ele>
        <time>2017-01-29T12:39:10Z</time>
      </trkpt>
      <trkpt lat="45.887679504230618" lon="7.90738427080214">
        <ele>1859.8099999999999</ele>
        <time>2017-01-29T12:39:20Z</time>
      </trkpt>
      <trkpt lat="45.887711774557829" lon="7.907467838376761">
        <ele>1859.3299999999999</ele>
        <time>2017-01-29T12:39:29Z</time>
      </trkpt>
      <trkpt lat="45.88775728829205" lon="7.907577389851213">
        <ele>1858.8499999999999</ele>
        <time>2017-01-29T12:39:38Z</time>
      </trkpt>
      <trkpt lat="45.887826019898057" lon="7.907728767022491">
        <ele>1857.8900000000001</ele>
        <time>2017-01-29T12:39:49Z</time>
      </trkpt>
      <trkpt lat="45.887874886393547" lon="7.907882407307625">
        <ele>1856.9200000000001</ele>
        <time>2017-01-29T12:39:59Z</time>
      </trkpt>
      <trkpt lat="45.887876395136118" lon="7.907894728705287">
        <ele>1856.9200000000001</ele>
        <time>2017-01-29T12:40:00Z</time>
      </trkpt>
      <trkpt lat="45.887890476733446" lon="7.90795742534101">
        <ele>1856.4400000000001</ele>
        <time>2017-01-29T12:40:04Z</time>
      </trkpt>
      <trkpt lat="45.887872288003564" lon="7.907993383705616">
        <ele>1856.4400000000001</ele>
        <time>2017-01-29T12:40:13Z</time>
      </trkpt>
      <trkpt lat="45.887890309095383" lon="7.908000005409122">
        <ele>1856.4400000000001</ele>
        <time>2017-01-29T12:40:28Z</time>
      </trkpt>
      <trkpt lat="45.88787991553545" lon="7.908046441152692">
        <ele>1855.96</ele>
        <time>2017-01-29T12:40:38Z</time>
      </trkpt>
      <trkpt lat="45.887895170599222" lon="7.908067312091589">
        <ele>1855.96</ele>
        <time>2017-01-29T12:40:41Z</time>
      </trkpt>
      <trkpt lat="45.887943115085363" lon="7.90821835398674">
        <ele>1855.48</ele>
        <time>2017-01-29T12:40:53Z</time>
      </trkpt>
      <trkpt lat="45.88797714561224" lon="7.908289851620793">
        <ele>1854.52</ele>
        <time>2017-01-29T12:40:59Z</time>
      </trkpt>
      <trkpt lat="45.888000279664993" lon="7.908373922109604">
        <ele>1853.5599999999999</ele>
        <time>2017-01-29T12:41:05Z</time>
      </trkpt>
      <trkpt lat="45.88800891302526" lon="7.908409042283893">
        <ele>1853.5599999999999</ele>
        <time>2017-01-29T12:41:16Z</time>
      </trkpt>
      <trkpt lat="45.888008074834943" lon="7.908454891294241">
        <ele>1853.5599999999999</ele>
        <time>2017-01-29T12:41:24Z</time>
      </trkpt>
      <trkpt lat="45.888016540557146" lon="7.908613979816437">
        <ele>1852.1199999999999</ele>
        <time>2017-01-29T12:41:34Z</time>
      </trkpt>
      <trkpt lat="45.888025173917413" lon="7.908796705305576">
        <ele>1850.6800000000001</ele>
        <time>2017-01-29T12:41:46Z</time>
      </trkpt>
      <trkpt lat="45.888067251071334" lon="7.90890927426517">
        <ele>1849.71</ele>
        <time>2017-01-29T12:41:56Z</time>
      </trkpt>
      <trkpt lat="45.888122403994203" lon="7.908993512392044">
        <ele>1849.71</ele>
        <time>2017-01-29T12:42:05Z</time>
      </trkpt>
      <trkpt lat="45.888182418420911" lon="7.909128209576011">
        <ele>1848.75</ele>
        <time>2017-01-29T12:42:16Z</time>
      </trkpt>
      <trkpt lat="45.888219382613897" lon="7.909288806840777">
        <ele>1847.79</ele>
        <time>2017-01-29T12:42:28Z</time>
      </trkpt>
      <trkpt lat="45.888222567737103" lon="7.909378493204713">
        <ele>1847.3099999999999</ele>
        <time>2017-01-29T12:42:38Z</time>
      </trkpt>
      <trkpt lat="45.888218795880675" lon="7.909507490694523">
        <ele>1846.8299999999999</ele>
        <time>2017-01-29T12:42:46Z</time>
      </trkpt>
      <trkpt lat="45.888207815587521" lon="7.909627184271812">
        <ele>1846.8299999999999</ele>
        <time>2017-01-29T12:42:54Z</time>
      </trkpt>
      <trkpt lat="45.888244863599539" lon="7.909725252538919">
        <ele>1845.8699999999999</ele>
        <time>2017-01-29T12:43:03Z</time>
      </trkpt>
      <trkpt lat="45.888296831399202" lon="7.909844862297177">
        <ele>1844.9100000000001</ele>
        <time>2017-01-29T12:43:14Z</time>
      </trkpt>
      <trkpt lat="45.888316109776497" lon="7.909876042976975">
        <ele>1844.4300000000001</ele>
        <time>2017-01-29T12:43:18Z</time>
      </trkpt>
      <trkpt lat="45.888345949351788" lon="7.909903284162283">
        <ele>1844.4300000000001</ele>
        <time>2017-01-29T12:43:30Z</time>
      </trkpt>
      <trkpt lat="45.888332622125745" lon="7.909923903644085">
        <ele>1844.4300000000001</ele>
        <time>2017-01-29T12:43:48Z</time>
      </trkpt>
      <trkpt lat="45.888309655711055" lon="7.909922311082482">
        <ele>1843.95</ele>
        <time>2017-01-29T12:44:00Z</time>
      </trkpt>
      <trkpt lat="45.888325329869986" lon="7.909937482327223">
        <ele>1843.95</ele>
        <time>2017-01-29T12:44:15Z</time>
      </trkpt>
      <trkpt lat="45.88832750916481" lon="7.909915437921882">
        <ele>1843.95</ele>
        <time>2017-01-29T12:44:27Z</time>
      </trkpt>
      <trkpt lat="45.888315606862307" lon="7.909895237535238">
        <ele>1843.95</ele>
        <time>2017-01-29T12:44:40Z</time>
      </trkpt>
      <trkpt lat="45.888334969058633" lon="7.909895405173302">
        <ele>1843.95</ele>
        <time>2017-01-29T12:44:58Z</time>
      </trkpt>
      <trkpt lat="45.888325413689017" lon="7.909898338839412">
        <ele>1843.95</ele>
        <time>2017-01-29T12:45:15Z</time>
      </trkpt>
      <trkpt lat="45.888326670974493" lon="7.90991242043674">
        <ele>1843.95</ele>
        <time>2017-01-29T12:45:27Z</time>
      </trkpt>
      <trkpt lat="45.888317953795195" lon="7.909900434315205">
        <ele>1843.95</ele>
        <time>2017-01-29T12:45:41Z</time>
      </trkpt>
      <trkpt lat="45.888328598812222" lon="7.909889705479145">
        <ele>1843.95</ele>
        <time>2017-01-29T12:45:55Z</time>
      </trkpt>
      <trkpt lat="45.888330610468984" lon="7.909900099039078">
        <ele>1843.95</ele>
        <time>2017-01-29T12:46:09Z</time>
      </trkpt>
      <trkpt lat="45.88835290633142" lon="7.909900518134236">
        <ele>1843.95</ele>
        <time>2017-01-29T12:46:24Z</time>
      </trkpt>
      <trkpt lat="45.888340836390853" lon="7.909898506477475">
        <ele>1843.95</ele>
        <time>2017-01-29T12:46:35Z</time>
      </trkpt>
      <trkpt lat="45.888342680409551" lon="7.909887861460447">
        <ele>1843.95</ele>
        <time>2017-01-29T12:46:51Z</time>
      </trkpt>
      <trkpt lat="45.888339914381504" lon="7.90987528860569">
        <ele>1843.95</ele>
        <time>2017-01-29T12:47:02Z</time>
      </trkpt>
      <trkpt lat="45.888330694288015" lon="7.909912671893835">
        <ele>1843.47</ele>
        <time>2017-01-29T12:47:14Z</time>
      </trkpt>
      <trkpt lat="45.888354163616896" lon="7.90991485118866">
        <ele>1843.95</ele>
        <time>2017-01-29T12:47:27Z</time>
      </trkpt>
      <trkpt lat="45.888355672359467" lon="7.909924574196339">
        <ele>1843.95</ele>
        <time>2017-01-29T12:47:38Z</time>
      </trkpt>
      <trkpt lat="45.888339830562472" lon="7.909990539774299">
        <ele>1843.95</ele>
        <time>2017-01-29T12:47:45Z</time>
      </trkpt>
      <trkpt lat="45.888347122818232" lon="7.910106461495161">
        <ele>1842.5</ele>
        <time>2017-01-29T12:47:55Z</time>
      </trkpt>
      <trkpt lat="45.888365479186177" lon="7.910224897786975">
        <ele>1842.98</ele>
        <time>2017-01-29T12:48:05Z</time>
      </trkpt>
      <trkpt lat="45.888354582712054" lon="7.910248534753919">
        <ele>1842.5</ele>
        <time>2017-01-29T12:48:14Z</time>
      </trkpt>
      <trkpt lat="45.888359108939767" lon="7.9102598503232">
        <ele>1843.95</ele>
        <time>2017-01-29T12:48:23Z</time>
      </trkpt>
      <trkpt lat="45.88837930932641" lon="7.910341070964932">
        <ele>1842.98</ele>
        <time>2017-01-29T12:48:31Z</time>
      </trkpt>
      <trkpt lat="45.888386517763138" lon="7.910476606339216">
        <ele>1842.98</ele>
        <time>2017-01-29T12:48:43Z</time>
      </trkpt>
      <trkpt lat="45.888405041769147" lon="7.910555815324187">
        <ele>1844.4300000000001</ele>
        <time>2017-01-29T12:48:53Z</time>
      </trkpt>
      <trkpt lat="45.888405125588179" lon="7.910606861114502">
        <ele>1845.3900000000001</ele>
        <time>2017-01-29T12:49:01Z</time>
      </trkpt>
      <trkpt lat="45.888415519148111" lon="7.910663690418005">
        <ele>1846.3499999999999</ele>
        <time>2017-01-29T12:49:11Z</time>
      </trkpt>
      <trkpt lat="45.888417614623904" lon="7.910660170018673">
        <ele>1846.3499999999999</ele>
        <time>2017-01-29T12:49:14Z</time>
      </trkpt>
      <trkpt lat="45.88840956799686" lon="7.910746671259403">
        <ele>1847.79</ele>
        <time>2017-01-29T12:49:25Z</time>
      </trkpt>
      <trkpt lat="45.888368496671319" lon="7.910746838897467">
        <ele>1848.75</ele>
        <time>2017-01-29T12:49:34Z</time>
      </trkpt>
      <trkpt lat="45.888371933251619" lon="7.910813810303807">
        <ele>1848.75</ele>
        <time>2017-01-29T12:49:47Z</time>
      </trkpt>
      <trkpt lat="45.888391463086009" lon="7.910849852487445">
        <ele>1848.75</ele>
        <time>2017-01-29T12:49:56Z</time>
      </trkpt>
      <trkpt lat="45.888390205800533" lon="7.910862844437361">
        <ele>1848.75</ele>
        <time>2017-01-29T12:50:04Z</time>
      </trkpt>
      <trkpt lat="45.88839397765696" lon="7.910841470584273">
        <ele>1848.75</ele>
        <time>2017-01-29T12:50:14Z</time>
      </trkpt>
      <trkpt lat="45.88838467374444" lon="7.910857563838363">
        <ele>1848.75</ele>
        <time>2017-01-29T12:50:33Z</time>
      </trkpt>
      <trkpt lat="45.888383667916059" lon="7.910863095894456">
        <ele>1848.75</ele>
        <time>2017-01-29T12:50:43Z</time>
      </trkpt>
      <trkpt lat="45.888388445600867" lon="7.910839878022671">
        <ele>1848.75</ele>
        <time>2017-01-29T12:50:55Z</time>
      </trkpt>
      <trkpt lat="45.888390960171819" lon="7.910842644050717">
        <ele>1848.75</ele>
        <time>2017-01-29T12:51:12Z</time>
      </trkpt>
      <trkpt lat="45.888381069526076" lon="7.91084080003202">
        <ele>1848.75</ele>
        <time>2017-01-29T12:51:15Z</time>
      </trkpt>
      <trkpt lat="45.888399509713054" lon="7.910815570503473">
        <ele>1848.75</ele>
        <time>2017-01-29T12:51:26Z</time>
      </trkpt>
      <trkpt lat="45.88837344199419" lon="7.910822946578264">
        <ele>1848.75</ele>
        <time>2017-01-29T12:51:45Z</time>
      </trkpt>
      <trkpt lat="45.888391295447946" lon="7.910828143358231">
        <ele>1848.75</ele>
        <time>2017-01-29T12:52:00Z</time>
      </trkpt>
      <trkpt lat="45.888371095061302" lon="7.910851445049048">
        <ele>1847.79</ele>
        <time>2017-01-29T12:52:09Z</time>
      </trkpt>
      <trkpt lat="45.888382494449615" lon="7.910906262695789">
        <ele>1847.79</ele>
        <time>2017-01-29T12:52:41Z</time>
      </trkpt>
      <trkpt lat="45.888401689007878" lon="7.910846583545208">
        <ele>1848.27</ele>
        <time>2017-01-29T12:52:56Z</time>
      </trkpt>
      <trkpt lat="45.888404874131083" lon="7.910828813910484">
        <ele>1848.75</ele>
        <time>2017-01-29T12:52:57Z</time>
      </trkpt>
      <trkpt lat="45.888399677351117" lon="7.910813894122839">
        <ele>1848.27</ele>
        <time>2017-01-29T12:53:05Z</time>
      </trkpt>
      <trkpt lat="45.888411328196526" lon="7.910826383158565">
        <ele>1848.27</ele>
        <time>2017-01-29T12:53:15Z</time>
      </trkpt>
      <trkpt lat="45.888409903272986" lon="7.910812804475427">
        <ele>1848.75</ele>
        <time>2017-01-29T12:53:30Z</time>
      </trkpt>
      <trkpt lat="45.888417195528746" lon="7.910820683464408">
        <ele>1848.75</ele>
        <time>2017-01-29T12:53:48Z</time>
      </trkpt>
      <trkpt lat="45.888412585482001" lon="7.910820934921503">
        <ele>1848.27</ele>
        <time>2017-01-29T12:53:59Z</time>
      </trkpt>
      <trkpt lat="45.888399425894022" lon="7.910823449492455">
        <ele>1848.75</ele>
        <time>2017-01-29T12:54:10Z</time>
      </trkpt>
      <trkpt lat="45.888406550511718" lon="7.910831328481436">
        <ele>1848.75</ele>
        <time>2017-01-29T12:54:24Z</time>
      </trkpt>
      <trkpt lat="45.88841836899519" lon="7.910843314602971">
        <ele>1848.75</ele>
        <time>2017-01-29T12:54:37Z</time>
      </trkpt>
      <trkpt lat="45.888411998748779" lon="7.910829484462738">
        <ele>1848.75</ele>
        <time>2017-01-29T12:54:51Z</time>
      </trkpt>
      <trkpt lat="45.888401940464973" lon="7.910842979326844">
        <ele>1848.75</ele>
        <time>2017-01-29T12:55:05Z</time>
      </trkpt>
      <trkpt lat="45.888384087011218" lon="7.910855049267411">
        <ele>1848.27</ele>
        <time>2017-01-29T12:55:17Z</time>
      </trkpt>
      <trkpt lat="45.888395821675658" lon="7.910873824730516">
        <ele>1848.75</ele>
        <time>2017-01-29T12:55:35Z</time>
      </trkpt>
      <trkpt lat="45.888400766998529" lon="7.910856558009982">
        <ele>1848.75</ele>
        <time>2017-01-29T12:55:47Z</time>
      </trkpt>
      <trkpt lat="45.888394983485341" lon="7.910831160843372">
        <ele>1848.27</ele>
        <time>2017-01-29T12:55:58Z</time>
      </trkpt>
      <trkpt lat="45.888382494449615" lon="7.910822443664074">
        <ele>1848.75</ele>
        <time>2017-01-29T12:56:14Z</time>
      </trkpt>
      <trkpt lat="45.888389702886343" lon="7.910845912992954">
        <ele>1848.27</ele>
        <time>2017-01-29T12:56:24Z</time>
      </trkpt>
      <trkpt lat="45.888412082567811" lon="7.910835687071085">
        <ele>1848.27</ele>
        <time>2017-01-29T12:56:42Z</time>
      </trkpt>
      <trkpt lat="45.888407807797194" lon="7.91082713752985">
        <ele>1847.79</ele>
        <time>2017-01-29T12:56:53Z</time>
      </trkpt>
      <trkpt lat="45.888392804190516" lon="7.910822024568915">
        <ele>1848.27</ele>
        <time>2017-01-29T12:57:10Z</time>
      </trkpt>
      <trkpt lat="45.888376124203205" lon="7.910862257704139">
        <ele>1848.27</ele>
        <time>2017-01-29T12:57:26Z</time>
      </trkpt>
      <trkpt lat="45.888377549126744" lon="7.910863012075424">
        <ele>1848.27</ele>
        <time>2017-01-29T12:57:49Z</time>
      </trkpt>
      <trkpt lat="45.88839397765696" lon="7.910855300724506">
        <ele>1847.79</ele>
        <time>2017-01-29T12:58:05Z</time>
      </trkpt>
      <trkpt lat="45.888390960171819" lon="7.910843314602971">
        <ele>1851.6400000000001</ele>
        <time>2017-01-29T12:58:19Z</time>
      </trkpt>
      <trkpt lat="45.888389954343438" lon="7.910843482241035">
        <ele>1848.27</ele>
        <time>2017-01-29T12:58:20Z</time>
      </trkpt>
      <trkpt lat="45.888379896059632" lon="7.910836273804307">
        <ele>1847.79</ele>
        <time>2017-01-29T12:58:38Z</time>
      </trkpt>
      <trkpt lat="45.888379728421569" lon="7.910833591595292">
        <ele>1847.79</ele>
        <time>2017-01-29T12:58:54Z</time>
      </trkpt>
      <trkpt lat="45.888391798362136" lon="7.910849098116159">
        <ele>1847.79</ele>
        <time>2017-01-29T12:59:07Z</time>
      </trkpt>
      <trkpt lat="45.888369167223573" lon="7.910866616293788">
        <ele>1847.79</ele>
        <time>2017-01-29T12:59:15Z</time>
      </trkpt>
      <trkpt lat="45.88836464099586" lon="7.910877093672752">
        <ele>1847.79</ele>
        <time>2017-01-29T12:59:24Z</time>
      </trkpt>
      <trkpt lat="45.888368831947446" lon="7.910900311544538">
        <ele>1847.3099999999999</ele>
        <time>2017-01-29T12:59:33Z</time>
      </trkpt>
      <trkpt lat="45.888364305719733" lon="7.910871477797627">
        <ele>1847.79</ele>
        <time>2017-01-29T12:59:43Z</time>
      </trkpt>
      <trkpt lat="45.888368580490351" lon="7.910868208855391">
        <ele>1847.79</ele>
        <time>2017-01-29T12:59:52Z</time>
      </trkpt>
      <trkpt lat="45.888383667916059" lon="7.91091799736023">
        <ele>1847.3099999999999</ele>
        <time>2017-01-29T12:59:59Z</time>
      </trkpt>
      <trkpt lat="45.888396743685007" lon="7.910972395911813">
        <ele>1847.3099999999999</ele>
        <time>2017-01-29T13:00:07Z</time>
      </trkpt>
      <trkpt lat="45.888394061475992" lon="7.910979520529509">
        <ele>1847.3099999999999</ele>
        <time>2017-01-29T13:00:16Z</time>
      </trkpt>
      <trkpt lat="45.888403113931417" lon="7.910983124747872">
        <ele>1847.3099999999999</ele>
        <time>2017-01-29T13:00:27Z</time>
      </trkpt>
      <trkpt lat="45.888401186093688" lon="7.910963259637356">
        <ele>1847.3099999999999</ele>
        <time>2017-01-29T13:00:41Z</time>
      </trkpt>
      <trkpt lat="45.888429265469313" lon="7.911032410338521">
        <ele>1846.3499999999999</ele>
        <time>2017-01-29T13:00:49Z</time>
      </trkpt>
      <trkpt lat="45.888435216620564" lon="7.911044061183929">
        <ele>1845.8699999999999</ele>
        <time>2017-01-29T13:00:50Z</time>
      </trkpt>
      <trkpt lat="45.888500679284334" lon="7.911136765033007">
        <ele>1845.8699999999999</ele>
        <time>2017-01-29T13:01:00Z</time>
      </trkpt>
      <trkpt lat="45.888521634042263" lon="7.911234581843019">
        <ele>1843.47</ele>
        <time>2017-01-29T13:01:10Z</time>
      </trkpt>
      <trkpt lat="45.888565890491009" lon="7.911266852170229">
        <ele>1841.0599999999999</ele>
        <time>2017-01-29T13:01:19Z</time>
      </trkpt>
      <trkpt lat="45.888606626540422" lon="7.911338685080409">
        <ele>1838.6600000000001</ele>
        <time>2017-01-29T13:01:27Z</time>
      </trkpt>
      <trkpt lat="45.888607548549771" lon="7.911352347582579">
        <ele>1838.6600000000001</ele>
        <time>2017-01-29T13:01:28Z</time>
      </trkpt>
      <trkpt lat="45.888582738116384" lon="7.911386881023645">
        <ele>1837.7</ele>
        <time>2017-01-29T13:01:38Z</time>
      </trkpt>
      <trkpt lat="45.888601932674646" lon="7.911409679800272">
        <ele>1837.22</ele>
        <time>2017-01-29T13:01:46Z</time>
      </trkpt>
      <trkpt lat="45.888630179688334" lon="7.91145695373416">
        <ele>1835.29</ele>
        <time>2017-01-29T13:01:53Z</time>
      </trkpt>
      <trkpt lat="45.888597154989839" lon="7.911515878513455">
        <ele>1833.3699999999999</ele>
        <time>2017-01-29T13:02:00Z</time>
      </trkpt>
      <trkpt lat="45.888610314577818" lon="7.911557117477059">
        <ele>1831.45</ele>
        <time>2017-01-29T13:02:08Z</time>
      </trkpt>
      <trkpt lat="45.888643758371472" lon="7.911618808284402">
        <ele>1828.5599999999999</ele>
        <time>2017-01-29T13:02:18Z</time>
      </trkpt>
      <trkpt lat="45.888637555763125" lon="7.911664824932814">
        <ele>1826.6400000000001</ele>
        <time>2017-01-29T13:02:27Z</time>
      </trkpt>
      <trkpt lat="45.888609224930406" lon="7.91164412163198">
        <ele>1825.2</ele>
        <time>2017-01-29T13:02:35Z</time>
      </trkpt>
      <trkpt lat="45.888626826927066" lon="7.911690222099423">
        <ele>1823.76</ele>
        <time>2017-01-29T13:02:43Z</time>
      </trkpt>
      <trkpt lat="45.888664629310369" lon="7.911743111908436">
        <ele>1821.8399999999999</ele>
        <time>2017-01-29T13:02:53Z</time>
      </trkpt>
      <trkpt lat="45.888642836362123" lon="7.911791140213609">
        <ele>1819.4300000000001</ele>
        <time>2017-01-29T13:03:02Z</time>
      </trkpt>
      <trkpt lat="45.888627413660288" lon="7.911754259839654">
        <ele>1818.95</ele>
        <time>2017-01-29T13:03:12Z</time>
      </trkpt>
      <trkpt lat="45.888603609055281" lon="7.911748057231307">
        <ele>1817.51</ele>
        <time>2017-01-29T13:03:24Z</time>
      </trkpt>
      <trkpt lat="45.888593215495348" lon="7.911751158535481">
        <ele>1817.51</ele>
        <time>2017-01-29T13:03:25Z</time>
      </trkpt>
      <trkpt lat="45.888551725074649" lon="7.911760378628969">
        <ele>1814.6300000000001</ele>
        <time>2017-01-29T13:03:33Z</time>
      </trkpt>
      <trkpt lat="45.888618361204863" lon="7.91184738278389">
        <ele>1812.7</ele>
        <time>2017-01-29T13:03:43Z</time>
      </trkpt>
      <trkpt lat="45.888621043413877" lon="7.911889124661684">
        <ele>1810.78</ele>
        <time>2017-01-29T13:03:47Z</time>
      </trkpt>
      <trkpt lat="45.888615259900689" lon="7.912000520154834">
        <ele>1808.3800000000001</ele>
        <time>2017-01-29T13:03:56Z</time>
      </trkpt>
      <trkpt lat="45.888634119182825" lon="7.912017032504082">
        <ele>1806.9400000000001</ele>
        <time>2017-01-29T13:04:00Z</time>
      </trkpt>
      <trkpt lat="45.888661192730069" lon="7.912027426064014">
        <ele>1805.49</ele>
        <time>2017-01-29T13:04:10Z</time>
      </trkpt>
      <trkpt lat="45.888670412823558" lon="7.912005968391895">
        <ele>1805.49</ele>
        <time>2017-01-29T13:04:21Z</time>
      </trkpt>
      <trkpt lat="45.888676280155778" lon="7.912055505439639">
        <ele>1804.53</ele>
        <time>2017-01-29T13:04:31Z</time>
      </trkpt>
      <trkpt lat="45.888648619875312" lon="7.912059612572193">
        <ele>1803.5699999999999</ele>
        <time>2017-01-29T13:04:38Z</time>
      </trkpt>
      <trkpt lat="45.888620037585497" lon="7.912094229832292">
        <ele>1802.1300000000001</ele>
        <time>2017-01-29T13:04:46Z</time>
      </trkpt>
      <trkpt lat="45.888668736442924" lon="7.912139240652323">
        <ele>1800.21</ele>
        <time>2017-01-29T13:04:55Z</time>
      </trkpt>
      <trkpt lat="45.888676112517715" lon="7.912153657525778">
        <ele>1799.73</ele>
        <time>2017-01-29T13:04:57Z</time>
      </trkpt>
      <trkpt lat="45.88870326988399" lon="7.912213336676359">
        <ele>1797.8</ele>
        <time>2017-01-29T13:05:03Z</time>
      </trkpt>
      <trkpt lat="45.888717351481318" lon="7.912301598116756">
        <ele>1795.8800000000001</ele>
        <time>2017-01-29T13:05:10Z</time>
      </trkpt>
      <trkpt lat="45.888673849403858" lon="7.912386087700725">
        <ele>1793.48</ele>
        <time>2017-01-29T13:05:19Z</time>
      </trkpt>
      <trkpt lat="45.888720620423555" lon="7.912540901452303">
        <ele>1790.1099999999999</ele>
        <time>2017-01-29T13:05:30Z</time>
      </trkpt>
      <trkpt lat="45.88872330263257" lon="7.912555569782853">
        <ele>1790.1099999999999</ele>
        <time>2017-01-29T13:05:31Z</time>
      </trkpt>
      <trkpt lat="45.888700252398849" lon="7.912614494562149">
        <ele>1788.6700000000001</ele>
        <time>2017-01-29T13:05:36Z</time>
      </trkpt>
      <trkpt lat="45.888740317896008" lon="7.912676185369492">
        <ele>1786.27</ele>
        <time>2017-01-29T13:05:46Z</time>
      </trkpt>
      <trkpt lat="45.888766385614872" lon="7.912795543670654">
        <ele>1783.3800000000001</ele>
        <time>2017-01-29T13:05:54Z</time>
      </trkpt>
      <trkpt lat="45.888768900185823" lon="7.912801746279001">
        <ele>1783.3800000000001</ele>
        <time>2017-01-29T13:05:55Z</time>
      </trkpt>
      <trkpt lat="45.888781053945422" lon="7.912829658016563">
        <ele>1782.4200000000001</ele>
        <time>2017-01-29T13:05:56Z</time>
      </trkpt>
      <trkpt lat="45.888759847730398" lon="7.912912387400866">
        <ele>1780.98</ele>
        <time>2017-01-29T13:06:01Z</time>
      </trkpt>
      <trkpt lat="45.88873160071671" lon="7.912926552817226">
        <ele>1780.98</ele>
        <time>2017-01-29T13:06:04Z</time>
      </trkpt>
      <trkpt lat="45.888704694807529" lon="7.912946417927742">
        <ele>1780.02</ele>
        <time>2017-01-29T13:06:07Z</time>
      </trkpt>
      <trkpt lat="45.888699498027563" lon="7.912958571687341">
        <ele>1780.02</ele>
        <time>2017-01-29T13:06:08Z</time>
      </trkpt>
      <trkpt lat="45.888698995113373" lon="7.912990506738424">
        <ele>1779.0599999999999</ele>
        <time>2017-01-29T13:06:10Z</time>
      </trkpt>
      <trkpt lat="45.888700839132071" lon="7.912935856729746">
        <ele>1779.0599999999999</ele>
        <time>2017-01-29T13:06:18Z</time>
      </trkpt>
      <trkpt lat="45.888724727556109" lon="7.912891600281">
        <ele>1778.0999999999999</ele>
        <time>2017-01-29T13:06:22Z</time>
      </trkpt>
      <trkpt lat="45.888747191056609" lon="7.912865113466978">
        <ele>1777.1300000000001</ele>
        <time>2017-01-29T13:06:25Z</time>
      </trkpt>
      <trkpt lat="45.888753058388829" lon="7.912906520068646">
        <ele>1776.6500000000001</ele>
        <time>2017-01-29T13:06:29Z</time>
      </trkpt>
      <trkpt lat="45.888780551031232" lon="7.913004588335753">
        <ele>1773.77</ele>
        <time>2017-01-29T13:06:37Z</time>
      </trkpt>
      <trkpt lat="45.888837296515703" lon="7.913079774007201">
        <ele>1770.4100000000001</ele>
        <time>2017-01-29T13:06:47Z</time>
      </trkpt>
      <trkpt lat="45.888873841613531" lon="7.913128724321723">
        <ele>1767.52</ele>
        <time>2017-01-29T13:06:56Z</time>
      </trkpt>
      <trkpt lat="45.888905692845583" lon="7.913179518654943">
        <ele>1765.5999999999999</ele>
        <time>2017-01-29T13:07:04Z</time>
      </trkpt>
      <trkpt lat="45.888917176052928" lon="7.913175076246262">
        <ele>1765.1199999999999</ele>
        <time>2017-01-29T13:07:05Z</time>
      </trkpt>
      <trkpt lat="45.888914577662945" lon="7.913198797032237">
        <ele>1764.6400000000001</ele>
        <time>2017-01-29T13:07:07Z</time>
      </trkpt>
      <trkpt lat="45.888925725594163" lon="7.913237018510699">
        <ele>1763.2</ele>
        <time>2017-01-29T13:07:14Z</time>
      </trkpt>
      <trkpt lat="45.888993786647916" lon="7.913242047652602">
        <ele>1760.79</ele>
        <time>2017-01-29T13:07:23Z</time>
      </trkpt>
      <trkpt lat="45.888962438330054" lon="7.913278844207525">
        <ele>1758.8699999999999</ele>
        <time>2017-01-29T13:07:32Z</time>
      </trkpt>
      <trkpt lat="45.888976687565446" lon="7.913286052644253">
        <ele>1757.9100000000001</ele>
        <time>2017-01-29T13:07:38Z</time>
      </trkpt>
      <trkpt lat="45.889039719477296" lon="7.913287645205855">
        <ele>1755.99</ele>
        <time>2017-01-29T13:07:46Z</time>
      </trkpt>
      <trkpt lat="45.889037204906344" lon="7.913364423438907">
        <ele>1754.54</ele>
        <time>2017-01-29T13:07:54Z</time>
      </trkpt>
      <trkpt lat="45.889047430828214" lon="7.913384037092328">
        <ele>1752.6199999999999</ele>
        <time>2017-01-29T13:08:02Z</time>
      </trkpt>
      <trkpt lat="45.889083640649915" lon="7.913446314632893">
        <ele>1750.7</ele>
        <time>2017-01-29T13:08:10Z</time>
      </trkpt>
      <trkpt lat="45.889134602621198" lon="7.913508843630552">
        <ele>1747.8099999999999</ele>
        <time>2017-01-29T13:08:20Z</time>
      </trkpt>
      <trkpt lat="45.889164358377457" lon="7.913535414263606">
        <ele>1747.3299999999999</ele>
        <time>2017-01-29T13:08:24Z</time>
      </trkpt>
      <trkpt lat="45.889220433309674" lon="7.913610516116023">
        <ele>1744.45</ele>
        <time>2017-01-29T13:08:34Z</time>
      </trkpt>
      <trkpt lat="45.88926468975842" lon="7.913652006536722">
        <ele>1742.53</ele>
        <time>2017-01-29T13:08:42Z</time>
      </trkpt>
      <trkpt lat="45.889338869601488" lon="7.913689473643899">
        <ele>1740.1199999999999</ele>
        <time>2017-01-29T13:08:52Z</time>
      </trkpt>
      <trkpt lat="45.889358399435878" lon="7.913691233843565">
        <ele>1739.6400000000001</ele>
        <time>2017-01-29T13:08:55Z</time>
      </trkpt>
      <trkpt lat="45.889383377507329" lon="7.913699029013515">
        <ele>1738.6800000000001</ele>
        <time>2017-01-29T13:08:58Z</time>
      </trkpt>
      <trkpt lat="45.889458144083619" lon="7.913710428401828">
        <ele>1736.76</ele>
        <time>2017-01-29T13:09:08Z</time>
      </trkpt>
      <trkpt lat="45.889483708888292" lon="7.913725515827537">
        <ele>1735.8</ele>
        <time>2017-01-29T13:09:12Z</time>
      </trkpt>
      <trkpt lat="45.889484966173768" lon="7.913760719820857">
        <ele>1734.8399999999999</ele>
        <time>2017-01-29T13:09:17Z</time>
      </trkpt>
      <trkpt lat="45.889407517388463" lon="7.913859458640218">
        <ele>1732.9100000000001</ele>
        <time>2017-01-29T13:09:27Z</time>
      </trkpt>
      <trkpt lat="45.889381114393473" lon="7.913944451138377">
        <ele>1730.99</ele>
        <time>2017-01-29T13:09:35Z</time>
      </trkpt>
      <trkpt lat="45.8893658593297" lon="7.914023660123348">
        <ele>1729.0699999999999</ele>
        <time>2017-01-29T13:09:44Z</time>
      </trkpt>
      <trkpt lat="45.889286901801825" lon="7.914055259898305">
        <ele>1727.6300000000001</ele>
        <time>2017-01-29T13:09:54Z</time>
      </trkpt>
      <trkpt lat="45.889238454401493" lon="7.91407311335206">
        <ele>1725.22</ele>
        <time>2017-01-29T13:10:03Z</time>
      </trkpt>
      <trkpt lat="45.889275250956416" lon="7.914094990119338">
        <ele>1723.78</ele>
        <time>2017-01-29T13:10:12Z</time>
      </trkpt>
      <trkpt lat="45.889321099966764" lon="7.914146957919002">
        <ele>1722.3399999999999</ele>
        <time>2017-01-29T13:10:21Z</time>
      </trkpt>
      <trkpt lat="45.889334427192807" lon="7.914185514673591">
        <ele>1720.9000000000001</ele>
        <time>2017-01-29T13:10:27Z</time>
      </trkpt>
      <trkpt lat="45.889217415824533" lon="7.914263298735023">
        <ele>1718.97</ele>
        <time>2017-01-29T13:10:38Z</time>
      </trkpt>
      <trkpt lat="45.889185313135386" lon="7.91429246775806">
        <ele>1718.49</ele>
        <time>2017-01-29T13:10:49Z</time>
      </trkpt>
      <trkpt lat="45.88919386267662" lon="7.914278889074922">
        <ele>1717.53</ele>
        <time>2017-01-29T13:10:59Z</time>
      </trkpt>
      <trkpt lat="45.889203501865268" lon="7.914253491908312">
        <ele>1717.53</ele>
        <time>2017-01-29T13:11:20Z</time>
      </trkpt>
      <trkpt lat="45.889216829091311" lon="7.914288276806474">
        <ele>1717.53</ele>
        <time>2017-01-29T13:11:45Z</time>
      </trkpt>
      <trkpt lat="45.889206938445568" lon="7.914276625961065">
        <ele>1717.53</ele>
        <time>2017-01-29T13:12:06Z</time>
      </trkpt>
      <trkpt lat="45.889195874333382" lon="7.914268830791116">
        <ele>1717.53</ele>
        <time>2017-01-29T13:12:30Z</time>
      </trkpt>
      <trkpt lat="45.889201825484633" lon="7.914275452494621">
        <ele>1717.53</ele>
        <time>2017-01-29T13:12:40Z</time>
      </trkpt>
      <trkpt lat="45.889196796342731" lon="7.914271513000131">
        <ele>1717.53</ele>
        <time>2017-01-29T13:12:56Z</time>
      </trkpt>
      <trkpt lat="45.889191180467606" lon="7.91428224183619">
        <ele>1719.46</ele>
        <time>2017-01-29T13:13:08Z</time>
      </trkpt>
      <trkpt lat="45.889185480773449" lon="7.914275452494621">
        <ele>1718.49</ele>
        <time>2017-01-29T13:13:10Z</time>
      </trkpt>
      <trkpt lat="45.889176344498992" lon="7.914244690909982">
        <ele>1718.49</ele>
        <time>2017-01-29T13:13:22Z</time>
      </trkpt>
      <trkpt lat="45.889171818271279" lon="7.914260029792786">
        <ele>1718.49</ele>
        <time>2017-01-29T13:13:31Z</time>
      </trkpt>
      <trkpt lat="45.889171650633216" lon="7.914274781942368">
        <ele>1718.49</ele>
        <time>2017-01-29T13:13:32Z</time>
      </trkpt>
      <trkpt lat="45.889171315357089" lon="7.914314679801464">
        <ele>1718.49</ele>
        <time>2017-01-29T13:13:34Z</time>
      </trkpt>
      <trkpt lat="45.889110546559095" lon="7.914370084181428">
        <ele>1718.01</ele>
        <time>2017-01-29T13:13:40Z</time>
      </trkpt>
      <trkpt lat="45.889108031988144" lon="7.914405791088939">
        <ele>1717.53</ele>
        <time>2017-01-29T13:13:43Z</time>
      </trkpt>
      <trkpt lat="45.889101410284638" lon="7.914514672011137">
        <ele>1716.0899999999999</ele>
        <time>2017-01-29T13:13:51Z</time>
      </trkpt>
      <trkpt lat="45.889104092493653" lon="7.914598155766726">
        <ele>1715.6099999999999</ele>
        <time>2017-01-29T13:13:58Z</time>
      </trkpt>
      <trkpt lat="45.889092944562435" lon="7.914678538218141">
        <ele>1714.1700000000001</ele>
        <time>2017-01-29T13:14:03Z</time>
      </trkpt>
      <trkpt lat="45.889020189642906" lon="7.914853971451521">
        <ele>1712.73</ele>
        <time>2017-01-29T13:14:15Z</time>
      </trkpt>
      <trkpt lat="45.889010298997164" lon="7.914904681965709">
        <ele>1712.25</ele>
        <time>2017-01-29T13:14:18Z</time>
      </trkpt>
      <trkpt lat="45.888959672302008" lon="7.915084641426802">
        <ele>1710.3199999999999</ele>
        <time>2017-01-29T13:14:30Z</time>
      </trkpt>
      <trkpt lat="45.888891695067286" lon="7.915190337225795">
        <ele>1709.8399999999999</ele>
        <time>2017-01-29T13:14:39Z</time>
      </trkpt>
      <trkpt lat="45.888808965682983" lon="7.915355125442147">
        <ele>1707.4400000000001</ele>
        <time>2017-01-29T13:14:50Z</time>
      </trkpt>
      <trkpt lat="45.888766972348094" lon="7.91549988090992">
        <ele>1705.04</ele>
        <time>2017-01-29T13:15:01Z</time>
      </trkpt>
      <trkpt lat="45.888728499412537" lon="7.91561764664948">
        <ele>1702.6300000000001</ele>
        <time>2017-01-29T13:15:10Z</time>
      </trkpt>
      <trkpt lat="45.888728247955441" lon="7.915626782923937">
        <ele>1702.1500000000001</ele>
        <time>2017-01-29T13:15:16Z</time>
      </trkpt>
      <trkpt lat="45.888721207156777" lon="7.91565234772861">
        <ele>1702.1500000000001</ele>
        <time>2017-01-29T13:15:18Z</time>
      </trkpt>
      <trkpt lat="45.888678878545761" lon="7.915727198123932">
        <ele>1701.1900000000001</ele>
        <time>2017-01-29T13:15:23Z</time>
      </trkpt>
      <trkpt lat="45.888627916574478" lon="7.91578427888453">
        <ele>1700.71</ele>
        <time>2017-01-29T13:15:29Z</time>
      </trkpt>
      <trkpt lat="45.888592628762126" lon="7.915853429585695">
        <ele>1699.27</ele>
        <time>2017-01-29T13:15:34Z</time>
      </trkpt>
      <trkpt lat="45.888582821935415" lon="7.915903218090534">
        <ele>1697.8299999999999</ele>
        <time>2017-01-29T13:15:37Z</time>
      </trkpt>
      <trkpt lat="45.888566728681326" lon="7.915988462045789">
        <ele>1695.4200000000001</ele>
        <time>2017-01-29T13:15:47Z</time>
      </trkpt>
      <trkpt lat="45.88851559907198" lon="7.916128439828754">
        <ele>1692.54</ele>
        <time>2017-01-29T13:15:59Z</time>
      </trkpt>
      <trkpt lat="45.88849707506597" lon="7.916160207241774">
        <ele>1692.0599999999999</ele>
        <time>2017-01-29T13:16:02Z</time>
      </trkpt>
      <trkpt lat="45.888466062024236" lon="7.916255425661802">
        <ele>1691.5799999999999</ele>
        <time>2017-01-29T13:16:09Z</time>
      </trkpt>
      <trkpt lat="45.888423901051283" lon="7.916316948831081">
        <ele>1691.0999999999999</ele>
        <time>2017-01-29T13:16:15Z</time>
      </trkpt>
      <trkpt lat="45.888401856645942" lon="7.916376460343599">
        <ele>1690.6199999999999</ele>
        <time>2017-01-29T13:16:20Z</time>
      </trkpt>
      <trkpt lat="45.888383667916059" lon="7.916402360424399">
        <ele>1690.6199999999999</ele>
        <time>2017-01-29T13:16:22Z</time>
      </trkpt>
      <trkpt lat="45.888375956565142" lon="7.916464051231742">
        <ele>1689.6500000000001</ele>
        <time>2017-01-29T13:16:28Z</time>
      </trkpt>
      <trkpt lat="45.888353576883674" lon="7.916529597714543">
        <ele>1689.1700000000001</ele>
        <time>2017-01-29T13:16:33Z</time>
      </trkpt>
      <trkpt lat="45.888292891904712" lon="7.916637053713203">
        <ele>1687.25</ele>
        <time>2017-01-29T13:16:43Z</time>
      </trkpt>
      <trkpt lat="45.888271685689688" lon="7.916662702336907">
        <ele>1686.77</ele>
        <time>2017-01-29T13:16:46Z</time>
      </trkpt>
      <trkpt lat="45.888190967962146" lon="7.916777534410358">
        <ele>1685.3299999999999</ele>
        <time>2017-01-29T13:16:58Z</time>
      </trkpt>
      <trkpt lat="45.88816431351006" lon="7.916786000132561">
        <ele>1684.8499999999999</ele>
        <time>2017-01-29T13:17:01Z</time>
      </trkpt>
      <trkpt lat="45.888144364580512" lon="7.916798405349255">
        <ele>1684.3699999999999</ele>
        <time>2017-01-29T13:17:05Z</time>
      </trkpt>
      <trkpt lat="45.88809248059988" lon="7.916922876611352">
        <ele>1683.4100000000001</ele>
        <time>2017-01-29T13:17:15Z</time>
      </trkpt>
      <trkpt lat="45.888117458671331" lon="7.91703075170517">
        <ele>1681.48</ele>
        <time>2017-01-29T13:17:24Z</time>
      </trkpt>
      <trkpt lat="45.888128774240613" lon="7.917069057002664">
        <ele>1681</ele>
        <time>2017-01-29T13:17:27Z</time>
      </trkpt>
      <trkpt lat="45.888121230527759" lon="7.917156061157584">
        <ele>1680.04</ele>
        <time>2017-01-29T13:17:33Z</time>
      </trkpt>
      <trkpt lat="45.888108657673001" lon="7.917230324819684">
        <ele>1679.5599999999999</ele>
        <time>2017-01-29T13:17:38Z</time>
      </trkpt>
      <trkpt lat="45.888119218870997" lon="7.917306683957577">
        <ele>1678.5999999999999</ele>
        <time>2017-01-29T13:17:44Z</time>
      </trkpt>
      <trkpt lat="45.888140592724085" lon="7.917353957891464">
        <ele>1678.1199999999999</ele>
        <time>2017-01-29T13:17:54Z</time>
      </trkpt>
      <trkpt lat="45.888140257447958" lon="7.917367033660412">
        <ele>1677.6400000000001</ele>
        <time>2017-01-29T13:17:55Z</time>
      </trkpt>
      <trkpt lat="45.888108741492033" lon="7.917433502152562">
        <ele>1677.6400000000001</ele>
        <time>2017-01-29T13:18:01Z</time>
      </trkpt>
      <trkpt lat="45.888057695701718" lon="7.917587980628014">
        <ele>1675.72</ele>
        <time>2017-01-29T13:18:12Z</time>
      </trkpt>
      <trkpt lat="45.888047721236944" lon="7.917608935385943">
        <ele>1676.2</ele>
        <time>2017-01-29T13:18:14Z</time>
      </trkpt>
      <trkpt lat="45.888011930510402" lon="7.917734747752547">
        <ele>1675.23</ele>
        <time>2017-01-29T13:18:23Z</time>
      </trkpt>
      <trkpt lat="45.887908581644297" lon="7.917864667251706">
        <ele>1673.3099999999999</ele>
        <time>2017-01-29T13:18:35Z</time>
      </trkpt>
      <trkpt lat="45.887831635773182" lon="7.917963406071067">
        <ele>1673.3099999999999</ele>
        <time>2017-01-29T13:18:46Z</time>
      </trkpt>
      <trkpt lat="45.887814871966839" lon="7.917989054694772">
        <ele>1673.3099999999999</ele>
        <time>2017-01-29T13:18:49Z</time>
      </trkpt>
      <trkpt lat="45.887728789821267" lon="7.918121656402946">
        <ele>1672.3499999999999</ele>
        <time>2017-01-29T13:19:01Z</time>
      </trkpt>
      <trkpt lat="45.887619992718101" lon="7.918236739933491">
        <ele>1671.3900000000001</ele>
        <time>2017-01-29T13:19:13Z</time>
      </trkpt>
      <trkpt lat="45.887583866715431" lon="7.918262556195259">
        <ele>1670.4300000000001</ele>
        <time>2017-01-29T13:19:16Z</time>
      </trkpt>
      <trkpt lat="45.88753592222929" lon="7.918429607525468">
        <ele>1668.51</ele>
        <time>2017-01-29T13:19:27Z</time>
      </trkpt>
      <trkpt lat="45.88753005489707" lon="7.918459279462695">
        <ele>1668.51</ele>
        <time>2017-01-29T13:19:29Z</time>
      </trkpt>
      <trkpt lat="45.887524774298072" lon="7.918501440435648">
        <ele>1668.02</ele>
        <time>2017-01-29T13:19:32Z</time>
      </trkpt>
      <trkpt lat="45.887494096532464" lon="7.918604789301753">
        <ele>1667.0599999999999</ele>
        <time>2017-01-29T13:19:40Z</time>
      </trkpt>
      <trkpt lat="45.887445732951164" lon="7.918666396290064">
        <ele>1666.0999999999999</ele>
        <time>2017-01-29T13:19:46Z</time>
      </trkpt>
      <trkpt lat="45.887387143447995" lon="7.918745940551162">
        <ele>1664.6600000000001</ele>
        <time>2017-01-29T13:19:53Z</time>
      </trkpt>
      <trkpt lat="45.887375995516777" lon="7.918758178129792">
        <ele>1664.6600000000001</ele>
        <time>2017-01-29T13:19:55Z</time>
      </trkpt>
      <trkpt lat="45.887348251417279" lon="7.918783742934465">
        <ele>1664.1800000000001</ele>
        <time>2017-01-29T13:19:58Z</time>
      </trkpt>
      <trkpt lat="45.887296954169869" lon="7.918886756524444">
        <ele>1662.74</ele>
        <time>2017-01-29T13:20:07Z</time>
      </trkpt>
      <trkpt lat="45.88724079541862" lon="7.918984992429614">
        <ele>1661.3</ele>
        <time>2017-01-29T13:20:15Z</time>
      </trkpt>
      <trkpt lat="45.887160412967205" lon="7.919052047654986">
        <ele>1659.3699999999999</ele>
        <time>2017-01-29T13:20:24Z</time>
      </trkpt>
      <trkpt lat="45.887112049385905" lon="7.919119773432612">
        <ele>1658.4100000000001</ele>
        <time>2017-01-29T13:20:31Z</time>
      </trkpt>
      <trkpt lat="45.887045664712787" lon="7.919275676831603">
        <ele>1655.53</ele>
        <time>2017-01-29T13:20:43Z</time>
      </trkpt>
      <trkpt lat="45.887032840400934" lon="7.919304678216577">
        <ele>1655.53</ele>
        <time>2017-01-29T13:20:45Z</time>
      </trkpt>
      <trkpt lat="45.88692513294518" lon="7.91932831518352">
        <ele>1654.0899999999999</ele>
        <time>2017-01-29T13:20:54Z</time>
      </trkpt>
      <trkpt lat="45.88683377020061" lon="7.919381204992533">
        <ele>1654.0899999999999</ele>
        <time>2017-01-29T13:21:04Z</time>
      </trkpt>
      <trkpt lat="45.886795045807958" lon="7.919446751475334">
        <ele>1653.1199999999999</ele>
        <time>2017-01-29T13:21:11Z</time>
      </trkpt>
      <trkpt lat="45.886759338900447" lon="7.919495115056634">
        <ele>1652.6400000000001</ele>
        <time>2017-01-29T13:21:16Z</time>
      </trkpt>
      <trkpt lat="45.886691613122821" lon="7.919583544135094">
        <ele>1651.2</ele>
        <time>2017-01-29T13:21:24Z</time>
      </trkpt>
      <trkpt lat="45.886650457978249" lon="7.91969477199018">
        <ele>1649.28</ele>
        <time>2017-01-29T13:21:32Z</time>
      </trkpt>
      <trkpt lat="45.886600753292441" lon="7.919753529131413">
        <ele>1648.8</ele>
        <time>2017-01-29T13:21:38Z</time>
      </trkpt>
      <trkpt lat="45.886558927595615" lon="7.919819494709373">
        <ele>1647.8399999999999</ele>
        <time>2017-01-29T13:21:44Z</time>
      </trkpt>
      <trkpt lat="45.886540738865733" lon="7.919827373698354">
        <ele>1647.8399999999999</ele>
        <time>2017-01-29T13:21:46Z</time>
      </trkpt>
      <trkpt lat="45.886497823521495" lon="7.919842628762126">
        <ele>1646.8800000000001</ele>
        <time>2017-01-29T13:21:50Z</time>
      </trkpt>
      <trkpt lat="45.886388020589948" lon="7.919911025092006">
        <ele>1645.4300000000001</ele>
        <time>2017-01-29T13:22:00Z</time>
      </trkpt>
      <trkpt lat="45.88634611107409" lon="7.919981852173805">
        <ele>1645.9100000000001</ele>
        <time>2017-01-29T13:22:09Z</time>
      </trkpt>
      <trkpt lat="45.886311326175928" lon="7.920009596273303">
        <ele>1645.9100000000001</ele>
        <time>2017-01-29T13:22:13Z</time>
      </trkpt>
      <trkpt lat="45.886281989514828" lon="7.920017894357443">
        <ele>1645.9100000000001</ele>
        <time>2017-01-29T13:22:16Z</time>
      </trkpt>
      <trkpt lat="45.886189118027687" lon="7.920083273202181">
        <ele>1645.9100000000001</ele>
        <time>2017-01-29T13:22:27Z</time>
      </trkpt>
      <trkpt lat="45.886141424998641" lon="7.920155273750424">
        <ele>1645.9100000000001</ele>
        <time>2017-01-29T13:22:35Z</time>
      </trkpt>
      <trkpt lat="45.886136814951897" lon="7.92017706669867">
        <ele>1646.4000000000001</ele>
        <time>2017-01-29T13:22:44Z</time>
      </trkpt>
      <trkpt lat="45.886141676455736" lon="7.920170528814197">
        <ele>1646.4000000000001</ele>
        <time>2017-01-29T13:22:59Z</time>
      </trkpt>
      <trkpt lat="45.886181239038706" lon="7.920131217688322">
        <ele>1645.9100000000001</ele>
        <time>2017-01-29T13:23:24Z</time>
      </trkpt>
      <trkpt lat="45.886156763881445" lon="7.920116968452931">
        <ele>1646.4000000000001</ele>
        <time>2017-01-29T13:23:44Z</time>
      </trkpt>
      <trkpt lat="45.886149639263749" lon="7.920139096677303">
        <ele>1646.4000000000001</ele>
        <time>2017-01-29T13:24:01Z</time>
      </trkpt>
      <trkpt lat="45.886148633435369" lon="7.920129122212529">
        <ele>1646.4000000000001</ele>
        <time>2017-01-29T13:24:20Z</time>
      </trkpt>
      <trkpt lat="45.886127259582281" lon="7.920150831341744">
        <ele>1646.4000000000001</ele>
        <time>2017-01-29T13:24:37Z</time>
      </trkpt>
      <trkpt lat="45.886154416948557" lon="7.920194584876299">
        <ele>1646.4000000000001</ele>
        <time>2017-01-29T13:24:51Z</time>
      </trkpt>
      <trkpt lat="45.886147040873766" lon="7.920151585713029">
        <ele>1646.4000000000001</ele>
        <time>2017-01-29T13:25:07Z</time>
      </trkpt>
      <trkpt lat="45.886134887114167" lon="7.920141611248255">
        <ele>1646.4000000000001</ele>
        <time>2017-01-29T13:25:22Z</time>
      </trkpt>
      <trkpt lat="45.886148884892464" lon="7.920132894068956">
        <ele>1646.4000000000001</ele>
        <time>2017-01-29T13:25:38Z</time>
      </trkpt>
      <trkpt lat="45.886135892942548" lon="7.92016826570034">
        <ele>1646.4000000000001</ele>
        <time>2017-01-29T13:25:52Z</time>
      </trkpt>
      <trkpt lat="45.886133378371596" lon="7.920287372544408">
        <ele>1646.4000000000001</ele>
        <time>2017-01-29T13:26:09Z</time>
      </trkpt>
      <trkpt lat="45.886123068630695" lon="7.920348644256592">
        <ele>1645.9100000000001</ele>
        <time>2017-01-29T13:26:13Z</time>
      </trkpt>
      <trkpt lat="45.886086523532867" lon="7.920422991737723">
        <ele>1645.9100000000001</ele>
        <time>2017-01-29T13:26:20Z</time>
      </trkpt>
      <trkpt lat="45.886087277904153" lon="7.920464901253581">
        <ele>1645.4300000000001</ele>
        <time>2017-01-29T13:26:23Z</time>
      </trkpt>
      <trkpt lat="45.886099180206656" lon="7.920561041682959">
        <ele>1645.9100000000001</ele>
        <time>2017-01-29T13:26:30Z</time>
      </trkpt>
      <trkpt lat="45.886097084730864" lon="7.920589372515678">
        <ele>1645.9100000000001</ele>
        <time>2017-01-29T13:26:32Z</time>
      </trkpt>
      <trkpt lat="45.886096581816673" lon="7.920631701126695">
        <ele>1645.4300000000001</ele>
        <time>2017-01-29T13:26:35Z</time>
      </trkpt>
      <trkpt lat="45.886044697836041" lon="7.920722644776106">
        <ele>1644.95</ele>
        <time>2017-01-29T13:26:44Z</time>
      </trkpt>
      <trkpt lat="45.886021228507161" lon="7.920806212350726">
        <ele>1645.4300000000001</ele>
        <time>2017-01-29T13:26:52Z</time>
      </trkpt>
      <trkpt lat="45.88601334951818" lon="7.920921463519335">
        <ele>1644.47</ele>
        <time>2017-01-29T13:27:01Z</time>
      </trkpt>
      <trkpt lat="45.885989712551236" lon="7.921022213995457">
        <ele>1643.99</ele>
        <time>2017-01-29T13:27:09Z</time>
      </trkpt>
      <trkpt lat="45.886000357568264" lon="7.92116311378777">
        <ele>1642.55</ele>
        <time>2017-01-29T13:27:20Z</time>
      </trkpt>
      <trkpt lat="45.885990131646395" lon="7.921313652768731">
        <ele>1642.0699999999999</ele>
        <time>2017-01-29T13:27:31Z</time>
      </trkpt>
      <trkpt lat="45.885934894904494" lon="7.921436112374067">
        <ele>1640.1500000000001</ele>
        <time>2017-01-29T13:27:41Z</time>
      </trkpt>
      <trkpt lat="45.885924082249403" lon="7.921458072960377">
        <ele>1639.6700000000001</ele>
        <time>2017-01-29T13:27:43Z</time>
      </trkpt>
      <trkpt lat="45.885850992053747" lon="7.921522362157702">
        <ele>1638.7</ele>
        <time>2017-01-29T13:27:51Z</time>
      </trkpt>
      <trkpt lat="45.885861720889807" lon="7.921616826206446">
        <ele>1637.26</ele>
        <time>2017-01-29T13:27:58Z</time>
      </trkpt>
      <trkpt lat="45.885819308459759" lon="7.921684300526977">
        <ele>1636.3</ele>
        <time>2017-01-29T13:28:05Z</time>
      </trkpt>
      <trkpt lat="45.885712774470448" lon="7.921752696856856">
        <ele>1634.8599999999999</ele>
        <time>2017-01-29T13:28:15Z</time>
      </trkpt>
      <trkpt lat="45.885680923238397" lon="7.921760240569711">
        <ele>1634.8599999999999</ele>
        <time>2017-01-29T13:28:24Z</time>
      </trkpt>
      <trkpt lat="45.885656615719199" lon="7.921820506453514">
        <ele>1633.9000000000001</ele>
        <time>2017-01-29T13:28:29Z</time>
      </trkpt>
      <trkpt lat="45.885642617940903" lon="7.921859314665198">
        <ele>1633.4200000000001</ele>
        <time>2017-01-29T13:28:32Z</time>
      </trkpt>
      <trkpt lat="45.885586878284812" lon="7.922012116760016">
        <ele>1630.53</ele>
        <time>2017-01-29T13:28:43Z</time>
      </trkpt>
      <trkpt lat="45.885545806959271" lon="7.922169947996736">
        <ele>1627.6500000000001</ele>
        <time>2017-01-29T13:28:54Z</time>
      </trkpt>
      <trkpt lat="45.885507501661777" lon="7.922329623252153">
        <ele>1627.6500000000001</ele>
        <time>2017-01-29T13:29:05Z</time>
      </trkpt>
      <trkpt lat="45.885494174435735" lon="7.922427859157324">
        <ele>1627.6500000000001</ele>
        <time>2017-01-29T13:29:11Z</time>
      </trkpt>
      <trkpt lat="45.885426364839077" lon="7.922541936859489">
        <ele>1628.1300000000001</ele>
        <time>2017-01-29T13:29:21Z</time>
      </trkpt>
      <trkpt lat="45.885391915217042" lon="7.922669844701886">
        <ele>1627.1700000000001</ele>
        <time>2017-01-29T13:29:30Z</time>
      </trkpt>
      <trkpt lat="45.885379007086158" lon="7.922757603228092">
        <ele>1627.1700000000001</ele>
        <time>2017-01-29T13:29:37Z</time>
      </trkpt>
      <trkpt lat="45.885381689295173" lon="7.922884589061141">
        <ele>1627.1700000000001</ele>
        <time>2017-01-29T13:29:47Z</time>
      </trkpt>
      <trkpt lat="45.885345563292503" lon="7.923033367842436">
        <ele>1625.73</ele>
        <time>2017-01-29T13:29:59Z</time>
      </trkpt>
      <trkpt lat="45.88534246198833" lon="7.923103272914887">
        <ele>1624.77</ele>
        <time>2017-01-29T13:30:08Z</time>
      </trkpt>
      <trkpt lat="45.88534832932055" lon="7.923182984814048">
        <ele>1624.77</ele>
        <time>2017-01-29T13:30:16Z</time>
      </trkpt>
      <trkpt lat="45.885264929383993" lon="7.923285830765963">
        <ele>1622.8399999999999</ele>
        <time>2017-01-29T13:30:26Z</time>
      </trkpt>
      <trkpt lat="45.885226456448436" lon="7.923315586522222">
        <ele>1622.8399999999999</ele>
        <time>2017-01-29T13:30:30Z</time>
      </trkpt>
      <trkpt lat="45.885150684043765" lon="7.923463024199009">
        <ele>1621.8800000000001</ele>
        <time>2017-01-29T13:30:43Z</time>
      </trkpt>
      <trkpt lat="45.885127885267138" lon="7.923510130494833">
        <ele>1621.4000000000001</ele>
        <time>2017-01-29T13:30:47Z</time>
      </trkpt>
      <trkpt lat="45.885099973529577" lon="7.923563355579972">
        <ele>1620.4400000000001</ele>
        <time>2017-01-29T13:30:51Z</time>
      </trkpt>
      <trkpt lat="45.885077090933919" lon="7.923612389713526">
        <ele>1619.48</ele>
        <time>2017-01-29T13:30:55Z</time>
      </trkpt>
      <trkpt lat="45.88506200350821" lon="7.923623537644744">
        <ele>1619</ele>
        <time>2017-01-29T13:30:57Z</time>
      </trkpt>
      <trkpt lat="45.885045155882835" lon="7.923666201531887">
        <ele>1618.52</ele>
        <time>2017-01-29T13:31:00Z</time>
      </trkpt>
      <trkpt lat="45.884974161162972" lon="7.923818668350577">
        <ele>1617.0699999999999</ele>
        <time>2017-01-29T13:31:13Z</time>
      </trkpt>
      <trkpt lat="45.884956726804376" lon="7.923839539289475">
        <ele>1617.0699999999999</ele>
        <time>2017-01-29T13:31:15Z</time>
      </trkpt>
      <trkpt lat="45.884933341294527" lon="7.923865942284465">
        <ele>1617.0699999999999</ele>
        <time>2017-01-29T13:31:18Z</time>
      </trkpt>
      <trkpt lat="45.884932335466146" lon="7.923893015831709">
        <ele>1617.0699999999999</ele>
        <time>2017-01-29T13:31:20Z</time>
      </trkpt>
      <trkpt lat="45.88490174151957" lon="7.923939116299152">
        <ele>1616.5899999999999</ele>
        <time>2017-01-29T13:31:24Z</time>
      </trkpt>
      <trkpt lat="45.884834267199039" lon="7.924037268385291">
        <ele>1616.5899999999999</ele>
        <time>2017-01-29T13:31:34Z</time>
      </trkpt>
      <trkpt lat="45.884807780385017" lon="7.92411589063704">
        <ele>1616.5899999999999</ele>
        <time>2017-01-29T13:31:40Z</time>
      </trkpt>
      <trkpt lat="45.884778946638107" lon="7.924136258661747">
        <ele>1616.1099999999999</ele>
        <time>2017-01-29T13:31:43Z</time>
      </trkpt>
      <trkpt lat="45.884716920554638" lon="7.924234662204981">
        <ele>1615.6300000000001</ele>
        <time>2017-01-29T13:31:53Z</time>
      </trkpt>
      <trkpt lat="45.884668389335275" lon="7.924270536750555">
        <ele>1615.6300000000001</ele>
        <time>2017-01-29T13:31:58Z</time>
      </trkpt>
      <trkpt lat="45.88464961387217" lon="7.924349661916494">
        <ele>1615.1500000000001</ele>
        <time>2017-01-29T13:32:04Z</time>
      </trkpt>
      <trkpt lat="45.88455188088119" lon="7.924378495663405">
        <ele>1614.1900000000001</ele>
        <time>2017-01-29T13:32:14Z</time>
      </trkpt>
      <trkpt lat="45.884526818990707" lon="7.924433816224337">
        <ele>1613.71</ele>
        <time>2017-01-29T13:32:19Z</time>
      </trkpt>
      <trkpt lat="45.884510390460491" lon="7.924571027979255">
        <ele>1613.23</ele>
        <time>2017-01-29T13:32:28Z</time>
      </trkpt>
      <trkpt lat="45.884479125961661" lon="7.924669180065393">
        <ele>1612.75</ele>
        <time>2017-01-29T13:32:36Z</time>
      </trkpt>
      <trkpt lat="45.884429840371013" lon="7.9247603751719">
        <ele>1612.27</ele>
        <time>2017-01-29T13:32:45Z</time>
      </trkpt>
      <trkpt lat="45.884422296658158" lon="7.924770098179579">
        <ele>1612.27</ele>
        <time>2017-01-29T13:32:46Z</time>
      </trkpt>
      <trkpt lat="45.884400587528944" lon="7.924809409305453">
        <ele>1611.79</ele>
        <time>2017-01-29T13:32:49Z</time>
      </trkpt>
      <trkpt lat="45.884326491504908" lon="7.924878308549523">
        <ele>1612.75</ele>
        <time>2017-01-29T13:32:59Z</time>
      </trkpt>
      <trkpt lat="45.884293466806412" lon="7.925022477284074">
        <ele>1612.75</ele>
        <time>2017-01-29T13:33:10Z</time>
      </trkpt>
      <trkpt lat="45.884256334975362" lon="7.925172597169876">
        <ele>1611.79</ele>
        <time>2017-01-29T13:33:21Z</time>
      </trkpt>
      <trkpt lat="45.884211324155331" lon="7.925257924944162">
        <ele>1611.3099999999999</ele>
        <time>2017-01-29T13:33:29Z</time>
      </trkpt>
      <trkpt lat="45.884176539257169" lon="7.925411649048328">
        <ele>1611.3099999999999</ele>
        <time>2017-01-29T13:33:40Z</time>
      </trkpt>
      <trkpt lat="45.88412675075233" lon="7.925546262413263">
        <ele>1609.3800000000001</ele>
        <time>2017-01-29T13:33:51Z</time>
      </trkpt>
      <trkpt lat="45.884123397991061" lon="7.925623711198568">
        <ele>1608.4200000000001</ele>
        <time>2017-01-29T13:33:57Z</time>
      </trkpt>
      <trkpt lat="45.884142005816102" lon="7.925656652078033">
        <ele>1607.9400000000001</ele>
        <time>2017-01-29T13:34:00Z</time>
      </trkpt>
      <trkpt lat="45.884183244779706" lon="7.92572982609272">
        <ele>1607.9400000000001</ele>
        <time>2017-01-29T13:34:07Z</time>
      </trkpt>
      <trkpt lat="45.884148878976703" lon="7.925868211314082">
        <ele>1605.54</ele>
        <time>2017-01-29T13:34:17Z</time>
      </trkpt>
      <trkpt lat="45.884151058271527" lon="7.926016068086028">
        <ele>1604.5799999999999</ele>
        <time>2017-01-29T13:34:27Z</time>
      </trkpt>
      <trkpt lat="45.884145526215434" lon="7.926108939573169">
        <ele>1605.54</ele>
        <time>2017-01-29T13:34:36Z</time>
      </trkpt>
      <trkpt lat="45.884151561185718" lon="7.926280265673995">
        <ele>1603.6199999999999</ele>
        <time>2017-01-29T13:34:48Z</time>
      </trkpt>
      <trkpt lat="45.884152818471193" lon="7.926395684480667">
        <ele>1603.6199999999999</ele>
        <time>2017-01-29T13:34:57Z</time>
      </trkpt>
      <trkpt lat="45.884154746308923" lon="7.926458716392517">
        <ele>1602.6600000000001</ele>
        <time>2017-01-29T13:35:01Z</time>
      </trkpt>
      <trkpt lat="45.884165223687887" lon="7.926502637565136">
        <ele>1602.1700000000001</ele>
        <time>2017-01-29T13:35:12Z</time>
      </trkpt>
      <trkpt lat="45.884141754359007" lon="7.926529124379158">
        <ele>1601.6900000000001</ele>
        <time>2017-01-29T13:35:25Z</time>
      </trkpt>
      <trkpt lat="45.884183412417769" lon="7.926659714430571">
        <ele>1600.73</ele>
        <time>2017-01-29T13:35:34Z</time>
      </trkpt>
      <trkpt lat="45.884196404367685" lon="7.926760045811534">
        <ele>1600.73</ele>
        <time>2017-01-29T13:35:42Z</time>
      </trkpt>
      <trkpt lat="45.884195398539305" lon="7.926783682778478">
        <ele>1600.73</ele>
        <time>2017-01-29T13:35:44Z</time>
      </trkpt>
      <trkpt lat="45.884206211194396" lon="7.926933215931058">
        <ele>1599.77</ele>
        <time>2017-01-29T13:35:56Z</time>
      </trkpt>
      <trkpt lat="45.884208055213094" lon="7.92701099999249">
        <ele>1599.77</ele>
        <time>2017-01-29T13:36:02Z</time>
      </trkpt>
      <trkpt lat="45.884168576449156" lon="7.927170926705003">
        <ele>1597.3699999999999</ele>
        <time>2017-01-29T13:36:13Z</time>
      </trkpt>
      <trkpt lat="45.884157512336969" lon="7.927214847877622">
        <ele>1597.3699999999999</ele>
        <time>2017-01-29T13:36:17Z</time>
      </trkpt>
      <trkpt lat="45.884132031351328" lon="7.927318699657917">
        <ele>1596.8900000000001</ele>
        <time>2017-01-29T13:36:26Z</time>
      </trkpt>
      <trkpt lat="45.884090289473534" lon="7.927418779581785">
        <ele>1596.4100000000001</ele>
        <time>2017-01-29T13:36:35Z</time>
      </trkpt>
      <trkpt lat="45.884079895913601" lon="7.927438644692302">
        <ele>1596.4100000000001</ele>
        <time>2017-01-29T13:36:37Z</time>
      </trkpt>
      <trkpt lat="45.88408475741744" lon="7.927486840635538">
        <ele>1595.45</ele>
        <time>2017-01-29T13:36:43Z</time>
      </trkpt>
      <trkpt lat="45.884073860943317" lon="7.927520619705319">
        <ele>1595.45</ele>
        <time>2017-01-29T13:36:46Z</time>
      </trkpt>
      <trkpt lat="45.884046452119946" lon="7.927625142037869">
        <ele>1594.48</ele>
        <time>2017-01-29T13:36:55Z</time>
      </trkpt>
      <trkpt lat="45.884019881486893" lon="7.927734609693289">
        <ele>1594</ele>
        <time>2017-01-29T13:37:04Z</time>
      </trkpt>
      <trkpt lat="45.884012170135975" lon="7.927771657705307">
        <ele>1593.52</ele>
        <time>2017-01-29T13:37:07Z</time>
      </trkpt>
      <trkpt lat="45.883993310853839" lon="7.927877688780427">
        <ele>1593.04</ele>
        <time>2017-01-29T13:37:16Z</time>
      </trkpt>
      <trkpt lat="45.88398652151227" lon="7.92790912091732">
        <ele>1593.04</ele>
        <time>2017-01-29T13:37:19Z</time>
      </trkpt>
      <trkpt lat="45.883959028869867" lon="7.928017415106297">
        <ele>1592.5599999999999</ele>
        <time>2017-01-29T13:37:27Z</time>
      </trkpt>
      <trkpt lat="45.883895410224795" lon="7.928128223866224">
        <ele>1592.5599999999999</ele>
        <time>2017-01-29T13:37:40Z</time>
      </trkpt>
      <trkpt lat="45.883890129625797" lon="7.928066700696945">
        <ele>1593.04</ele>
        <time>2017-01-29T13:37:50Z</time>
      </trkpt>
      <trkpt lat="45.883896248415112" lon="7.928086649626494">
        <ele>1592.5599999999999</ele>
        <time>2017-01-29T13:38:00Z</time>
      </trkpt>
      <trkpt lat="45.883906055241823" lon="7.928078602999449">
        <ele>1593.04</ele>
        <time>2017-01-29T13:38:12Z</time>
      </trkpt>
      <trkpt lat="45.883902367204428" lon="7.928082710132003">
        <ele>1593.04</ele>
        <time>2017-01-29T13:38:34Z</time>
      </trkpt>
      <trkpt lat="45.88390002027154" lon="7.928078435361385">
        <ele>1591.5999999999999</ele>
        <time>2017-01-29T13:38:42Z</time>
      </trkpt>
      <trkpt lat="45.883875964209437" lon="7.928087320178747">
        <ele>1593.04</ele>
        <time>2017-01-29T13:39:02Z</time>
      </trkpt>
      <trkpt lat="45.883917203173041" lon="7.928093858063221">
        <ele>1593.04</ele>
        <time>2017-01-29T13:39:15Z</time>
      </trkpt>
      <trkpt lat="45.883912174031138" lon="7.928084470331669">
        <ele>1593.52</ele>
        <time>2017-01-29T13:39:32Z</time>
      </trkpt>
      <trkpt lat="45.883892560377717" lon="7.928089499473572">
        <ele>1593.04</ele>
        <time>2017-01-29T13:39:50Z</time>
      </trkpt>
      <trkpt lat="45.883902702480555" lon="7.92807818390429">
        <ele>1593.52</ele>
        <time>2017-01-29T13:40:07Z</time>
      </trkpt>
      <trkpt lat="45.883900104090571" lon="7.928098887205124">
        <ele>1593.52</ele>
        <time>2017-01-29T13:40:27Z</time>
      </trkpt>
      <trkpt lat="45.883902786299586" lon="7.928088493645191">
        <ele>1593.04</ele>
        <time>2017-01-29T13:40:44Z</time>
      </trkpt>
      <trkpt lat="45.883895913138986" lon="7.928072568029165">
        <ele>1595.9300000000001</ele>
        <time>2017-01-29T13:40:56Z</time>
      </trkpt>
      <trkpt lat="45.883868671953678" lon="7.928073741495609">
        <ele>1593.52</ele>
        <time>2017-01-29T13:41:15Z</time>
      </trkpt>
      <trkpt lat="45.883878227323294" lon="7.928045243024826">
        <ele>1594</ele>
        <time>2017-01-29T13:41:35Z</time>
      </trkpt>
      <trkpt lat="45.883890129625797" lon="7.928089164197445">
        <ele>1594</ele>
        <time>2017-01-29T13:41:57Z</time>
      </trkpt>
      <trkpt lat="45.883887782692909" lon="7.928044069558382">
        <ele>1594</ele>
        <time>2017-01-29T13:42:19Z</time>
      </trkpt>
      <trkpt lat="45.883874958381057" lon="7.92805278673768">
        <ele>1594.48</ele>
        <time>2017-01-29T13:42:41Z</time>
      </trkpt>
      <trkpt lat="45.883878646418452" lon="7.92806301265955">
        <ele>1594.48</ele>
        <time>2017-01-29T13:43:05Z</time>
      </trkpt>
      <trkpt lat="45.883885519579053" lon="7.928095031529665">
        <ele>1594.48</ele>
        <time>2017-01-29T13:43:25Z</time>
      </trkpt>
      <trkpt lat="45.883874371647835" lon="7.928037783131003">
        <ele>1594.96</ele>
        <time>2017-01-29T13:43:50Z</time>
      </trkpt>
      <trkpt lat="45.88388099335134" lon="7.927985060960054">
        <ele>1594.96</ele>
        <time>2017-01-29T13:44:16Z</time>
      </trkpt>
      <trkpt lat="45.8838658221066" lon="7.928059995174408">
        <ele>1594.96</ele>
        <time>2017-01-29T13:44:39Z</time>
      </trkpt>
      <trkpt lat="45.88385509327054" lon="7.928135180845857">
        <ele>1594.96</ele>
        <time>2017-01-29T13:45:00Z</time>
      </trkpt>
      <trkpt lat="45.883801029995084" lon="7.928119087591767">
        <ele>1594.96</ele>
        <time>2017-01-29T13:45:26Z</time>
      </trkpt>
      <trkpt lat="45.883817626163363" lon="7.928114980459213">
        <ele>1594.96</ele>
        <time>2017-01-29T13:45:48Z</time>
      </trkpt>
      <trkpt lat="45.88386096060276" lon="7.928096121177077">
        <ele>1594.96</ele>
        <time>2017-01-29T13:46:08Z</time>
      </trkpt>
      <trkpt lat="45.88387998752296" lon="7.928096288815141">
        <ele>1595.45</ele>
        <time>2017-01-29T13:46:28Z</time>
      </trkpt>
      <trkpt lat="45.883821817114949" lon="7.928138952702284">
        <ele>1595.45</ele>
        <time>2017-01-29T13:46:56Z</time>
      </trkpt>
      <trkpt lat="45.883886106312275" lon="7.928101234138012">
        <ele>1595.45</ele>
        <time>2017-01-29T13:47:24Z</time>
      </trkpt>
      <trkpt lat="45.883855931460857" lon="7.928064269945025">
        <ele>1595.9300000000001</ele>
        <time>2017-01-29T13:47:50Z</time>
      </trkpt>
      <trkpt lat="45.88387705385685" lon="7.928106179460883">
        <ele>1595.9300000000001</ele>
        <time>2017-01-29T13:48:15Z</time>
      </trkpt>
      <trkpt lat="45.88385408744216" lon="7.928048009052873">
        <ele>1596.4100000000001</ele>
        <time>2017-01-29T13:48:43Z</time>
      </trkpt>
      <trkpt lat="45.883825421333313" lon="7.928089583292604">
        <ele>1596.4100000000001</ele>
        <time>2017-01-29T13:49:10Z</time>
      </trkpt>
      <trkpt lat="45.883871102705598" lon="7.928085308521986">
        <ele>1596.8900000000001</ele>
        <time>2017-01-29T13:49:35Z</time>
      </trkpt>
      <trkpt lat="45.883865067735314" lon="7.928071562200785">
        <ele>1596.8900000000001</ele>
        <time>2017-01-29T13:50:03Z</time>
      </trkpt>
      <trkpt lat="45.883809495717287" lon="7.928099222481251">
        <ele>1597.3699999999999</ele>
        <time>2017-01-29T13:50:30Z</time>
      </trkpt>
      <trkpt lat="45.883801197633147" lon="7.928107939660549">
        <ele>1597.3699999999999</ele>
        <time>2017-01-29T13:50:54Z</time>
      </trkpt>
      <trkpt lat="45.883823158219457" lon="7.928079776465893">
        <ele>1597.3699999999999</ele>
        <time>2017-01-29T13:51:20Z</time>
      </trkpt>
      <trkpt lat="45.883860290050507" lon="7.928099306300283">
        <ele>1597.3699999999999</ele>
        <time>2017-01-29T13:51:45Z</time>
      </trkpt>
      <trkpt lat="45.883847717195749" lon="7.928068460896611">
        <ele>1597.8499999999999</ele>
        <time>2017-01-29T13:52:14Z</time>
      </trkpt>
      <trkpt lat="45.883861798793077" lon="7.928068628534675">
        <ele>1597.8499999999999</ele>
        <time>2017-01-29T13:52:43Z</time>
      </trkpt>
      <trkpt lat="45.883867247030139" lon="7.928098049014807">
        <ele>1598.3299999999999</ele>
        <time>2017-01-29T13:53:11Z</time>
      </trkpt>
      <trkpt lat="45.883858697488904" lon="7.928039459511638">
        <ele>1598.8099999999999</ele>
        <time>2017-01-29T13:53:41Z</time>
      </trkpt>
      <trkpt lat="45.883883340284228" lon="7.928095031529665">
        <ele>1599.29</ele>
        <time>2017-01-29T13:54:10Z</time>
      </trkpt>
      <trkpt lat="45.88384386152029" lon="7.928094696253538">
        <ele>1599.29</ele>
        <time>2017-01-29T13:54:32Z</time>
      </trkpt>
      <trkpt lat="45.883851824328303" lon="7.928063347935677">
        <ele>1599.77</ele>
        <time>2017-01-29T13:55:03Z</time>
      </trkpt>
      <trkpt lat="45.883859032765031" lon="7.928053624927998">
        <ele>1600.25</ele>
        <time>2017-01-29T13:55:32Z</time>
      </trkpt>
      <trkpt lat="45.883837072178721" lon="7.928095450624824">
        <ele>1600.73</ele>
        <time>2017-01-29T13:56:02Z</time>
      </trkpt>
      <trkpt lat="45.883856518194079" lon="7.928066784515977">
        <ele>1600.73</ele>
        <time>2017-01-29T13:56:32Z</time>
      </trkpt>
      <trkpt lat="45.883863139897585" lon="7.928050858899951">
        <ele>1600.73</ele>
        <time>2017-01-29T13:56:59Z</time>
      </trkpt>
      <trkpt lat="45.883831875398755" lon="7.92806837707758">
        <ele>1601.21</ele>
        <time>2017-01-29T13:57:29Z</time>
      </trkpt>
      <trkpt lat="45.883838078007102" lon="7.92802537791431">
        <ele>1601.6900000000001</ele>
        <time>2017-01-29T13:58:01Z</time>
      </trkpt>
      <trkpt lat="45.883843526244164" lon="7.92809427715838">
        <ele>1601.6900000000001</ele>
        <time>2017-01-29T13:58:27Z</time>
      </trkpt>
      <trkpt lat="45.883834976702929" lon="7.928116153925657">
        <ele>1601.6900000000001</ele>
        <time>2017-01-29T13:58:55Z</time>
      </trkpt>
      <trkpt lat="45.88388099335134" lon="7.928076423704624">
        <ele>1601.6900000000001</ele>
        <time>2017-01-29T13:59:26Z</time>
      </trkpt>
      <trkpt lat="45.883886525407434" lon="7.928049936890602">
        <ele>1601.6900000000001</ele>
        <time>2017-01-29T13:59:50Z</time>
      </trkpt>
      <trkpt lat="45.883883340284228" lon="7.928078100085259">
        <ele>1601.6900000000001</ele>
        <time>2017-01-29T14:00:18Z</time>
      </trkpt>
      <trkpt lat="45.883868085220456" lon="7.928040632978082">
        <ele>1602.1700000000001</ele>
        <time>2017-01-29T14:00:46Z</time>
      </trkpt>
      <trkpt lat="45.883858697488904" lon="7.928076088428497">
        <ele>1602.1700000000001</ele>
        <time>2017-01-29T14:01:11Z</time>
      </trkpt>
      <trkpt lat="45.883868169039488" lon="7.928070137277246">
        <ele>1602.1700000000001</ele>
        <time>2017-01-29T14:01:38Z</time>
      </trkpt>
      <trkpt lat="45.883867163211107" lon="7.928067371249199">
        <ele>1602.6600000000001</ele>
        <time>2017-01-29T14:02:09Z</time>
      </trkpt>
      <trkpt lat="45.883872276172042" lon="7.928049936890602">
        <ele>1602.6600000000001</ele>
        <time>2017-01-29T14:02:39Z</time>
      </trkpt>
      <trkpt lat="45.883863642811775" lon="7.928059743717313">
        <ele>1602.6600000000001</ele>
        <time>2017-01-29T14:03:08Z</time>
      </trkpt>
      <trkpt lat="45.883899684995413" lon="7.928075501695275">
        <ele>1602.6600000000001</ele>
        <time>2017-01-29T14:03:33Z</time>
      </trkpt>
      <trkpt lat="45.883874036371708" lon="7.928057396784425">
        <ele>1602.6600000000001</ele>
        <time>2017-01-29T14:04:01Z</time>
      </trkpt>
      <trkpt lat="45.883880741894245" lon="7.928083380684257">
        <ele>1603.1400000000001</ele>
        <time>2017-01-29T14:04:28Z</time>
      </trkpt>
      <trkpt lat="45.88386825285852" lon="7.928055552765727">
        <ele>1603.1400000000001</ele>
        <time>2017-01-29T14:04:55Z</time>
      </trkpt>
      <trkpt lat="45.883846124634147" lon="7.928046165034175">
        <ele>1603.1400000000001</ele>
        <time>2017-01-29T14:05:25Z</time>
      </trkpt>
      <trkpt lat="45.883836066350341" lon="7.928017918020487">
        <ele>1603.1400000000001</ele>
        <time>2017-01-29T14:05:48Z</time>
      </trkpt>
      <trkpt lat="45.883845202624798" lon="7.928064772859216">
        <ele>1603.6199999999999</ele>
        <time>2017-01-29T14:06:10Z</time>
      </trkpt>
      <trkpt lat="45.883850147947669" lon="7.928023869171739">
        <ele>1603.6199999999999</ele>
        <time>2017-01-29T14:06:39Z</time>
      </trkpt>
      <trkpt lat="45.883891973644495" lon="7.928085392341018">
        <ele>1603.6199999999999</ele>
        <time>2017-01-29T14:07:12Z</time>
      </trkpt>
      <trkpt lat="45.883855344727635" lon="7.928086565807462">
        <ele>1604.0999999999999</ele>
        <time>2017-01-29T14:07:37Z</time>
      </trkpt>
      <trkpt lat="45.883874539285898" lon="7.928084805607796">
        <ele>1603.6199999999999</ele>
        <time>2017-01-29T14:08:07Z</time>
      </trkpt>
      <trkpt lat="45.883883843198419" lon="7.928058821707964">
        <ele>1603.6199999999999</ele>
        <time>2017-01-29T14:08:32Z</time>
      </trkpt>
      <trkpt lat="45.883835311979055" lon="7.928080866113305">
        <ele>1604.0999999999999</ele>
        <time>2017-01-29T14:09:02Z</time>
      </trkpt>
      <trkpt lat="45.883879484608769" lon="7.928060246631503">
        <ele>1603.6199999999999</ele>
        <time>2017-01-29T14:09:31Z</time>
      </trkpt>
      <trkpt lat="45.883853919804096" lon="7.928099138662219">
        <ele>1603.6199999999999</ele>
        <time>2017-01-29T14:09:57Z</time>
      </trkpt>
      <trkpt lat="45.883851824328303" lon="7.928109196946025">
        <ele>1603.1400000000001</ele>
        <time>2017-01-29T14:10:24Z</time>
      </trkpt>
      <trkpt lat="45.883890548720956" lon="7.928075082600117">
        <ele>1603.1400000000001</ele>
        <time>2017-01-29T14:10:48Z</time>
      </trkpt>
      <trkpt lat="45.883883340284228" lon="7.928068544715643">
        <ele>1603.1400000000001</ele>
        <time>2017-01-29T14:11:14Z</time>
      </trkpt>
      <trkpt lat="45.883892560377717" lon="7.928079608827829">
        <ele>1602.6600000000001</ele>
        <time>2017-01-29T14:11:41Z</time>
      </trkpt>
      <trkpt lat="45.883888201788068" lon="7.928092433139682">
        <ele>1603.1400000000001</ele>
        <time>2017-01-29T14:12:03Z</time>
      </trkpt>
      <trkpt lat="45.883879819884896" lon="7.92809134349227">
        <ele>1602.6600000000001</ele>
        <time>2017-01-29T14:12:29Z</time>
      </trkpt>
      <trkpt lat="45.88386339135468" lon="7.928082458674908">
        <ele>1602.6600000000001</ele>
        <time>2017-01-29T14:12:56Z</time>
      </trkpt>
      <trkpt lat="45.883862553164363" lon="7.928101988509297">
        <ele>1602.6600000000001</ele>
        <time>2017-01-29T14:13:19Z</time>
      </trkpt>
      <trkpt lat="45.883857272565365" lon="7.928047589957714">
        <ele>1602.6600000000001</ele>
        <time>2017-01-29T14:13:47Z</time>
      </trkpt>
      <trkpt lat="45.883874371647835" lon="7.928035017102957">
        <ele>1603.1400000000001</ele>
        <time>2017-01-29T14:14:14Z</time>
      </trkpt>
      <trkpt lat="45.883886106312275" lon="7.928080363199115">
        <ele>1603.1400000000001</ele>
        <time>2017-01-29T14:14:43Z</time>
      </trkpt>
      <trkpt lat="45.883885184302926" lon="7.928060162812471">
        <ele>1603.1400000000001</ele>
        <time>2017-01-29T14:15:09Z</time>
      </trkpt>
      <trkpt lat="45.883881244808435" lon="7.928097294643521">
        <ele>1603.1400000000001</ele>
        <time>2017-01-29T14:15:36Z</time>
      </trkpt>
      <trkpt lat="45.883890883997083" lon="7.928089248016477">
        <ele>1603.1400000000001</ele>
        <time>2017-01-29T14:16:02Z</time>
      </trkpt>
      <trkpt lat="45.8838692586869" lon="7.928104335442185">
        <ele>1603.1400000000001</ele>
        <time>2017-01-29T14:16:27Z</time>
      </trkpt>
      <trkpt lat="45.883879233151674" lon="7.928103832527995">
        <ele>1603.1400000000001</ele>
        <time>2017-01-29T14:16:50Z</time>
      </trkpt>
      <trkpt lat="45.883890381082892" lon="7.928093355149031">
        <ele>1602.6600000000001</ele>
        <time>2017-01-29T14:17:23Z</time>
      </trkpt>
      <trkpt lat="45.883879568427801" lon="7.928095450624824">
        <ele>1602.6600000000001</ele>
        <time>2017-01-29T14:17:53Z</time>
      </trkpt>
      <trkpt lat="45.883856182917953" lon="7.928116656839848">
        <ele>1602.6600000000001</ele>
        <time>2017-01-29T14:18:21Z</time>
      </trkpt>
      <trkpt lat="45.883884010836482" lon="7.92811774648726">
        <ele>1602.6600000000001</ele>
        <time>2017-01-29T14:18:57Z</time>
      </trkpt>
      <trkpt lat="45.883861212059855" lon="7.928081788122654">
        <ele>1602.1700000000001</ele>
        <time>2017-01-29T14:19:25Z</time>
      </trkpt>
      <trkpt lat="45.883845621719956" lon="7.928114645183086">
        <ele>1601.6900000000001</ele>
        <time>2017-01-29T14:19:54Z</time>
      </trkpt>
      <trkpt lat="45.883877389132977" lon="7.928084889426827">
        <ele>1601.6900000000001</ele>
        <time>2017-01-29T14:20:28Z</time>
      </trkpt>
      <trkpt lat="45.88390295393765" lon="7.928078854456544">
        <ele>1601.6900000000001</ele>
        <time>2017-01-29T14:20:56Z</time>
      </trkpt>
      <trkpt lat="45.883885519579053" lon="7.928037699311972">
        <ele>1601.21</ele>
        <time>2017-01-29T14:21:28Z</time>
      </trkpt>
      <trkpt lat="45.883865570649505" lon="7.928110202774406">
        <ele>1601.21</ele>
        <time>2017-01-29T14:22:01Z</time>
      </trkpt>
      <trkpt lat="45.883873449638486" lon="7.928091511130333">
        <ele>1601.21</ele>
        <time>2017-01-29T14:22:30Z</time>
      </trkpt>
      <trkpt lat="45.883874790742993" lon="7.928146244958043">
        <ele>1601.21</ele>
        <time>2017-01-29T14:23:05Z</time>
      </trkpt>
      <trkpt lat="45.883883759379387" lon="7.928108861669898">
        <ele>1601.21</ele>
        <time>2017-01-29T14:23:32Z</time>
      </trkpt>
      <trkpt lat="45.883851908147335" lon="7.928117830306292">
        <ele>1601.21</ele>
        <time>2017-01-29T14:23:59Z</time>
      </trkpt>
      <trkpt lat="45.883839419111609" lon="7.928122356534004">
        <ele>1601.21</ele>
        <time>2017-01-29T14:24:33Z</time>
      </trkpt>
      <trkpt lat="45.883881077170372" lon="7.928097462281585">
        <ele>1601.21</ele>
        <time>2017-01-29T14:25:08Z</time>
      </trkpt>
      <trkpt lat="45.88387219235301" lon="7.928072987124324">
        <ele>1600.73</ele>
        <time>2017-01-29T14:25:42Z</time>
      </trkpt>
      <trkpt lat="45.883898343890905" lon="7.928106347098947">
        <ele>1601.21</ele>
        <time>2017-01-29T14:26:16Z</time>
      </trkpt>
      <trkpt lat="45.883886190131307" lon="7.928062425926328">
        <ele>1601.21</ele>
        <time>2017-01-29T14:26:52Z</time>
      </trkpt>
      <trkpt lat="45.883831372484565" lon="7.92810307815671">
        <ele>1601.21</ele>
        <time>2017-01-29T14:27:20Z</time>
      </trkpt>
      <trkpt lat="45.883838832378387" lon="7.928137695416808">
        <ele>1601.21</ele>
        <time>2017-01-29T14:27:54Z</time>
      </trkpt>
      <trkpt lat="45.883847549557686" lon="7.928132750093937">
        <ele>1601.21</ele>
        <time>2017-01-29T14:28:20Z</time>
      </trkpt>
      <trkpt lat="45.883855512365699" lon="7.928104670718312">
        <ele>1601.21</ele>
        <time>2017-01-29T14:28:48Z</time>
      </trkpt>
      <trkpt lat="45.883849561214447" lon="7.928045578300953">
        <ele>1601.21</ele>
        <time>2017-01-29T14:29:19Z</time>
      </trkpt>
      <trkpt lat="45.883870935067534" lon="7.928096875548363">
        <ele>1601.21</ele>
        <time>2017-01-29T14:29:49Z</time>
      </trkpt>
      <trkpt lat="45.883901361376047" lon="7.928093438968062">
        <ele>1600.73</ele>
        <time>2017-01-29T14:30:22Z</time>
      </trkpt>
      <trkpt lat="45.883881077170372" lon="7.92810651473701">
        <ele>1600.73</ele>
        <time>2017-01-29T14:31:03Z</time>
      </trkpt>
      <trkpt lat="45.883875796571374" lon="7.928115902468562">
        <ele>1600.25</ele>
        <time>2017-01-29T14:31:37Z</time>
      </trkpt>
      <trkpt lat="45.883876634761691" lon="7.928124200552702">
        <ele>1600.25</ele>
        <time>2017-01-29T14:32:08Z</time>
      </trkpt>
      <trkpt lat="45.883881412446499" lon="7.928107101470232">
        <ele>1600.25</ele>
        <time>2017-01-29T14:32:34Z</time>
      </trkpt>
      <trkpt lat="45.883860541507602" lon="7.928108777850866">
        <ele>1600.25</ele>
        <time>2017-01-29T14:33:10Z</time>
      </trkpt>
      <trkpt lat="45.883904043585062" lon="7.928077513352037">
        <ele>1600.25</ele>
        <time>2017-01-29T14:33:50Z</time>
      </trkpt>
      <trkpt lat="45.88387462310493" lon="7.9281035810709">
        <ele>1599.77</ele>
        <time>2017-01-29T14:34:31Z</time>
      </trkpt>
      <trkpt lat="45.883882166817784" lon="7.928108358755708">
        <ele>1599.77</ele>
        <time>2017-01-29T14:35:08Z</time>
      </trkpt>
      <trkpt lat="45.883877724409103" lon="7.928148005157709">
        <ele>1599.77</ele>
        <time>2017-01-29T14:35:38Z</time>
      </trkpt>
      <trkpt lat="45.883870599791408" lon="7.928111040964723">
        <ele>1599.29</ele>
        <time>2017-01-29T14:36:10Z</time>
      </trkpt>
      <trkpt lat="45.883914940059185" lon="7.928096204996109">
        <ele>1599.29</ele>
        <time>2017-01-29T14:36:35Z</time>
      </trkpt>
      <trkpt lat="45.883876802399755" lon="7.928043566644192">
        <ele>1599.29</ele>
        <time>2017-01-29T14:37:05Z</time>
      </trkpt>
      <trkpt lat="45.88389809243381" lon="7.928083296865225">
        <ele>1598.8099999999999</ele>
        <time>2017-01-29T14:37:32Z</time>
      </trkpt>
      <trkpt lat="45.883857440203428" lon="7.928131744265556">
        <ele>1598.8099999999999</ele>
        <time>2017-01-29T14:37:57Z</time>
      </trkpt>
      <trkpt lat="45.883864397183061" lon="7.928113890811801">
        <ele>1598.8099999999999</ele>
        <time>2017-01-29T14:38:22Z</time>
      </trkpt>
      <trkpt lat="45.883906809613109" lon="7.928075920790434">
        <ele>1598.3299999999999</ele>
        <time>2017-01-29T14:38:44Z</time>
      </trkpt>
      <trkpt lat="45.88392055593431" lon="7.928103664889932">
        <ele>1598.3299999999999</ele>
        <time>2017-01-29T14:39:07Z</time>
      </trkpt>
      <trkpt lat="45.883918041363358" lon="7.928070724010468">
        <ele>1598.3299999999999</ele>
        <time>2017-01-29T14:39:37Z</time>
      </trkpt>
      <trkpt lat="45.883881999179721" lon="7.928128391504288">
        <ele>1598.3299999999999</ele>
        <time>2017-01-29T14:40:01Z</time>
      </trkpt>
      <trkpt lat="45.883907983079553" lon="7.928097965195775">
        <ele>1598.3299999999999</ele>
        <time>2017-01-29T14:40:26Z</time>
      </trkpt>
      <trkpt lat="45.883889207616448" lon="7.928099725395441">
        <ele>1597.8499999999999</ele>
        <time>2017-01-29T14:40:57Z</time>
      </trkpt>
      <trkpt lat="45.883904881775379" lon="7.928131576627493">
        <ele>1597.8499999999999</ele>
        <time>2017-01-29T14:41:26Z</time>
      </trkpt>
      <trkpt lat="45.883921897038817" lon="7.928104838356376">
        <ele>1597.8499999999999</ele>
        <time>2017-01-29T14:41:42Z</time>
      </trkpt>
      <trkpt lat="45.883915778249502" lon="7.928106933832169">
        <ele>1597.8499999999999</ele>
        <time>2017-01-29T14:42:08Z</time>
      </trkpt>
      <trkpt lat="45.883876550942659" lon="7.928111711516976">
        <ele>1597.3699999999999</ele>
        <time>2017-01-29T14:42:27Z</time>
      </trkpt>
      <trkpt lat="45.883905384689569" lon="7.928121015429497">
        <ele>1597.3699999999999</ele>
        <time>2017-01-29T14:42:59Z</time>
      </trkpt>
      <trkpt lat="45.883962297812104" lon="7.928079692646861">
        <ele>1597.3699999999999</ele>
        <time>2017-01-29T14:43:26Z</time>
      </trkpt>
      <trkpt lat="45.883932542055845" lon="7.928083632141352">
        <ele>1597.3699999999999</ele>
        <time>2017-01-29T14:43:51Z</time>
      </trkpt>
      <trkpt lat="45.883893147110939" lon="7.928109532222152">
        <ele>1597.3699999999999</ele>
        <time>2017-01-29T14:44:16Z</time>
      </trkpt>
      <trkpt lat="45.883894572034478" lon="7.928092097863555">
        <ele>1597.3699999999999</ele>
        <time>2017-01-29T14:44:46Z</time>
      </trkpt>
      <trkpt lat="45.883895494043827" lon="7.928086146712303">
        <ele>1597.3699999999999</ele>
        <time>2017-01-29T14:45:08Z</time>
      </trkpt>
      <trkpt lat="45.883869677782059" lon="7.928083296865225">
        <ele>1597.3699999999999</ele>
        <time>2017-01-29T14:45:33Z</time>
      </trkpt>
      <trkpt lat="45.883766245096922" lon="7.928146831691265">
        <ele>1597.3699999999999</ele>
        <time>2017-01-29T14:46:00Z</time>
      </trkpt>
      <trkpt lat="45.883807903155684" lon="7.92815295048058">
        <ele>1597.3699999999999</ele>
        <time>2017-01-29T14:46:27Z</time>
      </trkpt>
      <trkpt lat="45.883827935904264" lon="7.928105676546693">
        <ele>1597.3699999999999</ele>
        <time>2017-01-29T14:46:58Z</time>
      </trkpt>
      <trkpt lat="45.883850483223796" lon="7.928076088428497">
        <ele>1596.8900000000001</ele>
        <time>2017-01-29T14:47:21Z</time>
      </trkpt>
      <trkpt lat="45.883895410224795" lon="7.9280742444098">
        <ele>1597.3699999999999</ele>
        <time>2017-01-29T14:47:48Z</time>
      </trkpt>
      <trkpt lat="45.883852746337652" lon="7.928123194724321">
        <ele>1596.8900000000001</ele>
        <time>2017-01-29T14:48:12Z</time>
      </trkpt>
      <trkpt lat="45.883700279518962" lon="7.92814708314836">
        <ele>1597.3699999999999</ele>
        <time>2017-01-29T14:48:42Z</time>
      </trkpt>
      <trkpt lat="45.883913850411773" lon="7.928117997944355">
        <ele>1596.8900000000001</ele>
        <time>2017-01-29T14:49:18Z</time>
      </trkpt>
      <trkpt lat="45.883853919804096" lon="7.928156303241849">
        <ele>1596.8900000000001</ele>
        <time>2017-01-29T14:49:49Z</time>
      </trkpt>
      <trkpt lat="45.883848052471876" lon="7.928145658224821">
        <ele>1596.8900000000001</ele>
        <time>2017-01-29T14:50:17Z</time>
      </trkpt>
      <trkpt lat="45.883808573707938" lon="7.928133336827159">
        <ele>1596.4100000000001</ele>
        <time>2017-01-29T14:50:49Z</time>
      </trkpt>
      <trkpt lat="45.883870851248503" lon="7.928131073713303">
        <ele>1596.8900000000001</ele>
        <time>2017-01-29T14:51:12Z</time>
      </trkpt>
      <trkpt lat="45.883892811834812" lon="7.928072484210134">
        <ele>1596.4100000000001</ele>
        <time>2017-01-29T14:51:34Z</time>
      </trkpt>
      <trkpt lat="45.883892644196749" lon="7.928130570799112">
        <ele>1596.4100000000001</ele>
        <time>2017-01-29T14:52:03Z</time>
      </trkpt>
      <trkpt lat="45.883826091885567" lon="7.928159404546022">
        <ele>1596.4100000000001</ele>
        <time>2017-01-29T14:52:32Z</time>
      </trkpt>
      <trkpt lat="45.883787116035819" lon="7.92811724357307">
        <ele>1596.4100000000001</ele>
        <time>2017-01-29T14:53:04Z</time>
      </trkpt>
      <trkpt lat="45.883803125470877" lon="7.928144317120314">
        <ele>1596.4100000000001</ele>
        <time>2017-01-29T14:53:34Z</time>
      </trkpt>
      <trkpt lat="45.88381796143949" lon="7.928142724558711">
        <ele>1596.4100000000001</ele>
        <time>2017-01-29T14:54:01Z</time>
      </trkpt>
      <trkpt lat="45.883933799341321" lon="7.928044740110636">
        <ele>1596.4100000000001</ele>
        <time>2017-01-29T14:54:38Z</time>
      </trkpt>
      <trkpt lat="45.883836736902595" lon="7.928077261894941">
        <ele>1596.4100000000001</ele>
        <time>2017-01-29T14:55:05Z</time>
      </trkpt>
      <trkpt lat="45.883782422170043" lon="7.928032502532005">
        <ele>1596.4100000000001</ele>
        <time>2017-01-29T14:55:26Z</time>
      </trkpt>
      <trkpt lat="45.883748643100262" lon="7.928014481440187">
        <ele>1596.4100000000001</ele>
        <time>2017-01-29T14:55:49Z</time>
      </trkpt>
      <trkpt lat="45.883772531524301" lon="7.927972320467234">
        <ele>1596.4100000000001</ele>
        <time>2017-01-29T14:56:14Z</time>
      </trkpt>
      <trkpt lat="45.883779069408774" lon="7.928030155599117">
        <ele>1596.4100000000001</ele>
        <time>2017-01-29T14:56:41Z</time>
      </trkpt>
      <trkpt lat="45.883770184591413" lon="7.928140880540013">
        <ele>1596.4100000000001</ele>
        <time>2017-01-29T14:57:10Z</time>
      </trkpt>
      <trkpt lat="45.883813686668873" lon="7.928126296028495">
        <ele>1596.4100000000001</ele>
        <time>2017-01-29T14:57:34Z</time>
      </trkpt>
      <trkpt lat="45.883788205683231" lon="7.928151609376073">
        <ele>1596.4100000000001</ele>
        <time>2017-01-29T14:58:01Z</time>
      </trkpt>
      <trkpt lat="45.883851069957018" lon="7.928113639354706">
        <ele>1596.8900000000001</ele>
        <time>2017-01-29T14:58:30Z</time>
      </trkpt>
      <trkpt lat="45.883910916745663" lon="7.928088326007128">
        <ele>1596.4100000000001</ele>
        <time>2017-01-29T14:58:53Z</time>
      </trkpt>
      <trkpt lat="45.883931033313274" lon="7.928077429533005">
        <ele>1596.4100000000001</ele>
        <time>2017-01-29T14:59:18Z</time>
      </trkpt>
      <trkpt lat="45.883891889825463" lon="7.92813434265554">
        <ele>1596.4100000000001</ele>
        <time>2017-01-29T14:59:46Z</time>
      </trkpt>
      <trkpt lat="45.883883005008101" lon="7.928077345713973">
        <ele>1596.4100000000001</ele>
        <time>2017-01-29T15:00:14Z</time>
      </trkpt>
      <trkpt lat="45.883836401626468" lon="7.92808354832232">
        <ele>1596.4100000000001</ele>
        <time>2017-01-29T15:00:42Z</time>
      </trkpt>
      <trkpt lat="45.883836233988404" lon="7.928043818101287">
        <ele>1596.4100000000001</ele>
        <time>2017-01-29T15:01:12Z</time>
      </trkpt>
      <trkpt lat="45.883831372484565" lon="7.928144233301282">
        <ele>1596.4100000000001</ele>
        <time>2017-01-29T15:01:33Z</time>
      </trkpt>
      <trkpt lat="45.883845202624798" lon="7.92813191190362">
        <ele>1596.4100000000001</ele>
        <time>2017-01-29T15:01:52Z</time>
      </trkpt>
      <trkpt lat="45.883851908147335" lon="7.92812068015337">
        <ele>1595.45</ele>
        <time>2017-01-29T15:02:07Z</time>
      </trkpt>
      <trkpt lat="45.883890883997083" lon="7.928128391504288">
        <ele>1596.4100000000001</ele>
        <time>2017-01-29T15:02:30Z</time>
      </trkpt>
      <trkpt lat="45.883877640590072" lon="7.928115399554372">
        <ele>1595.9300000000001</ele>
        <time>2017-01-29T15:02:53Z</time>
      </trkpt>
      <trkpt lat="45.883831288665533" lon="7.928115986287594">
        <ele>1595.9300000000001</ele>
        <time>2017-01-29T15:03:11Z</time>
      </trkpt>
      <trkpt lat="45.883846543729305" lon="7.928104670718312">
        <ele>1596.4100000000001</ele>
        <time>2017-01-29T15:03:27Z</time>
      </trkpt>
      <trkpt lat="45.883937822654843" lon="7.9280776809901">
        <ele>1595.9300000000001</ele>
        <time>2017-01-29T15:03:46Z</time>
      </trkpt>
      <trkpt lat="45.883868504315615" lon="7.928143478929997">
        <ele>1595.9300000000001</ele>
        <time>2017-01-29T15:04:03Z</time>
      </trkpt>
      <trkpt lat="45.883870935067534" lon="7.928131744265556">
        <ele>1595.9300000000001</ele>
        <time>2017-01-29T15:04:26Z</time>
      </trkpt>
      <trkpt lat="45.883845118805766" lon="7.928105425089598">
        <ele>1595.9300000000001</ele>
        <time>2017-01-29T15:04:47Z</time>
      </trkpt>
      <trkpt lat="45.88384872302413" lon="7.928108861669898">
        <ele>1597.8499999999999</ele>
        <time>2017-01-29T15:04:51Z</time>
      </trkpt>
      <trkpt lat="45.883840592578053" lon="7.92811581864953">
        <ele>1596.4100000000001</ele>
        <time>2017-01-29T15:05:01Z</time>
      </trkpt>
      <trkpt lat="45.883907228708267" lon="7.928089834749699">
        <ele>1596.4100000000001</ele>
        <time>2017-01-29T15:05:18Z</time>
      </trkpt>
      <trkpt lat="45.883907815441489" lon="7.928111627697945">
        <ele>1596.4100000000001</ele>
        <time>2017-01-29T15:05:30Z</time>
      </trkpt>
      <trkpt lat="45.883934302255511" lon="7.928093606606126">
        <ele>1596.4100000000001</ele>
        <time>2017-01-29T15:05:47Z</time>
      </trkpt>
      <trkpt lat="45.883910916745663" lon="7.928070472553372">
        <ele>1596.4100000000001</ele>
        <time>2017-01-29T15:06:08Z</time>
      </trkpt>
      <trkpt lat="45.883871857076883" lon="7.928072735667229">
        <ele>1596.4100000000001</ele>
        <time>2017-01-29T15:06:23Z</time>
      </trkpt>
      <trkpt lat="45.883866911754012" lon="7.928124032914639">
        <ele>1595.9300000000001</ele>
        <time>2017-01-29T15:06:34Z</time>
      </trkpt>
      <trkpt lat="45.883893482387066" lon="7.928141634911299">
        <ele>1595.45</ele>
        <time>2017-01-29T15:06:45Z</time>
      </trkpt>
      <trkpt lat="45.883916867896914" lon="7.928112298250198">
        <ele>1595.9300000000001</ele>
        <time>2017-01-29T15:06:51Z</time>
      </trkpt>
      <trkpt lat="45.883925417438149" lon="7.928059995174408">
        <ele>1595.9300000000001</ele>
        <time>2017-01-29T15:06:55Z</time>
      </trkpt>
      <trkpt lat="45.883995993062854" lon="7.927918927744031">
        <ele>1596.4100000000001</ele>
        <time>2017-01-29T15:07:08Z</time>
      </trkpt>
      <trkpt lat="45.884056091308594" lon="7.92779671959579">
        <ele>1596.8900000000001</ele>
        <time>2017-01-29T15:07:20Z</time>
      </trkpt>
      <trkpt lat="45.884070843458176" lon="7.927754055708647">
        <ele>1597.3699999999999</ele>
        <time>2017-01-29T15:07:30Z</time>
      </trkpt>
      <trkpt lat="45.884067406877875" lon="7.927757073193789">
        <ele>1597.3699999999999</ele>
        <time>2017-01-29T15:07:40Z</time>
      </trkpt>
      <trkpt lat="45.884116524830461" lon="7.927676858380437">
        <ele>1597.3699999999999</ele>
        <time>2017-01-29T15:07:50Z</time>
      </trkpt>
      <trkpt lat="45.884196907281876" lon="7.927546184509993">
        <ele>1597.8499999999999</ele>
        <time>2017-01-29T15:08:03Z</time>
      </trkpt>
      <trkpt lat="45.884259520098567" lon="7.927425904199481">
        <ele>1598.3299999999999</ele>
        <time>2017-01-29T15:08:14Z</time>
      </trkpt>
      <trkpt lat="45.884352894499898" lon="7.927308138459921">
        <ele>1598.8099999999999</ele>
        <time>2017-01-29T15:08:27Z</time>
      </trkpt>
      <trkpt lat="45.884433276951313" lon="7.927257595583797">
        <ele>1599.29</ele>
        <time>2017-01-29T15:08:37Z</time>
      </trkpt>
      <trkpt lat="45.884549114853144" lon="7.927261032164097">
        <ele>1597.8499999999999</ele>
        <time>2017-01-29T15:08:50Z</time>
      </trkpt>
      <trkpt lat="45.884595466777682" lon="7.92724552564323">
        <ele>1597.3699999999999</ele>
        <time>2017-01-29T15:08:56Z</time>
      </trkpt>
      <trkpt lat="45.88466621004045" lon="7.927162377163768">
        <ele>1595.45</ele>
        <time>2017-01-29T15:09:07Z</time>
      </trkpt>
      <trkpt lat="45.884708287194371" lon="7.927113929763436">
        <ele>1593.52</ele>
        <time>2017-01-29T15:09:18Z</time>
      </trkpt>
      <trkpt lat="45.884844409301877" lon="7.927093142643571">
        <ele>1591.5999999999999</ele>
        <time>2017-01-29T15:09:31Z</time>
      </trkpt>
      <trkpt lat="45.884890090674162" lon="7.926988117396832">
        <ele>1592.0799999999999</ele>
        <time>2017-01-29T15:09:46Z</time>
      </trkpt>
      <trkpt lat="45.88490467518568" lon="7.926966995000839">
        <ele>1592.0799999999999</ele>
        <time>2017-01-29T15:09:47Z</time>
      </trkpt>
      <trkpt lat="45.885067954659462" lon="7.92687563225627">
        <ele>1592.5599999999999</ele>
        <time>2017-01-29T15:09:59Z</time>
      </trkpt>
      <trkpt lat="45.885099470615387" lon="7.926795920357108">
        <ele>1594</ele>
        <time>2017-01-29T15:10:10Z</time>
      </trkpt>
      <trkpt lat="45.885157976299524" lon="7.926826179027557">
        <ele>1595.45</ele>
        <time>2017-01-29T15:10:21Z</time>
      </trkpt>
      <trkpt lat="45.885136518627405" lon="7.926904046908021">
        <ele>1597.3699999999999</ele>
        <time>2017-01-29T15:10:32Z</time>
      </trkpt>
      <trkpt lat="45.88514213450253" lon="7.926959032192826">
        <ele>1598.3299999999999</ele>
        <time>2017-01-29T15:10:42Z</time>
      </trkpt>
      <trkpt lat="45.885173063725233" lon="7.926911674439907">
        <ele>1598.8099999999999</ele>
        <time>2017-01-29T15:10:53Z</time>
      </trkpt>
      <trkpt lat="45.885213883593678" lon="7.926928605884314">
        <ele>1600.25</ele>
        <time>2017-01-29T15:11:04Z</time>
      </trkpt>
      <trkpt lat="45.885253613814712" lon="7.927050311118364">
        <ele>1602.6600000000001</ele>
        <time>2017-01-29T15:11:19Z</time>
      </trkpt>
      <trkpt lat="45.885268030688167" lon="7.927117869257927">
        <ele>1604.5799999999999</ele>
        <time>2017-01-29T15:11:31Z</time>
      </trkpt>
      <trkpt lat="45.885318322107196" lon="7.927058022469282">
        <ele>1606.02</ele>
        <time>2017-01-29T15:11:43Z</time>
      </trkpt>
      <trkpt lat="45.885370960459113" lon="7.927055507898331">
        <ele>1607.46</ele>
        <time>2017-01-29T15:11:53Z</time>
      </trkpt>
      <trkpt lat="45.885394848883152" lon="7.927158186212182">
        <ele>1608.9000000000001</ele>
        <time>2017-01-29T15:12:04Z</time>
      </trkpt>
      <trkpt lat="45.885402392596006" lon="7.927262289449573">
        <ele>1610.8299999999999</ele>
        <time>2017-01-29T15:12:16Z</time>
      </trkpt>
      <trkpt lat="45.885383114218712" lon="7.927293553948402">
        <ele>1610.8299999999999</ele>
        <time>2017-01-29T15:12:30Z</time>
      </trkpt>
      <trkpt lat="45.885379174724221" lon="7.927364548668265">
        <ele>1611.3099999999999</ele>
        <time>2017-01-29T15:12:41Z</time>
      </trkpt>
      <trkpt lat="45.885361237451434" lon="7.927421713247895">
        <ele>1611.3099999999999</ele>
        <time>2017-01-29T15:12:53Z</time>
      </trkpt>
      <trkpt lat="45.885377582162619" lon="7.927552973851562">
        <ele>1611.3099999999999</ele>
        <time>2017-01-29T15:13:05Z</time>
      </trkpt>
      <trkpt lat="45.885376324877143" lon="7.927565965801477">
        <ele>1610.8299999999999</ele>
        <time>2017-01-29T15:13:06Z</time>
      </trkpt>
      <trkpt lat="45.885386131703854" lon="7.927715079858899">
        <ele>1611.3099999999999</ele>
        <time>2017-01-29T15:13:18Z</time>
      </trkpt>
      <trkpt lat="45.885376827791333" lon="7.927823709324002">
        <ele>1610.3499999999999</ele>
        <time>2017-01-29T15:13:29Z</time>
      </trkpt>
      <trkpt lat="45.885360985994339" lon="7.927885903045535">
        <ele>1608.9000000000001</ele>
        <time>2017-01-29T15:13:40Z</time>
      </trkpt>
      <trkpt lat="45.885283537209034" lon="7.927913814783096">
        <ele>1607.46</ele>
        <time>2017-01-29T15:13:51Z</time>
      </trkpt>
      <trkpt lat="45.885247159749269" lon="7.92791934683919">
        <ele>1606.02</ele>
        <time>2017-01-29T15:14:00Z</time>
      </trkpt>
      <trkpt lat="45.885220253840089" lon="7.927945582196116">
        <ele>1604.5799999999999</ele>
        <time>2017-01-29T15:14:12Z</time>
      </trkpt>
      <trkpt lat="45.885181864723563" lon="7.928005177527666">
        <ele>1602.1700000000001</ele>
        <time>2017-01-29T15:14:24Z</time>
      </trkpt>
      <trkpt lat="45.885139117017388" lon="7.92800241149962">
        <ele>1601.21</ele>
        <time>2017-01-29T15:14:34Z</time>
      </trkpt>
      <trkpt lat="45.885126376524568" lon="7.928010374307632">
        <ele>1600.25</ele>
        <time>2017-01-29T15:14:37Z</time>
      </trkpt>
      <trkpt lat="45.885130986571312" lon="7.928088074550033">
        <ele>1599.29</ele>
        <time>2017-01-29T15:14:49Z</time>
      </trkpt>
      <trkpt lat="45.885142385959625" lon="7.928135013207793">
        <ele>1598.3299999999999</ele>
        <time>2017-01-29T15:14:58Z</time>
      </trkpt>
      <trkpt lat="45.885096536949277" lon="7.928144400939345">
        <ele>1595.9300000000001</ele>
        <time>2017-01-29T15:15:08Z</time>
      </trkpt>
      <trkpt lat="45.88506393134594" lon="7.928227884694934">
        <ele>1592.5599999999999</ele>
        <time>2017-01-29T15:15:17Z</time>
      </trkpt>
      <trkpt lat="45.885062841698527" lon="7.928414130583406">
        <ele>1590.1600000000001</ele>
        <time>2017-01-29T15:15:28Z</time>
      </trkpt>
      <trkpt lat="45.885088071227074" lon="7.928511612117291">
        <ele>1589.6800000000001</ele>
        <time>2017-01-29T15:15:39Z</time>
      </trkpt>
      <trkpt lat="45.885031828656793" lon="7.92859367094934">
        <ele>1587.75</ele>
        <time>2017-01-29T15:15:50Z</time>
      </trkpt>
      <trkpt lat="45.884965695440769" lon="7.92855997569859">
        <ele>1586.3099999999999</ele>
        <time>2017-01-29T15:15:59Z</time>
      </trkpt>
      <trkpt lat="45.884960750117898" lon="7.928556790575385">
        <ele>1585.3499999999999</ele>
        <time>2017-01-29T15:16:00Z</time>
      </trkpt>
      <trkpt lat="45.884944573044777" lon="7.928555365651846">
        <ele>1584.8699999999999</ele>
        <time>2017-01-29T15:16:02Z</time>
      </trkpt>
      <trkpt lat="45.884934850037098" lon="7.928558215498924">
        <ele>1584.3900000000001</ele>
        <time>2017-01-29T15:16:04Z</time>
      </trkpt>
      <trkpt lat="45.884889084845781" lon="7.928617643192411">
        <ele>1581.03</ele>
        <time>2017-01-29T15:16:14Z</time>
      </trkpt>
      <trkpt lat="45.884887659922242" lon="7.928672209382057">
        <ele>1579.5799999999999</ele>
        <time>2017-01-29T15:16:18Z</time>
      </trkpt>
      <trkpt lat="45.884821023792028" lon="7.928690398111939">
        <ele>1577.6600000000001</ele>
        <time>2017-01-29T15:16:26Z</time>
      </trkpt>
      <trkpt lat="45.884811216965318" lon="7.928699031472206">
        <ele>1576.7</ele>
        <time>2017-01-29T15:16:27Z</time>
      </trkpt>
      <trkpt lat="45.884791938588023" lon="7.928719650954008">
        <ele>1575.74</ele>
        <time>2017-01-29T15:16:29Z</time>
      </trkpt>
      <trkpt lat="45.88477173820138" lon="7.928794668987393">
        <ele>1574.78</ele>
        <time>2017-01-29T15:16:35Z</time>
      </trkpt>
      <trkpt lat="45.884768050163984" lon="7.928941436111927">
        <ele>1573.8199999999999</ele>
        <time>2017-01-29T15:16:47Z</time>
      </trkpt>
      <trkpt lat="45.884747765958309" lon="7.928983764722943">
        <ele>1573.8199999999999</ele>
        <time>2017-01-29T15:16:58Z</time>
      </trkpt>
      <trkpt lat="45.884805265814066" lon="7.928968006744981">
        <ele>1573.3299999999999</ele>
        <time>2017-01-29T15:17:08Z</time>
      </trkpt>
      <trkpt lat="45.88480937294662" lon="7.929067332297564">
        <ele>1570.9300000000001</ele>
        <time>2017-01-29T15:17:21Z</time>
      </trkpt>
      <trkpt lat="45.88482647202909" lon="7.92919222265482">
        <ele>1568.53</ele>
        <time>2017-01-29T15:17:37Z</time>
      </trkpt>
      <trkpt lat="45.884857065975666" lon="7.929239999502897">
        <ele>1566.6099999999999</ele>
        <time>2017-01-29T15:17:47Z</time>
      </trkpt>
      <trkpt lat="45.884822364896536" lon="7.929286435246468">
        <ele>1564.6800000000001</ele>
        <time>2017-01-29T15:17:56Z</time>
      </trkpt>
      <trkpt lat="45.884733097627759" lon="7.929308814927936">
        <ele>1562.28</ele>
        <time>2017-01-29T15:18:08Z</time>
      </trkpt>
      <trkpt lat="45.884685153141618" lon="7.929332032799721">
        <ele>1563.24</ele>
        <time>2017-01-29T15:18:20Z</time>
      </trkpt>
      <trkpt lat="45.884710466489196" lon="7.929321303963661">
        <ele>1563.24</ele>
        <time>2017-01-29T15:18:36Z</time>
      </trkpt>
      <trkpt lat="45.884704347699881" lon="7.929332787171006">
        <ele>1563.72</ele>
        <time>2017-01-29T15:18:54Z</time>
      </trkpt>
      <trkpt lat="45.88456797413528" lon="7.929432280361652">
        <ele>1563.24</ele>
        <time>2017-01-29T15:19:19Z</time>
      </trkpt>
      <trkpt lat="45.884510139003396" lon="7.929419288411737">
        <ele>1563.72</ele>
        <time>2017-01-29T15:19:45Z</time>
      </trkpt>
      <trkpt lat="45.884613655507565" lon="7.929434543475509">
        <ele>1562.76</ele>
        <time>2017-01-29T15:20:07Z</time>
      </trkpt>
      <trkpt lat="45.884656067937613" lon="7.929423144087195">
        <ele>1561.3199999999999</ele>
        <time>2017-01-29T15:20:15Z</time>
      </trkpt>
      <trkpt lat="45.884661097079515" lon="7.929448205977678">
        <ele>1560.8399999999999</ele>
        <time>2017-01-29T15:20:25Z</time>
      </trkpt>
      <trkpt lat="45.88461784645915" lon="7.929484415799379">
        <ele>1559.8800000000001</ele>
        <time>2017-01-29T15:20:38Z</time>
      </trkpt>
      <trkpt lat="45.884630586951971" lon="7.929497994482517">
        <ele>1559.4000000000001</ele>
        <time>2017-01-29T15:20:49Z</time>
      </trkpt>
      <trkpt lat="45.884655984118581" lon="7.929527582600713">
        <ele>1558.4300000000001</ele>
        <time>2017-01-29T15:21:03Z</time>
      </trkpt>
      <trkpt lat="45.884670149534941" lon="7.929551051929593">
        <ele>1556.99</ele>
        <time>2017-01-29T15:21:11Z</time>
      </trkpt>
      <trkpt lat="45.884713232517242" lon="7.929535377770662">
        <ele>1555.0699999999999</ele>
        <time>2017-01-29T15:21:22Z</time>
      </trkpt>
      <trkpt lat="45.884741982445121" lon="7.929531689733267">
        <ele>1554.1099999999999</ele>
        <time>2017-01-29T15:21:34Z</time>
      </trkpt>
      <trkpt lat="45.884762601926923" lon="7.929546441882849">
        <ele>1553.1500000000001</ele>
        <time>2017-01-29T15:21:46Z</time>
      </trkpt>
      <trkpt lat="45.884793195873499" lon="7.929562451317906">
        <ele>1551.22</ele>
        <time>2017-01-29T15:21:56Z</time>
      </trkpt>
      <trkpt lat="45.884818341583014" lon="7.929614167660475">
        <ele>1550.26</ele>
        <time>2017-01-29T15:22:06Z</time>
      </trkpt>
      <trkpt lat="45.884819850325584" lon="7.929644007235766">
        <ele>1548.8199999999999</ele>
        <time>2017-01-29T15:22:17Z</time>
      </trkpt>
      <trkpt lat="45.884842146188021" lon="7.929652137681842">
        <ele>1547.8599999999999</ele>
        <time>2017-01-29T15:22:29Z</time>
      </trkpt>
      <trkpt lat="45.884846840053797" lon="7.92967552319169">
        <ele>1545.9400000000001</ele>
        <time>2017-01-29T15:22:41Z</time>
      </trkpt>
      <trkpt lat="45.884870141744614" lon="7.929704943671823">
        <ele>1544.5</ele>
        <time>2017-01-29T15:22:52Z</time>
      </trkpt>
      <trkpt lat="45.884830998256803" lon="7.929732603952289">
        <ele>1543.05</ele>
        <time>2017-01-29T15:23:02Z</time>
      </trkpt>
      <trkpt lat="45.884823873639107" lon="7.929773759096861">
        <ele>1542.0899999999999</ele>
        <time>2017-01-29T15:23:17Z</time>
      </trkpt>
      <trkpt lat="45.884814066812396" lon="7.929828073829413">
        <ele>1541.1300000000001</ele>
        <time>2017-01-29T15:23:29Z</time>
      </trkpt>
      <trkpt lat="45.884827142581344" lon="7.929911222308874">
        <ele>1538.73</ele>
        <time>2017-01-29T15:23:42Z</time>
      </trkpt>
      <trkpt lat="45.884859580546618" lon="7.92996427975595">
        <ele>1537.29</ele>
        <time>2017-01-29T15:23:57Z</time>
      </trkpt>
      <trkpt lat="45.884859496727586" lon="7.930054636672139">
        <ele>1536.3199999999999</ele>
        <time>2017-01-29T15:24:09Z</time>
      </trkpt>
      <trkpt lat="45.884925378486514" lon="7.930049942806363">
        <ele>1536.3199999999999</ele>
        <time>2017-01-29T15:24:26Z</time>
      </trkpt>
      <trkpt lat="45.884942896664143" lon="7.930096127092838">
        <ele>1535.8399999999999</ele>
        <time>2017-01-29T15:24:30Z</time>
      </trkpt>
      <trkpt lat="45.884953793138266" lon="7.930178353562951">
        <ele>1535.3599999999999</ele>
        <time>2017-01-29T15:24:42Z</time>
      </trkpt>
      <trkpt lat="45.884944153949618" lon="7.930166954174638">
        <ele>1535.3599999999999</ele>
        <time>2017-01-29T15:24:55Z</time>
      </trkpt>
      <trkpt lat="45.884980699047446" lon="7.930158907547593">
        <ele>1537.29</ele>
        <time>2017-01-29T15:25:02Z</time>
      </trkpt>
      <trkpt lat="45.885001150891185" lon="7.930159578099847">
        <ele>1535.8399999999999</ele>
        <time>2017-01-29T15:25:24Z</time>
      </trkpt>
      <trkpt lat="45.884999558329582" lon="7.930166199803352">
        <ele>1535.8399999999999</ele>
        <time>2017-01-29T15:25:34Z</time>
      </trkpt>
      <trkpt lat="45.885019088163972" lon="7.930195117369294">
        <ele>1535.8399999999999</ele>
        <time>2017-01-29T15:25:45Z</time>
      </trkpt>
      <trkpt lat="45.885079773142934" lon="7.930281115695834">
        <ele>1535.3599999999999</ele>
        <time>2017-01-29T15:25:54Z</time>
      </trkpt>
      <trkpt lat="45.885117659345269" lon="7.930410029366612">
        <ele>1534.8800000000001</ele>
        <time>2017-01-29T15:26:06Z</time>
      </trkpt>
      <trkpt lat="45.885145319625735" lon="7.930528884753585">
        <ele>1532.48</ele>
        <time>2017-01-29T15:26:16Z</time>
      </trkpt>
      <trkpt lat="45.885123359039426" lon="7.930564088746905">
        <ele>1532</ele>
        <time>2017-01-29T15:26:19Z</time>
      </trkpt>
      <trkpt lat="45.885112127289176" lon="7.930573057383299">
        <ele>1532</ele>
        <time>2017-01-29T15:26:20Z</time>
      </trkpt>
      <trkpt lat="45.885065440088511" lon="7.930718986317515">
        <ele>1530.5599999999999</ele>
        <time>2017-01-29T15:26:28Z</time>
      </trkpt>
      <trkpt lat="45.885027218610048" lon="7.930875979363918">
        <ele>1528.1500000000001</ele>
        <time>2017-01-29T15:26:41Z</time>
      </trkpt>
      <trkpt lat="45.885016657412052" lon="7.930862149223685">
        <ele>1526.71</ele>
        <time>2017-01-29T15:26:50Z</time>
      </trkpt>
      <trkpt lat="45.884977765381336" lon="7.930921074002981">
        <ele>1525.27</ele>
        <time>2017-01-29T15:26:57Z</time>
      </trkpt>
      <trkpt lat="45.884956642985344" lon="7.931041354313493">
        <ele>1523.8299999999999</ele>
        <time>2017-01-29T15:27:07Z</time>
      </trkpt>
      <trkpt lat="45.884921522811055" lon="7.931213518604636">
        <ele>1521.9000000000001</ele>
        <time>2017-01-29T15:27:19Z</time>
      </trkpt>
      <trkpt lat="45.884849857538939" lon="7.931341594085097">
        <ele>1519.98</ele>
        <time>2017-01-29T15:27:30Z</time>
      </trkpt>
      <trkpt lat="45.884768133983016" lon="7.931425413116813">
        <ele>1518.54</ele>
        <time>2017-01-29T15:27:41Z</time>
      </trkpt>
      <trkpt lat="45.884688338264823" lon="7.931492384523153">
        <ele>1517.0999999999999</ele>
        <time>2017-01-29T15:27:54Z</time>
      </trkpt>
      <trkpt lat="45.884629664942622" lon="7.931548207998276">
        <ele>1516.1400000000001</ele>
        <time>2017-01-29T15:28:04Z</time>
      </trkpt>
      <trkpt lat="45.884602591395378" lon="7.931574862450361">
        <ele>1515.6600000000001</ele>
        <time>2017-01-29T15:28:17Z</time>
      </trkpt>
      <trkpt lat="45.884596556425095" lon="7.931597661226988">
        <ele>1515.6600000000001</ele>
        <time>2017-01-29T15:28:34Z</time>
      </trkpt>
      <trkpt lat="45.88457191362977" lon="7.931651892140508">
        <ele>1515.6600000000001</ele>
        <time>2017-01-29T15:28:49Z</time>
      </trkpt>
      <trkpt lat="45.884556071832776" lon="7.9317248146981">
        <ele>1515.6600000000001</ele>
        <time>2017-01-29T15:29:07Z</time>
      </trkpt>
      <trkpt lat="45.884538050740957" lon="7.931753564625979">
        <ele>1516.1400000000001</ele>
        <time>2017-01-29T15:29:29Z</time>
      </trkpt>
      <trkpt lat="45.884549282491207" lon="7.931768903508782">
        <ele>1516.1400000000001</ele>
        <time>2017-01-29T15:29:44Z</time>
      </trkpt>
      <trkpt lat="45.884558418765664" lon="7.931772507727146">
        <ele>1516.1400000000001</ele>
        <time>2017-01-29T15:29:46Z</time>
      </trkpt>
      <trkpt lat="45.884535368531942" lon="7.931729340925813">
        <ele>1516.1400000000001</ele>
        <time>2017-01-29T15:29:57Z</time>
      </trkpt>
      <trkpt lat="45.884543750435114" lon="7.931757001206279">
        <ele>1515.6600000000001</ele>
        <time>2017-01-29T15:29:59Z</time>
      </trkpt>
      <trkpt lat="45.884574679657817" lon="7.931857667863369">
        <ele>1515.1800000000001</ele>
        <time>2017-01-29T15:30:08Z</time>
      </trkpt>
      <trkpt lat="45.884576858952641" lon="7.931886417791247">
        <ele>1515.1800000000001</ele>
        <time>2017-01-29T15:30:10Z</time>
      </trkpt>
      <trkpt lat="45.884572751820087" lon="7.931955484673381">
        <ele>1514.6900000000001</ele>
        <time>2017-01-29T15:30:17Z</time>
      </trkpt>
      <trkpt lat="45.884610805660486" lon="7.932138042524457">
        <ele>1511.3299999999999</ele>
        <time>2017-01-29T15:30:30Z</time>
      </trkpt>
      <trkpt lat="45.88462664745748" lon="7.932250779122114">
        <ele>1510.3699999999999</ele>
        <time>2017-01-29T15:30:42Z</time>
      </trkpt>
      <trkpt lat="45.884627066552639" lon="7.932254718616605">
        <ele>1509.8900000000001</ele>
        <time>2017-01-29T15:30:45Z</time>
      </trkpt>
      <trkpt lat="45.884554143995047" lon="7.932389080524445">
        <ele>1509.8900000000001</ele>
        <time>2017-01-29T15:30:55Z</time>
      </trkpt>
      <trkpt lat="45.884531261399388" lon="7.932419003918767">
        <ele>1509.8900000000001</ele>
        <time>2017-01-29T15:30:58Z</time>
      </trkpt>
      <trkpt lat="45.884385500103235" lon="7.932471642270684">
        <ele>1510.3699999999999</ele>
        <time>2017-01-29T15:31:06Z</time>
      </trkpt>
      <trkpt lat="45.884337471798062" lon="7.932496536523104">
        <ele>1506.04</ele>
        <time>2017-01-29T15:31:14Z</time>
      </trkpt>
      <trkpt lat="45.88433395139873" lon="7.932498883455992">
        <ele>1504.1199999999999</ele>
        <time>2017-01-29T15:31:16Z</time>
      </trkpt>
      <trkpt lat="45.884334705770016" lon="7.932499134913087">
        <ele>1510.8499999999999</ele>
        <time>2017-01-29T15:31:17Z</time>
      </trkpt>
      <trkpt lat="45.884336465969682" lon="7.932500308379531">
        <ele>1507.48</ele>
        <time>2017-01-29T15:31:18Z</time>
      </trkpt>
      <trkpt lat="45.884307464584708" lon="7.932515228167176">
        <ele>1507.48</ele>
        <time>2017-01-29T15:31:31Z</time>
      </trkpt>
      <trkpt lat="45.884261447936296" lon="7.932502739131451">
        <ele>1507.48</ele>
        <time>2017-01-29T15:31:33Z</time>
      </trkpt>
      <trkpt lat="45.884217694401741" lon="7.932524783536792">
        <ele>1507.97</ele>
        <time>2017-01-29T15:31:37Z</time>
      </trkpt>
      <trkpt lat="45.884020552039146" lon="7.932561999186873">
        <ele>1507</ele>
        <time>2017-01-29T15:31:47Z</time>
      </trkpt>
      <trkpt lat="45.883825924247503" lon="7.933194329962134">
        <ele>1505.5599999999999</ele>
        <time>2017-01-29T15:31:58Z</time>
      </trkpt>
      <trkpt lat="45.883664237335324" lon="7.933312766253948">
        <ele>1503.6400000000001</ele>
        <time>2017-01-29T15:32:07Z</time>
      </trkpt>
      <trkpt lat="45.883556446060538" lon="7.933668326586485">
        <ele>1502.6800000000001</ele>
        <time>2017-01-29T15:32:18Z</time>
      </trkpt>
      <trkpt lat="45.883340863510966" lon="7.933747284114361">
        <ele>1500.76</ele>
        <time>2017-01-29T15:32:28Z</time>
      </trkpt>
      <trkpt lat="45.883179092779756" lon="7.933786762878299">
        <ele>1498.8299999999999</ele>
        <time>2017-01-29T15:32:39Z</time>
      </trkpt>
      <trkpt lat="45.883125197142363" lon="7.933865804225206">
        <ele>1497.3900000000001</ele>
        <time>2017-01-29T15:32:49Z</time>
      </trkpt>
      <trkpt lat="45.883089322596788" lon="7.933931602165103">
        <ele>1495.47</ele>
        <time>2017-01-29T15:32:59Z</time>
      </trkpt>
      <trkpt lat="45.883026458323002" lon="7.933931602165103">
        <ele>1494.03</ele>
        <time>2017-01-29T15:33:10Z</time>
      </trkpt>
      <trkpt lat="45.882981531322002" lon="7.933997400105">
        <ele>1492.5799999999999</ele>
        <time>2017-01-29T15:33:20Z</time>
      </trkpt>
      <trkpt lat="45.882945572957397" lon="7.934010559692979">
        <ele>1492.0999999999999</ele>
        <time>2017-01-29T15:33:27Z</time>
      </trkpt>
      <trkpt lat="45.882774917408824" lon="7.934129079803824">
        <ele>1490.6600000000001</ele>
        <time>2017-01-29T15:33:36Z</time>
      </trkpt>
      <trkpt lat="45.882658073678613" lon="7.934273919090629">
        <ele>1489.22</ele>
        <time>2017-01-29T15:33:47Z</time>
      </trkpt>
      <trkpt lat="45.882577272132039" lon="7.934366036206484">
        <ele>1487.3</ele>
        <time>2017-01-29T15:33:59Z</time>
      </trkpt>
      <trkpt lat="45.882478449493647" lon="7.934392355382443">
        <ele>1484.8900000000001</ele>
        <time>2017-01-29T15:34:10Z</time>
      </trkpt>
      <trkpt lat="45.882424553856254" lon="7.934510875493288">
        <ele>1484.4100000000001</ele>
        <time>2017-01-29T15:34:20Z</time>
      </trkpt>
      <trkpt lat="45.882406616583467" lon="7.934576757252216">
        <ele>1482.01</ele>
        <time>2017-01-29T15:34:32Z</time>
      </trkpt>
      <trkpt lat="45.882316762581468" lon="7.934603076428175">
        <ele>1480.0899999999999</ele>
        <time>2017-01-29T15:34:42Z</time>
      </trkpt>
      <trkpt lat="45.882253898307681" lon="7.93470835313201">
        <ele>1478.1600000000001</ele>
        <time>2017-01-29T15:34:56Z</time>
      </trkpt>
      <trkpt lat="45.882190950214863" lon="7.934787394478917">
        <ele>1475.76</ele>
        <time>2017-01-29T15:35:07Z</time>
      </trkpt>
      <trkpt lat="45.882181981578469" lon="7.934879511594772">
        <ele>1473.8399999999999</ele>
        <time>2017-01-29T15:35:19Z</time>
      </trkpt>
      <trkpt lat="45.882092211395502" lon="7.93495855294168">
        <ele>1471.9200000000001</ele>
        <time>2017-01-29T15:35:30Z</time>
      </trkpt>
      <trkpt lat="45.882038231939077" lon="7.935156030580401">
        <ele>1469.99</ele>
        <time>2017-01-29T15:35:41Z</time>
      </trkpt>
      <trkpt lat="45.882011326029897" lon="7.935261391103268">
        <ele>1468.55</ele>
        <time>2017-01-29T15:35:50Z</time>
      </trkpt>
      <trkpt lat="45.881975367665291" lon="7.935393070802093">
        <ele>1466.1500000000001</ele>
        <time>2017-01-29T15:36:01Z</time>
      </trkpt>
      <trkpt lat="45.881876545026898" lon="7.93544570915401">
        <ele>1464.23</ele>
        <time>2017-01-29T15:36:10Z</time>
      </trkpt>
      <trkpt lat="45.881741847842932" lon="7.935511507093906">
        <ele>1462.3</ele>
        <time>2017-01-29T15:36:22Z</time>
      </trkpt>
      <trkpt lat="45.881593571975827" lon="7.935601193457842">
        <ele>1460.3800000000001</ele>
        <time>2017-01-29T15:36:32Z</time>
      </trkpt>
      <trkpt lat="45.881298277527094" lon="7.93554687872529">
        <ele>1458.46</ele>
        <time>2017-01-29T15:36:43Z</time>
      </trkpt>
      <trkpt lat="45.881099542602897" lon="7.935643186792731">
        <ele>1456.05</ele>
        <time>2017-01-29T15:36:54Z</time>
      </trkpt>
      <trkpt lat="45.880973730236292" lon="7.935748463496566">
        <ele>1455.0899999999999</ele>
        <time>2017-01-29T15:37:02Z</time>
      </trkpt>
      <trkpt lat="45.880749179050326" lon="7.935906462371349">
        <ele>1452.21</ele>
        <time>2017-01-29T15:37:17Z</time>
      </trkpt>
      <trkpt lat="45.880569471046329" lon="7.935959100723267">
        <ele>1449.8099999999999</ele>
        <time>2017-01-29T15:37:28Z</time>
      </trkpt>
      <trkpt lat="45.880156243219972" lon="7.935814345255494">
        <ele>1447.4000000000001</ele>
        <time>2017-01-29T15:37:39Z</time>
      </trkpt>
      <trkpt lat="45.880138305947185" lon="7.935630027204752">
        <ele>1445.96</ele>
        <time>2017-01-29T15:37:50Z</time>
      </trkpt>
      <trkpt lat="45.880201170220971" lon="7.935550985857844">
        <ele>1444.04</ele>
        <time>2017-01-29T15:38:02Z</time>
      </trkpt>
      <trkpt lat="45.880282055586576" lon="7.935498347505927">
        <ele>1442.1099999999999</ele>
        <time>2017-01-29T15:38:13Z</time>
      </trkpt>
      <trkpt lat="45.880488669499755" lon="7.935366667807102">
        <ele>1440.6700000000001</ele>
        <time>2017-01-29T15:38:23Z</time>
      </trkpt>
      <trkpt lat="45.880488669499755" lon="7.935142870992422">
        <ele>1440.1900000000001</ele>
        <time>2017-01-29T15:38:30Z</time>
      </trkpt>
      <trkpt lat="45.880264034494758" lon="7.935011191293597">
        <ele>1439.23</ele>
        <time>2017-01-29T15:38:36Z</time>
      </trkpt>
      <trkpt lat="45.879949629306793" lon="7.934958469122648">
        <ele>1439.23</ele>
        <time>2017-01-29T15:38:39Z</time>
      </trkpt>
      <trkpt lat="45.879761036485434" lon="7.934905830770731">
        <ele>1438.75</ele>
        <time>2017-01-29T15:38:40Z</time>
      </trkpt>
      <trkpt lat="45.879743015393615" lon="7.934800470247865">
        <ele>1438.75</ele>
        <time>2017-01-29T15:38:42Z</time>
      </trkpt>
      <trkpt lat="45.879644192755222" lon="7.934840032830834">
        <ele>1437.3099999999999</ele>
        <time>2017-01-29T15:38:50Z</time>
      </trkpt>
      <trkpt lat="45.879626255482435" lon="7.934874314814806">
        <ele>1436.3499999999999</ele>
        <time>2017-01-29T15:38:54Z</time>
      </trkpt>
      <trkpt lat="45.879641007632017" lon="7.93484028428793">
        <ele>1435.3900000000001</ele>
        <time>2017-01-29T15:39:03Z</time>
      </trkpt>
      <trkpt lat="45.879594823345542" lon="7.934854533523321">
        <ele>1434.9100000000001</ele>
        <time>2017-01-29T15:39:05Z</time>
      </trkpt>
      <trkpt lat="45.879599265754223" lon="7.934841373935342">
        <ele>1434.9100000000001</ele>
        <time>2017-01-29T15:39:07Z</time>
      </trkpt>
      <trkpt lat="45.87954537011683" lon="7.934847995638847">
        <ele>1433.9400000000001</ele>
        <time>2017-01-29T15:39:16Z</time>
      </trkpt>
      <trkpt lat="45.879437578842044" lon="7.934801895171404">
        <ele>1433.9400000000001</ele>
        <time>2017-01-29T15:39:17Z</time>
      </trkpt>
      <trkpt lat="45.879325345158577" lon="7.93476895429194">
        <ele>1433.9400000000001</ele>
        <time>2017-01-29T15:39:28Z</time>
      </trkpt>
      <trkpt lat="45.879284860566258" lon="7.934782113879919">
        <ele>1434.4200000000001</ele>
        <time>2017-01-29T15:39:41Z</time>
      </trkpt>
      <trkpt lat="45.879221996292472" lon="7.934749173000455">
        <ele>1433.46</ele>
        <time>2017-01-29T15:39:47Z</time>
      </trkpt>
      <trkpt lat="45.879051340743899" lon="7.93475579470396">
        <ele>1433.46</ele>
        <time>2017-01-29T15:39:48Z</time>
      </trkpt>
      <trkpt lat="45.878992918878794" lon="7.934749173000455">
        <ele>1433.46</ele>
        <time>2017-01-29T15:39:50Z</time>
      </trkpt>
      <trkpt lat="45.87893458083272" lon="7.934795273467898">
        <ele>1432.98</ele>
        <time>2017-01-29T15:39:52Z</time>
      </trkpt>
      <trkpt lat="45.878885127604008" lon="7.934782113879919">
        <ele>1431.54</ele>
        <time>2017-01-29T15:40:02Z</time>
      </trkpt>
      <trkpt lat="45.878799799829721" lon="7.93476895429194">
        <ele>1431.0599999999999</ele>
        <time>2017-01-29T15:40:05Z</time>
      </trkpt>
      <trkpt lat="45.878768367692828" lon="7.934795273467898">
        <ele>1429.6199999999999</ele>
        <time>2017-01-29T15:40:15Z</time>
      </trkpt>
      <trkpt lat="45.878696534782648" lon="7.934722853824496">
        <ele>1428.1800000000001</ele>
        <time>2017-01-29T15:40:22Z</time>
      </trkpt>
      <trkpt lat="45.878665018826723" lon="7.934676837176085">
        <ele>1426.25</ele>
        <time>2017-01-29T15:40:34Z</time>
      </trkpt>
      <trkpt lat="45.878620175644755" lon="7.9346570558846">
        <ele>1424.3299999999999</ele>
        <time>2017-01-29T15:40:45Z</time>
      </trkpt>
      <trkpt lat="45.878642639145255" lon="7.934696534648538">
        <ele>1422.8900000000001</ele>
        <time>2017-01-29T15:40:55Z</time>
      </trkpt>
      <trkpt lat="45.878620175644755" lon="7.934676837176085">
        <ele>1421.9300000000001</ele>
        <time>2017-01-29T15:41:05Z</time>
      </trkpt>
      <trkpt lat="45.878575248643756" lon="7.934670215472579">
        <ele>1421.45</ele>
        <time>2017-01-29T15:41:07Z</time>
      </trkpt>
      <trkpt lat="45.878543816506863" lon="7.934650434181094">
        <ele>1419.04</ele>
        <time>2017-01-29T15:41:20Z</time>
      </trkpt>
      <trkpt lat="45.878539122641087" lon="7.934597712010145">
        <ele>1419.04</ele>
        <time>2017-01-29T15:41:21Z</time>
      </trkpt>
      <trkpt lat="45.878534596413374" lon="7.934650350362063">
        <ele>1418.0799999999999</ele>
        <time>2017-01-29T15:41:25Z</time>
      </trkpt>
      <trkpt lat="45.87852562777698" lon="7.934637190774083">
        <ele>1416.1600000000001</ele>
        <time>2017-01-29T15:41:35Z</time>
      </trkpt>
      <trkpt lat="45.878566112369299" lon="7.934630652889609">
        <ele>1415.6800000000001</ele>
        <time>2017-01-29T15:41:39Z</time>
      </trkpt>
      <trkpt lat="45.878561586141586" lon="7.934630652889609">
        <ele>1413.76</ele>
        <time>2017-01-29T15:41:50Z</time>
      </trkpt>
      <trkpt lat="45.878512216731906" lon="7.934703072533011">
        <ele>1412.79</ele>
        <time>2017-01-29T15:41:53Z</time>
      </trkpt>
      <trkpt lat="45.87861992418766" lon="7.9345793556422">
        <ele>1410.8699999999999</ele>
        <time>2017-01-29T15:42:05Z</time>
      </trkpt>
      <trkpt lat="45.87852562777698" lon="7.934599136933684">
        <ele>1409.4300000000001</ele>
        <time>2017-01-29T15:42:15Z</time>
      </trkpt>
      <trkpt lat="45.87852562777698" lon="7.934520095586777">
        <ele>1408.47</ele>
        <time>2017-01-29T15:42:24Z</time>
      </trkpt>
      <trkpt lat="45.878458237275481" lon="7.934618834406138">
        <ele>1407.51</ele>
        <time>2017-01-29T15:42:33Z</time>
      </trkpt>
      <trkpt lat="45.878256149590015" lon="7.934737354516983">
        <ele>1407.03</ele>
        <time>2017-01-29T15:42:48Z</time>
      </trkpt>
      <trkpt lat="45.878094462677836" lon="7.934875572100282">
        <ele>1406.0699999999999</ele>
        <time>2017-01-29T15:43:02Z</time>
      </trkpt>
      <trkpt lat="45.878027072176337" lon="7.934796614572406">
        <ele>1406.0699999999999</ele>
        <time>2017-01-29T15:43:06Z</time>
      </trkpt>
      <trkpt lat="45.878113741055131" lon="7.93475235812366">
        <ele>1404.1400000000001</ele>
        <time>2017-01-29T15:43:23Z</time>
      </trkpt>
      <trkpt lat="45.877962782979012" lon="7.9348573833704">
        <ele>1402.7</ele>
        <time>2017-01-29T15:43:36Z</time>
      </trkpt>
      <trkpt lat="45.877853818237782" lon="7.934936676174402">
        <ele>1402.22</ele>
        <time>2017-01-29T15:43:49Z</time>
      </trkpt>
      <trkpt lat="45.877760443836451" lon="7.934919744729996">
        <ele>1401.26</ele>
        <time>2017-01-29T15:44:03Z</time>
      </trkpt>
      <trkpt lat="45.877676960080862" lon="7.934945058077574">
        <ele>1399.8199999999999</ele>
        <time>2017-01-29T15:44:15Z</time>
      </trkpt>
      <trkpt lat="45.877558942884207" lon="7.934985794126988">
        <ele>1397.8900000000001</ele>
        <time>2017-01-29T15:44:27Z</time>
      </trkpt>
      <trkpt lat="45.877405302599072" lon="7.934990152716637">
        <ele>1395.97</ele>
        <time>2017-01-29T15:44:39Z</time>
      </trkpt>
      <trkpt lat="45.877291727811098" lon="7.935028206557035">
        <ele>1394.53</ele>
        <time>2017-01-29T15:44:50Z</time>
      </trkpt>
      <trkpt lat="45.877161640673876" lon="7.935057375580072">
        <ele>1393.0899999999999</ele>
        <time>2017-01-29T15:45:03Z</time>
      </trkpt>
      <trkpt lat="45.876994840800762" lon="7.935090400278568">
        <ele>1391.1700000000001</ele>
        <time>2017-01-29T15:45:17Z</time>
      </trkpt>
      <trkpt lat="45.876889145001769" lon="7.935137255117297">
        <ele>1390.2</ele>
        <time>2017-01-29T15:45:28Z</time>
      </trkpt>
      <trkpt lat="45.87670641951263" lon="7.935122335329652">
        <ele>1388.28</ele>
        <time>2017-01-29T15:45:42Z</time>
      </trkpt>
      <trkpt lat="45.876571722328663" lon="7.935142032802105">
        <ele>1386.3599999999999</ele>
        <time>2017-01-29T15:45:57Z</time>
      </trkpt>
      <trkpt lat="45.876423446461558" lon="7.935181595385075">
        <ele>1385.4000000000001</ele>
        <time>2017-01-29T15:46:09Z</time>
      </trkpt>
      <trkpt lat="45.876356055960059" lon="7.935221074149013">
        <ele>1385.4000000000001</ele>
        <time>2017-01-29T15:46:22Z</time>
      </trkpt>
      <trkpt lat="45.876248264685273" lon="7.935201292857528">
        <ele>1383.96</ele>
        <time>2017-01-29T15:46:36Z</time>
      </trkpt>
      <trkpt lat="45.876207863911986" lon="7.935300031676889">
        <ele>1382.03</ele>
        <time>2017-01-29T15:46:51Z</time>
      </trkpt>
      <trkpt lat="45.876113567501307" lon="7.935359291732311">
        <ele>1380.1099999999999</ele>
        <time>2017-01-29T15:47:06Z</time>
      </trkpt>
      <trkpt lat="45.875978786498308" lon="7.935438333079219">
        <ele>1378.1900000000001</ele>
        <time>2017-01-29T15:47:19Z</time>
      </trkpt>
      <trkpt lat="45.875857500359416" lon="7.93553707189858">
        <ele>1376.26</ele>
        <time>2017-01-29T15:47:33Z</time>
      </trkpt>
      <trkpt lat="45.875763203948736" lon="7.93553707189858">
        <ele>1375.78</ele>
        <time>2017-01-29T15:47:36Z</time>
      </trkpt>
      <trkpt lat="45.875641917809844" lon="7.935576550662518">
        <ele>1372.9000000000001</ele>
        <time>2017-01-29T15:47:51Z</time>
      </trkpt>
      <trkpt lat="45.875601517036557" lon="7.935655508190393">
        <ele>1372.4200000000001</ele>
        <time>2017-01-29T15:47:52Z</time>
      </trkpt>
      <trkpt lat="45.875520631670952" lon="7.93563581071794">
        <ele>1372.4200000000001</ele>
        <time>2017-01-29T15:47:53Z</time>
      </trkpt>
      <trkpt lat="45.875385934486985" lon="7.935655508190393">
        <ele>1371.9400000000001</ele>
        <time>2017-01-29T15:47:54Z</time>
      </trkpt>
      <trkpt lat="45.875264648348093" lon="7.935675289481878">
        <ele>1371.9400000000001</ele>
        <time>2017-01-29T15:47:55Z</time>
      </trkpt>
      <trkpt lat="45.875156857073307" lon="7.935714768245816">
        <ele>1371.46</ele>
        <time>2017-01-29T15:47:56Z</time>
      </trkpt>
      <trkpt lat="45.874981675297022" lon="7.935754247009754">
        <ele>1371.46</ele>
        <time>2017-01-29T15:47:57Z</time>
      </trkpt>
      <trkpt lat="45.874887378886342" lon="7.935833288356662">
        <ele>1368.5699999999999</ele>
        <time>2017-01-29T15:48:12Z</time>
      </trkpt>
      <trkpt lat="45.874792998656631" lon="7.935853069648147">
        <ele>1366.1700000000001</ele>
        <time>2017-01-29T15:48:26Z</time>
      </trkpt>
      <trkpt lat="45.874658301472664" lon="7.9358727671206">
        <ele>1365.21</ele>
        <time>2017-01-29T15:48:36Z</time>
      </trkpt>
      <trkpt lat="45.874590910971165" lon="7.9358727671206">
        <ele>1362.8099999999999</ele>
        <time>2017-01-29T15:48:47Z</time>
      </trkpt>
      <trkpt lat="45.874402234330773" lon="7.935951808467507">
        <ele>1359.9200000000001</ele>
        <time>2017-01-29T15:49:01Z</time>
      </trkpt>
      <trkpt lat="45.874280948191881" lon="7.93601106852293">
        <ele>1357.04</ele>
        <time>2017-01-29T15:49:14Z</time>
      </trkpt>
      <trkpt lat="45.874200146645308" lon="7.936109807342291">
        <ele>1356.5599999999999</ele>
        <time>2017-01-29T15:49:18Z</time>
      </trkpt>
      <trkpt lat="45.874051954597235" lon="7.936050547286868">
        <ele>1353.6700000000001</ele>
        <time>2017-01-29T15:49:32Z</time>
      </trkpt>
      <trkpt lat="45.873930668458343" lon="7.936109807342291">
        <ele>1350.79</ele>
        <time>2017-01-29T15:49:47Z</time>
      </trkpt>
      <trkpt lat="45.873863277956843" lon="7.93624802492559">
        <ele>1348.3900000000001</ele>
        <time>2017-01-29T15:50:01Z</time>
      </trkpt>
      <trkpt lat="45.873661190271378" lon="7.936267806217074">
        <ele>1346.46</ele>
        <time>2017-01-29T15:50:17Z</time>
      </trkpt>
      <trkpt lat="45.873580304905772" lon="7.936326982453466">
        <ele>1344.54</ele>
        <time>2017-01-29T15:50:32Z</time>
      </trkpt>
      <trkpt lat="45.873405123129487" lon="7.93634676374495">
        <ele>1343.0999999999999</ele>
        <time>2017-01-29T15:50:45Z</time>
      </trkpt>
      <trkpt lat="45.873310826718807" lon="7.936386242508888">
        <ele>1340.22</ele>
        <time>2017-01-29T15:50:58Z</time>
      </trkpt>
      <trkpt lat="45.873243436217308" lon="7.936544241383672">
        <ele>1338.77</ele>
        <time>2017-01-29T15:51:08Z</time>
      </trkpt>
      <trkpt lat="45.873162550851703" lon="7.936682542786002">
        <ele>1340.22</ele>
        <time>2017-01-29T15:51:18Z</time>
      </trkpt>
      <trkpt lat="45.873041348531842" lon="7.936899717897177">
        <ele>1340.22</ele>
        <time>2017-01-29T15:51:22Z</time>
      </trkpt>
      <trkpt lat="45.87292006239295" lon="7.936939280480146">
        <ele>1340.22</ele>
        <time>2017-01-29T15:51:35Z</time>
      </trkpt>
      <trkpt lat="45.872758375480771" lon="7.93709727935493">
        <ele>1338.29</ele>
        <time>2017-01-29T15:51:50Z</time>
      </trkpt>
      <trkpt lat="45.872650584205985" lon="7.937235496938229">
        <ele>1335.4100000000001</ele>
        <time>2017-01-29T15:52:03Z</time>
      </trkpt>
      <trkpt lat="45.872583193704486" lon="7.937314454466105">
        <ele>1334.45</ele>
        <time>2017-01-29T15:52:15Z</time>
      </trkpt>
      <trkpt lat="45.872434917837381" lon="7.937354017049074">
        <ele>1331.5599999999999</ele>
        <time>2017-01-29T15:52:25Z</time>
      </trkpt>
      <trkpt lat="45.872421506792307" lon="7.937512015923858">
        <ele>1330.5999999999999</ele>
        <time>2017-01-29T15:52:35Z</time>
      </trkpt>
      <trkpt lat="45.872300220653415" lon="7.937650233507156">
        <ele>1329.6400000000001</ele>
        <time>2017-01-29T15:52:48Z</time>
      </trkpt>
      <trkpt lat="45.872192429378629" lon="7.937867492437363">
        <ele>1328.6800000000001</ele>
        <time>2017-01-29T15:53:02Z</time>
      </trkpt>
      <trkpt lat="45.87205764837563" lon="7.937946449965239">
        <ele>1327.24</ele>
        <time>2017-01-29T15:53:16Z</time>
      </trkpt>
      <trkpt lat="45.871909456327558" lon="7.937986012548208">
        <ele>1326.76</ele>
        <time>2017-01-29T15:53:30Z</time>
      </trkpt>
      <trkpt lat="45.871761180460453" lon="7.937966231256723">
        <ele>1326.28</ele>
        <time>2017-01-29T15:53:36Z</time>
      </trkpt>
      <trkpt lat="45.871653389185667" lon="7.937946449965239">
        <ele>1326.28</ele>
        <time>2017-01-29T15:53:43Z</time>
      </trkpt>
      <trkpt lat="45.871437806636095" lon="7.937828013673425">
        <ele>1325.8</ele>
        <time>2017-01-29T15:53:55Z</time>
      </trkpt>
      <trkpt lat="45.871235718950629" lon="7.937709493562579">
        <ele>1324.8299999999999</ele>
        <time>2017-01-29T15:54:03Z</time>
      </trkpt>
      <trkpt lat="45.871141338720918" lon="7.937748972326517">
        <ele>1323.8699999999999</ele>
        <time>2017-01-29T15:54:12Z</time>
      </trkpt>
      <trkpt lat="45.870979651808739" lon="7.937709493562579">
        <ele>1325.3099999999999</ele>
        <time>2017-01-29T15:54:16Z</time>
      </trkpt>
      <trkpt lat="45.870939251035452" lon="7.937670014798641">
        <ele>1323.8699999999999</ele>
        <time>2017-01-29T15:54:17Z</time>
      </trkpt>
      <trkpt lat="45.870898850262165" lon="7.937709493562579">
        <ele>1322.9100000000001</ele>
        <time>2017-01-29T15:54:29Z</time>
      </trkpt>
      <trkpt lat="45.870726769790053" lon="7.937698345631361">
        <ele>1321.95</ele>
        <time>2017-01-29T15:54:40Z</time>
      </trkpt>
      <trkpt lat="45.870686369016767" lon="7.937729945406318">
        <ele>1320.03</ele>
        <time>2017-01-29T15:54:51Z</time>
      </trkpt>
      <trkpt lat="45.870597437024117" lon="7.937737824395299">
        <ele>1319.55</ele>
        <time>2017-01-29T15:54:56Z</time>
      </trkpt>
      <trkpt lat="45.870579583570361" lon="7.937723323702812">
        <ele>1318.5899999999999</ele>
        <time>2017-01-29T15:55:00Z</time>
      </trkpt>
      <trkpt lat="45.870416052639484" lon="7.937704967334867">
        <ele>1318.0999999999999</ele>
        <time>2017-01-29T15:55:01Z</time>
      </trkpt>
      <trkpt lat="45.870359474793077" lon="7.937695747241378">
        <ele>1318.0999999999999</ele>
        <time>2017-01-29T15:55:02Z</time>
      </trkpt>
      <trkpt lat="45.870346734300256" lon="7.937729945406318">
        <ele>1318.0999999999999</ele>
        <time>2017-01-29T15:55:03Z</time>
      </trkpt>
      <trkpt lat="45.870346734300256" lon="7.937753666192293">
        <ele>1317.6199999999999</ele>
        <time>2017-01-29T15:55:04Z</time>
      </trkpt>
      <trkpt lat="45.870295604690909" lon="7.937773363664746">
        <ele>1317.6199999999999</ele>
        <time>2017-01-29T15:55:05Z</time>
      </trkpt>
      <trkpt lat="45.870255120098591" lon="7.937801023945212">
        <ele>1317.6199999999999</ele>
        <time>2017-01-29T15:55:06Z</time>
      </trkpt>
      <trkpt lat="45.870217652991414" lon="7.937738494947553">
        <ele>1315.22</ele>
        <time>2017-01-29T15:55:16Z</time>
      </trkpt>
      <trkpt lat="45.870167026296258" lon="7.937834383919835">
        <ele>1313.78</ele>
        <time>2017-01-29T15:55:27Z</time>
      </trkpt>
      <trkpt lat="45.870086140930653" lon="7.937894063070417">
        <ele>1312.3399999999999</ele>
        <time>2017-01-29T15:55:38Z</time>
      </trkpt>
      <trkpt lat="45.869928980246186" lon="7.937916945666075">
        <ele>1310.9000000000001</ele>
        <time>2017-01-29T15:55:50Z</time>
      </trkpt>
      <trkpt lat="45.869759162887931" lon="7.937907641753554">
        <ele>1308.49</ele>
        <time>2017-01-29T15:56:01Z</time>
      </trkpt>
      <trkpt lat="45.869617508724332" lon="7.937881322577596">
        <ele>1306.5699999999999</ele>
        <time>2017-01-29T15:56:11Z</time>
      </trkpt>
      <trkpt lat="45.869552465155721" lon="7.937874868512154">
        <ele>1305.6099999999999</ele>
        <time>2017-01-29T15:56:16Z</time>
      </trkpt>
      <trkpt lat="45.869478872045875" lon="7.937859278172255">
        <ele>1305.1300000000001</ele>
        <time>2017-01-29T15:56:22Z</time>
      </trkpt>
      <trkpt lat="45.869327243417501" lon="7.937785936519504">
        <ele>1303.2</ele>
        <time>2017-01-29T15:56:35Z</time>
      </trkpt>
      <trkpt lat="45.869164802134037" lon="7.937654508277774">
        <ele>1302.24</ele>
        <time>2017-01-29T15:56:49Z</time>
      </trkpt>
      <trkpt lat="45.869050053879619" lon="7.93758150190115">
        <ele>1300.3199999999999</ele>
        <time>2017-01-29T15:57:02Z</time>
      </trkpt>
      <trkpt lat="45.868990793824196" lon="7.937604216858745">
        <ele>1298.8800000000001</ele>
        <time>2017-01-29T15:57:09Z</time>
      </trkpt>
      <trkpt lat="45.868920218199492" lon="7.937687700614333">
        <ele>1297.4400000000001</ele>
        <time>2017-01-29T15:57:16Z</time>
      </trkpt>
      <trkpt lat="45.868925750255585" lon="7.937833964824677">
        <ele>1295.51</ele>
        <time>2017-01-29T15:57:28Z</time>
      </trkpt>
      <trkpt lat="45.868932036682963" lon="7.937898505479097">
        <ele>1293.1099999999999</ele>
        <time>2017-01-29T15:57:37Z</time>
      </trkpt>
      <trkpt lat="45.86885659955442" lon="7.937953742220998">
        <ele>1293.1099999999999</ele>
        <time>2017-01-29T15:57:38Z</time>
      </trkpt>
      <trkpt lat="45.868801865726709" lon="7.937985341995955">
        <ele>1292.6300000000001</ele>
        <time>2017-01-29T15:57:47Z</time>
      </trkpt>
      <trkpt lat="45.868855761364102" lon="7.938024820759893">
        <ele>1292.6300000000001</ele>
        <time>2017-01-29T15:57:53Z</time>
      </trkpt>
      <trkpt lat="45.868694074451923" lon="7.938143340870738">
        <ele>1292.6300000000001</ele>
        <time>2017-01-29T15:57:57Z</time>
      </trkpt>
      <trkpt lat="45.868674209341407" lon="7.938064383342862">
        <ele>1292.6300000000001</ele>
        <time>2017-01-29T15:57:58Z</time>
      </trkpt>
      <trkpt lat="45.86853850632906" lon="7.937951814383268">
        <ele>1292.6300000000001</ele>
        <time>2017-01-29T15:58:07Z</time>
      </trkpt>
      <trkpt lat="45.868522496894002" lon="7.937938319519162">
        <ele>1292.6300000000001</ele>
        <time>2017-01-29T15:58:08Z</time>
      </trkpt>
      <trkpt lat="45.868493914604187" lon="7.937923148274422">
        <ele>1292.1500000000001</ele>
        <time>2017-01-29T15:58:10Z</time>
      </trkpt>
      <trkpt lat="45.868432223796844" lon="7.937879730015993">
        <ele>1292.6300000000001</ele>
        <time>2017-01-29T15:58:15Z</time>
      </trkpt>
      <trkpt lat="45.868302807211876" lon="7.93783069588244">
        <ele>1292.1500000000001</ele>
        <time>2017-01-29T15:58:26Z</time>
      </trkpt>
      <trkpt lat="45.868305070325732" lon="7.937893811613321">
        <ele>1291.6700000000001</ele>
        <time>2017-01-29T15:58:31Z</time>
      </trkpt>
      <trkpt lat="45.868287216871977" lon="7.937938068062067">
        <ele>1291.1900000000001</ele>
        <time>2017-01-29T15:58:34Z</time>
      </trkpt>
      <trkpt lat="45.868249665945768" lon="7.937976038083434">
        <ele>1290.71</ele>
        <time>2017-01-29T15:58:38Z</time>
      </trkpt>
      <trkpt lat="45.868140198290348" lon="7.9380261618644">
        <ele>1289.75</ele>
        <time>2017-01-29T15:58:47Z</time>
      </trkpt>
      <trkpt lat="45.868041459470987" lon="7.938050888478756">
        <ele>1288.78</ele>
        <time>2017-01-29T15:58:56Z</time>
      </trkpt>
      <trkpt lat="45.867845574393868" lon="7.937939828261733">
        <ele>1287.3399999999999</ele>
        <time>2017-01-29T15:59:09Z</time>
      </trkpt>
      <trkpt lat="45.867627561092377" lon="7.937749475240707">
        <ele>1286.8599999999999</ele>
        <time>2017-01-29T15:59:21Z</time>
      </trkpt>
      <trkpt lat="45.867488337680697" lon="7.937596589326859">
        <ele>1285.4200000000001</ele>
        <time>2017-01-29T15:59:33Z</time>
      </trkpt>
      <trkpt lat="45.867328494787216" lon="7.937411516904831">
        <ele>1282.54</ele>
        <time>2017-01-29T15:59:48Z</time>
      </trkpt>
      <trkpt lat="45.867221709340811" lon="7.937283692881465">
        <ele>1280.6099999999999</ele>
        <time>2017-01-29T15:59:59Z</time>
      </trkpt>
      <trkpt lat="45.867141578346491" lon="7.937167603522539">
        <ele>1278.6900000000001</ele>
        <time>2017-01-29T16:00:09Z</time>
      </trkpt>
      <trkpt lat="45.867067901417613" lon="7.937054866924882">
        <ele>1277.25</ele>
        <time>2017-01-29T16:00:18Z</time>
      </trkpt>
      <trkpt lat="45.867028255015612" lon="7.937012538313866">
        <ele>1276.77</ele>
        <time>2017-01-29T16:00:22Z</time>
      </trkpt>
      <trkpt lat="45.866937814280391" lon="7.936923354864121">
        <ele>1275.8099999999999</ele>
        <time>2017-01-29T16:00:32Z</time>
      </trkpt>
      <trkpt lat="45.866781324148178" lon="7.93681581504643">
        <ele>1274.3599999999999</ele>
        <time>2017-01-29T16:00:45Z</time>
      </trkpt>
      <trkpt lat="45.866687782108784" lon="7.936762841418386">
        <ele>1273.4000000000001</ele>
        <time>2017-01-29T16:00:54Z</time>
      </trkpt>
      <trkpt lat="45.866608992218971" lon="7.936732750386">
        <ele>1272.9200000000001</ele>
        <time>2017-01-29T16:01:01Z</time>
      </trkpt>
      <trkpt lat="45.866583259776235" lon="7.93673325330019">
        <ele>1272.9200000000001</ele>
        <time>2017-01-29T16:01:03Z</time>
      </trkpt>
      <trkpt lat="45.866429954767227" lon="7.936686314642429">
        <ele>1271.96</ele>
        <time>2017-01-29T16:01:16Z</time>
      </trkpt>
      <trkpt lat="45.866279080510139" lon="7.936648679897189">
        <ele>1271</ele>
        <time>2017-01-29T16:01:29Z</time>
      </trkpt>
      <trkpt lat="45.86616575717926" lon="7.936638202518225">
        <ele>1270.04</ele>
        <time>2017-01-29T16:01:38Z</time>
      </trkpt>
      <trkpt lat="45.866051344200969" lon="7.936669299378991">
        <ele>1269.5599999999999</ele>
        <time>2017-01-29T16:01:49Z</time>
      </trkpt>
      <trkpt lat="45.865927962586284" lon="7.936690505594015">
        <ele>1269.0799999999999</ele>
        <time>2017-01-29T16:01:59Z</time>
      </trkpt>
      <trkpt lat="45.86583836004138" lon="7.936711460351944">
        <ele>1269.0799999999999</ele>
        <time>2017-01-29T16:02:08Z</time>
      </trkpt>
      <trkpt lat="45.865826709195971" lon="7.936695953831077">
        <ele>1269.0799999999999</ele>
        <time>2017-01-29T16:02:25Z</time>
      </trkpt>
      <trkpt lat="45.865760156884789" lon="7.93672788888216">
        <ele>1268.5999999999999</ele>
        <time>2017-01-29T16:02:35Z</time>
      </trkpt>
      <trkpt lat="45.865716068074107" lon="7.936783209443092">
        <ele>1268.5999999999999</ele>
        <time>2017-01-29T16:02:43Z</time>
      </trkpt>
      <trkpt lat="45.865696705877781" lon="7.936802906915546">
        <ele>1268.1199999999999</ele>
        <time>2017-01-29T16:02:46Z</time>
      </trkpt>
      <trkpt lat="45.865673404186964" lon="7.936809780076146">
        <ele>1268.5999999999999</ele>
        <time>2017-01-29T16:02:57Z</time>
      </trkpt>
      <trkpt lat="45.865683294832706" lon="7.936807936057448">
        <ele>1268.1199999999999</ele>
        <time>2017-01-29T16:03:08Z</time>
      </trkpt>
      <trkpt lat="45.865679271519184" lon="7.93680164963007">
        <ele>1268.1199999999999</ele>
        <time>2017-01-29T16:03:19Z</time>
      </trkpt>
      <trkpt lat="45.865639457479119" lon="7.936801146715879">
        <ele>1267.1600000000001</ele>
        <time>2017-01-29T16:03:30Z</time>
      </trkpt>
      <trkpt lat="45.865686060860753" lon="7.936870884150267">
        <ele>1267.1600000000001</ele>
        <time>2017-01-29T16:03:43Z</time>
      </trkpt>
      <trkpt lat="45.865656808018684" lon="7.936867028474808">
        <ele>1266.6700000000001</ele>
        <time>2017-01-29T16:04:00Z</time>
      </trkpt>
      <trkpt lat="45.865657730028033" lon="7.936848839744926">
        <ele>1267.1600000000001</ele>
        <time>2017-01-29T16:04:20Z</time>
      </trkpt>
      <trkpt lat="45.865618083626032" lon="7.936824699863792">
        <ele>1267.1600000000001</ele>
        <time>2017-01-29T16:04:38Z</time>
      </trkpt>
      <trkpt lat="45.865667788311839" lon="7.936856215819717">
        <ele>1267.1600000000001</ele>
        <time>2017-01-29T16:04:58Z</time>
      </trkpt>
      <trkpt lat="45.86566443555057" lon="7.936843391507864">
        <ele>1266.6700000000001</ele>
        <time>2017-01-29T16:05:19Z</time>
      </trkpt>
      <trkpt lat="45.865636691451073" lon="7.936812378466129">
        <ele>1267.1600000000001</ele>
        <time>2017-01-29T16:05:45Z</time>
      </trkpt>
      <trkpt lat="45.865663597360253" lon="7.936811288818717">
        <ele>1267.6400000000001</ele>
        <time>2017-01-29T16:05:59Z</time>
      </trkpt>
      <trkpt lat="45.865648007020354" lon="7.936794189736247">
        <ele>1267.6400000000001</ele>
        <time>2017-01-29T16:06:10Z</time>
      </trkpt>
      <trkpt lat="45.86565169505775" lon="7.936782706528902">
        <ele>1267.6400000000001</ele>
        <time>2017-01-29T16:06:25Z</time>
      </trkpt>
    </trkseg>
  </trk>

</gpx>